<?xml version="1.0" encoding="utf-8"?>
<gpx xmlns:xsi="http://www.w3.org/2001/XMLSchema-instance" xmlns:xsd="http://www.w3.org/2001/XMLSchema" version="1.1" creator="Shapelink.com" xmlns="http://www.topografix.com/GPX/1/1" xmlns:gpxtpx="http://www.garmin.com/xmlschemas/TrackPointExtension/v1">
  <metadata>
    <name>Löpning 10.55 km, 2017-12-12</name>
    <desc></desc>
    <author><name>Bengt-Åke Forslund</name></author> 
    <time>2017-12-12T17:24:08Z</time>
  </metadata>
  <trk>
    <name>Löpning 10.55 km, 2017-12-12</name>
    <trkseg>
      <trkpt lat="62.636108763592" lon="17.968524787308">
        <ele>55.8</ele>
        <time>2017-12-12T17:24:08Z</time>
      </trkpt>
      <trkpt lat="62.636112032533" lon="17.968527301878">
        <ele>56</ele>
        <time>2017-12-12T17:24:09Z</time>
      </trkpt>
      <trkpt lat="62.636120498252" lon="17.968525290222">
        <ele>56</ele>
        <time>2017-12-12T17:24:10Z</time>
      </trkpt>
      <trkpt lat="62.636125359754" lon="17.968524954946">
        <ele>56</ele>
        <time>2017-12-12T17:24:11Z</time>
      </trkpt>
      <trkpt lat="62.636144554305" lon="17.968534594131">
        <ele>56.2</ele>
        <time>2017-12-12T17:24:12Z</time>
      </trkpt>
      <trkpt lat="62.636157043336" lon="17.968533755941">
        <ele>56.2</ele>
        <time>2017-12-12T17:24:13Z</time>
      </trkpt>
      <trkpt lat="62.636181267027" lon="17.968545909696">
        <ele>56.4</ele>
        <time>2017-12-12T17:24:14Z</time>
      </trkpt>
      <trkpt lat="62.636211777143" lon="17.968553369587">
        <ele>56.6</ele>
        <time>2017-12-12T17:24:15Z</time>
      </trkpt>
      <trkpt lat="62.636237593395" lon="17.968576335993">
        <ele>56.2</ele>
        <time>2017-12-12T17:24:16Z</time>
      </trkpt>
      <trkpt lat="62.636262068543" lon="17.968583879703">
        <ele>56</ele>
        <time>2017-12-12T17:24:17Z</time>
      </trkpt>
      <trkpt lat="62.636278916162" lon="17.968593686526">
        <ele>56.2</ele>
        <time>2017-12-12T17:24:18Z</time>
      </trkpt>
      <trkpt lat="62.636305654423" lon="17.968623945185">
        <ele>56</ele>
        <time>2017-12-12T17:24:19Z</time>
      </trkpt>
      <trkpt lat="62.636327279725" lon="17.968653784749">
        <ele>55.8</ele>
        <time>2017-12-12T17:24:20Z</time>
      </trkpt>
      <trkpt lat="62.636344965534" lon="17.968679349544">
        <ele>56</ele>
        <time>2017-12-12T17:24:21Z</time>
      </trkpt>
      <trkpt lat="62.63636877013" lon="17.968718828293">
        <ele>56</ele>
        <time>2017-12-12T17:24:22Z</time>
      </trkpt>
      <trkpt lat="62.636386455939" lon="17.968745482735">
        <ele>56</ele>
        <time>2017-12-12T17:24:23Z</time>
      </trkpt>
      <trkpt lat="62.63640397411" lon="17.96879116409">
        <ele>56</ele>
        <time>2017-12-12T17:24:24Z</time>
      </trkpt>
      <trkpt lat="62.636419648263" lon="17.968835420522">
        <ele>55.8</ele>
        <time>2017-12-12T17:24:25Z</time>
      </trkpt>
      <trkpt lat="62.636432221113" lon="17.968858638385">
        <ele>56</ele>
        <time>2017-12-12T17:24:26Z</time>
      </trkpt>
      <trkpt lat="62.636452924406" lon="17.968910522346">
        <ele>55.8</ele>
        <time>2017-12-12T17:24:27Z</time>
      </trkpt>
      <trkpt lat="62.636464659066" lon="17.968929046345">
        <ele>55.8</ele>
        <time>2017-12-12T17:24:28Z</time>
      </trkpt>
      <trkpt lat="62.636484105074" lon="17.968983361057">
        <ele>55.8</ele>
        <time>2017-12-12T17:24:29Z</time>
      </trkpt>
      <trkpt lat="62.636495672096" lon="17.969024264729">
        <ele>55.6</ele>
        <time>2017-12-12T17:24:30Z</time>
      </trkpt>
      <trkpt lat="62.636506568566" lon="17.969062067098">
        <ele>55.6</ele>
        <time>2017-12-12T17:24:31Z</time>
      </trkpt>
      <trkpt lat="62.63651964433" lon="17.969103389865">
        <ele>55.6</ele>
        <time>2017-12-12T17:24:32Z</time>
      </trkpt>
      <trkpt lat="62.63653305537" lon="17.969129289936">
        <ele>55.6</ele>
        <time>2017-12-12T17:24:33Z</time>
      </trkpt>
      <trkpt lat="62.636549735351" lon="17.969189891073">
        <ele>55.6</ele>
        <time>2017-12-12T17:24:34Z</time>
      </trkpt>
      <trkpt lat="62.636563900762" lon="17.969241020663">
        <ele>55.8</ele>
        <time>2017-12-12T17:24:35Z</time>
      </trkpt>
      <trkpt lat="62.636574378137" lon="17.969274045349">
        <ele>56</ele>
        <time>2017-12-12T17:24:36Z</time>
      </trkpt>
      <trkpt lat="62.636587956815" lon="17.969336741961">
        <ele>56</ele>
        <time>2017-12-12T17:24:37Z</time>
      </trkpt>
      <trkpt lat="62.636603798606" lon="17.96937873528">
        <ele>56</ele>
        <time>2017-12-12T17:24:38Z</time>
      </trkpt>
      <trkpt lat="62.636614024524" lon="17.969419303676">
        <ele>56</ele>
        <time>2017-12-12T17:24:39Z</time>
      </trkpt>
      <trkpt lat="62.636624837175" lon="17.96947261256">
        <ele>55.8</ele>
        <time>2017-12-12T17:24:40Z</time>
      </trkpt>
      <trkpt lat="62.63664202007" lon="17.969525837625">
        <ele>55.8</ele>
        <time>2017-12-12T17:24:41Z</time>
      </trkpt>
      <trkpt lat="62.636654676739" lon="17.96957068079">
        <ele>55.8</ele>
        <time>2017-12-12T17:24:42Z</time>
      </trkpt>
      <trkpt lat="62.636664567381" lon="17.969628264443">
        <ele>55.8</ele>
        <time>2017-12-12T17:24:43Z</time>
      </trkpt>
      <trkpt lat="62.636675882946" lon="17.969675705997">
        <ele>55.8</ele>
        <time>2017-12-12T17:24:44Z</time>
      </trkpt>
      <trkpt lat="62.636687030873" lon="17.969711245253">
        <ele>56</ele>
        <time>2017-12-12T17:24:45Z</time>
      </trkpt>
      <trkpt lat="62.636695915687" lon="17.969758854445">
        <ele>56</ele>
        <time>2017-12-12T17:24:46Z</time>
      </trkpt>
      <trkpt lat="62.636712679487" lon="17.969805960723">
        <ele>56</ele>
        <time>2017-12-12T17:24:47Z</time>
      </trkpt>
      <trkpt lat="62.636726593441" lon="17.969865807489">
        <ele>56.2</ele>
        <time>2017-12-12T17:24:48Z</time>
      </trkpt>
      <trkpt lat="62.636739501567" lon="17.969906292066">
        <ele>56.2</ele>
        <time>2017-12-12T17:24:49Z</time>
      </trkpt>
      <trkpt lat="62.636758109385" lon="17.969962031701">
        <ele>56.2</ele>
        <time>2017-12-12T17:24:50Z</time>
      </trkpt>
      <trkpt lat="62.636774621728" lon="17.969989189057">
        <ele>56.2</ele>
        <time>2017-12-12T17:24:51Z</time>
      </trkpt>
      <trkpt lat="62.636793061908" lon="17.97003671443">
        <ele>56.4</ele>
        <time>2017-12-12T17:24:52Z</time>
      </trkpt>
      <trkpt lat="62.636805131844" lon="17.970054400239">
        <ele>56.4</ele>
        <time>2017-12-12T17:24:53Z</time>
      </trkpt>
      <trkpt lat="62.636827930612" lon="17.970100249232">
        <ele>56.4</ele>
        <time>2017-12-12T17:24:54Z</time>
      </trkpt>
      <trkpt lat="62.636851651389" lon="17.970132771004">
        <ele>56.6</ele>
        <time>2017-12-12T17:24:55Z</time>
      </trkpt>
      <trkpt lat="62.636875120709" lon="17.970156827057">
        <ele>56.6</ele>
        <time>2017-12-12T17:24:56Z</time>
      </trkpt>
      <trkpt lat="62.636897919477" lon="17.970182894766">
        <ele>56.8</ele>
        <time>2017-12-12T17:24:57Z</time>
      </trkpt>
      <trkpt lat="62.636919209503" lon="17.970202759869">
        <ele>56.8</ele>
        <time>2017-12-12T17:24:58Z</time>
      </trkpt>
      <trkpt lat="62.63694544485" lon="17.970219188393">
        <ele>57</ele>
        <time>2017-12-12T17:24:59Z</time>
      </trkpt>
      <trkpt lat="62.636964387944" lon="17.970218853117">
        <ele>57.2</ele>
        <time>2017-12-12T17:25:00Z</time>
      </trkpt>
      <trkpt lat="62.636987438169" lon="17.970223211705">
        <ele>57.2</ele>
        <time>2017-12-12T17:25:01Z</time>
      </trkpt>
      <trkpt lat="62.637017110095" lon="17.970212566692">
        <ele>57</ele>
        <time>2017-12-12T17:25:02Z</time>
      </trkpt>
      <trkpt lat="62.637042591071" lon="17.970207956647">
        <ele>57</ele>
        <time>2017-12-12T17:25:03Z</time>
      </trkpt>
      <trkpt lat="62.637077208318" lon="17.970203765697">
        <ele>57</ele>
        <time>2017-12-12T17:25:04Z</time>
      </trkpt>
      <trkpt lat="62.637099587991" lon="17.970187840087">
        <ele>56.8</ele>
        <time>2017-12-12T17:25:05Z</time>
      </trkpt>
      <trkpt lat="62.637136049256" lon="17.970177697988">
        <ele>56.6</ele>
        <time>2017-12-12T17:25:06Z</time>
      </trkpt>
      <trkpt lat="62.637162284603" lon="17.970155150677">
        <ele>56.6</ele>
        <time>2017-12-12T17:25:07Z</time>
      </trkpt>
      <trkpt lat="62.637194974013" lon="17.970136123764">
        <ele>56.6</ele>
        <time>2017-12-12T17:25:08Z</time>
      </trkpt>
      <trkpt lat="62.637226825233" lon="17.970114079367">
        <ele>56.6</ele>
        <time>2017-12-12T17:25:09Z</time>
      </trkpt>
      <trkpt lat="62.637262113032" lon="17.970098237576">
        <ele>56.6</ele>
        <time>2017-12-12T17:25:10Z</time>
      </trkpt>
      <trkpt lat="62.637294299528" lon="17.970070577306">
        <ele>56.6</ele>
        <time>2017-12-12T17:25:11Z</time>
      </trkpt>
      <trkpt lat="62.63732095397" lon="17.970062865958">
        <ele>56.6</ele>
        <time>2017-12-12T17:25:12Z</time>
      </trkpt>
      <trkpt lat="62.637358840158" lon="17.970047275624">
        <ele>56.6</ele>
        <time>2017-12-12T17:25:13Z</time>
      </trkpt>
      <trkpt lat="62.637387925351" lon="17.970027410521">
        <ele>56.4</ele>
        <time>2017-12-12T17:25:14Z</time>
      </trkpt>
      <trkpt lat="62.637423548426" lon="17.970028081073">
        <ele>56</ele>
        <time>2017-12-12T17:25:15Z</time>
      </trkpt>
      <trkpt lat="62.637450789601" lon="17.970041324475">
        <ele>55.6</ele>
        <time>2017-12-12T17:25:16Z</time>
      </trkpt>
      <trkpt lat="62.637483730468" lon="17.970047024167">
        <ele>55.2</ele>
        <time>2017-12-12T17:25:17Z</time>
      </trkpt>
      <trkpt lat="62.63750619396" lon="17.970064123243">
        <ele>55</ele>
        <time>2017-12-12T17:25:18Z</time>
      </trkpt>
      <trkpt lat="62.637544163967" lon="17.970099243404">
        <ele>54.6</ele>
        <time>2017-12-12T17:25:19Z</time>
      </trkpt>
      <trkpt lat="62.637568471477" lon="17.970130843167">
        <ele>54.6</ele>
        <time>2017-12-12T17:25:20Z</time>
      </trkpt>
      <trkpt lat="62.637587666028" lon="17.970154647763">
        <ele>54.4</ele>
        <time>2017-12-12T17:25:21Z</time>
      </trkpt>
      <trkpt lat="62.637608201683" lon="17.970196054349">
        <ele>54.4</ele>
        <time>2017-12-12T17:25:22Z</time>
      </trkpt>
      <trkpt lat="62.637624630207" lon="17.970249447052">
        <ele>54.4</ele>
        <time>2017-12-12T17:25:23Z</time>
      </trkpt>
      <trkpt lat="62.637643070387" lon="17.97030158247">
        <ele>54.4</ele>
        <time>2017-12-12T17:25:24Z</time>
      </trkpt>
      <trkpt lat="62.637656062332" lon="17.970347096187">
        <ele>54.4</ele>
        <time>2017-12-12T17:25:25Z</time>
      </trkpt>
      <trkpt lat="62.63766964101" lon="17.970384647099">
        <ele>54.4</ele>
        <time>2017-12-12T17:25:26Z</time>
      </trkpt>
      <trkpt lat="62.63768389024" lon="17.970425802228">
        <ele>54.4</ele>
        <time>2017-12-12T17:25:27Z</time>
      </trkpt>
      <trkpt lat="62.637697804194" lon="17.970469136651">
        <ele>54.6</ele>
        <time>2017-12-12T17:25:28Z</time>
      </trkpt>
      <trkpt lat="62.637706772827" lon="17.970502915708">
        <ele>54.6</ele>
        <time>2017-12-12T17:25:29Z</time>
      </trkpt>
      <trkpt lat="62.637724290998" lon="17.970567623976">
        <ele>54.6</ele>
        <time>2017-12-12T17:25:30Z</time>
      </trkpt>
      <trkpt lat="62.637735606563" lon="17.970608527648">
        <ele>54.6</ele>
        <time>2017-12-12T17:25:31Z</time>
      </trkpt>
      <trkpt lat="62.637746670671" lon="17.970641133239">
        <ele>54.6</ele>
        <time>2017-12-12T17:25:32Z</time>
      </trkpt>
      <trkpt lat="62.637760081711" lon="17.970705170955">
        <ele>54.6</ele>
        <time>2017-12-12T17:25:33Z</time>
      </trkpt>
      <trkpt lat="62.637768631249" lon="17.97074498498">
        <ele>54.4</ele>
        <time>2017-12-12T17:25:34Z</time>
      </trkpt>
      <trkpt lat="62.637777432244" lon="17.970788487041">
        <ele>54.2</ele>
        <time>2017-12-12T17:25:35Z</time>
      </trkpt>
      <trkpt lat="62.637789418361" lon="17.970857386259">
        <ele>54.2</ele>
        <time>2017-12-12T17:25:36Z</time>
      </trkpt>
      <trkpt lat="62.637798386994" lon="17.970888818384">
        <ele>54.2</ele>
        <time>2017-12-12T17:25:37Z</time>
      </trkpt>
      <trkpt lat="62.637803919048" lon="17.970944055105">
        <ele>54</ele>
        <time>2017-12-12T17:25:38Z</time>
      </trkpt>
      <trkpt lat="62.637810959844" lon="17.971012451409">
        <ele>54</ele>
        <time>2017-12-12T17:25:39Z</time>
      </trkpt>
      <trkpt lat="62.637818755011" lon="17.971039608765">
        <ele>54.2</ele>
        <time>2017-12-12T17:25:40Z</time>
      </trkpt>
      <trkpt lat="62.637824370884" lon="17.971105909594">
        <ele>54.2</ele>
        <time>2017-12-12T17:25:41Z</time>
      </trkpt>
      <trkpt lat="62.637835351173" lon="17.971156117175">
        <ele>54.4</ele>
        <time>2017-12-12T17:25:42Z</time>
      </trkpt>
      <trkpt lat="62.63784146996" lon="17.9711959312">
        <ele>54.6</ele>
        <time>2017-12-12T17:25:43Z</time>
      </trkpt>
      <trkpt lat="62.637852450249" lon="17.971276481259">
        <ele>54.6</ele>
        <time>2017-12-12T17:25:44Z</time>
      </trkpt>
      <trkpt lat="62.637857898484" lon="17.971309254488">
        <ele>54.8</ele>
        <time>2017-12-12T17:25:45Z</time>
      </trkpt>
      <trkpt lat="62.637862005615" lon="17.971353930015">
        <ele>54.8</ele>
        <time>2017-12-12T17:25:46Z</time>
      </trkpt>
      <trkpt lat="62.637871477162" lon="17.971417129541">
        <ele>55</ele>
        <time>2017-12-12T17:25:47Z</time>
      </trkpt>
      <trkpt lat="62.637879691424" lon="17.971448561666">
        <ele>55</ele>
        <time>2017-12-12T17:25:48Z</time>
      </trkpt>
      <trkpt lat="62.637889414428" lon="17.971518131436">
        <ele>55.2</ele>
        <time>2017-12-12T17:25:49Z</time>
      </trkpt>
      <trkpt lat="62.637895617034" lon="17.971557694004">
        <ele>55.2</ele>
        <time>2017-12-12T17:25:50Z</time>
      </trkpt>
      <trkpt lat="62.637903076925" lon="17.971601028427">
        <ele>55.2</ele>
        <time>2017-12-12T17:25:51Z</time>
      </trkpt>
      <trkpt lat="62.637909950083" lon="17.971659869365">
        <ele>55.2</ele>
        <time>2017-12-12T17:25:52Z</time>
      </trkpt>
      <trkpt lat="62.637914476309" lon="17.971686775264">
        <ele>55.4</ele>
        <time>2017-12-12T17:25:53Z</time>
      </trkpt>
      <trkpt lat="62.637921684743" lon="17.971760368346">
        <ele>55.6</ele>
        <time>2017-12-12T17:25:54Z</time>
      </trkpt>
      <trkpt lat="62.637926043331" lon="17.971815269791">
        <ele>55.6</ele>
        <time>2017-12-12T17:25:55Z</time>
      </trkpt>
      <trkpt lat="62.637930988652" lon="17.971850809047">
        <ele>55.6</ele>
        <time>2017-12-12T17:25:56Z</time>
      </trkpt>
      <trkpt lat="62.63793283267" lon="17.971922139016">
        <ele>55.8</ele>
        <time>2017-12-12T17:25:57Z</time>
      </trkpt>
      <trkpt lat="62.637934844326" lon="17.971956337168">
        <ele>56</ele>
        <time>2017-12-12T17:25:58Z</time>
      </trkpt>
      <trkpt lat="62.637937442715" lon="17.971997073202">
        <ele>56</ele>
        <time>2017-12-12T17:25:59Z</time>
      </trkpt>
      <trkpt lat="62.637939705828" lon="17.972060608004">
        <ele>55.8</ele>
        <time>2017-12-12T17:26:00Z</time>
      </trkpt>
      <trkpt lat="62.637942807131" lon="17.97209027993">
        <ele>56</ele>
        <time>2017-12-12T17:26:01Z</time>
      </trkpt>
      <trkpt lat="62.637943980597" lon="17.972145935746">
        <ele>56</ele>
        <time>2017-12-12T17:26:02Z</time>
      </trkpt>
      <trkpt lat="62.637946076072" lon="17.972204692865">
        <ele>55.8</ele>
        <time>2017-12-12T17:26:03Z</time>
      </trkpt>
      <trkpt lat="62.637949009737" lon="17.972241237949">
        <ele>56</ele>
        <time>2017-12-12T17:26:04Z</time>
      </trkpt>
      <trkpt lat="62.637950518479" lon="17.972312567918">
        <ele>56</ele>
        <time>2017-12-12T17:26:05Z</time>
      </trkpt>
      <trkpt lat="62.637955966714" lon="17.972339809093">
        <ele>56</ele>
        <time>2017-12-12T17:26:06Z</time>
      </trkpt>
      <trkpt lat="62.637958900379" lon="17.972395213452">
        <ele>56</ele>
        <time>2017-12-12T17:26:07Z</time>
      </trkpt>
      <trkpt lat="62.637960325302" lon="17.972441649178">
        <ele>56</ele>
        <time>2017-12-12T17:26:08Z</time>
      </trkpt>
      <trkpt lat="62.63796133113" lon="17.972492359673">
        <ele>56.2</ele>
        <time>2017-12-12T17:26:09Z</time>
      </trkpt>
      <trkpt lat="62.63796468389" lon="17.972508285283">
        <ele>56.4</ele>
        <time>2017-12-12T17:26:10Z</time>
      </trkpt>
      <trkpt lat="62.637969126297" lon="17.972574586112">
        <ele>56.4</ele>
        <time>2017-12-12T17:26:11Z</time>
      </trkpt>
      <trkpt lat="62.63797390398" lon="17.972620770381">
        <ele>56.6</ele>
        <time>2017-12-12T17:26:12Z</time>
      </trkpt>
      <trkpt lat="62.637979938948" lon="17.972644994072">
        <ele>56.6</ele>
        <time>2017-12-12T17:26:13Z</time>
      </trkpt>
      <trkpt lat="62.637985806278" lon="17.972706517218">
        <ele>56.6</ele>
        <time>2017-12-12T17:26:14Z</time>
      </trkpt>
      <trkpt lat="62.637990500142" lon="17.972745241596">
        <ele>56.8</ele>
        <time>2017-12-12T17:26:15Z</time>
      </trkpt>
      <trkpt lat="62.637992511798" lon="17.972771225486">
        <ele>56.8</ele>
        <time>2017-12-12T17:26:16Z</time>
      </trkpt>
      <trkpt lat="62.637993685264" lon="17.9728304017">
        <ele>56.8</ele>
        <time>2017-12-12T17:26:17Z</time>
      </trkpt>
      <trkpt lat="62.63799653511" lon="17.972881363652">
        <ele>57</ele>
        <time>2017-12-12T17:26:18Z</time>
      </trkpt>
      <trkpt lat="62.638000977517" lon="17.972912963415">
        <ele>57</ele>
        <time>2017-12-12T17:26:19Z</time>
      </trkpt>
      <trkpt lat="62.638002067164" lon="17.972963590091">
        <ele>57.2</ele>
        <time>2017-12-12T17:26:20Z</time>
      </trkpt>
      <trkpt lat="62.638003324449" lon="17.973019748821">
        <ele>57.2</ele>
        <time>2017-12-12T17:26:21Z</time>
      </trkpt>
      <trkpt lat="62.6380057552" lon="17.973053695516">
        <ele>57.2</ele>
        <time>2017-12-12T17:26:22Z</time>
      </trkpt>
      <trkpt lat="62.63800826977" lon="17.973092671351">
        <ele>57.2</ele>
        <time>2017-12-12T17:26:23Z</time>
      </trkpt>
      <trkpt lat="62.638009443236" lon="17.97314723752">
        <ele>57.2</ele>
        <time>2017-12-12T17:26:24Z</time>
      </trkpt>
      <trkpt lat="62.638010951978" lon="17.973173724324">
        <ele>57.2</ele>
        <time>2017-12-12T17:26:25Z</time>
      </trkpt>
      <trkpt lat="62.63801329891" lon="17.973217226385">
        <ele>57.4</ele>
        <time>2017-12-12T17:26:26Z</time>
      </trkpt>
      <trkpt lat="62.638011538711" lon="17.973266679595">
        <ele>57.6</ele>
        <time>2017-12-12T17:26:27Z</time>
      </trkpt>
      <trkpt lat="62.638010281426" lon="17.973306158344">
        <ele>57.6</ele>
        <time>2017-12-12T17:26:28Z</time>
      </trkpt>
      <trkpt lat="62.638011454892" lon="17.973344631265">
        <ele>57.6</ele>
        <time>2017-12-12T17:26:29Z</time>
      </trkpt>
      <trkpt lat="62.638010868159" lon="17.973374470829">
        <ele>57.8</ele>
        <time>2017-12-12T17:26:30Z</time>
      </trkpt>
      <trkpt lat="62.63801078434" lon="17.973405651497">
        <ele>57.8</ele>
        <time>2017-12-12T17:26:31Z</time>
      </trkpt>
      <trkpt lat="62.638011706349" lon="17.973455523802">
        <ele>58</ele>
        <time>2017-12-12T17:26:32Z</time>
      </trkpt>
      <trkpt lat="62.638012628358" lon="17.973485195728">
        <ele>58</ele>
        <time>2017-12-12T17:26:33Z</time>
      </trkpt>
      <trkpt lat="62.638010113788" lon="17.973528027237">
        <ele>58</ele>
        <time>2017-12-12T17:26:34Z</time>
      </trkpt>
      <trkpt lat="62.638006928666" lon="17.973585359433">
        <ele>58.2</ele>
        <time>2017-12-12T17:26:35Z</time>
      </trkpt>
      <trkpt lat="62.638007850675" lon="17.973615534273">
        <ele>58.4</ele>
        <time>2017-12-12T17:26:36Z</time>
      </trkpt>
      <trkpt lat="62.638006006657" lon="17.973685439319">
        <ele>58.6</ele>
        <time>2017-12-12T17:26:37Z</time>
      </trkpt>
      <trkpt lat="62.638006258114" lon="17.973728606104">
        <ele>58.8</ele>
        <time>2017-12-12T17:26:38Z</time>
      </trkpt>
      <trkpt lat="62.638004497915" lon="17.97377336545">
        <ele>58.8</ele>
        <time>2017-12-12T17:26:39Z</time>
      </trkpt>
      <trkpt lat="62.638003492087" lon="17.973841845573">
        <ele>59</ele>
        <time>2017-12-12T17:26:40Z</time>
      </trkpt>
      <trkpt lat="62.638005671381" lon="17.973874870259">
        <ele>59.2</ele>
        <time>2017-12-12T17:26:41Z</time>
      </trkpt>
      <trkpt lat="62.638007180123" lon="17.973941757821">
        <ele>59.2</ele>
        <time>2017-12-12T17:26:42Z</time>
      </trkpt>
      <trkpt lat="62.638010532883" lon="17.97399129485">
        <ele>59.2</ele>
        <time>2017-12-12T17:26:43Z</time>
      </trkpt>
      <trkpt lat="62.638016064937" lon="17.974031360332">
        <ele>59.2</ele>
        <time>2017-12-12T17:26:44Z</time>
      </trkpt>
      <trkpt lat="62.638020507344" lon="17.974099169903">
        <ele>59.2</ele>
        <time>2017-12-12T17:26:45Z</time>
      </trkpt>
      <trkpt lat="62.638024446837" lon="17.974131524037">
        <ele>59.2</ele>
        <time>2017-12-12T17:26:46Z</time>
      </trkpt>
      <trkpt lat="62.638027296683" lon="17.974199249789">
        <ele>59.2</ele>
        <time>2017-12-12T17:26:47Z</time>
      </trkpt>
      <trkpt lat="62.638031822909" lon="17.974249373551">
        <ele>59.2</ele>
        <time>2017-12-12T17:26:48Z</time>
      </trkpt>
      <trkpt lat="62.638038025515" lon="17.97429052868">
        <ele>59.4</ele>
        <time>2017-12-12T17:26:49Z</time>
      </trkpt>
      <trkpt lat="62.638043892845" lon="17.974362445382">
        <ele>59.4</ele>
        <time>2017-12-12T17:26:50Z</time>
      </trkpt>
      <trkpt lat="62.638045736863" lon="17.974395637706">
        <ele>59.4</ele>
        <time>2017-12-12T17:26:51Z</time>
      </trkpt>
      <trkpt lat="62.638046994148" lon="17.974461351802">
        <ele>59.2</ele>
        <time>2017-12-12T17:26:52Z</time>
      </trkpt>
      <trkpt lat="62.638049508718" lon="17.97449672342">
        <ele>59.2</ele>
        <time>2017-12-12T17:26:53Z</time>
      </trkpt>
      <trkpt lat="62.638048586709" lon="17.97456629319">
        <ele>59.2</ele>
        <time>2017-12-12T17:26:54Z</time>
      </trkpt>
      <trkpt lat="62.638046239777" lon="17.974611471631">
        <ele>59.2</ele>
        <time>2017-12-12T17:26:55Z</time>
      </trkpt>
      <trkpt lat="62.638036432954" lon="17.974678694469">
        <ele>59.2</ele>
        <time>2017-12-12T17:26:56Z</time>
      </trkpt>
      <trkpt lat="62.638028134873" lon="17.974729404964">
        <ele>59.2</ele>
        <time>2017-12-12T17:26:57Z</time>
      </trkpt>
      <trkpt lat="62.638019669154" lon="17.974769554265">
        <ele>59.2</ele>
        <time>2017-12-12T17:26:58Z</time>
      </trkpt>
      <trkpt lat="62.638004581734" lon="17.974823449882">
        <ele>59.2</ele>
        <time>2017-12-12T17:26:59Z</time>
      </trkpt>
      <trkpt lat="62.63799653511" lon="17.974854295274">
        <ele>59.2</ele>
        <time>2017-12-12T17:27:00Z</time>
      </trkpt>
      <trkpt lat="62.637977005283" lon="17.974898551706">
        <ele>59.2</ele>
        <time>2017-12-12T17:27:01Z</time>
      </trkpt>
      <trkpt lat="62.637962756053" lon="17.974936689351">
        <ele>59.4</ele>
        <time>2017-12-12T17:27:02Z</time>
      </trkpt>
      <trkpt lat="62.637948423004" lon="17.9749677862">
        <ele>59.4</ele>
        <time>2017-12-12T17:27:03Z</time>
      </trkpt>
      <trkpt lat="62.637937694172" lon="17.974998380135">
        <ele>59.6</ele>
        <time>2017-12-12T17:27:04Z</time>
      </trkpt>
      <trkpt lat="62.637920511277" lon="17.975037439789">
        <ele>59.8</ele>
        <time>2017-12-12T17:27:05Z</time>
      </trkpt>
      <trkpt lat="62.637903915115" lon="17.97507088357">
        <ele>60</ele>
        <time>2017-12-12T17:27:06Z</time>
      </trkpt>
      <trkpt lat="62.637889833523" lon="17.975105333179">
        <ele>60</ele>
        <time>2017-12-12T17:27:07Z</time>
      </trkpt>
      <trkpt lat="62.637879272329" lon="17.975132239078">
        <ele>60.2</ele>
        <time>2017-12-12T17:27:08Z</time>
      </trkpt>
      <trkpt lat="62.637866699479" lon="17.975161575728">
        <ele>60.2</ele>
        <time>2017-12-12T17:27:09Z</time>
      </trkpt>
      <trkpt lat="62.637853791353" lon="17.975195522423">
        <ele>60.4</ele>
        <time>2017-12-12T17:27:10Z</time>
      </trkpt>
      <trkpt lat="62.637835686449" lon="17.975230055851">
        <ele>60.4</ele>
        <time>2017-12-12T17:27:11Z</time>
      </trkpt>
      <trkpt lat="62.637818922649" lon="17.97525779994">
        <ele>60.6</ele>
        <time>2017-12-12T17:27:12Z</time>
      </trkpt>
      <trkpt lat="62.637807690903" lon="17.975282023631">
        <ele>60.8</ele>
        <time>2017-12-12T17:27:13Z</time>
      </trkpt>
      <trkpt lat="62.637795034234" lon="17.975305157675">
        <ele>60.8</ele>
        <time>2017-12-12T17:27:14Z</time>
      </trkpt>
      <trkpt lat="62.637779527719" lon="17.975339020551">
        <ele>61</ele>
        <time>2017-12-12T17:27:15Z</time>
      </trkpt>
      <trkpt lat="62.637761674272" lon="17.975364417708">
        <ele>61</ele>
        <time>2017-12-12T17:27:16Z</time>
      </trkpt>
      <trkpt lat="62.637749688155" lon="17.975385037182">
        <ele>61.2</ele>
        <time>2017-12-12T17:27:17Z</time>
      </trkpt>
      <trkpt lat="62.637734600735" lon="17.975413032728">
        <ele>61.4</ele>
        <time>2017-12-12T17:27:18Z</time>
      </trkpt>
      <trkpt lat="62.637719680953" lon="17.975433736021">
        <ele>61.4</ele>
        <time>2017-12-12T17:27:19Z</time>
      </trkpt>
      <trkpt lat="62.637704090619" lon="17.975449913088">
        <ele>61.4</ele>
        <time>2017-12-12T17:27:20Z</time>
      </trkpt>
      <trkpt lat="62.637689422294" lon="17.975473130951">
        <ele>61.6</ele>
        <time>2017-12-12T17:27:21Z</time>
      </trkpt>
      <trkpt lat="62.637674837788" lon="17.975489559475">
        <ele>61.8</ele>
        <time>2017-12-12T17:27:22Z</time>
      </trkpt>
      <trkpt lat="62.637660001825" lon="17.97550087504">
        <ele>62</ele>
        <time>2017-12-12T17:27:23Z</time>
      </trkpt>
      <trkpt lat="62.637642232197" lon="17.975516716831">
        <ele>62.4</ele>
        <time>2017-12-12T17:27:24Z</time>
      </trkpt>
      <trkpt lat="62.637623121465" lon="17.97553188807">
        <ele>62.6</ele>
        <time>2017-12-12T17:27:25Z</time>
      </trkpt>
      <trkpt lat="62.63761012952" lon="17.975542113988">
        <ele>63.2</ele>
        <time>2017-12-12T17:27:26Z</time>
      </trkpt>
      <trkpt lat="62.637589677684" lon="17.975552172268">
        <ele>63.4</ele>
        <time>2017-12-12T17:27:27Z</time>
      </trkpt>
      <trkpt lat="62.637565873088" lon="17.975570360991">
        <ele>63.6</ele>
        <time>2017-12-12T17:27:28Z</time>
      </trkpt>
      <trkpt lat="62.637553384057" lon="17.975583101479">
        <ele>63.6</ele>
        <time>2017-12-12T17:27:29Z</time>
      </trkpt>
      <trkpt lat="62.63753553061" lon="17.975590142275">
        <ele>63.6</ele>
        <time>2017-12-12T17:27:30Z</time>
      </trkpt>
      <trkpt lat="62.637519856457" lon="17.975596680157">
        <ele>63.6</ele>
        <time>2017-12-12T17:27:31Z</time>
      </trkpt>
      <trkpt lat="62.637505774865" lon="17.975598691813">
        <ele>63.6</ele>
        <time>2017-12-12T17:27:32Z</time>
      </trkpt>
      <trkpt lat="62.637489933074" lon="17.975611599939">
        <ele>63.6</ele>
        <time>2017-12-12T17:27:33Z</time>
      </trkpt>
      <trkpt lat="62.637470822342" lon="17.97561738345">
        <ele>63.8</ele>
        <time>2017-12-12T17:27:34Z</time>
      </trkpt>
      <trkpt lat="62.637451208696" lon="17.975627022635">
        <ele>63.8</ele>
        <time>2017-12-12T17:27:35Z</time>
      </trkpt>
      <trkpt lat="62.637433019973" lon="17.975641523322">
        <ele>64</ele>
        <time>2017-12-12T17:27:36Z</time>
      </trkpt>
      <trkpt lat="62.637414412155" lon="17.975650156679">
        <ele>64.2</ele>
        <time>2017-12-12T17:27:37Z</time>
      </trkpt>
      <trkpt lat="62.637397732174" lon="17.975657448932">
        <ele>64.4</ele>
        <time>2017-12-12T17:27:38Z</time>
      </trkpt>
      <trkpt lat="62.637381219831" lon="17.975666669022">
        <ele>64.4</ele>
        <time>2017-12-12T17:27:39Z</time>
      </trkpt>
      <trkpt lat="62.637368479343" lon="17.975680415338">
        <ele>64.6</ele>
        <time>2017-12-12T17:27:40Z</time>
      </trkpt>
      <trkpt lat="62.637346602584" lon="17.975695670396">
        <ele>64.8</ele>
        <time>2017-12-12T17:27:41Z</time>
      </trkpt>
      <trkpt lat="62.637327575671" lon="17.975716960422">
        <ele>65</ele>
        <time>2017-12-12T17:27:42Z</time>
      </trkpt>
      <trkpt lat="62.637311566242" lon="17.975739926828">
        <ele>65</ele>
        <time>2017-12-12T17:27:43Z</time>
      </trkpt>
      <trkpt lat="62.637297149374" lon="17.975753673144">
        <ele>65.2</ele>
        <time>2017-12-12T17:27:44Z</time>
      </trkpt>
      <trkpt lat="62.637283654515" lon="17.975766832727">
        <ele>65.6</ele>
        <time>2017-12-12T17:27:45Z</time>
      </trkpt>
      <trkpt lat="62.637270243475" lon="17.9757808305">
        <ele>65.8</ele>
        <time>2017-12-12T17:27:46Z</time>
      </trkpt>
      <trkpt lat="62.637259430824" lon="17.975799186861">
        <ele>66</ele>
        <time>2017-12-12T17:27:47Z</time>
      </trkpt>
      <trkpt lat="62.637244846318" lon="17.975818129955">
        <ele>66.2</ele>
        <time>2017-12-12T17:27:48Z</time>
      </trkpt>
      <trkpt lat="62.637230764726" lon="17.975843778569">
        <ele>66.4</ele>
        <time>2017-12-12T17:27:49Z</time>
      </trkpt>
      <trkpt lat="62.63721869479" lon="17.97586967864">
        <ele>66.4</ele>
        <time>2017-12-12T17:27:50Z</time>
      </trkpt>
      <trkpt lat="62.637206792492" lon="17.975894991978">
        <ele>66.6</ele>
        <time>2017-12-12T17:27:51Z</time>
      </trkpt>
      <trkpt lat="62.637195057832" lon="17.975930112139">
        <ele>66.8</ele>
        <time>2017-12-12T17:27:52Z</time>
      </trkpt>
      <trkpt lat="62.637184831914" lon="17.975958023866">
        <ele>67</ele>
        <time>2017-12-12T17:27:53Z</time>
      </trkpt>
      <trkpt lat="62.637172845797" lon="17.975994988045">
        <ele>67.2</ele>
        <time>2017-12-12T17:27:54Z</time>
      </trkpt>
      <trkpt lat="62.637165553544" lon="17.976021139573">
        <ele>67.4</ele>
        <time>2017-12-12T17:27:55Z</time>
      </trkpt>
      <trkpt lat="62.63716002149" lon="17.976053074612">
        <ele>67.4</ele>
        <time>2017-12-12T17:27:56Z</time>
      </trkpt>
      <trkpt lat="62.637149460296" lon="17.97610604822">
        <ele>67.6</ele>
        <time>2017-12-12T17:27:57Z</time>
      </trkpt>
      <trkpt lat="62.637145604622" lon="17.976134127585">
        <ele>67.6</ele>
        <time>2017-12-12T17:27:58Z</time>
      </trkpt>
      <trkpt lat="62.637140072568" lon="17.976172097592">
        <ele>67.8</ele>
        <time>2017-12-12T17:27:59Z</time>
      </trkpt>
      <trkpt lat="62.637129343736" lon="17.976233704557">
        <ele>67.8</ele>
        <time>2017-12-12T17:28:00Z</time>
      </trkpt>
      <trkpt lat="62.637123644044" lon="17.976266393967">
        <ele>68</ele>
        <time>2017-12-12T17:28:01Z</time>
      </trkpt>
      <trkpt lat="62.637118028171" lon="17.976299502472">
        <ele>68</ele>
        <time>2017-12-12T17:28:02Z</time>
      </trkpt>
      <trkpt lat="62.637109646271" lon="17.976337807755">
        <ele>68.2</ele>
        <time>2017-12-12T17:28:03Z</time>
      </trkpt>
      <trkpt lat="62.63710134819" lon="17.976375023391">
        <ele>68.2</ele>
        <time>2017-12-12T17:28:04Z</time>
      </trkpt>
      <trkpt lat="62.63709715724" lon="17.976429924836">
        <ele>68.2</ele>
        <time>2017-12-12T17:28:05Z</time>
      </trkpt>
      <trkpt lat="62.637095983774" lon="17.976456663097">
        <ele>68.6</ele>
        <time>2017-12-12T17:28:06Z</time>
      </trkpt>
      <trkpt lat="62.637087601874" lon="17.976518270062">
        <ele>68.6</ele>
        <time>2017-12-12T17:28:07Z</time>
      </trkpt>
      <trkpt lat="62.637082991829" lon="17.97656537634">
        <ele>68.8</ele>
        <time>2017-12-12T17:28:08Z</time>
      </trkpt>
      <trkpt lat="62.637083997657" lon="17.976598401026">
        <ele>68.8</ele>
        <time>2017-12-12T17:28:09Z</time>
      </trkpt>
      <trkpt lat="62.637076621585" lon="17.97666512095">
        <ele>69.2</ele>
        <time>2017-12-12T17:28:10Z</time>
      </trkpt>
      <trkpt lat="62.637077627413" lon="17.976697391265">
        <ele>69.2</ele>
        <time>2017-12-12T17:28:11Z</time>
      </trkpt>
      <trkpt lat="62.637074442291" lon="17.976747598846">
        <ele>69.2</ele>
        <time>2017-12-12T17:28:12Z</time>
      </trkpt>
      <trkpt lat="62.637071005712" lon="17.976802667929">
        <ele>69.2</ele>
        <time>2017-12-12T17:28:13Z</time>
      </trkpt>
      <trkpt lat="62.637070838074" lon="17.976837201357">
        <ele>69.2</ele>
        <time>2017-12-12T17:28:14Z</time>
      </trkpt>
      <trkpt lat="62.637066898581" lon="17.976905932937">
        <ele>69.2</ele>
        <time>2017-12-12T17:28:15Z</time>
      </trkpt>
      <trkpt lat="62.637071257169" lon="17.976936945967">
        <ele>68.8</ele>
        <time>2017-12-12T17:28:16Z</time>
      </trkpt>
      <trkpt lat="62.63706949697" lon="17.977000816045">
        <ele>68.8</ele>
        <time>2017-12-12T17:28:17Z</time>
      </trkpt>
      <trkpt lat="62.637068407323" lon="17.977037109672">
        <ele>68.8</ele>
        <time>2017-12-12T17:28:18Z</time>
      </trkpt>
      <trkpt lat="62.637064384011" lon="17.977102907587">
        <ele>68.8</ele>
        <time>2017-12-12T17:28:19Z</time>
      </trkpt>
      <trkpt lat="62.637063964916" lon="17.977138446843">
        <ele>68.8</ele>
        <time>2017-12-12T17:28:20Z</time>
      </trkpt>
      <trkpt lat="62.637058097586" lon="17.977205585862">
        <ele>68.8</ele>
        <time>2017-12-12T17:28:21Z</time>
      </trkpt>
      <trkpt lat="62.637055163921" lon="17.97725017757">
        <ele>68.8</ele>
        <time>2017-12-12T17:28:22Z</time>
      </trkpt>
      <trkpt lat="62.637052816989" lon="17.97730214535">
        <ele>68.8</ele>
        <time>2017-12-12T17:28:23Z</time>
      </trkpt>
      <trkpt lat="62.637045273279" lon="17.977359058451">
        <ele>69</ele>
        <time>2017-12-12T17:28:24Z</time>
      </trkpt>
      <trkpt lat="62.637038903035" lon="17.977404655987">
        <ele>69</ele>
        <time>2017-12-12T17:28:25Z</time>
      </trkpt>
      <trkpt lat="62.637022390692" lon="17.977461569088">
        <ele>69.2</ele>
        <time>2017-12-12T17:28:26Z</time>
      </trkpt>
      <trkpt lat="62.637016020448" lon="17.977489732272">
        <ele>69.2</ele>
        <time>2017-12-12T17:28:27Z</time>
      </trkpt>
      <trkpt lat="62.636999172829" lon="17.97754354407">
        <ele>69.2</ele>
        <time>2017-12-12T17:28:28Z</time>
      </trkpt>
      <trkpt lat="62.636984253047" lon="17.977607414148">
        <ele>69.2</ele>
        <time>2017-12-12T17:28:29Z</time>
      </trkpt>
      <trkpt lat="62.636979391545" lon="17.977638175721">
        <ele>69.2</ele>
        <time>2017-12-12T17:28:30Z</time>
      </trkpt>
      <trkpt lat="62.636960699908" lon="17.977709254233">
        <ele>69.2</ele>
        <time>2017-12-12T17:28:31Z</time>
      </trkpt>
      <trkpt lat="62.636955922225" lon="17.977744374394">
        <ele>69.2</ele>
        <time>2017-12-12T17:28:32Z</time>
      </trkpt>
      <trkpt lat="62.636945696307" lon="17.977794833432">
        <ele>69.4</ele>
        <time>2017-12-12T17:28:33Z</time>
      </trkpt>
      <trkpt lat="62.636934716018" lon="17.97785702713">
        <ele>69.4</ele>
        <time>2017-12-12T17:28:34Z</time>
      </trkpt>
      <trkpt lat="62.636935302751" lon="17.977885106495">
        <ele>69.6</ele>
        <time>2017-12-12T17:28:35Z</time>
      </trkpt>
      <trkpt lat="62.636925579747" lon="17.977951491143">
        <ele>69.6</ele>
        <time>2017-12-12T17:28:36Z</time>
      </trkpt>
      <trkpt lat="62.636919796236" lon="17.977992897729">
        <ele>69.6</ele>
        <time>2017-12-12T17:28:37Z</time>
      </trkpt>
      <trkpt lat="62.636914096544" lon="17.978033633763">
        <ele>69.6</ele>
        <time>2017-12-12T17:28:38Z</time>
      </trkpt>
      <trkpt lat="62.63690269716" lon="17.97810177861">
        <ele>69.4</ele>
        <time>2017-12-12T17:28:39Z</time>
      </trkpt>
      <trkpt lat="62.636901356056" lon="17.978123403912">
        <ele>69.4</ele>
        <time>2017-12-12T17:28:40Z</time>
      </trkpt>
      <trkpt lat="62.636889872853" lon="17.978185178515">
        <ele>69.4</ele>
        <time>2017-12-12T17:28:41Z</time>
      </trkpt>
      <trkpt lat="62.636884508437" lon="17.978216945916">
        <ele>69.2</ele>
        <time>2017-12-12T17:28:42Z</time>
      </trkpt>
      <trkpt lat="62.636876797089" lon="17.978254496828">
        <ele>69.4</ele>
        <time>2017-12-12T17:28:43Z</time>
      </trkpt>
      <trkpt lat="62.636863805144" lon="17.97831551706">
        <ele>69.4</ele>
        <time>2017-12-12T17:28:44Z</time>
      </trkpt>
      <trkpt lat="62.636859362737" lon="17.978335214525">
        <ele>69.6</ele>
        <time>2017-12-12T17:28:45Z</time>
      </trkpt>
      <trkpt lat="62.636844359136" lon="17.978392295264">
        <ele>69.6</ele>
        <time>2017-12-12T17:28:46Z</time>
      </trkpt>
      <trkpt lat="62.636833546485" lon="17.978424397941">
        <ele>69.8</ele>
        <time>2017-12-12T17:28:47Z</time>
      </trkpt>
      <trkpt lat="62.636821811825" lon="17.978462703224">
        <ele>69.8</ele>
        <time>2017-12-12T17:28:48Z</time>
      </trkpt>
      <trkpt lat="62.636800940894" lon="17.978518107583">
        <ele>70</ele>
        <time>2017-12-12T17:28:49Z</time>
      </trkpt>
      <trkpt lat="62.636791720804" lon="17.978540654894">
        <ele>70</ele>
        <time>2017-12-12T17:28:50Z</time>
      </trkpt>
      <trkpt lat="62.636770430778" lon="17.978584995145">
        <ele>70</ele>
        <time>2017-12-12T17:28:51Z</time>
      </trkpt>
      <trkpt lat="62.63675433753" lon="17.978617516917">
        <ele>70</ele>
        <time>2017-12-12T17:28:52Z</time>
      </trkpt>
      <trkpt lat="62.636746542363" lon="17.978636879106">
        <ele>70.2</ele>
        <time>2017-12-12T17:28:53Z</time>
      </trkpt>
      <trkpt lat="62.636723995052" lon="17.978674430018">
        <ele>70.4</ele>
        <time>2017-12-12T17:28:54Z</time>
      </trkpt>
      <trkpt lat="62.6367065607" lon="17.978696809691">
        <ele>70.4</ele>
        <time>2017-12-12T17:28:55Z</time>
      </trkpt>
      <trkpt lat="62.636699100809" lon="17.978716339518">
        <ele>70.4</ele>
        <time>2017-12-12T17:28:56Z</time>
      </trkpt>
      <trkpt lat="62.636676804955" lon="17.978743077779">
        <ele>70.8</ele>
        <time>2017-12-12T17:28:57Z</time>
      </trkpt>
      <trkpt lat="62.636658029499" lon="17.978759171027">
        <ele>70.8</ele>
        <time>2017-12-12T17:28:58Z</time>
      </trkpt>
      <trkpt lat="62.636644199364" lon="17.978776018646">
        <ele>70.8</ele>
        <time>2017-12-12T17:28:59Z</time>
      </trkpt>
      <trkpt lat="62.636622154967" lon="17.978783143261">
        <ele>71</ele>
        <time>2017-12-12T17:29:00Z</time>
      </trkpt>
      <trkpt lat="62.63660094876" lon="17.978789513505">
        <ele>71</ele>
        <time>2017-12-12T17:29:01Z</time>
      </trkpt>
      <trkpt lat="62.636584436417" lon="17.978787585668">
        <ele>71</ele>
        <time>2017-12-12T17:29:02Z</time>
      </trkpt>
      <trkpt lat="62.636569768092" lon="17.978792782446">
        <ele>71</ele>
        <time>2017-12-12T17:29:03Z</time>
      </trkpt>
      <trkpt lat="62.636545209125" lon="17.97879160898">
        <ele>71</ele>
        <time>2017-12-12T17:29:04Z</time>
      </trkpt>
      <trkpt lat="62.636520817796" lon="17.978790686971">
        <ele>71</ele>
        <time>2017-12-12T17:29:05Z</time>
      </trkpt>
      <trkpt lat="62.636504724548" lon="17.978792279532">
        <ele>71.2</ele>
        <time>2017-12-12T17:29:06Z</time>
      </trkpt>
      <trkpt lat="62.636487541653" lon="17.978788088582">
        <ele>71.4</ele>
        <time>2017-12-12T17:29:07Z</time>
      </trkpt>
      <trkpt lat="62.636461641582" lon="17.978785657831">
        <ele>71.6</ele>
        <time>2017-12-12T17:29:08Z</time>
      </trkpt>
      <trkpt lat="62.636445464515" lon="17.97878238889">
        <ele>71.6</ele>
        <time>2017-12-12T17:29:09Z</time>
      </trkpt>
      <trkpt lat="62.636425599412" lon="17.978782472709">
        <ele>71.8</ele>
        <time>2017-12-12T17:29:10Z</time>
      </trkpt>
      <trkpt lat="62.636409170888" lon="17.978782807985">
        <ele>72</ele>
        <time>2017-12-12T17:29:11Z</time>
      </trkpt>
      <trkpt lat="62.636391904174" lon="17.978786831297">
        <ele>72</ele>
        <time>2017-12-12T17:29:12Z</time>
      </trkpt>
      <trkpt lat="62.636377822582" lon="17.978783394718">
        <ele>72.2</ele>
        <time>2017-12-12T17:29:13Z</time>
      </trkpt>
      <trkpt lat="62.636360891144" lon="17.978788675315">
        <ele>72.2</ele>
        <time>2017-12-12T17:29:14Z</time>
      </trkpt>
      <trkpt lat="62.636343289154" lon="17.978793536817">
        <ele>72.4</ele>
        <time>2017-12-12T17:29:15Z</time>
      </trkpt>
      <trkpt lat="62.636328453191" lon="17.978799823242">
        <ele>72.6</ele>
        <time>2017-12-12T17:29:16Z</time>
      </trkpt>
      <trkpt lat="62.636316969988" lon="17.978803511278">
        <ele>72.8</ele>
        <time>2017-12-12T17:29:17Z</time>
      </trkpt>
      <trkpt lat="62.63629836217" lon="17.978814743024">
        <ele>72.8</ele>
        <time>2017-12-12T17:29:18Z</time>
      </trkpt>
      <trkpt lat="62.636286208415" lon="17.978822035277">
        <ele>73</ele>
        <time>2017-12-12T17:29:19Z</time>
      </trkpt>
      <trkpt lat="62.636275311945" lon="17.97882848934">
        <ele>73.2</ele>
        <time>2017-12-12T17:29:20Z</time>
      </trkpt>
      <trkpt lat="62.636262739095" lon="17.978838379982">
        <ele>73.4</ele>
        <time>2017-12-12T17:29:21Z</time>
      </trkpt>
      <trkpt lat="62.636247651675" lon="17.978848270624">
        <ele>73.6</ele>
        <time>2017-12-12T17:29:22Z</time>
      </trkpt>
      <trkpt lat="62.636233150988" lon="17.978860759655">
        <ele>73.8</ele>
        <time>2017-12-12T17:29:23Z</time>
      </trkpt>
      <trkpt lat="62.636212447695" lon="17.978887917011">
        <ele>73.8</ele>
        <time>2017-12-12T17:29:24Z</time>
      </trkpt>
      <trkpt lat="62.636195097162" lon="17.978905099906">
        <ele>74</ele>
        <time>2017-12-12T17:29:25Z</time>
      </trkpt>
      <trkpt lat="62.636180093561" lon="17.97893074852">
        <ele>74.2</ele>
        <time>2017-12-12T17:29:26Z</time>
      </trkpt>
      <trkpt lat="62.636164167951" lon="17.978958576428">
        <ele>74.4</ele>
        <time>2017-12-12T17:29:27Z</time>
      </trkpt>
      <trkpt lat="62.636159641725" lon="17.978975424047">
        <ele>74.6</ele>
        <time>2017-12-12T17:29:28Z</time>
      </trkpt>
      <trkpt lat="62.636153774395" lon="17.978988918906">
        <ele>74.8</ele>
        <time>2017-12-12T17:29:29Z</time>
      </trkpt>
      <trkpt lat="62.636144302848" lon="17.979000821204">
        <ele>75.2</ele>
        <time>2017-12-12T17:29:30Z</time>
      </trkpt>
      <trkpt lat="62.636132149093" lon="17.979020602488">
        <ele>75.4</ele>
        <time>2017-12-12T17:29:31Z</time>
      </trkpt>
      <trkpt lat="62.636122677546" lon="17.979031750415">
        <ele>75.6</ele>
        <time>2017-12-12T17:29:32Z</time>
      </trkpt>
      <trkpt lat="62.636113792732" lon="17.979049436224">
        <ele>76</ele>
        <time>2017-12-12T17:29:33Z</time>
      </trkpt>
      <trkpt lat="62.636105829927" lon="17.979066786757">
        <ele>76.2</ele>
        <time>2017-12-12T17:29:34Z</time>
      </trkpt>
      <trkpt lat="62.636094849638" lon="17.979086987136">
        <ele>76.4</ele>
        <time>2017-12-12T17:29:35Z</time>
      </trkpt>
      <trkpt lat="62.636084288444" lon="17.979110540275">
        <ele>76.8</ele>
        <time>2017-12-12T17:29:36Z</time>
      </trkpt>
      <trkpt lat="62.636070877404" lon="17.979133422862">
        <ele>77</ele>
        <time>2017-12-12T17:29:37Z</time>
      </trkpt>
      <trkpt lat="62.636061405857" lon="17.979158903838">
        <ele>77.2</ele>
        <time>2017-12-12T17:29:38Z</time>
      </trkpt>
      <trkpt lat="62.636051682853" lon="17.979187402298">
        <ele>77.6</ele>
        <time>2017-12-12T17:29:39Z</time>
      </trkpt>
      <trkpt lat="62.636041624573" lon="17.979214224378">
        <ele>77.6</ele>
        <time>2017-12-12T17:29:40Z</time>
      </trkpt>
      <trkpt lat="62.636035254329" lon="17.979241214096">
        <ele>77.8</ele>
        <time>2017-12-12T17:29:41Z</time>
      </trkpt>
      <trkpt lat="62.636021088918" lon="17.979291254039">
        <ele>78</ele>
        <time>2017-12-12T17:29:42Z</time>
      </trkpt>
      <trkpt lat="62.636015975959" lon="17.979322015612">
        <ele>78.2</ele>
        <time>2017-12-12T17:29:43Z</time>
      </trkpt>
      <trkpt lat="62.636010611543" lon="17.979359566524">
        <ele>78.4</ele>
        <time>2017-12-12T17:29:44Z</time>
      </trkpt>
      <trkpt lat="62.635997787236" lon="17.979421257308">
        <ele>78.8</ele>
        <time>2017-12-12T17:29:45Z</time>
      </trkpt>
      <trkpt lat="62.63599493739" lon="17.979458472944">
        <ele>79</ele>
        <time>2017-12-12T17:29:46Z</time>
      </trkpt>
      <trkpt lat="62.635987645137" lon="17.979509770172">
        <ele>79</ele>
        <time>2017-12-12T17:29:47Z</time>
      </trkpt>
      <trkpt lat="62.635977586857" lon="17.979575232811">
        <ele>79</ele>
        <time>2017-12-12T17:29:48Z</time>
      </trkpt>
      <trkpt lat="62.635970294604" lon="17.979654860861">
        <ele>79.2</ele>
        <time>2017-12-12T17:29:49Z</time>
      </trkpt>
      <trkpt lat="62.635966774206" lon="17.979752007082">
        <ele>79.2</ele>
        <time>2017-12-12T17:29:50Z</time>
      </trkpt>
      <trkpt lat="62.635962499437" lon="17.979863318714">
        <ele>78.8</ele>
        <time>2017-12-12T17:29:51Z</time>
      </trkpt>
      <trkpt lat="62.635957051202" lon="17.979987622291">
        <ele>77.8</ele>
        <time>2017-12-12T17:29:52Z</time>
      </trkpt>
      <trkpt lat="62.635956129193" lon="17.980087785996">
        <ele>76.8</ele>
        <time>2017-12-12T17:29:53Z</time>
      </trkpt>
      <trkpt lat="62.635960236324" lon="17.980212424849">
        <ele>76</ele>
        <time>2017-12-12T17:29:54Z</time>
      </trkpt>
      <trkpt lat="62.635972557717" lon="17.980322898291">
        <ele>75</ele>
        <time>2017-12-12T17:29:55Z</time>
      </trkpt>
      <trkpt lat="62.635989572974" lon="17.980430857163">
        <ele>74.6</ele>
        <time>2017-12-12T17:29:56Z</time>
      </trkpt>
      <trkpt lat="62.636007426421" lon="17.980533283981">
        <ele>74.2</ele>
        <time>2017-12-12T17:29:57Z</time>
      </trkpt>
      <trkpt lat="62.636024190221" lon="17.980625903976">
        <ele>74.2</ele>
        <time>2017-12-12T17:29:58Z</time>
      </trkpt>
      <trkpt lat="62.636040954021" lon="17.980716679953">
        <ele>74</ele>
        <time>2017-12-12T17:29:59Z</time>
      </trkpt>
      <trkpt lat="62.63605863983" lon="17.98080745593">
        <ele>73.8</ele>
        <time>2017-12-12T17:30:00Z</time>
      </trkpt>
      <trkpt lat="62.63607624182" lon="17.980897058441">
        <ele>73.4</ele>
        <time>2017-12-12T17:30:01Z</time>
      </trkpt>
      <trkpt lat="62.63608881467" lon="17.980971154437">
        <ele>73.2</ele>
        <time>2017-12-12T17:30:02Z</time>
      </trkpt>
      <trkpt lat="62.636103818271" lon="17.981048770831">
        <ele>72.8</ele>
        <time>2017-12-12T17:30:03Z</time>
      </trkpt>
      <trkpt lat="62.636118905691" lon="17.981135439677">
        <ele>72.6</ele>
        <time>2017-12-12T17:30:04Z</time>
      </trkpt>
      <trkpt lat="62.636133322559" lon="17.981207356379">
        <ele>72.4</ele>
        <time>2017-12-12T17:30:05Z</time>
      </trkpt>
      <trkpt lat="62.636150924549" lon="17.981292851759">
        <ele>72.2</ele>
        <time>2017-12-12T17:30:06Z</time>
      </trkpt>
      <trkpt lat="62.636154696404" lon="17.981368707954">
        <ele>72</ele>
        <time>2017-12-12T17:30:07Z</time>
      </trkpt>
      <trkpt lat="62.636164503227" lon="17.98142268739">
        <ele>72</ele>
        <time>2017-12-12T17:30:08Z</time>
      </trkpt>
      <trkpt lat="62.636172466032" lon="17.981513463367">
        <ele>72.2</ele>
        <time>2017-12-12T17:30:09Z</time>
      </trkpt>
      <trkpt lat="62.63618772109" lon="17.981577920178">
        <ele>72.4</ele>
        <time>2017-12-12T17:30:10Z</time>
      </trkpt>
      <trkpt lat="62.636195097162" lon="17.981645813568">
        <ele>72.4</ele>
        <time>2017-12-12T17:30:11Z</time>
      </trkpt>
      <trkpt lat="62.636203814338" lon="17.981720412478">
        <ele>72.6</ele>
        <time>2017-12-12T17:30:12Z</time>
      </trkpt>
      <trkpt lat="62.636210100763" lon="17.981772547896">
        <ele>72.8</ele>
        <time>2017-12-12T17:30:13Z</time>
      </trkpt>
      <trkpt lat="62.636217644473" lon="17.981830550644">
        <ele>72.8</ele>
        <time>2017-12-12T17:30:14Z</time>
      </trkpt>
      <trkpt lat="62.636231139332" lon="17.981885452089">
        <ele>72.6</ele>
        <time>2017-12-12T17:30:15Z</time>
      </trkpt>
      <trkpt lat="62.636235330282" lon="17.981966505062">
        <ele>72.4</ele>
        <time>2017-12-12T17:30:16Z</time>
      </trkpt>
      <trkpt lat="62.636244298915" lon="17.982011264408">
        <ele>72.2</ele>
        <time>2017-12-12T17:30:17Z</time>
      </trkpt>
      <trkpt lat="62.636245304743" lon="17.982086617689">
        <ele>72.2</ele>
        <time>2017-12-12T17:30:18Z</time>
      </trkpt>
      <trkpt lat="62.636250752978" lon="17.982142608781">
        <ele>72</ele>
        <time>2017-12-12T17:30:19Z</time>
      </trkpt>
      <trkpt lat="62.636253435186" lon="17.982210753628">
        <ele>71.8</ele>
        <time>2017-12-12T17:30:20Z</time>
      </trkpt>
      <trkpt lat="62.636265421303" lon="17.982263559598">
        <ele>71.8</ele>
        <time>2017-12-12T17:30:21Z</time>
      </trkpt>
      <trkpt lat="62.636264583113" lon="17.982315275921">
        <ele>72</ele>
        <time>2017-12-12T17:30:22Z</time>
      </trkpt>
      <trkpt lat="62.636266678588" lon="17.982378056352">
        <ele>72</ele>
        <time>2017-12-12T17:30:23Z</time>
      </trkpt>
      <trkpt lat="62.636273803203" lon="17.982431616693">
        <ele>71.8</ele>
        <time>2017-12-12T17:30:24Z</time>
      </trkpt>
      <trkpt lat="62.636268941701" lon="17.98250227611">
        <ele>71.8</ele>
        <time>2017-12-12T17:30:25Z</time>
      </trkpt>
      <trkpt lat="62.636278748524" lon="17.982556507003">
        <ele>71.8</ele>
        <time>2017-12-12T17:30:26Z</time>
      </trkpt>
      <trkpt lat="62.63627154009" lon="17.982621969642">
        <ele>71.8</ele>
        <time>2017-12-12T17:30:27Z</time>
      </trkpt>
      <trkpt lat="62.63627740742" lon="17.982669746472">
        <ele>71.8</ele>
        <time>2017-12-12T17:30:28Z</time>
      </trkpt>
      <trkpt lat="62.636275144307" lon="17.982728084496">
        <ele>71.8</ele>
        <time>2017-12-12T17:30:29Z</time>
      </trkpt>
      <trkpt lat="62.636270785719" lon="17.982804443605">
        <ele>71.8</ele>
        <time>2017-12-12T17:30:30Z</time>
      </trkpt>
      <trkpt lat="62.6362707019" lon="17.982849370589">
        <ele>71.8</ele>
        <time>2017-12-12T17:30:31Z</time>
      </trkpt>
      <trkpt lat="62.636264080199" lon="17.982899242894">
        <ele>71.8</ele>
        <time>2017-12-12T17:30:32Z</time>
      </trkpt>
      <trkpt lat="62.636268857882" lon="17.982937715815">
        <ele>71.8</ele>
        <time>2017-12-12T17:30:33Z</time>
      </trkpt>
      <trkpt lat="62.636266678588" lon="17.983000580065">
        <ele>72</ele>
        <time>2017-12-12T17:30:34Z</time>
      </trkpt>
      <trkpt lat="62.636278664705" lon="17.983040561728">
        <ele>72</ele>
        <time>2017-12-12T17:30:35Z</time>
      </trkpt>
      <trkpt lat="62.636270198986" lon="17.983103006883">
        <ele>72</ele>
        <time>2017-12-12T17:30:36Z</time>
      </trkpt>
      <trkpt lat="62.636272797375" lon="17.983142150356">
        <ele>72</ele>
        <time>2017-12-12T17:30:37Z</time>
      </trkpt>
      <trkpt lat="62.636271456271" lon="17.983199147276">
        <ele>72</ele>
        <time>2017-12-12T17:30:38Z</time>
      </trkpt>
      <trkpt lat="62.636266259493" lon="17.983248851943">
        <ele>72.2</ele>
        <time>2017-12-12T17:30:39Z</time>
      </trkpt>
      <trkpt lat="62.636268606425" lon="17.983278691507">
        <ele>72.2</ele>
        <time>2017-12-12T17:30:40Z</time>
      </trkpt>
      <trkpt lat="62.636270115167" lon="17.983340298472">
        <ele>72.2</ele>
        <time>2017-12-12T17:30:41Z</time>
      </trkpt>
      <trkpt lat="62.636269444615" lon="17.983396373383">
        <ele>72.2</ele>
        <time>2017-12-12T17:30:42Z</time>
      </trkpt>
      <trkpt lat="62.63626734914" lon="17.983434008114">
        <ele>72.2</ele>
        <time>2017-12-12T17:30:43Z</time>
      </trkpt>
      <trkpt lat="62.636261146534" lon="17.983492849052">
        <ele>72</ele>
        <time>2017-12-12T17:30:44Z</time>
      </trkpt>
      <trkpt lat="62.636254441014" lon="17.983546744669">
        <ele>72</ele>
        <time>2017-12-12T17:30:45Z</time>
      </trkpt>
      <trkpt lat="62.636251255892" lon="17.983590582006">
        <ele>72</ele>
        <time>2017-12-12T17:30:46Z</time>
      </trkpt>
      <trkpt lat="62.636247735494" lon="17.983620840665">
        <ele>72.2</ele>
        <time>2017-12-12T17:30:47Z</time>
      </trkpt>
      <trkpt lat="62.636244298915" lon="17.983669958599">
        <ele>72.2</ele>
        <time>2017-12-12T17:30:48Z</time>
      </trkpt>
      <trkpt lat="62.636236839024" lon="17.983738271084">
        <ele>72.2</ele>
        <time>2017-12-12T17:30:49Z</time>
      </trkpt>
      <trkpt lat="62.636233234807" lon="17.983765344621">
        <ele>72.4</ele>
        <time>2017-12-12T17:30:50Z</time>
      </trkpt>
      <trkpt lat="62.636216554826" lon="17.983816725668">
        <ele>72.4</ele>
        <time>2017-12-12T17:30:51Z</time>
      </trkpt>
      <trkpt lat="62.636204149614" lon="17.983868274353">
        <ele>72.6</ele>
        <time>2017-12-12T17:30:52Z</time>
      </trkpt>
      <trkpt lat="62.636200210121" lon="17.983897191908">
        <ele>72.6</ele>
        <time>2017-12-12T17:30:53Z</time>
      </trkpt>
      <trkpt lat="62.636189481289" lon="17.983968102782">
        <ele>72.8</ele>
        <time>2017-12-12T17:30:54Z</time>
      </trkpt>
      <trkpt lat="62.63618353014" lon="17.984013700318">
        <ele>73</ele>
        <time>2017-12-12T17:30:55Z</time>
      </trkpt>
      <trkpt lat="62.636182775769" lon="17.984057034741">
        <ele>73</ele>
        <time>2017-12-12T17:30:56Z</time>
      </trkpt>
      <trkpt lat="62.636169951462" lon="17.984129454357">
        <ele>73.2</ele>
        <time>2017-12-12T17:30:57Z</time>
      </trkpt>
      <trkpt lat="62.636170538195" lon="17.98416608326">
        <ele>73.4</ele>
        <time>2017-12-12T17:30:58Z</time>
      </trkpt>
      <trkpt lat="62.636164084132" lon="17.984219475963">
        <ele>73.4</ele>
        <time>2017-12-12T17:30:59Z</time>
      </trkpt>
      <trkpt lat="62.636155199318" lon="17.98428175348">
        <ele>73.6</ele>
        <time>2017-12-12T17:31:00Z</time>
      </trkpt>
      <trkpt lat="62.636150924549" lon="17.984313353243">
        <ele>73.6</ele>
        <time>2017-12-12T17:31:01Z</time>
      </trkpt>
      <trkpt lat="62.63614832616" lon="17.984359621331">
        <ele>73.8</ele>
        <time>2017-12-12T17:31:02Z</time>
      </trkpt>
      <trkpt lat="62.636142961744" lon="17.984413433129">
        <ele>73.8</ele>
        <time>2017-12-12T17:31:03Z</time>
      </trkpt>
      <trkpt lat="62.636144721943" lon="17.984451319317">
        <ele>74</ele>
        <time>2017-12-12T17:31:04Z</time>
      </trkpt>
      <trkpt lat="62.636142794106" lon="17.984521140544">
        <ele>74</ele>
        <time>2017-12-12T17:31:05Z</time>
      </trkpt>
      <trkpt lat="62.6361449734" lon="17.98456087075">
        <ele>74.2</ele>
        <time>2017-12-12T17:31:06Z</time>
      </trkpt>
      <trkpt lat="62.636140028079" lon="17.984605378639">
        <ele>74.2</ele>
        <time>2017-12-12T17:31:07Z</time>
      </trkpt>
      <trkpt lat="62.636135418034" lon="17.984654077478">
        <ele>74.2</ele>
        <time>2017-12-12T17:31:08Z</time>
      </trkpt>
      <trkpt lat="62.636132987283" lon="17.98468492287">
        <ele>74.4</ele>
        <time>2017-12-12T17:31:09Z</time>
      </trkpt>
      <trkpt lat="62.636128880152" lon="17.984744266722">
        <ele>74.4</ele>
        <time>2017-12-12T17:31:10Z</time>
      </trkpt>
      <trkpt lat="62.636123012822" lon="17.984797575606">
        <ele>74.4</ele>
        <time>2017-12-12T17:31:11Z</time>
      </trkpt>
      <trkpt lat="62.636126281763" lon="17.984829259188">
        <ele>74.6</ele>
        <time>2017-12-12T17:31:12Z</time>
      </trkpt>
      <trkpt lat="62.636123683374" lon="17.984877958027">
        <ele>74.6</ele>
        <time>2017-12-12T17:31:13Z</time>
      </trkpt>
      <trkpt lat="62.636119660062" lon="17.984934200576">
        <ele>74.8</ele>
        <time>2017-12-12T17:31:14Z</time>
      </trkpt>
      <trkpt lat="62.636120498252" lon="17.984971248574">
        <ele>74.8</ele>
        <time>2017-12-12T17:31:15Z</time>
      </trkpt>
      <trkpt lat="62.636120833528" lon="17.985015588825">
        <ele>75</ele>
        <time>2017-12-12T17:31:16Z</time>
      </trkpt>
      <trkpt lat="62.636118486596" lon="17.985072837202">
        <ele>75.2</ele>
        <time>2017-12-12T17:31:17Z</time>
      </trkpt>
      <trkpt lat="62.636117648406" lon="17.985103263499">
        <ele>75.4</ele>
        <time>2017-12-12T17:31:18Z</time>
      </trkpt>
      <trkpt lat="62.636113625094" lon="17.985150453596">
        <ele>75.6</ele>
        <time>2017-12-12T17:31:19Z</time>
      </trkpt>
      <trkpt lat="62.636116642578" lon="17.985200074444">
        <ele>75.6</ele>
        <time>2017-12-12T17:31:20Z</time>
      </trkpt>
      <trkpt lat="62.636117983682" lon="17.985226477429">
        <ele>75.8</ele>
        <time>2017-12-12T17:31:21Z</time>
      </trkpt>
      <trkpt lat="62.636114547103" lon="17.985278193752">
        <ele>75.8</ele>
        <time>2017-12-12T17:31:22Z</time>
      </trkpt>
      <trkpt lat="62.636111864895" lon="17.985329071885">
        <ele>75.8</ele>
        <time>2017-12-12T17:31:23Z</time>
      </trkpt>
      <trkpt lat="62.636111278162" lon="17.985369388824">
        <ele>75.8</ele>
        <time>2017-12-12T17:31:24Z</time>
      </trkpt>
      <trkpt lat="62.636105913746" lon="17.985432336893">
        <ele>75.8</ele>
        <time>2017-12-12T17:31:25Z</time>
      </trkpt>
      <trkpt lat="62.636105075556" lon="17.985470642176">
        <ele>75.8</ele>
        <time>2017-12-12T17:31:26Z</time>
      </trkpt>
      <trkpt lat="62.636104824099" lon="17.985510204744">
        <ele>75.8</ele>
        <time>2017-12-12T17:31:27Z</time>
      </trkpt>
      <trkpt lat="62.636101219882" lon="17.985571811709">
        <ele>76</ele>
        <time>2017-12-12T17:31:28Z</time>
      </trkpt>
      <trkpt lat="62.636097867122" lon="17.985606680413">
        <ele>76</ele>
        <time>2017-12-12T17:31:29Z</time>
      </trkpt>
      <trkpt lat="62.636089485222" lon="17.985662000953">
        <ele>76</ele>
        <time>2017-12-12T17:31:30Z</time>
      </trkpt>
      <trkpt lat="62.636083701711" lon="17.985717070036">
        <ele>76</ele>
        <time>2017-12-12T17:31:31Z</time>
      </trkpt>
      <trkpt lat="62.636074397802" lon="17.985744143573">
        <ele>76.2</ele>
        <time>2017-12-12T17:31:32Z</time>
      </trkpt>
      <trkpt lat="62.63605528707" lon="17.985800302303">
        <ele>76.2</ele>
        <time>2017-12-12T17:31:33Z</time>
      </trkpt>
      <trkpt lat="62.636035673424" lon="17.98584162507">
        <ele>76.2</ele>
        <time>2017-12-12T17:31:34Z</time>
      </trkpt>
      <trkpt lat="62.636026872429" lon="17.985874482118">
        <ele>76.2</ele>
        <time>2017-12-12T17:31:35Z</time>
      </trkpt>
      <trkpt lat="62.636013796665" lon="17.985900466008">
        <ele>76.4</ele>
        <time>2017-12-12T17:31:36Z</time>
      </trkpt>
      <trkpt lat="62.636003654566" lon="17.985933239237">
        <ele>76.6</ele>
        <time>2017-12-12T17:31:37Z</time>
      </trkpt>
      <trkpt lat="62.635987812775" lon="17.985957714385">
        <ele>76.6</ele>
        <time>2017-12-12T17:31:38Z</time>
      </trkpt>
      <trkpt lat="62.635973647364" lon="17.985976657479">
        <ele>76.6</ele>
        <time>2017-12-12T17:31:39Z</time>
      </trkpt>
      <trkpt lat="62.635949004578" lon="17.985994930021">
        <ele>76.8</ele>
        <time>2017-12-12T17:31:40Z</time>
      </trkpt>
      <trkpt lat="62.635923355964" lon="17.986008760156">
        <ele>77</ele>
        <time>2017-12-12T17:31:41Z</time>
      </trkpt>
      <trkpt lat="62.635913381503" lon="17.986030301639">
        <ele>76.8</ele>
        <time>2017-12-12T17:31:42Z</time>
      </trkpt>
      <trkpt lat="62.635893181124" lon="17.98604362886">
        <ele>77</ele>
        <time>2017-12-12T17:31:43Z</time>
      </trkpt>
      <trkpt lat="62.635878596618" lon="17.986043712679">
        <ele>77</ele>
        <time>2017-12-12T17:31:44Z</time>
      </trkpt>
      <trkpt lat="62.635871891098" lon="17.986049831466">
        <ele>77.2</ele>
        <time>2017-12-12T17:31:45Z</time>
      </trkpt>
      <trkpt lat="62.635849259968" lon="17.986067768732">
        <ele>77.2</ele>
        <time>2017-12-12T17:31:46Z</time>
      </trkpt>
      <trkpt lat="62.635831993254" lon="17.986084197256">
        <ele>77.2</ele>
        <time>2017-12-12T17:31:47Z</time>
      </trkpt>
      <trkpt lat="62.635817408748" lon="17.986101883065">
        <ele>77.2</ele>
        <time>2017-12-12T17:31:48Z</time>
      </trkpt>
      <trkpt lat="62.635792682143" lon="17.986129375697">
        <ele>77.2</ele>
        <time>2017-12-12T17:31:49Z</time>
      </trkpt>
      <trkpt lat="62.635775583067" lon="17.986156281596">
        <ele>77.2</ele>
        <time>2017-12-12T17:31:50Z</time>
      </trkpt>
      <trkpt lat="62.635763177855" lon="17.986178158355">
        <ele>77.2</ele>
        <time>2017-12-12T17:31:51Z</time>
      </trkpt>
      <trkpt lat="62.635750437367" lon="17.986207578824">
        <ele>77.2</ele>
        <time>2017-12-12T17:31:52Z</time>
      </trkpt>
      <trkpt lat="62.635734763214" lon="17.986230712868">
        <ele>77.4</ele>
        <time>2017-12-12T17:31:53Z</time>
      </trkpt>
      <trkpt lat="62.635716993586" lon="17.986256612939">
        <ele>77.4</ele>
        <time>2017-12-12T17:31:54Z</time>
      </trkpt>
      <trkpt lat="62.635702576718" lon="17.986283602657">
        <ele>77.6</ele>
        <time>2017-12-12T17:31:55Z</time>
      </trkpt>
      <trkpt lat="62.635685561461" lon="17.986313777497">
        <ele>77.8</ele>
        <time>2017-12-12T17:31:56Z</time>
      </trkpt>
      <trkpt lat="62.635670976955" lon="17.986351747504">
        <ele>78.2</ele>
        <time>2017-12-12T17:31:57Z</time>
      </trkpt>
      <trkpt lat="62.635658236467" lon="17.986377479937">
        <ele>78.4</ele>
        <time>2017-12-12T17:31:58Z</time>
      </trkpt>
      <trkpt lat="62.635633090767" lon="17.986438583988">
        <ele>78.6</ele>
        <time>2017-12-12T17:31:59Z</time>
      </trkpt>
      <trkpt lat="62.635624792686" lon="17.986491389958">
        <ele>78.8</ele>
        <time>2017-12-12T17:32:00Z</time>
      </trkpt>
      <trkpt lat="62.635605262859" lon="17.986536233123">
        <ele>78.8</ele>
        <time>2017-12-12T17:32:01Z</time>
      </trkpt>
      <trkpt lat="62.635589421068" lon="17.986578896994">
        <ele>79</ele>
        <time>2017-12-12T17:32:02Z</time>
      </trkpt>
      <trkpt lat="62.635582715548" lon="17.986603204504">
        <ele>79</ele>
        <time>2017-12-12T17:32:03Z</time>
      </trkpt>
      <trkpt lat="62.635562347531" lon="17.98666640403">
        <ele>78.8</ele>
        <time>2017-12-12T17:32:04Z</time>
      </trkpt>
      <trkpt lat="62.635548098301" lon="17.98669574068">
        <ele>79</ele>
        <time>2017-12-12T17:32:05Z</time>
      </trkpt>
      <trkpt lat="62.635540219315" lon="17.986729184461">
        <ele>79</ele>
        <time>2017-12-12T17:32:06Z</time>
      </trkpt>
      <trkpt lat="62.635528736112" lon="17.98676531045">
        <ele>79</ele>
        <time>2017-12-12T17:32:07Z</time>
      </trkpt>
      <trkpt lat="62.635525131895" lon="17.986799173326">
        <ele>79</ele>
        <time>2017-12-12T17:32:08Z</time>
      </trkpt>
      <trkpt lat="62.635512810502" lon="17.986835131677">
        <ele>79.2</ele>
        <time>2017-12-12T17:32:09Z</time>
      </trkpt>
      <trkpt lat="62.635502752222" lon="17.986863462499">
        <ele>79.4</ele>
        <time>2017-12-12T17:32:10Z</time>
      </trkpt>
      <trkpt lat="62.635482887119" lon="17.98690864094">
        <ele>79.4</ele>
        <time>2017-12-12T17:32:11Z</time>
      </trkpt>
      <trkpt lat="62.635472577382" lon="17.986940743617">
        <ele>79.6</ele>
        <time>2017-12-12T17:32:12Z</time>
      </trkpt>
      <trkpt lat="62.635455562125" lon="17.98697653433">
        <ele>79.6</ele>
        <time>2017-12-12T17:32:13Z</time>
      </trkpt>
      <trkpt lat="62.635439049782" lon="17.987022970056">
        <ele>79.6</ele>
        <time>2017-12-12T17:32:14Z</time>
      </trkpt>
      <trkpt lat="62.635426560751" lon="17.987055910923">
        <ele>79.8</ele>
        <time>2017-12-12T17:32:15Z</time>
      </trkpt>
      <trkpt lat="62.63541658629" lon="17.98708885179">
        <ele>79.8</ele>
        <time>2017-12-12T17:32:16Z</time>
      </trkpt>
      <trkpt lat="62.635405354544" lon="17.987112572567">
        <ele>79.8</ele>
        <time>2017-12-12T17:32:17Z</time>
      </trkpt>
      <trkpt lat="62.635382304319" lon="17.987156493723">
        <ele>80</ele>
        <time>2017-12-12T17:32:18Z</time>
      </trkpt>
      <trkpt lat="62.635375682618" lon="17.987176191188">
        <ele>80</ele>
        <time>2017-12-12T17:32:19Z</time>
      </trkpt>
      <trkpt lat="62.635352129479" lon="17.987215586118">
        <ele>80.4</ele>
        <time>2017-12-12T17:32:20Z</time>
      </trkpt>
      <trkpt lat="62.635344753407" lon="17.987246682967">
        <ele>80.6</ele>
        <time>2017-12-12T17:32:21Z</time>
      </trkpt>
      <trkpt lat="62.635331677643" lon="17.98727325359">
        <ele>80.8</ele>
        <time>2017-12-12T17:32:22Z</time>
      </trkpt>
      <trkpt lat="62.635312483092" lon="17.987314241081">
        <ele>80.8</ele>
        <time>2017-12-12T17:32:23Z</time>
      </trkpt>
      <trkpt lat="62.63530175426" lon="17.987337710401">
        <ele>81</ele>
        <time>2017-12-12T17:32:24Z</time>
      </trkpt>
      <trkpt lat="62.635286499202" lon="17.987368639612">
        <ele>81</ele>
        <time>2017-12-12T17:32:25Z</time>
      </trkpt>
      <trkpt lat="62.635260850588" lon="17.987420691211">
        <ele>81</ele>
        <time>2017-12-12T17:32:26Z</time>
      </trkpt>
      <trkpt lat="62.635245260254" lon="17.987438879934">
        <ele>81.2</ele>
        <time>2017-12-12T17:32:27Z</time>
      </trkpt>
      <trkpt lat="62.635237129811" lon="17.987456062829">
        <ele>81.2</ele>
        <time>2017-12-12T17:32:28Z</time>
      </trkpt>
      <trkpt lat="62.635214331043" lon="17.987489338972">
        <ele>81.2</ele>
        <time>2017-12-12T17:32:29Z</time>
      </trkpt>
      <trkpt lat="62.635196477596" lon="17.987516663966">
        <ele>81.2</ele>
        <time>2017-12-12T17:32:30Z</time>
      </trkpt>
      <trkpt lat="62.635185078212" lon="17.987546754987">
        <ele>81.2</ele>
        <time>2017-12-12T17:32:31Z</time>
      </trkpt>
      <trkpt lat="62.635164207281" lon="17.987585730822">
        <ele>81.2</ele>
        <time>2017-12-12T17:32:32Z</time>
      </trkpt>
      <trkpt lat="62.635144090721" lon="17.987616743852">
        <ele>81.4</ele>
        <time>2017-12-12T17:32:33Z</time>
      </trkpt>
      <trkpt lat="62.635136044097" lon="17.987644823217">
        <ele>81.4</ele>
        <time>2017-12-12T17:32:34Z</time>
      </trkpt>
      <trkpt lat="62.635118106831" lon="17.987675165695">
        <ele>81.4</ele>
        <time>2017-12-12T17:32:35Z</time>
      </trkpt>
      <trkpt lat="62.635097319719" lon="17.98771497972">
        <ele>81.4</ele>
        <time>2017-12-12T17:32:36Z</time>
      </trkpt>
      <trkpt lat="62.635087931991" lon="17.987742556171">
        <ele>81.6</ele>
        <time>2017-12-12T17:32:37Z</time>
      </trkpt>
      <trkpt lat="62.635073012209" lon="17.987768875337">
        <ele>81.6</ele>
        <time>2017-12-12T17:32:38Z</time>
      </trkpt>
      <trkpt lat="62.635050632536" lon="17.987804330774">
        <ele>81.8</ele>
        <time>2017-12-12T17:32:39Z</time>
      </trkpt>
      <trkpt lat="62.635033282003" lon="17.987830398483">
        <ele>82</ele>
        <time>2017-12-12T17:32:40Z</time>
      </trkpt>
      <trkpt lat="62.635021212067" lon="17.987857304382">
        <ele>82</ele>
        <time>2017-12-12T17:32:41Z</time>
      </trkpt>
      <trkpt lat="62.634994892901" lon="17.987897369864">
        <ele>82.2</ele>
        <time>2017-12-12T17:32:42Z</time>
      </trkpt>
      <trkpt lat="62.634982906784" lon="17.987909775076">
        <ele>82.4</ele>
        <time>2017-12-12T17:32:43Z</time>
      </trkpt>
      <trkpt lat="62.634965304794" lon="17.987936932432">
        <ele>82.4</ele>
        <time>2017-12-12T17:32:44Z</time>
      </trkpt>
      <trkpt lat="62.634946026424" lon="17.987971633498">
        <ele>82.4</ele>
        <time>2017-12-12T17:32:45Z</time>
      </trkpt>
      <trkpt lat="62.634932280108" lon="17.987981775597">
        <ele>82.4</ele>
        <time>2017-12-12T17:32:46Z</time>
      </trkpt>
      <trkpt lat="62.634912498824" lon="17.988007088935">
        <ele>82.6</ele>
        <time>2017-12-12T17:32:47Z</time>
      </trkpt>
      <trkpt lat="62.63489439392" lon="17.988030055341">
        <ele>82.6</ele>
        <time>2017-12-12T17:32:48Z</time>
      </trkpt>
      <trkpt lat="62.634870589324" lon="17.988048244064">
        <ele>82.8</ele>
        <time>2017-12-12T17:32:49Z</time>
      </trkpt>
      <trkpt lat="62.634855501904" lon="17.988060733095">
        <ele>83</ele>
        <time>2017-12-12T17:32:50Z</time>
      </trkpt>
      <trkpt lat="62.634841671769" lon="17.988079927646">
        <ele>83.2</ele>
        <time>2017-12-12T17:32:51Z</time>
      </trkpt>
      <trkpt lat="62.63481308949" lon="17.988093673962">
        <ele>83.2</ele>
        <time>2017-12-12T17:32:52Z</time>
      </trkpt>
      <trkpt lat="62.634800684278" lon="17.988092416677">
        <ele>83.4</ele>
        <time>2017-12-12T17:32:53Z</time>
      </trkpt>
      <trkpt lat="62.634779394252" lon="17.988101552948">
        <ele>83.4</ele>
        <time>2017-12-12T17:32:54Z</time>
      </trkpt>
      <trkpt lat="62.634753661819" lon="17.988124686992">
        <ele>83.6</ele>
        <time>2017-12-12T17:32:55Z</time>
      </trkpt>
      <trkpt lat="62.634743603539" lon="17.988125022268">
        <ele>83.6</ele>
        <time>2017-12-12T17:32:56Z</time>
      </trkpt>
      <trkpt lat="62.63471753583" lon="17.988120244585">
        <ele>83.6</ele>
        <time>2017-12-12T17:32:57Z</time>
      </trkpt>
      <trkpt lat="62.634690462293" lon="17.988118400567">
        <ele>83.8</ele>
        <time>2017-12-12T17:32:58Z</time>
      </trkpt>
      <trkpt lat="62.634674871959" lon="17.988121250413">
        <ele>83.8</ele>
        <time>2017-12-12T17:32:59Z</time>
      </trkpt>
      <trkpt lat="62.634645283852" lon="17.988126698648">
        <ele>84</ele>
        <time>2017-12-12T17:33:00Z</time>
      </trkpt>
      <trkpt lat="62.634625083473" lon="17.988125189906">
        <ele>84</ele>
        <time>2017-12-12T17:33:01Z</time>
      </trkpt>
      <trkpt lat="62.634610750424" lon="17.988127536838">
        <ele>84</ele>
        <time>2017-12-12T17:33:02Z</time>
      </trkpt>
      <trkpt lat="62.634586610552" lon="17.98813072196">
        <ele>84</ele>
        <time>2017-12-12T17:33:03Z</time>
      </trkpt>
      <trkpt lat="62.634568673286" lon="17.988133571806">
        <ele>84.2</ele>
        <time>2017-12-12T17:33:04Z</time>
      </trkpt>
      <trkpt lat="62.634550903658" lon="17.988136421652">
        <ele>84.2</ele>
        <time>2017-12-12T17:33:05Z</time>
      </trkpt>
      <trkpt lat="62.634523243388" lon="17.988142875715">
        <ele>84.4</ele>
        <time>2017-12-12T17:33:06Z</time>
      </trkpt>
      <trkpt lat="62.634509161796" lon="17.988147653398">
        <ele>84.4</ele>
        <time>2017-12-12T17:33:07Z</time>
      </trkpt>
      <trkpt lat="62.634481920621" lon="17.98815335309">
        <ele>84.6</ele>
        <time>2017-12-12T17:33:08Z</time>
      </trkpt>
      <trkpt lat="62.634455349998" lon="17.988156119117">
        <ele>84.6</ele>
        <time>2017-12-12T17:33:09Z</time>
      </trkpt>
      <trkpt lat="62.634438837655" lon="17.988164333379">
        <ele>84.8</ele>
        <time>2017-12-12T17:33:10Z</time>
      </trkpt>
      <trkpt lat="62.634410842109" lon="17.988168272872">
        <ele>84.8</ele>
        <time>2017-12-12T17:33:11Z</time>
      </trkpt>
      <trkpt lat="62.634388546255" lon="17.988182019188">
        <ele>85</ele>
        <time>2017-12-12T17:33:12Z</time>
      </trkpt>
      <trkpt lat="62.634373710292" lon="17.988190568726">
        <ele>85</ele>
        <time>2017-12-12T17:33:13Z</time>
      </trkpt>
      <trkpt lat="62.634350073334" lon="17.988192077468">
        <ele>85</ele>
        <time>2017-12-12T17:33:14Z</time>
      </trkpt>
      <trkpt lat="62.63433029205" lon="17.988201465196">
        <ele>85.2</ele>
        <time>2017-12-12T17:33:15Z</time>
      </trkpt>
      <trkpt lat="62.634305230169" lon="17.988202303386">
        <ele>85.2</ele>
        <time>2017-12-12T17:33:16Z</time>
      </trkpt>
      <trkpt lat="62.634274300958" lon="17.988204901775">
        <ele>85.4</ele>
        <time>2017-12-12T17:33:17Z</time>
      </trkpt>
      <trkpt lat="62.63425150219" lon="17.988206242879">
        <ele>85.4</ele>
        <time>2017-12-12T17:33:18Z</time>
      </trkpt>
      <trkpt lat="62.634223087549" lon="17.988202638662">
        <ele>85.6</ele>
        <time>2017-12-12T17:33:19Z</time>
      </trkpt>
      <trkpt lat="62.634208419224" lon="17.988204734137">
        <ele>85.6</ele>
        <time>2017-12-12T17:33:20Z</time>
      </trkpt>
      <trkpt lat="62.634189811406" lon="17.988205991422">
        <ele>85.6</ele>
        <time>2017-12-12T17:33:21Z</time>
      </trkpt>
      <trkpt lat="62.634160223299" lon="17.988200459368">
        <ele>85.6</ele>
        <time>2017-12-12T17:33:22Z</time>
      </trkpt>
      <trkpt lat="62.634144381508" lon="17.988201549015">
        <ele>85.6</ele>
        <time>2017-12-12T17:33:23Z</time>
      </trkpt>
      <trkpt lat="62.63411739179" lon="17.988188808527">
        <ele>85.8</ele>
        <time>2017-12-12T17:33:24Z</time>
      </trkpt>
      <trkpt lat="62.63409308428" lon="17.988183611749">
        <ele>85.8</ele>
        <time>2017-12-12T17:33:25Z</time>
      </trkpt>
      <trkpt lat="62.634079170326" lon="17.988187551242">
        <ele>85.8</ele>
        <time>2017-12-12T17:33:26Z</time>
      </trkpt>
      <trkpt lat="62.634055281911" lon="17.988179253161">
        <ele>86</ele>
        <time>2017-12-12T17:33:27Z</time>
      </trkpt>
      <trkpt lat="62.6340243527" lon="17.988171374175">
        <ele>86</ele>
        <time>2017-12-12T17:33:28Z</time>
      </trkpt>
      <trkpt lat="62.634000296647" lon="17.988158130773">
        <ele>86</ele>
        <time>2017-12-12T17:33:29Z</time>
      </trkpt>
      <trkpt lat="62.63397657587" lon="17.988135667281">
        <ele>86.2</ele>
        <time>2017-12-12T17:33:30Z</time>
      </trkpt>
      <trkpt lat="62.63395226836" lon="17.988108845201">
        <ele>86.2</ele>
        <time>2017-12-12T17:33:31Z</time>
      </trkpt>
      <trkpt lat="62.633922344977" lon="17.988092081401">
        <ele>86.2</ele>
        <time>2017-12-12T17:33:32Z</time>
      </trkpt>
      <trkpt lat="62.63390281515" lon="17.988062074199">
        <ele>86.4</ele>
        <time>2017-12-12T17:33:33Z</time>
      </trkpt>
      <trkpt lat="62.633887560092" lon="17.988042628191">
        <ele>86.4</ele>
        <time>2017-12-12T17:33:34Z</time>
      </trkpt>
      <trkpt lat="62.633862749668" lon="17.988031899359">
        <ele>86.4</ele>
        <time>2017-12-12T17:33:35Z</time>
      </trkpt>
      <trkpt lat="62.633832574828" lon="17.988005496374">
        <ele>86.4</ele>
        <time>2017-12-12T17:33:36Z</time>
      </trkpt>
      <trkpt lat="62.633811871535" lon="17.987994348447">
        <ele>86.4</ele>
        <time>2017-12-12T17:33:37Z</time>
      </trkpt>
      <trkpt lat="62.633791084423" lon="17.987973226059">
        <ele>86.6</ele>
        <time>2017-12-12T17:33:38Z</time>
      </trkpt>
      <trkpt lat="62.633757053909" lon="17.987951936033">
        <ele>86.6</ele>
        <time>2017-12-12T17:33:39Z</time>
      </trkpt>
      <trkpt lat="62.633744732516" lon="17.987938022079">
        <ele>86.6</ele>
        <time>2017-12-12T17:33:40Z</time>
      </trkpt>
      <trkpt lat="62.633718664807" lon="17.987908769248">
        <ele>86.8</ele>
        <time>2017-12-12T17:33:41Z</time>
      </trkpt>
      <trkpt lat="62.633693183831" lon="17.987887814498">
        <ele>86.8</ele>
        <time>2017-12-12T17:33:42Z</time>
      </trkpt>
      <trkpt lat="62.63367147471" lon="17.987865434825">
        <ele>86.8</ele>
        <time>2017-12-12T17:33:43Z</time>
      </trkpt>
      <trkpt lat="62.633650939055" lon="17.987843390428">
        <ele>87</ele>
        <time>2017-12-12T17:33:44Z</time>
      </trkpt>
      <trkpt lat="62.633623446423" lon="17.987801983842">
        <ele>87</ele>
        <time>2017-12-12T17:33:45Z</time>
      </trkpt>
      <trkpt lat="62.633606682623" lon="17.987779268893">
        <ele>87.2</ele>
        <time>2017-12-12T17:33:46Z</time>
      </trkpt>
      <trkpt lat="62.633589248271" lon="17.987759822885">
        <ele>87.6</ele>
        <time>2017-12-12T17:33:47Z</time>
      </trkpt>
      <trkpt lat="62.633570305177" lon="17.98773761085">
        <ele>87.8</ele>
        <time>2017-12-12T17:33:48Z</time>
      </trkpt>
      <trkpt lat="62.633548344599" lon="17.987713638616">
        <ele>88</ele>
        <time>2017-12-12T17:33:49Z</time>
      </trkpt>
      <trkpt lat="62.633528311858" lon="17.987697629187">
        <ele>88.2</ele>
        <time>2017-12-12T17:33:50Z</time>
      </trkpt>
      <trkpt lat="62.633485228892" lon="17.987696036626">
        <ele>88.4</ele>
        <time>2017-12-12T17:33:51Z</time>
      </trkpt>
      <trkpt lat="62.633466453436" lon="17.987668795451">
        <ele>88.4</ele>
        <time>2017-12-12T17:33:52Z</time>
      </trkpt>
      <trkpt lat="62.633453042396" lon="17.987643314475">
        <ele>88.4</ele>
        <time>2017-12-12T17:33:53Z</time>
      </trkpt>
      <trkpt lat="62.633432674379" lon="17.987607188486">
        <ele>88.4</ele>
        <time>2017-12-12T17:33:54Z</time>
      </trkpt>
      <trkpt lat="62.633409205059" lon="17.987575085809">
        <ele>88.4</ele>
        <time>2017-12-12T17:33:55Z</time>
      </trkpt>
      <trkpt lat="62.633395626381" lon="17.987550275385">
        <ele>88.4</ele>
        <time>2017-12-12T17:33:56Z</time>
      </trkpt>
      <trkpt lat="62.633381880065" lon="17.987521776925">
        <ele>88.4</ele>
        <time>2017-12-12T17:33:57Z</time>
      </trkpt>
      <trkpt lat="62.633363272247" lon="17.987498642881">
        <ele>88.4</ele>
        <time>2017-12-12T17:33:58Z</time>
      </trkpt>
      <trkpt lat="62.633352040501" lon="17.987473832457">
        <ele>88.4</ele>
        <time>2017-12-12T17:33:59Z</time>
      </trkpt>
      <trkpt lat="62.633337707452" lon="17.987449608766">
        <ele>88.6</ele>
        <time>2017-12-12T17:34:00Z</time>
      </trkpt>
      <trkpt lat="62.633321698023" lon="17.987410465293">
        <ele>88.6</ele>
        <time>2017-12-12T17:34:01Z</time>
      </trkpt>
      <trkpt lat="62.633300827092" lon="17.987370567449">
        <ele>88.8</ele>
        <time>2017-12-12T17:34:02Z</time>
      </trkpt>
      <trkpt lat="62.633288254242" lon="17.987324634637">
        <ele>89</ele>
        <time>2017-12-12T17:34:03Z</time>
      </trkpt>
      <trkpt lat="62.633267299492" lon="17.987274510875">
        <ele>89.2</ele>
        <time>2017-12-12T17:34:04Z</time>
      </trkpt>
      <trkpt lat="62.63324818876" lon="17.987214161195">
        <ele>89.2</ele>
        <time>2017-12-12T17:34:05Z</time>
      </trkpt>
      <trkpt lat="62.633224300345" lon="17.987125145417">
        <ele>89.4</ele>
        <time>2017-12-12T17:34:06Z</time>
      </trkpt>
      <trkpt lat="62.633202255948" lon="17.98702431116">
        <ele>89</ele>
        <time>2017-12-12T17:34:07Z</time>
      </trkpt>
      <trkpt lat="62.633187503804" lon="17.986937223219">
        <ele>88.4</ele>
        <time>2017-12-12T17:34:08Z</time>
      </trkpt>
      <trkpt lat="62.633169566538" lon="17.98683404203">
        <ele>87.6</ele>
        <time>2017-12-12T17:34:09Z</time>
      </trkpt>
      <trkpt lat="62.63316017881" lon="17.986751228858">
        <ele>87</ele>
        <time>2017-12-12T17:34:10Z</time>
      </trkpt>
      <trkpt lat="62.633150539625" lon="17.986669505333">
        <ele>86.4</ele>
        <time>2017-12-12T17:34:11Z</time>
      </trkpt>
      <trkpt lat="62.633146683951" lon="17.986598259183">
        <ele>86.4</ele>
        <time>2017-12-12T17:34:12Z</time>
      </trkpt>
      <trkpt lat="62.633141068078" lon="17.986519804599">
        <ele>86.4</ele>
        <time>2017-12-12T17:34:13Z</time>
      </trkpt>
      <trkpt lat="62.63312329845" lon="17.986456437435">
        <ele>86.8</ele>
        <time>2017-12-12T17:34:14Z</time>
      </trkpt>
      <trkpt lat="62.633125645382" lon="17.986361219051">
        <ele>87</ele>
        <time>2017-12-12T17:34:15Z</time>
      </trkpt>
      <trkpt lat="62.633118017853" lon="17.986276729499">
        <ele>87.2</ele>
        <time>2017-12-12T17:34:16Z</time>
      </trkpt>
      <trkpt lat="62.633118939862" lon="17.986184025685">
        <ele>87.2</ele>
        <time>2017-12-12T17:34:17Z</time>
      </trkpt>
      <trkpt lat="62.633117850215" lon="17.986080760677">
        <ele>87.2</ele>
        <time>2017-12-12T17:34:18Z</time>
      </trkpt>
      <trkpt lat="62.633117766396" lon="17.985979423506">
        <ele>87</ele>
        <time>2017-12-12T17:34:19Z</time>
      </trkpt>
      <trkpt lat="62.633116760568" lon="17.985887893158">
        <ele>86.6</ele>
        <time>2017-12-12T17:34:20Z</time>
      </trkpt>
      <trkpt lat="62.633121286794" lon="17.985801308131">
        <ele>86.2</ele>
        <time>2017-12-12T17:34:21Z</time>
      </trkpt>
      <trkpt lat="62.633120867699" lon="17.985737018958">
        <ele>85.8</ele>
        <time>2017-12-12T17:34:22Z</time>
      </trkpt>
      <trkpt lat="62.633122544079" lon="17.985660408392">
        <ele>85.2</ele>
        <time>2017-12-12T17:34:23Z</time>
      </trkpt>
      <trkpt lat="62.633128830504" lon="17.985592179726">
        <ele>84.8</ele>
        <time>2017-12-12T17:34:24Z</time>
      </trkpt>
      <trkpt lat="62.63313084216" lon="17.985488160347">
        <ele>84.4</ele>
        <time>2017-12-12T17:34:25Z</time>
      </trkpt>
      <trkpt lat="62.633123549907" lon="17.985405514813">
        <ele>84.4</ele>
        <time>2017-12-12T17:34:26Z</time>
      </trkpt>
      <trkpt lat="62.633136206576" lon="17.985287246204">
        <ele>84.8</ele>
        <time>2017-12-12T17:34:27Z</time>
      </trkpt>
      <trkpt lat="62.633140397526" lon="17.985174761106">
        <ele>84.8</ele>
        <time>2017-12-12T17:34:28Z</time>
      </trkpt>
      <trkpt lat="62.63314676777" lon="17.985050708986">
        <ele>84.4</ele>
        <time>2017-12-12T17:34:29Z</time>
      </trkpt>
      <trkpt lat="62.633169231262" lon="17.984930177264">
        <ele>83.8</ele>
        <time>2017-12-12T17:34:30Z</time>
      </trkpt>
      <trkpt lat="62.633183312854" lon="17.984820039098">
        <ele>83</ele>
        <time>2017-12-12T17:34:31Z</time>
      </trkpt>
      <trkpt lat="62.633200998663" lon="17.984734040804">
        <ele>82</ele>
        <time>2017-12-12T17:34:32Z</time>
      </trkpt>
      <trkpt lat="62.633219522662" lon="17.984646701406">
        <ele>81.6</ele>
        <time>2017-12-12T17:34:33Z</time>
      </trkpt>
      <trkpt lat="62.633239220127" lon="17.98456003256">
        <ele>81.2</ele>
        <time>2017-12-12T17:34:34Z</time>
      </trkpt>
      <trkpt lat="62.633234358625" lon="17.984492222989">
        <ele>80.8</ele>
        <time>2017-12-12T17:34:35Z</time>
      </trkpt>
      <trkpt lat="62.633252547348" lon="17.984400860279">
        <ele>81</ele>
        <time>2017-12-12T17:34:36Z</time>
      </trkpt>
      <trkpt lat="62.633262605628" lon="17.984335732916">
        <ele>81</ele>
        <time>2017-12-12T17:34:37Z</time>
      </trkpt>
      <trkpt lat="62.63326495256" lon="17.984276221426">
        <ele>81.2</ele>
        <time>2017-12-12T17:34:38Z</time>
      </trkpt>
      <trkpt lat="62.633278782695" lon="17.98418368525">
        <ele>81.4</ele>
        <time>2017-12-12T17:34:39Z</time>
      </trkpt>
      <trkpt lat="62.633273753555" lon="17.984123503208">
        <ele>81.6</ele>
        <time>2017-12-12T17:34:40Z</time>
      </trkpt>
      <trkpt lat="62.633283308921" lon="17.984055358361">
        <ele>81.8</ele>
        <time>2017-12-12T17:34:41Z</time>
      </trkpt>
      <trkpt lat="62.63328842188" lon="17.983983274021">
        <ele>82</ele>
        <time>2017-12-12T17:34:42Z</time>
      </trkpt>
      <trkpt lat="62.633292864287" lon="17.983935664829">
        <ele>82</ele>
        <time>2017-12-12T17:34:43Z</time>
      </trkpt>
      <trkpt lat="62.633309711906" lon="17.98385846753">
        <ele>82</ele>
        <time>2017-12-12T17:34:44Z</time>
      </trkpt>
      <trkpt lat="62.633311220648" lon="17.983801386791">
        <ele>82.2</ele>
        <time>2017-12-12T17:34:45Z</time>
      </trkpt>
      <trkpt lat="62.633319183453" lon="17.983740785654">
        <ele>82.2</ele>
        <time>2017-12-12T17:34:46Z</time>
      </trkpt>
      <trkpt lat="62.633309711906" lon="17.983675658291">
        <ele>82.2</ele>
        <time>2017-12-12T17:34:47Z</time>
      </trkpt>
      <trkpt lat="62.633314908684" lon="17.983625785986">
        <ele>82.4</ele>
        <time>2017-12-12T17:34:48Z</time>
      </trkpt>
      <trkpt lat="62.633334438511" lon="17.983550935619">
        <ele>82.4</ele>
        <time>2017-12-12T17:34:49Z</time>
      </trkpt>
      <trkpt lat="62.633340557298" lon="17.983501314771">
        <ele>82.4</ele>
        <time>2017-12-12T17:34:50Z</time>
      </trkpt>
      <trkpt lat="62.633354806528" lon="17.983437109417">
        <ele>82.6</ele>
        <time>2017-12-12T17:34:51Z</time>
      </trkpt>
      <trkpt lat="62.63336134441" lon="17.983391092786">
        <ele>82.4</ele>
        <time>2017-12-12T17:34:52Z</time>
      </trkpt>
      <trkpt lat="62.633375006907" lon="17.983353709512">
        <ele>82.4</ele>
        <time>2017-12-12T17:34:53Z</time>
      </trkpt>
      <trkpt lat="62.633394369096" lon="17.983290845262">
        <ele>82.4</ele>
        <time>2017-12-12T17:34:54Z</time>
      </trkpt>
      <trkpt lat="62.633395626381" lon="17.983244744812">
        <ele>82.4</ele>
        <time>2017-12-12T17:34:55Z</time>
      </trkpt>
      <trkpt lat="62.633415910579" lon="17.983178192526">
        <ele>82.4</ele>
        <time>2017-12-12T17:34:56Z</time>
      </trkpt>
      <trkpt lat="62.633419430977" lon="17.983137288854">
        <ele>82.4</ele>
        <time>2017-12-12T17:34:57Z</time>
      </trkpt>
      <trkpt lat="62.633446420695" lon="17.983089344386">
        <ele>82.4</ele>
        <time>2017-12-12T17:34:58Z</time>
      </trkpt>
      <trkpt lat="62.633462849219" lon="17.983049697999">
        <ele>82.4</ele>
        <time>2017-12-12T17:34:59Z</time>
      </trkpt>
      <trkpt lat="62.633483301055" lon="17.982985660283">
        <ele>82.4</ele>
        <time>2017-12-12T17:35:00Z</time>
      </trkpt>
      <trkpt lat="62.633491934412" lon="17.98293981129">
        <ele>82.4</ele>
        <time>2017-12-12T17:35:01Z</time>
      </trkpt>
      <trkpt lat="62.633507860022" lon="17.982887927329">
        <ele>82.4</ele>
        <time>2017-12-12T17:35:02Z</time>
      </trkpt>
      <trkpt lat="62.633521019605" lon="17.982833109703">
        <ele>82.4</ele>
        <time>2017-12-12T17:35:03Z</time>
      </trkpt>
      <trkpt lat="62.633530323514" lon="17.982770916005">
        <ele>82.4</ele>
        <time>2017-12-12T17:35:04Z</time>
      </trkpt>
      <trkpt lat="62.633547757866" lon="17.982726659573">
        <ele>82.6</ele>
        <time>2017-12-12T17:35:05Z</time>
      </trkpt>
      <trkpt lat="62.63355412811" lon="17.982675697621">
        <ele>82.6</ele>
        <time>2017-12-12T17:35:06Z</time>
      </trkpt>
      <trkpt lat="62.633571646281" lon="17.982603110367">
        <ele>82.6</ele>
        <time>2017-12-12T17:35:07Z</time>
      </trkpt>
      <trkpt lat="62.633570221358" lon="17.982558686297">
        <ele>82.6</ele>
        <time>2017-12-12T17:35:08Z</time>
      </trkpt>
      <trkpt lat="62.633587488072" lon="17.98248215955">
        <ele>82.8</ele>
        <time>2017-12-12T17:35:09Z</time>
      </trkpt>
      <trkpt lat="62.633595869972" lon="17.982428263933">
        <ele>82.8</ele>
        <time>2017-12-12T17:35:10Z</time>
      </trkpt>
      <trkpt lat="62.633608694279" lon="17.982367495158">
        <ele>82.8</ele>
        <time>2017-12-12T17:35:11Z</time>
      </trkpt>
      <trkpt lat="62.633606347347" lon="17.982300607596">
        <ele>82.8</ele>
        <time>2017-12-12T17:35:12Z</time>
      </trkpt>
      <trkpt lat="62.633609197193" lon="17.98224662816">
        <ele>82.8</ele>
        <time>2017-12-12T17:35:13Z</time>
      </trkpt>
      <trkpt lat="62.633617076179" lon="17.982177728942">
        <ele>82.8</ele>
        <time>2017-12-12T17:35:14Z</time>
      </trkpt>
      <trkpt lat="62.63361950693" lon="17.982137412003">
        <ele>82.8</ele>
        <time>2017-12-12T17:35:15Z</time>
      </trkpt>
      <trkpt lat="62.633629397572" lon="17.98206306455">
        <ele>82.8</ele>
        <time>2017-12-12T17:35:16Z</time>
      </trkpt>
      <trkpt lat="62.633628224106" lon="17.982024423991">
        <ele>82.8</ele>
        <time>2017-12-12T17:35:17Z</time>
      </trkpt>
      <trkpt lat="62.633637360377" lon="17.981961559741">
        <ele>82.8</ele>
        <time>2017-12-12T17:35:18Z</time>
      </trkpt>
      <trkpt lat="62.633636438368" lon="17.981906574477">
        <ele>83</ele>
        <time>2017-12-12T17:35:19Z</time>
      </trkpt>
      <trkpt lat="62.633640796956" lon="17.981858965285">
        <ele>83</ele>
        <time>2017-12-12T17:35:20Z</time>
      </trkpt>
      <trkpt lat="62.633645239363" lon="17.981799369976">
        <ele>83.2</ele>
        <time>2017-12-12T17:35:21Z</time>
      </trkpt>
      <trkpt lat="62.633647586295" lon="17.981757711933">
        <ele>83</ele>
        <time>2017-12-12T17:35:22Z</time>
      </trkpt>
      <trkpt lat="62.633652950711" lon="17.981694931502">
        <ele>83</ele>
        <time>2017-12-12T17:35:23Z</time>
      </trkpt>
      <trkpt lat="62.633655297643" lon="17.981647825224">
        <ele>83</ele>
        <time>2017-12-12T17:35:24Z</time>
      </trkpt>
      <trkpt lat="62.633666613208" lon="17.981579596558">
        <ele>83</ele>
        <time>2017-12-12T17:35:25Z</time>
      </trkpt>
      <trkpt lat="62.633670049787" lon="17.98154925408">
        <ele>83</ele>
        <time>2017-12-12T17:35:26Z</time>
      </trkpt>
      <trkpt lat="62.633674659832" lon="17.981468117288">
        <ele>82.8</ele>
        <time>2017-12-12T17:35:27Z</time>
      </trkpt>
      <trkpt lat="62.633688573786" lon="17.981416317146">
        <ele>83</ele>
        <time>2017-12-12T17:35:28Z</time>
      </trkpt>
      <trkpt lat="62.633701146636" lon="17.981359236407">
        <ele>83</ele>
        <time>2017-12-12T17:35:29Z</time>
      </trkpt>
      <trkpt lat="62.633717994255" lon="17.98130198803">
        <ele>83</ele>
        <time>2017-12-12T17:35:30Z</time>
      </trkpt>
      <trkpt lat="62.633731070019" lon="17.981255468485">
        <ele>83</ele>
        <time>2017-12-12T17:35:31Z</time>
      </trkpt>
      <trkpt lat="62.633753030597" lon="17.981200315583">
        <ele>83.2</ele>
        <time>2017-12-12T17:35:32Z</time>
      </trkpt>
      <trkpt lat="62.633763507972" lon="17.981170559838">
        <ele>83.4</ele>
        <time>2017-12-12T17:35:33Z</time>
      </trkpt>
      <trkpt lat="62.633778595392" lon="17.981122531551">
        <ele>83.4</ele>
        <time>2017-12-12T17:35:34Z</time>
      </trkpt>
      <trkpt lat="62.633800472151" lon="17.981056901274">
        <ele>83.4</ele>
        <time>2017-12-12T17:35:35Z</time>
      </trkpt>
      <trkpt lat="62.633813464096" lon="17.981024128045">
        <ele>83.6</ele>
        <time>2017-12-12T17:35:36Z</time>
      </trkpt>
      <trkpt lat="62.63382737805" lon="17.980985738943">
        <ele>83.8</ele>
        <time>2017-12-12T17:35:37Z</time>
      </trkpt>
      <trkpt lat="62.633845566773" lon="17.980921701227">
        <ele>83.6</ele>
        <time>2017-12-12T17:35:38Z</time>
      </trkpt>
      <trkpt lat="62.633859983641" lon="17.980884820867">
        <ele>83.8</ele>
        <time>2017-12-12T17:35:39Z</time>
      </trkpt>
      <trkpt lat="62.633874065233" lon="17.980851628543">
        <ele>83.8</ele>
        <time>2017-12-12T17:35:40Z</time>
      </trkpt>
      <trkpt lat="62.633896528725" lon="17.980795050718">
        <ele>83.6</ele>
        <time>2017-12-12T17:35:41Z</time>
      </trkpt>
      <trkpt lat="62.63391706438" lon="17.980778873651">
        <ele>83.8</ele>
        <time>2017-12-12T17:35:42Z</time>
      </trkpt>
      <trkpt lat="62.633934414913" lon="17.980723972206">
        <ele>83.8</ele>
        <time>2017-12-12T17:35:43Z</time>
      </trkpt>
      <trkpt lat="62.63396316483" lon="17.980679045222">
        <ele>83.8</ele>
        <time>2017-12-12T17:35:44Z</time>
      </trkpt>
      <trkpt lat="62.633976240594" lon="17.980628502365">
        <ele>83.8</ele>
        <time>2017-12-12T17:35:45Z</time>
      </trkpt>
      <trkpt lat="62.633990992738" lon="17.980572343635">
        <ele>84</ele>
        <time>2017-12-12T17:35:46Z</time>
      </trkpt>
      <trkpt lat="62.633998955543" lon="17.980544599546">
        <ele>84</ele>
        <time>2017-12-12T17:35:47Z</time>
      </trkpt>
      <trkpt lat="62.634021419035" lon="17.980486010065">
        <ele>84</ele>
        <time>2017-12-12T17:35:48Z</time>
      </trkpt>
      <trkpt lat="62.634032483143" lon="17.980460193813">
        <ele>84.2</ele>
        <time>2017-12-12T17:35:49Z</time>
      </trkpt>
      <trkpt lat="62.634060562508" lon="17.980403196893">
        <ele>84.2</ele>
        <time>2017-12-12T17:35:50Z</time>
      </trkpt>
      <trkpt lat="62.634076236661" lon="17.980372519139">
        <ele>84.2</ele>
        <time>2017-12-12T17:35:51Z</time>
      </trkpt>
      <trkpt lat="62.634090904986" lon="17.980339997367">
        <ele>84.2</ele>
        <time>2017-12-12T17:35:52Z</time>
      </trkpt>
      <trkpt lat="62.634116385962" lon="17.980293058727">
        <ele>84.2</ele>
        <time>2017-12-12T17:35:53Z</time>
      </trkpt>
      <trkpt lat="62.634127366251" lon="17.980244862802">
        <ele>84.2</ele>
        <time>2017-12-12T17:35:54Z</time>
      </trkpt>
      <trkpt lat="62.634148656277" lon="17.980189626081">
        <ele>84.2</ele>
        <time>2017-12-12T17:35:55Z</time>
      </trkpt>
      <trkpt lat="62.634164833344" lon="17.980153751549">
        <ele>84.2</ele>
        <time>2017-12-12T17:35:56Z</time>
      </trkpt>
      <trkpt lat="62.634199702048" lon="17.980100777941">
        <ele>84.2</ele>
        <time>2017-12-12T17:35:57Z</time>
      </trkpt>
      <trkpt lat="62.634206407568" lon="17.980058197889">
        <ele>84.4</ele>
        <time>2017-12-12T17:35:58Z</time>
      </trkpt>
      <trkpt lat="62.634229038698" lon="17.980001620064">
        <ele>84.4</ele>
        <time>2017-12-12T17:35:59Z</time>
      </trkpt>
      <trkpt lat="62.634247478878" lon="17.979962141315">
        <ele>84.4</ele>
        <time>2017-12-12T17:36:00Z</time>
      </trkpt>
      <trkpt lat="62.634263153031" lon="17.979916208503">
        <ele>84.4</ele>
        <time>2017-12-12T17:36:01Z</time>
      </trkpt>
      <trkpt lat="62.634278911003" lon="17.97986868313">
        <ele>84.4</ele>
        <time>2017-12-12T17:36:02Z</time>
      </trkpt>
      <trkpt lat="62.634289556016" lon="17.97983180277">
        <ele>84.4</ele>
        <time>2017-12-12T17:36:03Z</time>
      </trkpt>
      <trkpt lat="62.634303050875" lon="17.97976977671">
        <ele>84.4</ele>
        <time>2017-12-12T17:36:04Z</time>
      </trkpt>
      <trkpt lat="62.634307241825" lon="17.979723927717">
        <ele>84.4</ele>
        <time>2017-12-12T17:36:05Z</time>
      </trkpt>
      <trkpt lat="62.634317132467" lon="17.979659722363">
        <ele>84.4</ele>
        <time>2017-12-12T17:36:06Z</time>
      </trkpt>
      <trkpt lat="62.634318892666" lon="17.979623596374">
        <ele>84.4</ele>
        <time>2017-12-12T17:36:07Z</time>
      </trkpt>
      <trkpt lat="62.634329034765" lon="17.979576406277">
        <ele>84.2</ele>
        <time>2017-12-12T17:36:08Z</time>
      </trkpt>
      <trkpt lat="62.634335740285" lon="17.97954262722">
        <ele>84.2</ele>
        <time>2017-12-12T17:36:09Z</time>
      </trkpt>
      <trkpt lat="62.634343619271" lon="17.97950071772">
        <ele>84.2</ele>
        <time>2017-12-12T17:36:10Z</time>
      </trkpt>
      <trkpt lat="62.634353929008" lon="17.979446989741">
        <ele>84.2</ele>
        <time>2017-12-12T17:36:11Z</time>
      </trkpt>
      <trkpt lat="62.634354431922" lon="17.979408097725">
        <ele>84.2</ele>
        <time>2017-12-12T17:36:12Z</time>
      </trkpt>
      <trkpt lat="62.634362730003" lon="17.979360656171">
        <ele>84</ele>
        <time>2017-12-12T17:36:13Z</time>
      </trkpt>
      <trkpt lat="62.634368094419" lon="17.979312795522">
        <ele>84</ele>
        <time>2017-12-12T17:36:14Z</time>
      </trkpt>
      <trkpt lat="62.634384690581" lon="17.979262252665">
        <ele>84.2</ele>
        <time>2017-12-12T17:36:15Z</time>
      </trkpt>
      <trkpt lat="62.634384103848" lon="17.979205004288">
        <ele>84.2</ele>
        <time>2017-12-12T17:36:16Z</time>
      </trkpt>
      <trkpt lat="62.634393910671" lon="17.979167621014">
        <ele>84</ele>
        <time>2017-12-12T17:36:17Z</time>
      </trkpt>
      <trkpt lat="62.634407824625" lon="17.979104672945">
        <ele>84</ele>
        <time>2017-12-12T17:36:18Z</time>
      </trkpt>
      <trkpt lat="62.634412937584" lon="17.9790581534">
        <ele>84</ele>
        <time>2017-12-12T17:36:19Z</time>
      </trkpt>
      <trkpt lat="62.634424588425" lon="17.978986823431">
        <ele>84</ele>
        <time>2017-12-12T17:36:20Z</time>
      </trkpt>
      <trkpt lat="62.63442836028" lon="17.978943237551">
        <ele>84</ele>
        <time>2017-12-12T17:36:21Z</time>
      </trkpt>
      <trkpt lat="62.634441938958" lon="17.978873667781">
        <ele>84</ele>
        <time>2017-12-12T17:36:22Z</time>
      </trkpt>
      <trkpt lat="62.634441100768" lon="17.978825304218">
        <ele>84</ele>
        <time>2017-12-12T17:36:23Z</time>
      </trkpt>
      <trkpt lat="62.634457026378" lon="17.978756656457">
        <ele>84</ele>
        <time>2017-12-12T17:36:24Z</time>
      </trkpt>
      <trkpt lat="62.634464234812" lon="17.978697899338">
        <ele>84.2</ele>
        <time>2017-12-12T17:36:25Z</time>
      </trkpt>
      <trkpt lat="62.634474879825" lon="17.978649451956">
        <ele>84</ele>
        <time>2017-12-12T17:36:26Z</time>
      </trkpt>
      <trkpt lat="62.634484267553" lon="17.978591784484">
        <ele>84</ele>
        <time>2017-12-12T17:36:27Z</time>
      </trkpt>
      <trkpt lat="62.634494074376" lon="17.9785384756">
        <ele>84.2</ele>
        <time>2017-12-12T17:36:28Z</time>
      </trkpt>
      <trkpt lat="62.634507401597" lon="17.978454405143">
        <ele>84.2</ele>
        <time>2017-12-12T17:36:29Z</time>
      </trkpt>
      <trkpt lat="62.634517292239" lon="17.978393384911">
        <ele>84</ele>
        <time>2017-12-12T17:36:30Z</time>
      </trkpt>
      <trkpt lat="62.634532547297" lon="17.978305291142">
        <ele>84</ele>
        <time>2017-12-12T17:36:31Z</time>
      </trkpt>
      <trkpt lat="62.634537408799" lon="17.978252820448">
        <ele>83.8</ele>
        <time>2017-12-12T17:36:32Z</time>
      </trkpt>
      <trkpt lat="62.63455408878" lon="17.978169169086">
        <ele>83.8</ele>
        <time>2017-12-12T17:36:33Z</time>
      </trkpt>
      <trkpt lat="62.634563057413" lon="17.978107226845">
        <ele>83.6</ele>
        <time>2017-12-12T17:36:34Z</time>
      </trkpt>
      <trkpt lat="62.63457671991" lon="17.978030364822">
        <ele>83</ele>
        <time>2017-12-12T17:36:35Z</time>
      </trkpt>
      <trkpt lat="62.634586275276" lon="17.977959873043">
        <ele>83</ele>
        <time>2017-12-12T17:36:36Z</time>
      </trkpt>
      <trkpt lat="62.634596585013" lon="17.977909916919">
        <ele>82.8</ele>
        <time>2017-12-12T17:36:37Z</time>
      </trkpt>
      <trkpt lat="62.634605553646" lon="17.977839760416">
        <ele>82.8</ele>
        <time>2017-12-12T17:36:38Z</time>
      </trkpt>
      <trkpt lat="62.634609074044" lon="17.97779416288">
        <ele>82.6</ele>
        <time>2017-12-12T17:36:39Z</time>
      </trkpt>
      <trkpt lat="62.634622233627" lon="17.977722832911">
        <ele>82.6</ele>
        <time>2017-12-12T17:36:40Z</time>
      </trkpt>
      <trkpt lat="62.63462533493" lon="17.977662734688">
        <ele>82.4</ele>
        <time>2017-12-12T17:36:41Z</time>
      </trkpt>
      <trkpt lat="62.634640170893" lon="17.977590901805">
        <ele>82.4</ele>
        <time>2017-12-12T17:36:42Z</time>
      </trkpt>
      <trkpt lat="62.634643691291" lon="17.977528791926">
        <ele>82.4</ele>
        <time>2017-12-12T17:36:43Z</time>
      </trkpt>
      <trkpt lat="62.634655006856" lon="17.977471962644">
        <ele>82.6</ele>
        <time>2017-12-12T17:36:44Z</time>
      </trkpt>
      <trkpt lat="62.634660119815" lon="17.977400967951">
        <ele>82.4</ele>
        <time>2017-12-12T17:36:45Z</time>
      </trkpt>
      <trkpt lat="62.634668417896" lon="17.977369116731">
        <ele>82.4</ele>
        <time>2017-12-12T17:36:46Z</time>
      </trkpt>
      <trkpt lat="62.634678308538" lon="17.977311449259">
        <ele>82.4</ele>
        <time>2017-12-12T17:36:47Z</time>
      </trkpt>
      <trkpt lat="62.63468484642" lon="17.977277083469">
        <ele>82.2</ele>
        <time>2017-12-12T17:36:48Z</time>
      </trkpt>
      <trkpt lat="62.634693144501" lon="17.977238862005">
        <ele>82.4</ele>
        <time>2017-12-12T17:36:49Z</time>
      </trkpt>
      <trkpt lat="62.63470244841" lon="17.977174656651">
        <ele>82.2</ele>
        <time>2017-12-12T17:36:50Z</time>
      </trkpt>
      <trkpt lat="62.634709237749" lon="17.97714121287">
        <ele>82.2</ele>
        <time>2017-12-12T17:36:51Z</time>
      </trkpt>
      <trkpt lat="62.634721559142" lon="17.977067871245">
        <ele>82.2</ele>
        <time>2017-12-12T17:36:52Z</time>
      </trkpt>
      <trkpt lat="62.634727761748" lon="17.977015065275">
        <ele>82.2</ele>
        <time>2017-12-12T17:36:53Z</time>
      </trkpt>
      <trkpt lat="62.634744274091" lon="17.976942980935">
        <ele>82.2</ele>
        <time>2017-12-12T17:36:54Z</time>
      </trkpt>
      <trkpt lat="62.634751482525" lon="17.976887408938">
        <ele>82.2</ele>
        <time>2017-12-12T17:36:55Z</time>
      </trkpt>
      <trkpt lat="62.634764558289" lon="17.976833178045">
        <ele>82.2</ele>
        <time>2017-12-12T17:36:56Z</time>
      </trkpt>
      <trkpt lat="62.634772772551" lon="17.976767799225">
        <ele>82.2</ele>
        <time>2017-12-12T17:36:57Z</time>
      </trkpt>
      <trkpt lat="62.634785764496" lon="17.976719268024">
        <ele>82.2</ele>
        <time>2017-12-12T17:36:58Z</time>
      </trkpt>
      <trkpt lat="62.634801438649" lon="17.976652129005">
        <ele>82.2</ele>
        <time>2017-12-12T17:36:59Z</time>
      </trkpt>
      <trkpt lat="62.634811245472" lon="17.976602675795">
        <ele>82.4</ele>
        <time>2017-12-12T17:37:00Z</time>
      </trkpt>
      <trkpt lat="62.634822477218" lon="17.976519359709">
        <ele>82.2</ele>
        <time>2017-12-12T17:37:01Z</time>
      </trkpt>
      <trkpt lat="62.634821555209" lon="17.976478539856">
        <ele>82</ele>
        <time>2017-12-12T17:37:02Z</time>
      </trkpt>
      <trkpt lat="62.634839241018" lon="17.976412574303">
        <ele>81.8</ele>
        <time>2017-12-12T17:37:03Z</time>
      </trkpt>
      <trkpt lat="62.6348457789" lon="17.976353481908">
        <ele>81.6</ele>
        <time>2017-12-12T17:37:04Z</time>
      </trkpt>
      <trkpt lat="62.634866985107" lon="17.976286007613">
        <ele>81.6</ele>
        <time>2017-12-12T17:37:05Z</time>
      </trkpt>
      <trkpt lat="62.634882826898" lon="17.976218952413">
        <ele>81.4</ele>
        <time>2017-12-12T17:37:06Z</time>
      </trkpt>
      <trkpt lat="62.634898165775" lon="17.976159776199">
        <ele>81.4</ele>
        <time>2017-12-12T17:37:07Z</time>
      </trkpt>
      <trkpt lat="62.634909313702" lon="17.976091044619">
        <ele>81.2</ele>
        <time>2017-12-12T17:37:08Z</time>
      </trkpt>
      <trkpt lat="62.634925658407" lon="17.976024408514">
        <ele>81.2</ele>
        <time>2017-12-12T17:37:09Z</time>
      </trkpt>
      <trkpt lat="62.634941835474" lon="17.975938829315">
        <ele>81.2</ele>
        <time>2017-12-12T17:37:10Z</time>
      </trkpt>
      <trkpt lat="62.634950804107" lon="17.975882083852">
        <ele>80.8</ele>
        <time>2017-12-12T17:37:11Z</time>
      </trkpt>
      <trkpt lat="62.634969663382" lon="17.975793738626">
        <ele>80.8</ele>
        <time>2017-12-12T17:37:12Z</time>
      </trkpt>
      <trkpt lat="62.634979721662" lon="17.975742525217">
        <ele>80.8</ele>
        <time>2017-12-12T17:37:13Z</time>
      </trkpt>
      <trkpt lat="62.634992210693" lon="17.975653006525">
        <ele>80.6</ele>
        <time>2017-12-12T17:37:14Z</time>
      </trkpt>
      <trkpt lat="62.634994306168" lon="17.975598188899">
        <ele>80.4</ele>
        <time>2017-12-12T17:37:15Z</time>
      </trkpt>
      <trkpt lat="62.635007046656" lon="17.975548484232">
        <ele>80.2</ele>
        <time>2017-12-12T17:37:16Z</time>
      </trkpt>
      <trkpt lat="62.635012411072" lon="17.975487715457">
        <ele>80</ele>
        <time>2017-12-12T17:37:17Z</time>
      </trkpt>
      <trkpt lat="62.635018110764" lon="17.975428706881">
        <ele>80.2</ele>
        <time>2017-12-12T17:37:18Z</time>
      </trkpt>
      <trkpt lat="62.635028336682" lon="17.975331895936">
        <ele>80</ele>
        <time>2017-12-12T17:37:19Z</time>
      </trkpt>
      <trkpt lat="62.635029007234" lon="17.975273222636">
        <ele>80</ele>
        <time>2017-12-12T17:37:20Z</time>
      </trkpt>
      <trkpt lat="62.635027079397" lon="17.975185045048">
        <ele>80</ele>
        <time>2017-12-12T17:37:21Z</time>
      </trkpt>
      <trkpt lat="62.635022804628" lon="17.975100974591">
        <ele>79.8</ele>
        <time>2017-12-12T17:37:22Z</time>
      </trkpt>
      <trkpt lat="62.63501257871" lon="17.975019837799">
        <ele>79.6</ele>
        <time>2017-12-12T17:37:23Z</time>
      </trkpt>
      <trkpt lat="62.634993803254" lon="17.974931911668">
        <ele>79.2</ele>
        <time>2017-12-12T17:37:24Z</time>
      </trkpt>
      <trkpt lat="62.634974608703" lon="17.974853540903">
        <ele>79</ele>
        <time>2017-12-12T17:37:25Z</time>
      </trkpt>
      <trkpt lat="62.634957761084" lon="17.974793694137">
        <ele>78.6</ele>
        <time>2017-12-12T17:37:26Z</time>
      </trkpt>
      <trkpt lat="62.63493127428" lon="17.974705684187">
        <ele>78.4</ele>
        <time>2017-12-12T17:37:27Z</time>
      </trkpt>
      <trkpt lat="62.634913756109" lon="17.974640640643">
        <ele>78.2</ele>
        <time>2017-12-12T17:37:28Z</time>
      </trkpt>
      <trkpt lat="62.634897159947" lon="17.974557827471">
        <ele>78</ele>
        <time>2017-12-12T17:37:29Z</time>
      </trkpt>
      <trkpt lat="62.634877378663" lon="17.974481216905">
        <ele>77.8</ele>
        <time>2017-12-12T17:37:30Z</time>
      </trkpt>
      <trkpt lat="62.634864470537" lon="17.97439865519">
        <ele>77.6</ele>
        <time>2017-12-12T17:37:31Z</time>
      </trkpt>
      <trkpt lat="62.634847203823" lon="17.974351129817">
        <ele>77.6</ele>
        <time>2017-12-12T17:37:32Z</time>
      </trkpt>
      <trkpt lat="62.63484494071" lon="17.974279464572">
        <ele>77.4</ele>
        <time>2017-12-12T17:37:33Z</time>
      </trkpt>
      <trkpt lat="62.634828931281" lon="17.97421509158">
        <ele>77.4</ele>
        <time>2017-12-12T17:37:34Z</time>
      </trkpt>
      <trkpt lat="62.634824991788" lon="17.974167733845">
        <ele>77.2</ele>
        <time>2017-12-12T17:37:35Z</time>
      </trkpt>
      <trkpt lat="62.634816023155" lon="17.974093889306">
        <ele>77.2</ele>
        <time>2017-12-12T17:37:36Z</time>
      </trkpt>
      <trkpt lat="62.634815268784" lon="17.974067318683">
        <ele>77</ele>
        <time>2017-12-12T17:37:37Z</time>
      </trkpt>
      <trkpt lat="62.634803366486" lon="17.974001772225">
        <ele>76.8</ele>
        <time>2017-12-12T17:37:38Z</time>
      </trkpt>
      <trkpt lat="62.634793727301" lon="17.973945864952">
        <ele>77</ele>
        <time>2017-12-12T17:37:39Z</time>
      </trkpt>
      <trkpt lat="62.63478123827" lon="17.973895908828">
        <ele>76.8</ele>
        <time>2017-12-12T17:37:40Z</time>
      </trkpt>
      <trkpt lat="62.634764977384" lon="17.973838325175">
        <ele>76.8</ele>
        <time>2017-12-12T17:37:41Z</time>
      </trkpt>
      <trkpt lat="62.634748884136" lon="17.973786692671">
        <ele>76.8</ele>
        <time>2017-12-12T17:37:42Z</time>
      </trkpt>
      <trkpt lat="62.634735724553" lon="17.973715949435">
        <ele>76.8</ele>
        <time>2017-12-12T17:37:43Z</time>
      </trkpt>
      <trkpt lat="62.634723989893" lon="17.973657611411">
        <ele>76.6</ele>
        <time>2017-12-12T17:37:44Z</time>
      </trkpt>
      <trkpt lat="62.634718625477" lon="17.973566416339">
        <ele>76.4</ele>
        <time>2017-12-12T17:37:45Z</time>
      </trkpt>
      <trkpt lat="62.634723486979" lon="17.973515873482">
        <ele>76.2</ele>
        <time>2017-12-12T17:37:46Z</time>
      </trkpt>
      <trkpt lat="62.634714685984" lon="17.97344060402">
        <ele>76.2</ele>
        <time>2017-12-12T17:37:47Z</time>
      </trkpt>
      <trkpt lat="62.6347032866" lon="17.973377572132">
        <ele>76.2</ele>
        <time>2017-12-12T17:37:48Z</time>
      </trkpt>
      <trkpt lat="62.634702364591" lon="17.973305068697">
        <ele>76.2</ele>
        <time>2017-12-12T17:37:49Z</time>
      </trkpt>
      <trkpt lat="62.634698341279" lon="17.973236169479">
        <ele>76.2</ele>
        <time>2017-12-12T17:37:50Z</time>
      </trkpt>
      <trkpt lat="62.634702867505" lon="17.973164923329">
        <ele>76.2</ele>
        <time>2017-12-12T17:37:51Z</time>
      </trkpt>
      <trkpt lat="62.634704376247" lon="17.973076578103">
        <ele>76</ele>
        <time>2017-12-12T17:37:52Z</time>
      </trkpt>
      <trkpt lat="62.63471669764" lon="17.973023101581">
        <ele>76</ele>
        <time>2017-12-12T17:37:53Z</time>
      </trkpt>
      <trkpt lat="62.634739244951" lon="17.972937606201">
        <ele>76</ele>
        <time>2017-12-12T17:37:54Z</time>
      </trkpt>
      <trkpt lat="62.634744944643" lon="17.972870215725">
        <ele>76</ele>
        <time>2017-12-12T17:37:55Z</time>
      </trkpt>
      <trkpt lat="62.634764893565" lon="17.972786480544">
        <ele>75.8</ele>
        <time>2017-12-12T17:37:56Z</time>
      </trkpt>
      <trkpt lat="62.634777634053" lon="17.972719592982">
        <ele>75.6</ele>
        <time>2017-12-12T17:37:57Z</time>
      </trkpt>
      <trkpt lat="62.634795990414" lon="17.972651196678">
        <ele>75.6</ele>
        <time>2017-12-12T17:37:58Z</time>
      </trkpt>
      <trkpt lat="62.634809820549" lon="17.972589086799">
        <ele>75.4</ele>
        <time>2017-12-12T17:37:59Z</time>
      </trkpt>
      <trkpt lat="62.6348290151" lon="17.972526054911">
        <ele>75.2</ele>
        <time>2017-12-12T17:38:00Z</time>
      </trkpt>
      <trkpt lat="62.634846952366" lon="17.972447767965">
        <ele>75.2</ele>
        <time>2017-12-12T17:38:01Z</time>
      </trkpt>
      <trkpt lat="62.634860531044" lon="17.972399823497">
        <ele>75</ele>
        <time>2017-12-12T17:38:02Z</time>
      </trkpt>
      <trkpt lat="62.634888191314" lon="17.972325559863">
        <ele>75</ele>
        <time>2017-12-12T17:38:03Z</time>
      </trkpt>
      <trkpt lat="62.634901518535" lon="17.972267389477">
        <ele>74.8</ele>
        <time>2017-12-12T17:38:04Z</time>
      </trkpt>
      <trkpt lat="62.634926831873" lon="17.972191030368">
        <ele>74.6</ele>
        <time>2017-12-12T17:38:05Z</time>
      </trkpt>
      <trkpt lat="62.634936219601" lon="17.972129926317">
        <ele>74.6</ele>
        <time>2017-12-12T17:38:06Z</time>
      </trkpt>
      <trkpt lat="62.634959605102" lon="17.972062200565">
        <ele>74.6</ele>
        <time>2017-12-12T17:38:07Z</time>
      </trkpt>
      <trkpt lat="62.634982152413" lon="17.971988188388">
        <ele>74.4</ele>
        <time>2017-12-12T17:38:08Z</time>
      </trkpt>
      <trkpt lat="62.635009393588" lon="17.971889198149">
        <ele>74</ele>
        <time>2017-12-12T17:38:09Z</time>
      </trkpt>
      <trkpt lat="62.635028252863" lon="17.97178517877">
        <ele>73.2</ele>
        <time>2017-12-12T17:38:10Z</time>
      </trkpt>
      <trkpt lat="62.635045771034" lon="17.971692810232">
        <ele>72.8</ele>
        <time>2017-12-12T17:38:11Z</time>
      </trkpt>
      <trkpt lat="62.635060942273" lon="17.9715814986">
        <ele>72</ele>
        <time>2017-12-12T17:38:12Z</time>
      </trkpt>
      <trkpt lat="62.635074269494" lon="17.97149181227">
        <ele>71.4</ele>
        <time>2017-12-12T17:38:13Z</time>
      </trkpt>
      <trkpt lat="62.635087848172" lon="17.97138955309">
        <ele>70.8</ele>
        <time>2017-12-12T17:38:14Z</time>
      </trkpt>
      <trkpt lat="62.635099834289" lon="17.97129064667">
        <ele>70.4</ele>
        <time>2017-12-12T17:38:15Z</time>
      </trkpt>
      <trkpt lat="62.635114334976" lon="17.971193165173">
        <ele>70</ele>
        <time>2017-12-12T17:38:16Z</time>
      </trkpt>
      <trkpt lat="62.63512824893" lon="17.971107837431">
        <ele>69.8</ele>
        <time>2017-12-12T17:38:17Z</time>
      </trkpt>
      <trkpt lat="62.635142665798" lon="17.971002393129">
        <ele>69.6</ele>
        <time>2017-12-12T17:38:18Z</time>
      </trkpt>
      <trkpt lat="62.635155154829" lon="17.970901894148">
        <ele>69.4</ele>
        <time>2017-12-12T17:38:19Z</time>
      </trkpt>
      <trkpt lat="62.635166721851" lon="17.970811453447">
        <ele>69</ele>
        <time>2017-12-12T17:38:20Z</time>
      </trkpt>
      <trkpt lat="62.635178288873" lon="17.97071732471">
        <ele>68.6</ele>
        <time>2017-12-12T17:38:21Z</time>
      </trkpt>
      <trkpt lat="62.635188095696" lon="17.970620849041">
        <ele>68.2</ele>
        <time>2017-12-12T17:38:22Z</time>
      </trkpt>
      <trkpt lat="62.635196058501" lon="17.970530240702">
        <ele>67.6</ele>
        <time>2017-12-12T17:38:23Z</time>
      </trkpt>
      <trkpt lat="62.63520871517" lon="17.970430160816">
        <ele>67.2</ele>
        <time>2017-12-12T17:38:24Z</time>
      </trkpt>
      <trkpt lat="62.635219863097" lon="17.970331841129">
        <ele>67</ele>
        <time>2017-12-12T17:38:25Z</time>
      </trkpt>
      <trkpt lat="62.635234615241" lon="17.970224720447">
        <ele>66.6</ele>
        <time>2017-12-12T17:38:26Z</time>
      </trkpt>
      <trkpt lat="62.63525146286" lon="17.970124892018">
        <ele>66.8</ele>
        <time>2017-12-12T17:38:27Z</time>
      </trkpt>
      <trkpt lat="62.635272501429" lon="17.970025398865">
        <ele>66.6</ele>
        <time>2017-12-12T17:38:28Z</time>
      </trkpt>
      <trkpt lat="62.635297730948" lon="17.969919032554">
        <ele>66.6</ele>
        <time>2017-12-12T17:38:29Z</time>
      </trkpt>
      <trkpt lat="62.635323295743" lon="17.969814761718">
        <ele>66.4</ele>
        <time>2017-12-12T17:38:30Z</time>
      </trkpt>
      <trkpt lat="62.635348525262" lon="17.969714765651">
        <ele>66.4</ele>
        <time>2017-12-12T17:38:31Z</time>
      </trkpt>
      <trkpt lat="62.635373754781" lon="17.969618122344">
        <ele>66</ele>
        <time>2017-12-12T17:38:32Z</time>
      </trkpt>
      <trkpt lat="62.635400576861" lon="17.969518796829">
        <ele>65.6</ele>
        <time>2017-12-12T17:38:33Z</time>
      </trkpt>
      <trkpt lat="62.635425974018" lon="17.969424751911">
        <ele>65.4</ele>
        <time>2017-12-12T17:38:34Z</time>
      </trkpt>
      <trkpt lat="62.635451035899" lon="17.969326180767">
        <ele>65.2</ele>
        <time>2017-12-12T17:38:35Z</time>
      </trkpt>
      <trkpt lat="62.635479282902" lon="17.969219814456">
        <ele>65</ele>
        <time>2017-12-12T17:38:36Z</time>
      </trkpt>
      <trkpt lat="62.635507026991" lon="17.969116046534">
        <ele>64.6</ele>
        <time>2017-12-12T17:38:37Z</time>
      </trkpt>
      <trkpt lat="62.635531921234" lon="17.969026779299">
        <ele>64.4</ele>
        <time>2017-12-12T17:38:38Z</time>
      </trkpt>
      <trkpt lat="62.635559162409" lon="17.968922927558">
        <ele>64</ele>
        <time>2017-12-12T17:38:39Z</time>
      </trkpt>
      <trkpt lat="62.635584978661" lon="17.968835755798">
        <ele>63.8</ele>
        <time>2017-12-12T17:38:40Z</time>
      </trkpt>
      <trkpt lat="62.635611465465" lon="17.968754116092">
        <ele>63.4</ele>
        <time>2017-12-12T17:38:41Z</time>
      </trkpt>
      <trkpt lat="62.635642813771" lon="17.968678678992">
        <ele>63</ele>
        <time>2017-12-12T17:38:42Z</time>
      </trkpt>
      <trkpt lat="62.635674078258" lon="17.96861849695">
        <ele>62.4</ele>
        <time>2017-12-12T17:38:43Z</time>
      </trkpt>
      <trkpt lat="62.635711796808" lon="17.968562422039">
        <ele>62</ele>
        <time>2017-12-12T17:38:44Z</time>
      </trkpt>
      <trkpt lat="62.635735852861" lon="17.968519758168">
        <ele>61.6</ele>
        <time>2017-12-12T17:38:45Z</time>
      </trkpt>
      <trkpt lat="62.635783210596" lon="17.968472065157">
        <ele>61</ele>
        <time>2017-12-12T17:38:46Z</time>
      </trkpt>
      <trkpt lat="62.6358180793" lon="17.968449014932">
        <ele>60.8</ele>
        <time>2017-12-12T17:38:47Z</time>
      </trkpt>
      <trkpt lat="62.63585328328" lon="17.968432334951">
        <ele>60.4</ele>
        <time>2017-12-12T17:38:48Z</time>
      </trkpt>
      <trkpt lat="62.635898880816" lon="17.968421857576">
        <ele>60</ele>
        <time>2017-12-12T17:38:49Z</time>
      </trkpt>
      <trkpt lat="62.635944562171" lon="17.968433927512">
        <ele>59.8</ele>
        <time>2017-12-12T17:38:50Z</time>
      </trkpt>
      <trkpt lat="62.635976832486" lon="17.968442393231">
        <ele>59.4</ele>
        <time>2017-12-12T17:38:51Z</time>
      </trkpt>
      <trkpt lat="62.636006504412" lon="17.968454127891">
        <ele>59</ele>
        <time>2017-12-12T17:38:52Z</time>
      </trkpt>
      <trkpt lat="62.636049587378" lon="17.968471143148">
        <ele>58.4</ele>
        <time>2017-12-12T17:38:54Z</time>
      </trkpt>
      <trkpt lat="62.636067105549" lon="17.968473825356">
        <ele>58.4</ele>
        <time>2017-12-12T17:38:55Z</time>
      </trkpt>
      <trkpt lat="62.636090407231" lon="17.968471646062">
        <ele>58.2</ele>
        <time>2017-12-12T17:38:56Z</time>
      </trkpt>
      <trkpt lat="62.636101722796" lon="17.968478854496">
        <ele>58.2</ele>
        <time>2017-12-12T17:38:57Z</time>
      </trkpt>
      <trkpt lat="62.636122006994" lon="17.968484638007">
        <ele>58.4</ele>
        <time>2017-12-12T17:38:58Z</time>
      </trkpt>
      <trkpt lat="62.636144721943" lon="17.968495199201">
        <ele>58.4</ele>
        <time>2017-12-12T17:38:59Z</time>
      </trkpt>
      <trkpt lat="62.636162072476" lon="17.968500731255">
        <ele>58.4</ele>
        <time>2017-12-12T17:39:00Z</time>
      </trkpt>
      <trkpt lat="62.636195180981" lon="17.968513974657">
        <ele>58.4</ele>
        <time>2017-12-12T17:39:01Z</time>
      </trkpt>
      <trkpt lat="62.636219823767" lon="17.968536605787">
        <ele>58.4</ele>
        <time>2017-12-12T17:39:02Z</time>
      </trkpt>
      <trkpt lat="62.636239856508" lon="17.968548759542">
        <ele>58.6</ele>
        <time>2017-12-12T17:39:03Z</time>
      </trkpt>
      <trkpt lat="62.636264583113" lon="17.968579437296">
        <ele>58.6</ele>
        <time>2017-12-12T17:39:04Z</time>
      </trkpt>
      <trkpt lat="62.636285621682" lon="17.968612378163">
        <ele>58.6</ele>
        <time>2017-12-12T17:39:05Z</time>
      </trkpt>
      <trkpt lat="62.636313281952" lon="17.968658143337">
        <ele>58.6</ele>
        <time>2017-12-12T17:39:06Z</time>
      </trkpt>
      <trkpt lat="62.636334236702" lon="17.968694604602">
        <ele>58.6</ele>
        <time>2017-12-12T17:39:07Z</time>
      </trkpt>
      <trkpt lat="62.636350749045" lon="17.968722683967">
        <ele>58.4</ele>
        <time>2017-12-12T17:39:08Z</time>
      </trkpt>
      <trkpt lat="62.636373212537" lon="17.968775573756">
        <ele>58.2</ele>
        <time>2017-12-12T17:39:09Z</time>
      </trkpt>
      <trkpt lat="62.636394251106" lon="17.968803988397">
        <ele>58</ele>
        <time>2017-12-12T17:39:10Z</time>
      </trkpt>
      <trkpt lat="62.636410260535" lon="17.968847239001">
        <ele>57.8</ele>
        <time>2017-12-12T17:39:11Z</time>
      </trkpt>
      <trkpt lat="62.636429790362" lon="17.968892752718">
        <ele>57.8</ele>
        <time>2017-12-12T17:39:12Z</time>
      </trkpt>
      <trkpt lat="62.636449068732" lon="17.968913372192">
        <ele>57.6</ele>
        <time>2017-12-12T17:39:13Z</time>
      </trkpt>
      <trkpt lat="62.636469855844" lon="17.968971207302">
        <ele>57.6</ele>
        <time>2017-12-12T17:39:14Z</time>
      </trkpt>
      <trkpt lat="62.636488128386" lon="17.968996939735">
        <ele>57.6</ele>
        <time>2017-12-12T17:39:15Z</time>
      </trkpt>
      <trkpt lat="62.636502461435" lon="17.96903926833">
        <ele>57.8</ele>
        <time>2017-12-12T17:39:16Z</time>
      </trkpt>
      <trkpt lat="62.636520566339" lon="17.969072041559">
        <ele>57.8</ele>
        <time>2017-12-12T17:39:17Z</time>
      </trkpt>
      <trkpt lat="62.636535821397" lon="17.969105066245">
        <ele>57.8</ele>
        <time>2017-12-12T17:39:18Z</time>
      </trkpt>
      <trkpt lat="62.636551244093" lon="17.969172205264">
        <ele>57.8</ele>
        <time>2017-12-12T17:39:19Z</time>
      </trkpt>
      <trkpt lat="62.636565828599" lon="17.969207241606">
        <ele>57.8</ele>
        <time>2017-12-12T17:39:20Z</time>
      </trkpt>
      <trkpt lat="62.636577814716" lon="17.969272452788">
        <ele>58</ele>
        <time>2017-12-12T17:39:21Z</time>
      </trkpt>
      <trkpt lat="62.636592147765" lon="17.969317044496">
        <ele>58</ele>
        <time>2017-12-12T17:39:22Z</time>
      </trkpt>
      <trkpt lat="62.636604050063" lon="17.969367922629">
        <ele>58</ele>
        <time>2017-12-12T17:39:23Z</time>
      </trkpt>
      <trkpt lat="62.63662022713" lon="17.969424416635">
        <ele>58</ele>
        <time>2017-12-12T17:39:24Z</time>
      </trkpt>
      <trkpt lat="62.636630872143" lon="17.969467834877">
        <ele>57.8</ele>
        <time>2017-12-12T17:39:25Z</time>
      </trkpt>
      <trkpt lat="62.636641600975" lon="17.969527765462">
        <ele>57.8</ele>
        <time>2017-12-12T17:39:26Z</time>
      </trkpt>
      <trkpt lat="62.636653000359" lon="17.969556683017">
        <ele>58</ele>
        <time>2017-12-12T17:39:27Z</time>
      </trkpt>
      <trkpt lat="62.636660711707" lon="17.96961007572">
        <ele>58</ele>
        <time>2017-12-12T17:39:28Z</time>
      </trkpt>
      <trkpt lat="62.636674374204" lon="17.969650225021">
        <ele>58.2</ele>
        <time>2017-12-12T17:39:29Z</time>
      </trkpt>
      <trkpt lat="62.636685354493" lon="17.969694146177">
        <ele>58.2</ele>
        <time>2017-12-12T17:39:30Z</time>
      </trkpt>
      <trkpt lat="62.636694323126" lon="17.969745275767">
        <ele>58.4</ele>
        <time>2017-12-12T17:39:31Z</time>
      </trkpt>
      <trkpt lat="62.636705638691" lon="17.969774780055">
        <ele>58.2</ele>
        <time>2017-12-12T17:39:32Z</time>
      </trkpt>
      <trkpt lat="62.636719636464" lon="17.969835381192">
        <ele>58.2</ele>
        <time>2017-12-12T17:39:33Z</time>
      </trkpt>
      <trkpt lat="62.636732460771" lon="17.969869998439">
        <ele>58.4</ele>
        <time>2017-12-12T17:39:34Z</time>
      </trkpt>
      <trkpt lat="62.636753331702" lon="17.969927079178">
        <ele>58.2</ele>
        <time>2017-12-12T17:39:35Z</time>
      </trkpt>
      <trkpt lat="62.636771268968" lon="17.969953146887">
        <ele>58.2</ele>
        <time>2017-12-12T17:39:36Z</time>
      </trkpt>
      <trkpt lat="62.636787278397" lon="17.9699973195">
        <ele>58.4</ele>
        <time>2017-12-12T17:39:37Z</time>
      </trkpt>
      <trkpt lat="62.636807730233" lon="17.970031517652">
        <ele>58.4</ele>
        <time>2017-12-12T17:39:38Z</time>
      </trkpt>
      <trkpt lat="62.636825416042" lon="17.97005347823">
        <ele>58.4</ele>
        <time>2017-12-12T17:39:39Z</time>
      </trkpt>
      <trkpt lat="62.636845281145" lon="17.970098153757">
        <ele>58.6</ele>
        <time>2017-12-12T17:39:40Z</time>
      </trkpt>
      <trkpt lat="62.636862128764" lon="17.970122377448">
        <ele>58.6</ele>
        <time>2017-12-12T17:39:41Z</time>
      </trkpt>
      <trkpt lat="62.636886603912" lon="17.9701565756">
        <ele>58.6</ele>
        <time>2017-12-12T17:39:42Z</time>
      </trkpt>
      <trkpt lat="62.636907893938" lon="17.970167388251">
        <ele>58.6</ele>
        <time>2017-12-12T17:39:43Z</time>
      </trkpt>
      <trkpt lat="62.636932955819" lon="17.970189013553">
        <ele>58.6</ele>
        <time>2017-12-12T17:39:44Z</time>
      </trkpt>
      <trkpt lat="62.636961789555" lon="17.97020602881">
        <ele>58.8</ele>
        <time>2017-12-12T17:39:45Z</time>
      </trkpt>
      <trkpt lat="62.636990371834" lon="17.970213823977">
        <ele>58.8</ele>
        <time>2017-12-12T17:39:46Z</time>
      </trkpt>
      <trkpt lat="62.637022390692" lon="17.970210135941">
        <ele>59</ele>
        <time>2017-12-12T17:39:47Z</time>
      </trkpt>
      <trkpt lat="62.637041752881" lon="17.970192114856">
        <ele>59.4</ele>
        <time>2017-12-12T17:39:48Z</time>
      </trkpt>
      <trkpt lat="62.637079303793" lon="17.970193036865">
        <ele>59.4</ele>
        <time>2017-12-12T17:39:49Z</time>
      </trkpt>
      <trkpt lat="62.637109897728" lon="17.970176859798">
        <ele>59.4</ele>
        <time>2017-12-12T17:39:50Z</time>
      </trkpt>
      <trkpt lat="62.637134205238" lon="17.970157078514">
        <ele>59.2</ele>
        <time>2017-12-12T17:39:51Z</time>
      </trkpt>
      <trkpt lat="62.637171504693" lon="17.970132519547">
        <ele>59</ele>
        <time>2017-12-12T17:39:52Z</time>
      </trkpt>
      <trkpt lat="62.637204026465" lon="17.970114582281">
        <ele>58.8</ele>
        <time>2017-12-12T17:39:53Z</time>
      </trkpt>
      <trkpt lat="62.637240990644" lon="17.970093292255">
        <ele>58.4</ele>
        <time>2017-12-12T17:39:54Z</time>
      </trkpt>
      <trkpt lat="62.637277954823" lon="17.970070996401">
        <ele>58.2</ele>
        <time>2017-12-12T17:39:55Z</time>
      </trkpt>
      <trkpt lat="62.637302681428" lon="17.970053729687">
        <ele>58</ele>
        <time>2017-12-12T17:39:56Z</time>
      </trkpt>
      <trkpt lat="62.637343166005" lon="17.970050712203">
        <ele>57.8</ele>
        <time>2017-12-12T17:39:57Z</time>
      </trkpt>
      <trkpt lat="62.637368311705" lon="17.970020537363">
        <ele>57.6</ele>
        <time>2017-12-12T17:39:58Z</time>
      </trkpt>
      <trkpt lat="62.637410221205" lon="17.970020621182">
        <ele>57.2</ele>
        <time>2017-12-12T17:39:59Z</time>
      </trkpt>
      <trkpt lat="62.637443078253" lon="17.970022549019">
        <ele>57</ele>
        <time>2017-12-12T17:40:00Z</time>
      </trkpt>
      <trkpt lat="62.637483059916" lon="17.970049203461">
        <ele>57</ele>
        <time>2017-12-12T17:40:01Z</time>
      </trkpt>
      <trkpt lat="62.637510971643" lon="17.970060267569">
        <ele>56.8</ele>
        <time>2017-12-12T17:40:02Z</time>
      </trkpt>
      <trkpt lat="62.637539637741" lon="17.97008616764">
        <ele>56.6</ele>
        <time>2017-12-12T17:40:03Z</time>
      </trkpt>
      <trkpt lat="62.637572830065" lon="17.970135788488">
        <ele>56.6</ele>
        <time>2017-12-12T17:40:04Z</time>
      </trkpt>
      <trkpt lat="62.637596215566" lon="17.970161185645">
        <ele>56.4</ele>
        <time>2017-12-12T17:40:05Z</time>
      </trkpt>
      <trkpt lat="62.63761515866" lon="17.970217512013">
        <ele>56.4</ele>
        <time>2017-12-12T17:40:06Z</time>
      </trkpt>
      <trkpt lat="62.637634185573" lon="17.970276688227">
        <ele>56.2</ele>
        <time>2017-12-12T17:40:07Z</time>
      </trkpt>
      <trkpt lat="62.637655475599" lon="17.970319519736">
        <ele>56.2</ele>
        <time>2017-12-12T17:40:08Z</time>
      </trkpt>
      <trkpt lat="62.63767131739" lon="17.970376432837">
        <ele>56.2</ele>
        <time>2017-12-12T17:40:09Z</time>
      </trkpt>
      <trkpt lat="62.637685901896" lon="17.970417336509">
        <ele>56.2</ele>
        <time>2017-12-12T17:40:10Z</time>
      </trkpt>
      <trkpt lat="62.637701743687" lon="17.970451367023">
        <ele>56.2</ele>
        <time>2017-12-12T17:40:11Z</time>
      </trkpt>
      <trkpt lat="62.637712053424" lon="17.97051615911">
        <ele>56.2</ele>
        <time>2017-12-12T17:40:12Z</time>
      </trkpt>
      <trkpt lat="62.637723201351" lon="17.970540969534">
        <ele>56.2</ele>
        <time>2017-12-12T17:40:13Z</time>
      </trkpt>
      <trkpt lat="62.637735606563" lon="17.970598972282">
        <ele>56.2</ele>
        <time>2017-12-12T17:40:14Z</time>
      </trkpt>
      <trkpt lat="62.637746419214" lon="17.970647252026">
        <ele>56.2</ele>
        <time>2017-12-12T17:40:15Z</time>
      </trkpt>
      <trkpt lat="62.637758237693" lon="17.970688993888">
        <ele>56.2</ele>
        <time>2017-12-12T17:40:16Z</time>
      </trkpt>
      <trkpt lat="62.637770642905" lon="17.970741716039">
        <ele>56</ele>
        <time>2017-12-12T17:40:17Z</time>
      </trkpt>
      <trkpt lat="62.637780198271" lon="17.970797707131">
        <ele>56</ele>
        <time>2017-12-12T17:40:18Z</time>
      </trkpt>
      <trkpt lat="62.637791765293" lon="17.970839029898">
        <ele>56</ele>
        <time>2017-12-12T17:40:19Z</time>
      </trkpt>
      <trkpt lat="62.637802745582" lon="17.970901642691">
        <ele>56</ele>
        <time>2017-12-12T17:40:20Z</time>
      </trkpt>
      <trkpt lat="62.637811546577" lon="17.970961154181">
        <ele>56</ele>
        <time>2017-12-12T17:40:21Z</time>
      </trkpt>
      <trkpt lat="62.637820599029" lon="17.970997363989">
        <ele>56</ele>
        <time>2017-12-12T17:40:22Z</time>
      </trkpt>
      <trkpt lat="62.637828310377" lon="17.971072130537">
        <ele>56</ele>
        <time>2017-12-12T17:40:23Z</time>
      </trkpt>
      <trkpt lat="62.637837362829" lon="17.971128876">
        <ele>56.2</ele>
        <time>2017-12-12T17:40:24Z</time>
      </trkpt>
      <trkpt lat="62.637843230159" lon="17.971170701681">
        <ele>56.2</ele>
        <time>2017-12-12T17:40:25Z</time>
      </trkpt>
      <trkpt lat="62.637851192964" lon="17.971245803505">
        <ele>56.2</ele>
        <time>2017-12-12T17:40:26Z</time>
      </trkpt>
      <trkpt lat="62.637854461905" lon="17.971276229802">
        <ele>56.4</ele>
        <time>2017-12-12T17:40:27Z</time>
      </trkpt>
      <trkpt lat="62.637860664511" lon="17.971315876189">
        <ele>56.4</ele>
        <time>2017-12-12T17:40:28Z</time>
      </trkpt>
      <trkpt lat="62.637869297868" lon="17.971381590285">
        <ele>56.6</ele>
        <time>2017-12-12T17:40:29Z</time>
      </trkpt>
      <trkpt lat="62.637876422483" lon="17.971423835061">
        <ele>56.6</ele>
        <time>2017-12-12T17:40:30Z</time>
      </trkpt>
      <trkpt lat="62.637885139659" lon="17.971465325466">
        <ele>56.8</ele>
        <time>2017-12-12T17:40:31Z</time>
      </trkpt>
      <trkpt lat="62.637892264274" lon="17.971522657662">
        <ele>56.8</ele>
        <time>2017-12-12T17:40:32Z</time>
      </trkpt>
      <trkpt lat="62.637896958138" lon="17.971567165551">
        <ele>57</ele>
        <time>2017-12-12T17:40:33Z</time>
      </trkpt>
      <trkpt lat="62.637901316726" lon="17.971601196065">
        <ele>57</ele>
        <time>2017-12-12T17:40:34Z</time>
      </trkpt>
      <trkpt lat="62.637909950083" lon="17.971690211843">
        <ele>57</ele>
        <time>2017-12-12T17:40:35Z</time>
      </trkpt>
      <trkpt lat="62.637915482137" lon="17.971745280926">
        <ele>57</ele>
        <time>2017-12-12T17:40:36Z</time>
      </trkpt>
      <trkpt lat="62.637919673087" lon="17.971806804072">
        <ele>57.2</ele>
        <time>2017-12-12T17:40:37Z</time>
      </trkpt>
      <trkpt lat="62.637926881521" lon="17.971850306133">
        <ele>57.2</ele>
        <time>2017-12-12T17:40:38Z</time>
      </trkpt>
      <trkpt lat="62.637927132978" lon="17.971922390473">
        <ele>57.4</ele>
        <time>2017-12-12T17:40:39Z</time>
      </trkpt>
      <trkpt lat="62.637930904833" lon="17.971956840082">
        <ele>57.4</ele>
        <time>2017-12-12T17:40:40Z</time>
      </trkpt>
      <trkpt lat="62.637934257593" lon="17.972025655481">
        <ele>57.4</ele>
        <time>2017-12-12T17:40:41Z</time>
      </trkpt>
      <trkpt lat="62.637938951457" lon="17.972078126175">
        <ele>57.4</ele>
        <time>2017-12-12T17:40:42Z</time>
      </trkpt>
      <trkpt lat="62.637943058588" lon="17.972121460598">
        <ele>57.4</ele>
        <time>2017-12-12T17:40:43Z</time>
      </trkpt>
      <trkpt lat="62.637943226226" lon="17.972205531055">
        <ele>57.4</ele>
        <time>2017-12-12T17:40:44Z</time>
      </trkpt>
      <trkpt lat="62.637945070244" lon="17.972246770003">
        <ele>57.4</ele>
        <time>2017-12-12T17:40:45Z</time>
      </trkpt>
      <trkpt lat="62.637949428832" lon="17.972302425819">
        <ele>57.4</ele>
        <time>2017-12-12T17:40:46Z</time>
      </trkpt>
      <trkpt lat="62.637949261194" lon="17.972361266757">
        <ele>57.6</ele>
        <time>2017-12-12T17:40:47Z</time>
      </trkpt>
      <trkpt lat="62.637952446316" lon="17.972403343895">
        <ele>57.6</ele>
        <time>2017-12-12T17:40:48Z</time>
      </trkpt>
      <trkpt lat="62.6379554638" lon="17.972443409377">
        <ele>57.8</ele>
        <time>2017-12-12T17:40:49Z</time>
      </trkpt>
      <trkpt lat="62.637959822388" lon="17.972497388813">
        <ele>57.8</ele>
        <time>2017-12-12T17:40:50Z</time>
      </trkpt>
      <trkpt lat="62.637964935347" lon="17.972541058512">
        <ele>58</ele>
        <time>2017-12-12T17:40:51Z</time>
      </trkpt>
      <trkpt lat="62.637973568704" lon="17.972570478981">
        <ele>58</ele>
        <time>2017-12-12T17:40:52Z</time>
      </trkpt>
      <trkpt lat="62.637979100758" lon="17.972632421222">
        <ele>58.2</ele>
        <time>2017-12-12T17:40:53Z</time>
      </trkpt>
      <trkpt lat="62.63798312407" lon="17.972682377346">
        <ele>58.2</ele>
        <time>2017-12-12T17:40:54Z</time>
      </trkpt>
      <trkpt lat="62.637988320848" lon="17.972724957398">
        <ele>58.4</ele>
        <time>2017-12-12T17:40:55Z</time>
      </trkpt>
      <trkpt lat="62.637992511798" lon="17.972787570191">
        <ele>58.4</ele>
        <time>2017-12-12T17:40:56Z</time>
      </trkpt>
      <trkpt lat="62.637994774911" lon="17.972826043112">
        <ele>58.4</ele>
        <time>2017-12-12T17:40:57Z</time>
      </trkpt>
      <trkpt lat="62.637995948377" lon="17.972869712811">
        <ele>58.4</ele>
        <time>2017-12-12T17:40:58Z</time>
      </trkpt>
      <trkpt lat="62.637999133499" lon="17.972930230129">
        <ele>58.6</ele>
        <time>2017-12-12T17:40:59Z</time>
      </trkpt>
      <trkpt lat="62.637999468775" lon="17.972970882344">
        <ele>58.8</ele>
        <time>2017-12-12T17:41:00Z</time>
      </trkpt>
      <trkpt lat="62.638001061336" lon="17.973010528731">
        <ele>59</ele>
        <time>2017-12-12T17:41:01Z</time>
      </trkpt>
      <trkpt lat="62.638001061336" lon="17.973061323045">
        <ele>59</ele>
        <time>2017-12-12T17:41:02Z</time>
      </trkpt>
      <trkpt lat="62.638001396612" lon="17.973103819278">
        <ele>59.2</ele>
        <time>2017-12-12T17:41:03Z</time>
      </trkpt>
      <trkpt lat="62.638003156811" lon="17.973136173412">
        <ele>59.4</ele>
        <time>2017-12-12T17:41:04Z</time>
      </trkpt>
      <trkpt lat="62.638001396612" lon="17.973190320486">
        <ele>59.4</ele>
        <time>2017-12-12T17:41:05Z</time>
      </trkpt>
      <trkpt lat="62.638000893698" lon="17.973236840031">
        <ele>59.4</ele>
        <time>2017-12-12T17:41:06Z</time>
      </trkpt>
      <trkpt lat="62.638000474603" lon="17.973296100064">
        <ele>59.4</ele>
        <time>2017-12-12T17:41:07Z</time>
      </trkpt>
      <trkpt lat="62.637997876214" lon="17.973337339012">
        <ele>59.4</ele>
        <time>2017-12-12T17:41:08Z</time>
      </trkpt>
      <trkpt lat="62.637999468775" lon="17.973371537164">
        <ele>59.6</ele>
        <time>2017-12-12T17:41:09Z</time>
      </trkpt>
      <trkpt lat="62.637996451291" lon="17.973414117216">
        <ele>59.8</ele>
        <time>2017-12-12T17:41:10Z</time>
      </trkpt>
      <trkpt lat="62.637992763255" lon="17.973479831312">
        <ele>60</ele>
        <time>2017-12-12T17:41:11Z</time>
      </trkpt>
      <trkpt lat="62.637990416323" lon="17.973511933989">
        <ele>60.2</ele>
        <time>2017-12-12T17:41:12Z</time>
      </trkpt>
      <trkpt lat="62.637987650296" lon="17.973567003072">
        <ele>60.4</ele>
        <time>2017-12-12T17:41:13Z</time>
      </trkpt>
      <trkpt lat="62.637987817934" lon="17.973617043015">
        <ele>60.4</ele>
        <time>2017-12-12T17:41:14Z</time>
      </trkpt>
      <trkpt lat="62.637982202061" lon="17.9736853555">
        <ele>60.6</ele>
        <time>2017-12-12T17:41:15Z</time>
      </trkpt>
      <trkpt lat="62.637984884269" lon="17.973722487317">
        <ele>60.8</ele>
        <time>2017-12-12T17:41:16Z</time>
      </trkpt>
      <trkpt lat="62.637984465174" lon="17.973787195585">
        <ele>60.8</ele>
        <time>2017-12-12T17:41:17Z</time>
      </trkpt>
      <trkpt lat="62.6379889914" lon="17.973841510297">
        <ele>61</ele>
        <time>2017-12-12T17:41:18Z</time>
      </trkpt>
      <trkpt lat="62.637993517626" lon="17.973910158058">
        <ele>61</ele>
        <time>2017-12-12T17:41:19Z</time>
      </trkpt>
      <trkpt lat="62.637998546766" lon="17.973972351756">
        <ele>61</ele>
        <time>2017-12-12T17:41:20Z</time>
      </trkpt>
      <trkpt lat="62.638004162639" lon="17.974014596532">
        <ele>61</ele>
        <time>2017-12-12T17:41:21Z</time>
      </trkpt>
      <trkpt lat="62.638007515399" lon="17.974087351424">
        <ele>61</ele>
        <time>2017-12-12T17:41:22Z</time>
      </trkpt>
      <trkpt lat="62.638016400213" lon="17.974132613684">
        <ele>61</ele>
        <time>2017-12-12T17:41:23Z</time>
      </trkpt>
      <trkpt lat="62.638019082421" lon="17.974223054385">
        <ele>61</ele>
        <time>2017-12-12T17:41:24Z</time>
      </trkpt>
      <trkpt lat="62.638025201208" lon="17.974256498166">
        <ele>61</ele>
        <time>2017-12-12T17:41:25Z</time>
      </trkpt>
      <trkpt lat="62.638029895072" lon="17.974329839791">
        <ele>61</ele>
        <time>2017-12-12T17:41:26Z</time>
      </trkpt>
      <trkpt lat="62.638034588936" lon="17.974395470068">
        <ele>61</ele>
        <time>2017-12-12T17:41:27Z</time>
      </trkpt>
      <trkpt lat="62.638036935868" lon="17.974438469215">
        <ele>61</ele>
        <time>2017-12-12T17:41:28Z</time>
      </trkpt>
      <trkpt lat="62.638036181497" lon="17.974505021501">
        <ele>61</ele>
        <time>2017-12-12T17:41:29Z</time>
      </trkpt>
      <trkpt lat="62.638039701895" lon="17.974551541046">
        <ele>61.2</ele>
        <time>2017-12-12T17:41:30Z</time>
      </trkpt>
      <trkpt lat="62.638036013859" lon="17.974622032825">
        <ele>61.2</ele>
        <time>2017-12-12T17:41:31Z</time>
      </trkpt>
      <trkpt lat="62.638039031343" lon="17.974666289257">
        <ele>61</ele>
        <time>2017-12-12T17:41:32Z</time>
      </trkpt>
      <trkpt lat="62.638024614475" lon="17.974732087172">
        <ele>61</ele>
        <time>2017-12-12T17:41:33Z</time>
      </trkpt>
      <trkpt lat="62.638020758801" lon="17.97477081155">
        <ele>61</ele>
        <time>2017-12-12T17:41:34Z</time>
      </trkpt>
      <trkpt lat="62.638001899526" lon="17.974829317212">
        <ele>60.8</ele>
        <time>2017-12-12T17:41:35Z</time>
      </trkpt>
      <trkpt lat="62.637984213717" lon="17.974875333843">
        <ele>60.8</ele>
        <time>2017-12-12T17:41:36Z</time>
      </trkpt>
      <trkpt lat="62.637969377754" lon="17.974906263054">
        <ele>60.8</ele>
        <time>2017-12-12T17:41:37Z</time>
      </trkpt>
      <trkpt lat="62.637956804904" lon="17.974932666039">
        <ele>61</ele>
        <time>2017-12-12T17:41:38Z</time>
      </trkpt>
      <trkpt lat="62.637940208742" lon="17.97497197715">
        <ele>61.2</ele>
        <time>2017-12-12T17:41:39Z</time>
      </trkpt>
      <trkpt lat="62.63792025982" lon="17.975014892478">
        <ele>61.2</ele>
        <time>2017-12-12T17:41:40Z</time>
      </trkpt>
      <trkpt lat="62.637906764961" lon="17.975051018467">
        <ele>61.4</ele>
        <time>2017-12-12T17:41:41Z</time>
      </trkpt>
      <trkpt lat="62.637891677541" lon="17.975082450592">
        <ele>61.4</ele>
        <time>2017-12-12T17:41:42Z</time>
      </trkpt>
      <trkpt lat="62.637882205994" lon="17.97511195488">
        <ele>61.6</ele>
        <time>2017-12-12T17:41:43Z</time>
      </trkpt>
      <trkpt lat="62.637866196565" lon="17.975145231023">
        <ele>61.6</ele>
        <time>2017-12-12T17:41:44Z</time>
      </trkpt>
      <trkpt lat="62.637847504928" lon="17.975183536306">
        <ele>61.6</ele>
        <time>2017-12-12T17:41:45Z</time>
      </trkpt>
      <trkpt lat="62.637831076404" lon="17.975217985915">
        <ele>61.8</ele>
        <time>2017-12-12T17:41:46Z</time>
      </trkpt>
      <trkpt lat="62.637811965672" lon="17.975249250402">
        <ele>61.8</ele>
        <time>2017-12-12T17:41:47Z</time>
      </trkpt>
      <trkpt lat="62.637797129709" lon="17.975280850165">
        <ele>62</ele>
        <time>2017-12-12T17:41:48Z</time>
      </trkpt>
      <trkpt lat="62.637785478868" lon="17.975306331141">
        <ele>62.2</ele>
        <time>2017-12-12T17:41:49Z</time>
      </trkpt>
      <trkpt lat="62.637770307629" lon="17.975339188189">
        <ele>62.2</ele>
        <time>2017-12-12T17:41:50Z</time>
      </trkpt>
      <trkpt lat="62.637752538001" lon="17.975366094088">
        <ele>62.4</ele>
        <time>2017-12-12T17:41:51Z</time>
      </trkpt>
      <trkpt lat="62.637738288771" lon="17.97538939577">
        <ele>62.6</ele>
        <time>2017-12-12T17:41:52Z</time>
      </trkpt>
      <trkpt lat="62.637723452808" lon="17.975411356348">
        <ele>62.6</ele>
        <time>2017-12-12T17:41:53Z</time>
      </trkpt>
      <trkpt lat="62.637707275741" lon="17.97543801079">
        <ele>63</ele>
        <time>2017-12-12T17:41:54Z</time>
      </trkpt>
      <trkpt lat="62.637692858873" lon="17.975453684943">
        <ele>63.2</ele>
        <time>2017-12-12T17:41:55Z</time>
      </trkpt>
      <trkpt lat="62.637679783109" lon="17.975467934173">
        <ele>63.4</ele>
        <time>2017-12-12T17:41:56Z</time>
      </trkpt>
      <trkpt lat="62.637664863327" lon="17.975483440688">
        <ele>63.8</ele>
        <time>2017-12-12T17:41:57Z</time>
      </trkpt>
      <trkpt lat="62.637651955201" lon="17.975498528108">
        <ele>64</ele>
        <time>2017-12-12T17:41:58Z</time>
      </trkpt>
      <trkpt lat="62.637638544161" lon="17.975508670207">
        <ele>64.2</ele>
        <time>2017-12-12T17:41:59Z</time>
      </trkpt>
      <trkpt lat="62.63762773151" lon="17.975520404867">
        <ele>64.4</ele>
        <time>2017-12-12T17:42:00Z</time>
      </trkpt>
      <trkpt lat="62.637599987421" lon="17.975534905554">
        <ele>64.4</ele>
        <time>2017-12-12T17:42:01Z</time>
      </trkpt>
      <trkpt lat="62.637573332979" lon="17.975556530856">
        <ele>64.6</ele>
        <time>2017-12-12T17:42:02Z</time>
      </trkpt>
      <trkpt lat="62.637560341034" lon="17.97556457748">
        <ele>64.6</ele>
        <time>2017-12-12T17:42:03Z</time>
      </trkpt>
      <trkpt lat="62.63754055975" lon="17.975578156158">
        <ele>64.8</ele>
        <time>2017-12-12T17:42:04Z</time>
      </trkpt>
      <trkpt lat="62.637520694647" lon="17.975588298257">
        <ele>64.8</ele>
        <time>2017-12-12T17:42:05Z</time>
      </trkpt>
      <trkpt lat="62.637505942503" lon="17.975595087596">
        <ele>65</ele>
        <time>2017-12-12T17:42:06Z</time>
      </trkpt>
      <trkpt lat="62.637490519807" lon="17.975600787288">
        <ele>65</ele>
        <time>2017-12-12T17:42:07Z</time>
      </trkpt>
      <trkpt lat="62.637474426559" lon="17.975611013206">
        <ele>65</ele>
        <time>2017-12-12T17:42:08Z</time>
      </trkpt>
      <trkpt lat="62.637452465981" lon="17.975621825857">
        <ele>65.2</ele>
        <time>2017-12-12T17:42:09Z</time>
      </trkpt>
      <trkpt lat="62.637433941982" lon="17.975631297404">
        <ele>65.4</ele>
        <time>2017-12-12T17:42:10Z</time>
      </trkpt>
      <trkpt lat="62.637416172354" lon="17.975644037892">
        <ele>65.6</ele>
        <time>2017-12-12T17:42:11Z</time>
      </trkpt>
      <trkpt lat="62.637399073278" lon="17.975655688733">
        <ele>65.8</ele>
        <time>2017-12-12T17:42:12Z</time>
      </trkpt>
      <trkpt lat="62.637381974202" lon="17.975667842488">
        <ele>65.8</ele>
        <time>2017-12-12T17:42:13Z</time>
      </trkpt>
      <trkpt lat="62.637374346673" lon="17.975676978759">
        <ele>65.8</ele>
        <time>2017-12-12T17:42:14Z</time>
      </trkpt>
      <trkpt lat="62.637340651435" lon="17.975699777527">
        <ele>66.2</ele>
        <time>2017-12-12T17:42:15Z</time>
      </trkpt>
      <trkpt lat="62.637328581499" lon="17.97570790797">
        <ele>66.4</ele>
        <time>2017-12-12T17:42:16Z</time>
      </trkpt>
      <trkpt lat="62.637314164631" lon="17.975725426141">
        <ele>66.4</ele>
        <time>2017-12-12T17:42:17Z</time>
      </trkpt>
      <trkpt lat="62.637294886261" lon="17.97574395014">
        <ele>66.6</ele>
        <time>2017-12-12T17:42:18Z</time>
      </trkpt>
      <trkpt lat="62.637281475221" lon="17.975761300673">
        <ele>66.8</ele>
        <time>2017-12-12T17:42:19Z</time>
      </trkpt>
      <trkpt lat="62.637266723077" lon="17.975778902663">
        <ele>67</ele>
        <time>2017-12-12T17:42:20Z</time>
      </trkpt>
      <trkpt lat="62.637251887114" lon="17.975807401123">
        <ele>67.2</ele>
        <time>2017-12-12T17:42:21Z</time>
      </trkpt>
      <trkpt lat="62.637236045323" lon="17.975829864615">
        <ele>67.4</ele>
        <time>2017-12-12T17:42:22Z</time>
      </trkpt>
      <trkpt lat="62.637224729758" lon="17.975843191836">
        <ele>67.4</ele>
        <time>2017-12-12T17:42:23Z</time>
      </trkpt>
      <trkpt lat="62.63721031289" lon="17.975868337536">
        <ele>67.6</ele>
        <time>2017-12-12T17:42:24Z</time>
      </trkpt>
      <trkpt lat="62.637197488583" lon="17.975892561227">
        <ele>67.8</ele>
        <time>2017-12-12T17:42:25Z</time>
      </trkpt>
      <trkpt lat="62.637189274321" lon="17.975925250637">
        <ele>68</ele>
        <time>2017-12-12T17:42:26Z</time>
      </trkpt>
      <trkpt lat="62.637181311516" lon="17.975954754925">
        <ele>68.2</ele>
        <time>2017-12-12T17:42:27Z</time>
      </trkpt>
      <trkpt lat="62.637174941272" lon="17.975982331376">
        <ele>68.4</ele>
        <time>2017-12-12T17:42:28Z</time>
      </trkpt>
      <trkpt lat="62.637165553544" lon="17.976014936967">
        <ele>68.6</ele>
        <time>2017-12-12T17:42:29Z</time>
      </trkpt>
      <trkpt lat="62.637154489436" lon="17.976060618322">
        <ele>68.6</ele>
        <time>2017-12-12T17:42:30Z</time>
      </trkpt>
      <trkpt lat="62.637145185527" lon="17.976107054048">
        <ele>68.8</ele>
        <time>2017-12-12T17:42:31Z</time>
      </trkpt>
      <trkpt lat="62.637143090052" lon="17.976130523368">
        <ele>69</ele>
        <time>2017-12-12T17:42:32Z</time>
      </trkpt>
      <trkpt lat="62.637130014288" lon="17.976180898587">
        <ele>69</ele>
        <time>2017-12-12T17:42:33Z</time>
      </trkpt>
      <trkpt lat="62.637118279628" lon="17.976233536919">
        <ele>69</ele>
        <time>2017-12-12T17:42:34Z</time>
      </trkpt>
      <trkpt lat="62.637116184153" lon="17.976263376483">
        <ele>69.2</ele>
        <time>2017-12-12T17:42:35Z</time>
      </trkpt>
      <trkpt lat="62.637111071194" lon="17.976304615431">
        <ele>69</ele>
        <time>2017-12-12T17:42:36Z</time>
      </trkpt>
      <trkpt lat="62.637100593819" lon="17.976339987049">
        <ele>69</ele>
        <time>2017-12-12T17:42:37Z</time>
      </trkpt>
      <trkpt lat="62.6370921281" lon="17.976384997852">
        <ele>69.2</ele>
        <time>2017-12-12T17:42:38Z</time>
      </trkpt>
      <trkpt lat="62.637085925494" lon="17.976436043623">
        <ele>69.4</ele>
        <time>2017-12-12T17:42:39Z</time>
      </trkpt>
      <trkpt lat="62.637084332933" lon="17.976467978662">
        <ele>69.4</ele>
        <time>2017-12-12T17:42:40Z</time>
      </trkpt>
      <trkpt lat="62.637073436463" lon="17.976535117681">
        <ele>69.4</ele>
        <time>2017-12-12T17:42:41Z</time>
      </trkpt>
      <trkpt lat="62.637072346816" lon="17.976569232014">
        <ele>69.6</ele>
        <time>2017-12-12T17:42:42Z</time>
      </trkpt>
      <trkpt lat="62.637065389839" lon="17.976616170654">
        <ele>69.6</ele>
        <time>2017-12-12T17:42:43Z</time>
      </trkpt>
      <trkpt lat="62.637062204717" lon="17.976680124551">
        <ele>69.6</ele>
        <time>2017-12-12T17:42:44Z</time>
      </trkpt>
      <trkpt lat="62.637060863613" lon="17.976702588043">
        <ele>69.6</ele>
        <time>2017-12-12T17:42:45Z</time>
      </trkpt>
      <trkpt lat="62.637057007939" lon="17.976774756202">
        <ele>69.6</ele>
        <time>2017-12-12T17:42:46Z</time>
      </trkpt>
      <trkpt lat="62.637056840301" lon="17.976803003205">
        <ele>69.8</ele>
        <time>2017-12-12T17:42:47Z</time>
      </trkpt>
      <trkpt lat="62.637055666835" lon="17.976864693989">
        <ele>69.8</ele>
        <time>2017-12-12T17:42:48Z</time>
      </trkpt>
      <trkpt lat="62.637054744826" lon="17.976931749189">
        <ele>69.8</ele>
        <time>2017-12-12T17:42:49Z</time>
      </trkpt>
      <trkpt lat="62.637056421206" lon="17.976961085839">
        <ele>70</ele>
        <time>2017-12-12T17:42:50Z</time>
      </trkpt>
      <trkpt lat="62.637056756482" lon="17.977034427464">
        <ele>70</ele>
        <time>2017-12-12T17:42:51Z</time>
      </trkpt>
      <trkpt lat="62.63705692412" lon="17.977083964493">
        <ele>70</ele>
        <time>2017-12-12T17:42:52Z</time>
      </trkpt>
      <trkpt lat="62.637057175577" lon="17.977150349141">
        <ele>70.2</ele>
        <time>2017-12-12T17:42:53Z</time>
      </trkpt>
      <trkpt lat="62.637063126726" lon="17.977188654424">
        <ele>70.2</ele>
        <time>2017-12-12T17:42:54Z</time>
      </trkpt>
      <trkpt lat="62.637053906636" lon="17.977254536158">
        <ele>70.2</ele>
        <time>2017-12-12T17:42:55Z</time>
      </trkpt>
      <trkpt lat="62.637051978799" lon="17.977293847269">
        <ele>70.2</ele>
        <time>2017-12-12T17:42:56Z</time>
      </trkpt>
      <trkpt lat="62.637041166148" lon="17.977364422867">
        <ele>70.2</ele>
        <time>2017-12-12T17:42:57Z</time>
      </trkpt>
      <trkpt lat="62.637031946058" lon="17.977415468638">
        <ele>70.2</ele>
        <time>2017-12-12T17:42:58Z</time>
      </trkpt>
      <trkpt lat="62.637020965769" lon="17.977459222156">
        <ele>70.2</ele>
        <time>2017-12-12T17:42:59Z</time>
      </trkpt>
      <trkpt lat="62.637002609408" lon="17.977528959564">
        <ele>70.2</ele>
        <time>2017-12-12T17:43:00Z</time>
      </trkpt>
      <trkpt lat="62.636988360178" lon="17.977582855181">
        <ele>70.2</ele>
        <time>2017-12-12T17:43:01Z</time>
      </trkpt>
      <trkpt lat="62.636983414857" lon="17.977610766908">
        <ele>70.2</ele>
        <time>2017-12-12T17:43:02Z</time>
      </trkpt>
      <trkpt lat="62.636964639401" lon="17.97768435999">
        <ele>70</ele>
        <time>2017-12-12T17:43:03Z</time>
      </trkpt>
      <trkpt lat="62.636952737103" lon="17.977747978611">
        <ele>70</ele>
        <time>2017-12-12T17:43:04Z</time>
      </trkpt>
      <trkpt lat="62.63694795942" lon="17.977783098772">
        <ele>70</ele>
        <time>2017-12-12T17:43:05Z</time>
      </trkpt>
      <trkpt lat="62.636934464561" lon="17.977857194768">
        <ele>70.2</ele>
        <time>2017-12-12T17:43:06Z</time>
      </trkpt>
      <trkpt lat="62.636928345774" lon="17.977910336014">
        <ele>70.2</ele>
        <time>2017-12-12T17:43:07Z</time>
      </trkpt>
      <trkpt lat="62.636925579747" lon="17.977943025424">
        <ele>70.2</ele>
        <time>2017-12-12T17:43:08Z</time>
      </trkpt>
      <trkpt lat="62.636914264182" lon="17.978022737293">
        <ele>70.2</ele>
        <time>2017-12-12T17:43:09Z</time>
      </trkpt>
      <trkpt lat="62.636907977757" lon="17.978067329001">
        <ele>70.2</ele>
        <time>2017-12-12T17:43:10Z</time>
      </trkpt>
      <trkpt lat="62.636904289721" lon="17.978103035895">
        <ele>70.4</ele>
        <time>2017-12-12T17:43:11Z</time>
      </trkpt>
      <trkpt lat="62.636892052147" lon="17.978176880434">
        <ele>70.4</ele>
        <time>2017-12-12T17:43:12Z</time>
      </trkpt>
      <trkpt lat="62.636886352455" lon="17.978206384722">
        <ele>70.4</ele>
        <time>2017-12-12T17:43:13Z</time>
      </trkpt>
      <trkpt lat="62.636876545632" lon="17.978257933407">
        <ele>70.4</ele>
        <time>2017-12-12T17:43:14Z</time>
      </trkpt>
      <trkpt lat="62.636863469868" lon="17.978317863992">
        <ele>70.4</ele>
        <time>2017-12-12T17:43:15Z</time>
      </trkpt>
      <trkpt lat="62.63685911128" lon="17.978342590597">
        <ele>70.6</ele>
        <time>2017-12-12T17:43:16Z</time>
      </trkpt>
      <trkpt lat="62.636842934213" lon="17.97840352701">
        <ele>70.6</ele>
        <time>2017-12-12T17:43:17Z</time>
      </trkpt>
      <trkpt lat="62.636828182069" lon="17.978455243333">
        <ele>70.6</ele>
        <time>2017-12-12T17:43:18Z</time>
      </trkpt>
      <trkpt lat="62.636818459065" lon="17.978483825612">
        <ele>70.8</ele>
        <time>2017-12-12T17:43:19Z</time>
      </trkpt>
      <trkpt lat="62.636797588134" lon="17.978537888867">
        <ele>71</ele>
        <time>2017-12-12T17:43:20Z</time>
      </trkpt>
      <trkpt lat="62.636782668352" lon="17.978574433951">
        <ele>71.2</ele>
        <time>2017-12-12T17:43:21Z</time>
      </trkpt>
      <trkpt lat="62.636765150181" lon="17.978603183868">
        <ele>71.4</ele>
        <time>2017-12-12T17:43:22Z</time>
      </trkpt>
      <trkpt lat="62.63674511744" lon="17.978640483323">
        <ele>71.4</ele>
        <time>2017-12-12T17:43:23Z</time>
      </trkpt>
      <trkpt lat="62.636731035848" lon="17.978670239068">
        <ele>71.6</ele>
        <time>2017-12-12T17:43:24Z</time>
      </trkpt>
      <trkpt lat="62.636706895976" lon="17.978702844659">
        <ele>71.6</ele>
        <time>2017-12-12T17:43:25Z</time>
      </trkpt>
      <trkpt lat="62.636683426656" lon="17.978732768042">
        <ele>71.6</ele>
        <time>2017-12-12T17:43:26Z</time>
      </trkpt>
      <trkpt lat="62.636673452195" lon="17.978743915969">
        <ele>71.6</ele>
        <time>2017-12-12T17:43:27Z</time>
      </trkpt>
      <trkpt lat="62.636652497445" lon="17.978761517959">
        <ele>71.6</ele>
        <time>2017-12-12T17:43:28Z</time>
      </trkpt>
      <trkpt lat="62.636621735872" lon="17.978776270103">
        <ele>71.6</ele>
        <time>2017-12-12T17:43:29Z</time>
      </trkpt>
      <trkpt lat="62.636603044235" lon="17.978785825469">
        <ele>71.8</ele>
        <time>2017-12-12T17:43:30Z</time>
      </trkpt>
      <trkpt lat="62.636586196616" lon="17.97878825622">
        <ele>72</ele>
        <time>2017-12-12T17:43:31Z</time>
      </trkpt>
      <trkpt lat="62.636563984581" lon="17.97878909441">
        <ele>72.2</ele>
        <time>2017-12-12T17:43:32Z</time>
      </trkpt>
      <trkpt lat="62.636536240492" lon="17.978781634519">
        <ele>72.2</ele>
        <time>2017-12-12T17:43:33Z</time>
      </trkpt>
      <trkpt lat="62.636519309054" lon="17.97878238889">
        <ele>72.4</ele>
        <time>2017-12-12T17:43:34Z</time>
      </trkpt>
      <trkpt lat="62.636499695408" lon="17.978784149089">
        <ele>72.6</ele>
        <time>2017-12-12T17:43:35Z</time>
      </trkpt>
      <trkpt lat="62.636472202776" lon="17.978781466881">
        <ele>72.6</ele>
        <time>2017-12-12T17:43:36Z</time>
      </trkpt>
      <trkpt lat="62.636453092044" lon="17.978779790501">
        <ele>72.8</ele>
        <time>2017-12-12T17:43:37Z</time>
      </trkpt>
      <trkpt lat="62.636436076787" lon="17.978776605379">
        <ele>72.8</ele>
        <time>2017-12-12T17:43:38Z</time>
      </trkpt>
      <trkpt lat="62.636413445657" lon="17.978770989506">
        <ele>73</ele>
        <time>2017-12-12T17:43:39Z</time>
      </trkpt>
      <trkpt lat="62.636401375721" lon="17.978772917343">
        <ele>73.2</ele>
        <time>2017-12-12T17:43:40Z</time>
      </trkpt>
      <trkpt lat="62.636378325496" lon="17.978774426085">
        <ele>73.2</ele>
        <time>2017-12-12T17:43:41Z</time>
      </trkpt>
      <trkpt lat="62.636359885316" lon="17.978777695026">
        <ele>73.4</ele>
        <time>2017-12-12T17:43:42Z</time>
      </trkpt>
      <trkpt lat="62.636344043525" lon="17.978779455225">
        <ele>73.6</ele>
        <time>2017-12-12T17:43:43Z</time>
      </trkpt>
      <trkpt lat="62.636326776811" lon="17.978782807985">
        <ele>73.8</ele>
        <time>2017-12-12T17:43:44Z</time>
      </trkpt>
      <trkpt lat="62.636313533409" lon="17.97879077079">
        <ele>73.8</ele>
        <time>2017-12-12T17:43:45Z</time>
      </trkpt>
      <trkpt lat="62.636299451817" lon="17.978798901233">
        <ele>74</ele>
        <time>2017-12-12T17:43:46Z</time>
      </trkpt>
      <trkpt lat="62.636287298062" lon="17.978806361124">
        <ele>74.2</ele>
        <time>2017-12-12T17:43:47Z</time>
      </trkpt>
      <trkpt lat="62.636271791547" lon="17.978820023621">
        <ele>74.4</ele>
        <time>2017-12-12T17:43:48Z</time>
      </trkpt>
      <trkpt lat="62.636251172073" lon="17.978834440489">
        <ele>74.4</ele>
        <time>2017-12-12T17:43:49Z</time>
      </trkpt>
      <trkpt lat="62.636233570083" lon="17.978848522081">
        <ele>74.6</ele>
        <time>2017-12-12T17:43:50Z</time>
      </trkpt>
      <trkpt lat="62.636215884274" lon="17.978866375528">
        <ele>74.8</ele>
        <time>2017-12-12T17:43:51Z</time>
      </trkpt>
      <trkpt lat="62.636196522085" lon="17.97888632445">
        <ele>75</ele>
        <time>2017-12-12T17:43:52Z</time>
      </trkpt>
      <trkpt lat="62.636180428837" lon="17.97889973549">
        <ele>75.2</ele>
        <time>2017-12-12T17:43:53Z</time>
      </trkpt>
      <trkpt lat="62.636161653381" lon="17.978915242005">
        <ele>75.4</ele>
        <time>2017-12-12T17:43:54Z</time>
      </trkpt>
      <trkpt lat="62.636146482142" lon="17.978930664701">
        <ele>75.8</ele>
        <time>2017-12-12T17:43:55Z</time>
      </trkpt>
      <trkpt lat="62.636134663663" lon="17.978948266691">
        <ele>76.4</ele>
        <time>2017-12-12T17:43:56Z</time>
      </trkpt>
      <trkpt lat="62.636125024478" lon="17.978969472898">
        <ele>76.6</ele>
        <time>2017-12-12T17:43:57Z</time>
      </trkpt>
      <trkpt lat="62.636114547103" lon="17.978986655793">
        <ele>77</ele>
        <time>2017-12-12T17:43:58Z</time>
      </trkpt>
      <trkpt lat="62.636101555158" lon="17.979011969131">
        <ele>77.2</ele>
        <time>2017-12-12T17:43:59Z</time>
      </trkpt>
      <trkpt lat="62.636091077783" lon="17.979032588605">
        <ele>77.4</ele>
        <time>2017-12-12T17:44:00Z</time>
      </trkpt>
      <trkpt lat="62.636075738906" lon="17.979053375717">
        <ele>77.4</ele>
        <time>2017-12-12T17:44:01Z</time>
      </trkpt>
      <trkpt lat="62.636068446653" lon="17.979076845037">
        <ele>77.6</ele>
        <time>2017-12-12T17:44:02Z</time>
      </trkpt>
      <trkpt lat="62.636056879631" lon="17.979107019877">
        <ele>77.8</ele>
        <time>2017-12-12T17:44:03Z</time>
      </trkpt>
      <trkpt lat="62.636047491903" lon="17.979135015423">
        <ele>78.2</ele>
        <time>2017-12-12T17:44:04Z</time>
      </trkpt>
      <trkpt lat="62.636032739759" lon="17.979164184435">
        <ele>78.4</ele>
        <time>2017-12-12T17:44:05Z</time>
      </trkpt>
      <trkpt lat="62.636014718674" lon="17.979202992632">
        <ele>78.6</ele>
        <time>2017-12-12T17:44:06Z</time>
      </trkpt>
      <trkpt lat="62.63601002481" lon="17.979229060341">
        <ele>78.8</ele>
        <time>2017-12-12T17:44:07Z</time>
      </trkpt>
      <trkpt lat="62.635996529951" lon="17.979287063089">
        <ele>79</ele>
        <time>2017-12-12T17:44:08Z</time>
      </trkpt>
      <trkpt lat="62.635989405336" lon="17.97933810886">
        <ele>79</ele>
        <time>2017-12-12T17:44:09Z</time>
      </trkpt>
      <trkpt lat="62.635990997897" lon="17.979363589836">
        <ele>79.2</ele>
        <time>2017-12-12T17:44:10Z</time>
      </trkpt>
      <trkpt lat="62.635977000124" lon="17.979437685832">
        <ele>79.2</ele>
        <time>2017-12-12T17:44:11Z</time>
      </trkpt>
      <trkpt lat="62.63597565902" lon="17.97947557202">
        <ele>79.2</ele>
        <time>2017-12-12T17:44:12Z</time>
      </trkpt>
      <trkpt lat="62.635966606568" lon="17.979552601681">
        <ele>79.2</ele>
        <time>2017-12-12T17:44:13Z</time>
      </trkpt>
      <trkpt lat="62.635957051202" lon="17.979636672138">
        <ele>79.2</ele>
        <time>2017-12-12T17:44:14Z</time>
      </trkpt>
      <trkpt lat="62.635953279347" lon="17.979733231626">
        <ele>79.2</ele>
        <time>2017-12-12T17:44:15Z</time>
      </trkpt>
      <trkpt lat="62.635949591311" lon="17.979858457212">
        <ele>78.8</ele>
        <time>2017-12-12T17:44:16Z</time>
      </trkpt>
      <trkpt lat="62.635945987094" lon="17.979964404428">
        <ele>78</ele>
        <time>2017-12-12T17:44:17Z</time>
      </trkpt>
      <trkpt lat="62.635949842768" lon="17.980095581163">
        <ele>77</ele>
        <time>2017-12-12T17:44:18Z</time>
      </trkpt>
      <trkpt lat="62.63595721884" lon="17.980218627455">
        <ele>76</ele>
        <time>2017-12-12T17:44:19Z</time>
      </trkpt>
      <trkpt lat="62.635971048975" lon="17.980327256879">
        <ele>75</ele>
        <time>2017-12-12T17:44:20Z</time>
      </trkpt>
      <trkpt lat="62.635988064232" lon="17.980440496348">
        <ele>74.4</ele>
        <time>2017-12-12T17:44:21Z</time>
      </trkpt>
      <trkpt lat="62.6360024811" lon="17.980542084976">
        <ele>74</ele>
        <time>2017-12-12T17:44:22Z</time>
      </trkpt>
      <trkpt lat="62.636016059778" lon="17.980615342782">
        <ele>73.8</ele>
        <time>2017-12-12T17:44:23Z</time>
      </trkpt>
      <trkpt lat="62.636038774727" lon="17.980714081564">
        <ele>73.4</ele>
        <time>2017-12-12T17:44:24Z</time>
      </trkpt>
      <trkpt lat="62.636055622346" lon="17.98079907403">
        <ele>73.2</ele>
        <time>2017-12-12T17:44:25Z</time>
      </trkpt>
      <trkpt lat="62.636069787757" lon="17.980886916342">
        <ele>73</ele>
        <time>2017-12-12T17:44:26Z</time>
      </trkpt>
      <trkpt lat="62.636082612064" lon="17.980958916863">
        <ele>73</ele>
        <time>2017-12-12T17:44:27Z</time>
      </trkpt>
      <trkpt lat="62.63609719657" lon="17.981028654271">
        <ele>72.8</ele>
        <time>2017-12-12T17:44:28Z</time>
      </trkpt>
      <trkpt lat="62.636111864895" lon="17.981121022809">
        <ele>72.8</ele>
        <time>2017-12-12T17:44:29Z</time>
      </trkpt>
      <trkpt lat="62.636111948714" lon="17.981205177085">
        <ele>72.8</ele>
        <time>2017-12-12T17:44:30Z</time>
      </trkpt>
      <trkpt lat="62.636117229311" lon="17.981271142638">
        <ele>72.6</ele>
        <time>2017-12-12T17:44:31Z</time>
      </trkpt>
      <trkpt lat="62.63612737141" lon="17.981346747376">
        <ele>72.6</ele>
        <time>2017-12-12T17:44:32Z</time>
      </trkpt>
      <trkpt lat="62.636151846558" lon="17.981413132024">
        <ele>72.4</ele>
        <time>2017-12-12T17:44:33Z</time>
      </trkpt>
      <trkpt lat="62.636165509055" lon="17.981508853322">
        <ele>72.6</ele>
        <time>2017-12-12T17:44:34Z</time>
      </trkpt>
      <trkpt lat="62.636171124928" lon="17.981588481372">
        <ele>72.6</ele>
        <time>2017-12-12T17:44:35Z</time>
      </trkpt>
      <trkpt lat="62.636188978375" lon="17.981647657586">
        <ele>72.8</ele>
        <time>2017-12-12T17:44:36Z</time>
      </trkpt>
      <trkpt lat="62.636198952836" lon="17.981737930649">
        <ele>73</ele>
        <time>2017-12-12T17:44:37Z</time>
      </trkpt>
      <trkpt lat="62.636220745776" lon="17.98178813823">
        <ele>73.2</ele>
        <time>2017-12-12T17:44:38Z</time>
      </trkpt>
      <trkpt lat="62.63622627783" lon="17.981888050478">
        <ele>73.2</ele>
        <time>2017-12-12T17:44:39Z</time>
      </trkpt>
      <trkpt lat="62.636250836797" lon="17.981940269715">
        <ele>73</ele>
        <time>2017-12-12T17:44:40Z</time>
      </trkpt>
      <trkpt lat="62.636253602824" lon="17.982009755666">
        <ele>73</ele>
        <time>2017-12-12T17:44:41Z</time>
      </trkpt>
      <trkpt lat="62.636259218697" lon="17.982081672368">
        <ele>72.8</ele>
        <time>2017-12-12T17:44:42Z</time>
      </trkpt>
      <trkpt lat="62.636270282805" lon="17.98212509061">
        <ele>72.6</ele>
        <time>2017-12-12T17:44:43Z</time>
      </trkpt>
      <trkpt lat="62.636277072144" lon="17.98221645332">
        <ele>72.6</ele>
        <time>2017-12-12T17:44:44Z</time>
      </trkpt>
      <trkpt lat="62.636277323601" lon="17.982258865734">
        <ele>72.6</ele>
        <time>2017-12-12T17:44:45Z</time>
      </trkpt>
      <trkpt lat="62.63627824561" lon="17.982329525151">
        <ele>72.6</ele>
        <time>2017-12-12T17:44:46Z</time>
      </trkpt>
      <trkpt lat="62.63628076018" lon="17.982386438252">
        <ele>72.6</ele>
        <time>2017-12-12T17:44:47Z</time>
      </trkpt>
      <trkpt lat="62.636286292234" lon="17.982436981109">
        <ele>72.6</ele>
        <time>2017-12-12T17:44:48Z</time>
      </trkpt>
      <trkpt lat="62.636276820687" lon="17.98251568715">
        <ele>72.8</ele>
        <time>2017-12-12T17:44:49Z</time>
      </trkpt>
      <trkpt lat="62.636279754352" lon="17.982561033229">
        <ele>72.8</ele>
        <time>2017-12-12T17:44:50Z</time>
      </trkpt>
      <trkpt lat="62.636276736868" lon="17.982631273551">
        <ele>72.6</ele>
        <time>2017-12-12T17:44:51Z</time>
      </trkpt>
      <trkpt lat="62.636281263094" lon="17.982679888571">
        <ele>72.8</ele>
        <time>2017-12-12T17:44:52Z</time>
      </trkpt>
      <trkpt lat="62.636277826515" lon="17.982729090324">
        <ele>72.6</ele>
        <time>2017-12-12T17:44:53Z</time>
      </trkpt>
      <trkpt lat="62.636274809031" lon="17.982795558791">
        <ele>72.8</ele>
        <time>2017-12-12T17:44:54Z</time>
      </trkpt>
      <trkpt lat="62.63628076018" lon="17.982831181866">
        <ele>72.6</ele>
        <time>2017-12-12T17:44:55Z</time>
      </trkpt>
      <trkpt lat="62.636273384108" lon="17.98289790179">
        <ele>72.8</ele>
        <time>2017-12-12T17:44:56Z</time>
      </trkpt>
      <trkpt lat="62.636276066316" lon="17.982947857914">
        <ele>72.8</ele>
        <time>2017-12-12T17:44:57Z</time>
      </trkpt>
      <trkpt lat="62.636274557574" lon="17.982998987504">
        <ele>72.8</ele>
        <time>2017-12-12T17:44:58Z</time>
      </trkpt>
      <trkpt lat="62.636283526207" lon="17.983054475682">
        <ele>72.8</ele>
        <time>2017-12-12T17:44:59Z</time>
      </trkpt>
      <trkpt lat="62.636284615854" lon="17.98309739101">
        <ele>72.8</ele>
        <time>2017-12-12T17:45:00Z</time>
      </trkpt>
      <trkpt lat="62.636285705501" lon="17.983179449811">
        <ele>73</ele>
        <time>2017-12-12T17:45:01Z</time>
      </trkpt>
      <trkpt lat="62.636288471528" lon="17.983207445357">
        <ele>73</ele>
        <time>2017-12-12T17:45:02Z</time>
      </trkpt>
      <trkpt lat="62.636289477356" lon="17.98326670539">
        <ele>73</ele>
        <time>2017-12-12T17:45:03Z</time>
      </trkpt>
      <trkpt lat="62.636289058261" lon="17.983336526617">
        <ele>73</ele>
        <time>2017-12-12T17:45:04Z</time>
      </trkpt>
      <trkpt lat="62.636286795148" lon="17.983379777221">
        <ele>73</ele>
        <time>2017-12-12T17:45:05Z</time>
      </trkpt>
      <trkpt lat="62.636280843999" lon="17.983438618159">
        <ele>73.2</ele>
        <time>2017-12-12T17:45:06Z</time>
      </trkpt>
      <trkpt lat="62.636274557574" lon="17.983491005034">
        <ele>73.2</ele>
        <time>2017-12-12T17:45:07Z</time>
      </trkpt>
      <trkpt lat="62.63627154009" lon="17.983532830715">
        <ele>73.2</ele>
        <time>2017-12-12T17:45:08Z</time>
      </trkpt>
      <trkpt lat="62.636266678588" lon="17.9835843794">
        <ele>73.2</ele>
        <time>2017-12-12T17:45:09Z</time>
      </trkpt>
      <trkpt lat="62.636255195385" lon="17.98365646374">
        <ele>73.2</ele>
        <time>2017-12-12T17:45:10Z</time>
      </trkpt>
      <trkpt lat="62.636245220924" lon="17.983710778452">
        <ele>73.4</ele>
        <time>2017-12-12T17:45:11Z</time>
      </trkpt>
      <trkpt lat="62.636235917015" lon="17.983754280513">
        <ele>73.4</ele>
        <time>2017-12-12T17:45:12Z</time>
      </trkpt>
      <trkpt lat="62.636224014717" lon="17.983814630193">
        <ele>73.4</ele>
        <time>2017-12-12T17:45:13Z</time>
      </trkpt>
      <trkpt lat="62.636219153215" lon="17.983870034552">
        <ele>73.4</ele>
        <time>2017-12-12T17:45:14Z</time>
      </trkpt>
      <trkpt lat="62.63621286679" lon="17.983904819437">
        <ele>73.4</ele>
        <time>2017-12-12T17:45:15Z</time>
      </trkpt>
      <trkpt lat="62.636198701379" lon="17.983966677859">
        <ele>73.6</ele>
        <time>2017-12-12T17:45:16Z</time>
      </trkpt>
      <trkpt lat="62.636192331135" lon="17.984013616499">
        <ele>73.8</ele>
        <time>2017-12-12T17:45:17Z</time>
      </trkpt>
      <trkpt lat="62.636186128529" lon="17.984054268714">
        <ele>73.8</ele>
        <time>2017-12-12T17:45:18Z</time>
      </trkpt>
      <trkpt lat="62.636173807136" lon="17.984123503208">
        <ele>74</ele>
        <time>2017-12-12T17:45:19Z</time>
      </trkpt>
      <trkpt lat="62.636170202919" lon="17.98418368525">
        <ele>74</ele>
        <time>2017-12-12T17:45:20Z</time>
      </trkpt>
      <trkpt lat="62.636165257598" lon="17.984218302497">
        <ele>74.2</ele>
        <time>2017-12-12T17:45:21Z</time>
      </trkpt>
      <trkpt lat="62.636159977001" lon="17.984289464828">
        <ele>74.4</ele>
        <time>2017-12-12T17:45:22Z</time>
      </trkpt>
      <trkpt lat="62.6361533553" lon="17.984347719033">
        <ele>74.4</ele>
        <time>2017-12-12T17:45:23Z</time>
      </trkpt>
      <trkpt lat="62.636149834902" lon="17.984390215266">
        <ele>74.4</ele>
        <time>2017-12-12T17:45:24Z</time>
      </trkpt>
      <trkpt lat="62.636144051391" lon="17.98446364071">
        <ele>74.6</ele>
        <time>2017-12-12T17:45:25Z</time>
      </trkpt>
      <trkpt lat="62.636144051391" lon="17.984525750589">
        <ele>74.8</ele>
        <time>2017-12-12T17:45:26Z</time>
      </trkpt>
      <trkpt lat="62.636144051391" lon="17.984557098895">
        <ele>74.8</ele>
        <time>2017-12-12T17:45:27Z</time>
      </trkpt>
      <trkpt lat="62.636144051391" lon="17.98461283853">
        <ele>74.8</ele>
        <time>2017-12-12T17:45:28Z</time>
      </trkpt>
      <trkpt lat="62.636132065274" lon="17.984674780771">
        <ele>75</ele>
        <time>2017-12-12T17:45:29Z</time>
      </trkpt>
      <trkpt lat="62.636131227084" lon="17.984707554">
        <ele>75</ele>
        <time>2017-12-12T17:45:30Z</time>
      </trkpt>
      <trkpt lat="62.636130556532" lon="17.984765892024">
        <ele>75</ele>
        <time>2017-12-12T17:45:31Z</time>
      </trkpt>
      <trkpt lat="62.636130305075" lon="17.984825990247">
        <ele>75.2</ele>
        <time>2017-12-12T17:45:32Z</time>
      </trkpt>
      <trkpt lat="62.636127539048" lon="17.984866223367">
        <ele>75.2</ele>
        <time>2017-12-12T17:45:33Z</time>
      </trkpt>
      <trkpt lat="62.636130472713" lon="17.984925818676">
        <ele>75.4</ele>
        <time>2017-12-12T17:45:34Z</time>
      </trkpt>
      <trkpt lat="62.636125946487" lon="17.984989940211">
        <ele>75.2</ele>
        <time>2017-12-12T17:45:35Z</time>
      </trkpt>
      <trkpt lat="62.636127874324" lon="17.985024892734">
        <ele>75.2</ele>
        <time>2017-12-12T17:45:36Z</time>
      </trkpt>
      <trkpt lat="62.636123683374" lon="17.985084571862">
        <ele>75.4</ele>
        <time>2017-12-12T17:45:37Z</time>
      </trkpt>
      <trkpt lat="62.636117145492" lon="17.985135785271">
        <ele>75.4</ele>
        <time>2017-12-12T17:45:38Z</time>
      </trkpt>
      <trkpt lat="62.636115552931" lon="17.985165541016">
        <ele>75.6</ele>
        <time>2017-12-12T17:45:39Z</time>
      </trkpt>
      <trkpt lat="62.636108009221" lon="17.98522471723">
        <ele>75.6</ele>
        <time>2017-12-12T17:45:40Z</time>
      </trkpt>
      <trkpt lat="62.63610390209" lon="17.98528841967">
        <ele>75.6</ele>
        <time>2017-12-12T17:45:41Z</time>
      </trkpt>
      <trkpt lat="62.636100633149" lon="17.985314068284">
        <ele>75.6</ele>
        <time>2017-12-12T17:45:42Z</time>
      </trkpt>
      <trkpt lat="62.636094179086" lon="17.985386152624">
        <ele>75.8</ele>
        <time>2017-12-12T17:45:43Z</time>
      </trkpt>
      <trkpt lat="62.63609384381" lon="17.985434767644">
        <ele>75.8</ele>
        <time>2017-12-12T17:45:44Z</time>
      </trkpt>
      <trkpt lat="62.636091832154" lon="17.985469971624">
        <ele>75.8</ele>
        <time>2017-12-12T17:45:45Z</time>
      </trkpt>
      <trkpt lat="62.636091245421" lon="17.985537445919">
        <ele>76</ele>
        <time>2017-12-12T17:45:46Z</time>
      </trkpt>
      <trkpt lat="62.636084875177" lon="17.985558568307">
        <ele>76</ele>
        <time>2017-12-12T17:45:47Z</time>
      </trkpt>
      <trkpt lat="62.636076493277" lon="17.985610368449">
        <ele>76</ele>
        <time>2017-12-12T17:45:48Z</time>
      </trkpt>
      <trkpt lat="62.636068195196" lon="17.985663425876">
        <ele>76.2</ele>
        <time>2017-12-12T17:45:49Z</time>
      </trkpt>
      <trkpt lat="62.636068362834" lon="17.985693768354">
        <ele>76.4</ele>
        <time>2017-12-12T17:45:50Z</time>
      </trkpt>
      <trkpt lat="62.636056376717" lon="17.985737270415">
        <ele>76.4</ele>
        <time>2017-12-12T17:45:51Z</time>
      </trkpt>
      <trkpt lat="62.636036595433" lon="17.985787897091">
        <ele>76.4</ele>
        <time>2017-12-12T17:45:52Z</time>
      </trkpt>
      <trkpt lat="62.63601840671" lon="17.985829219858">
        <ele>76.6</ele>
        <time>2017-12-12T17:45:53Z</time>
      </trkpt>
      <trkpt lat="62.636017652339" lon="17.985866686951">
        <ele>76.8</ele>
        <time>2017-12-12T17:45:54Z</time>
      </trkpt>
      <trkpt lat="62.63600583386" lon="17.985892419384">
        <ele>76.8</ele>
        <time>2017-12-12T17:45:55Z</time>
      </trkpt>
      <trkpt lat="62.635985633481" lon="17.985927623364">
        <ele>76.8</ele>
        <time>2017-12-12T17:45:56Z</time>
      </trkpt>
      <trkpt lat="62.635964091998" lon="17.985947153191">
        <ele>76.8</ele>
        <time>2017-12-12T17:45:57Z</time>
      </trkpt>
      <trkpt lat="62.635948920759" lon="17.985980513153">
        <ele>77</ele>
        <time>2017-12-12T17:45:58Z</time>
      </trkpt>
      <trkpt lat="62.635929390932" lon="17.986005742672">
        <ele>77.2</ele>
        <time>2017-12-12T17:45:59Z</time>
      </trkpt>
      <trkpt lat="62.635897539712" lon="17.98602686506">
        <ele>77.2</ele>
        <time>2017-12-12T17:46:00Z</time>
      </trkpt>
      <trkpt lat="62.635888654898" lon="17.986048155086">
        <ele>77.4</ele>
        <time>2017-12-12T17:46:01Z</time>
      </trkpt>
      <trkpt lat="62.635872394012" lon="17.986064332153">
        <ele>77.6</ele>
        <time>2017-12-12T17:46:02Z</time>
      </trkpt>
      <trkpt lat="62.63584573957" lon="17.986085119265">
        <ele>77.8</ele>
        <time>2017-12-12T17:46:03Z</time>
      </trkpt>
      <trkpt lat="62.63582813758" lon="17.986104732911">
        <ele>77.8</ele>
        <time>2017-12-12T17:46:04Z</time>
      </trkpt>
      <trkpt lat="62.635817073472" lon="17.986115377924">
        <ele>77.8</ele>
        <time>2017-12-12T17:46:05Z</time>
      </trkpt>
      <trkpt lat="62.635787317727" lon="17.986164495858">
        <ele>78</ele>
        <time>2017-12-12T17:46:06Z</time>
      </trkpt>
      <trkpt lat="62.635765357149" lon="17.986187462264">
        <ele>78</ele>
        <time>2017-12-12T17:46:07Z</time>
      </trkpt>
      <trkpt lat="62.635752029928" lon="17.986222582425">
        <ele>78.2</ele>
        <time>2017-12-12T17:46:08Z</time>
      </trkpt>
      <trkpt lat="62.635737445422" lon="17.986265665391">
        <ele>78.2</ele>
        <time>2017-12-12T17:46:09Z</time>
      </trkpt>
      <trkpt lat="62.635730572264" lon="17.986297013697">
        <ele>78.4</ele>
        <time>2017-12-12T17:46:10Z</time>
      </trkpt>
      <trkpt lat="62.635714311378" lon="17.986329703107">
        <ele>78.4</ele>
        <time>2017-12-12T17:46:11Z</time>
      </trkpt>
      <trkpt lat="62.635700900338" lon="17.986359710309">
        <ele>78.6</ele>
        <time>2017-12-12T17:46:12Z</time>
      </trkpt>
      <trkpt lat="62.635691764067" lon="17.986387454398">
        <ele>78.8</ele>
        <time>2017-12-12T17:46:13Z</time>
      </trkpt>
      <trkpt lat="62.635673994439" lon="17.986428106613">
        <ele>78.8</ele>
        <time>2017-12-12T17:46:14Z</time>
      </trkpt>
      <trkpt lat="62.635662678874" lon="17.986459957833">
        <ele>78.8</ele>
        <time>2017-12-12T17:46:15Z</time>
      </trkpt>
      <trkpt lat="62.635644071056" lon="17.986507399387">
        <ele>79</ele>
        <time>2017-12-12T17:46:16Z</time>
      </trkpt>
      <trkpt lat="62.635633593681" lon="17.986549476525">
        <ele>79.2</ele>
        <time>2017-12-12T17:46:17Z</time>
      </trkpt>
      <trkpt lat="62.63562948655" lon="17.986588033265">
        <ele>79.2</ele>
        <time>2017-12-12T17:46:18Z</time>
      </trkpt>
      <trkpt lat="62.635615824053" lon="17.986648215307">
        <ele>79.4</ele>
        <time>2017-12-12T17:46:19Z</time>
      </trkpt>
      <trkpt lat="62.635593779656" lon="17.986693896662">
        <ele>79.4</ele>
        <time>2017-12-12T17:46:20Z</time>
      </trkpt>
      <trkpt lat="62.635582883186" lon="17.986725580244">
        <ele>79.6</ele>
        <time>2017-12-12T17:46:21Z</time>
      </trkpt>
      <trkpt lat="62.63556578411" lon="17.986759107844">
        <ele>79.6</ele>
        <time>2017-12-12T17:46:22Z</time>
      </trkpt>
      <trkpt lat="62.635555055278" lon="17.986781319879">
        <ele>80</ele>
        <time>2017-12-12T17:46:23Z</time>
      </trkpt>
      <trkpt lat="62.635538459116" lon="17.986825995406">
        <ele>80.2</ele>
        <time>2017-12-12T17:46:24Z</time>
      </trkpt>
      <trkpt lat="62.635525048076" lon="17.986860780291">
        <ele>80.2</ele>
        <time>2017-12-12T17:46:25Z</time>
      </trkpt>
      <trkpt lat="62.635516749995" lon="17.986893469701">
        <ele>80.6</ele>
        <time>2017-12-12T17:46:26Z</time>
      </trkpt>
      <trkpt lat="62.635496717254" lon="17.986944180196">
        <ele>80.8</ele>
        <time>2017-12-12T17:46:27Z</time>
      </trkpt>
      <trkpt lat="62.635478109436" lon="17.986987598438">
        <ele>80.6</ele>
        <time>2017-12-12T17:46:28Z</time>
      </trkpt>
      <trkpt lat="62.635458831066" lon="17.987022131866">
        <ele>80.8</ele>
        <time>2017-12-12T17:46:29Z</time>
      </trkpt>
      <trkpt lat="62.635443743646" lon="17.987061275339">
        <ele>80.8</ele>
        <time>2017-12-12T17:46:30Z</time>
      </trkpt>
      <trkpt lat="62.635427398941" lon="17.987092875102">
        <ele>80.6</ele>
        <time>2017-12-12T17:46:31Z</time>
      </trkpt>
      <trkpt lat="62.635412982073" lon="17.987126989435">
        <ele>80.8</ele>
        <time>2017-12-12T17:46:32Z</time>
      </trkpt>
      <trkpt lat="62.635404432535" lon="17.987154565886">
        <ele>80.8</ele>
        <time>2017-12-12T17:46:33Z</time>
      </trkpt>
      <trkpt lat="62.635390853857" lon="17.987186249468">
        <ele>80.8</ele>
        <time>2017-12-12T17:46:34Z</time>
      </trkpt>
      <trkpt lat="62.635377275179" lon="17.987209132055">
        <ele>80.8</ele>
        <time>2017-12-12T17:46:35Z</time>
      </trkpt>
      <trkpt lat="62.635361768664" lon="17.987257747075">
        <ele>80.8</ele>
        <time>2017-12-12T17:46:36Z</time>
      </trkpt>
      <trkpt lat="62.635345843054" lon="17.987297058186">
        <ele>80.8</ele>
        <time>2017-12-12T17:46:37Z</time>
      </trkpt>
      <trkpt lat="62.635326145589" lon="17.987330334329">
        <ele>81</ele>
        <time>2017-12-12T17:46:38Z</time>
      </trkpt>
      <trkpt lat="62.635315668214" lon="17.987356569676">
        <ele>81</ele>
        <time>2017-12-12T17:46:39Z</time>
      </trkpt>
      <trkpt lat="62.635294545826" lon="17.987410046198">
        <ele>81.2</ele>
        <time>2017-12-12T17:46:40Z</time>
      </trkpt>
      <trkpt lat="62.63527660856" lon="17.987443909074">
        <ele>81.2</ele>
        <time>2017-12-12T17:46:41Z</time>
      </trkpt>
      <trkpt lat="62.63525984476" lon="17.987471653163">
        <ele>81.2</ele>
        <time>2017-12-12T17:46:42Z</time>
      </trkpt>
      <trkpt lat="62.635245008797" lon="17.987501995641">
        <ele>81.4</ele>
        <time>2017-12-12T17:46:43Z</time>
      </trkpt>
      <trkpt lat="62.635220785106" lon="17.987555220706">
        <ele>81.4</ele>
        <time>2017-12-12T17:46:44Z</time>
      </trkpt>
      <trkpt lat="62.635212738482" lon="17.987577684198">
        <ele>81.4</ele>
        <time>2017-12-12T17:46:45Z</time>
      </trkpt>
      <trkpt lat="62.635193543931" lon="17.987614480739">
        <ele>81.6</ele>
        <time>2017-12-12T17:46:46Z</time>
      </trkpt>
      <trkpt lat="62.635172840638" lon="17.987651612556">
        <ele>81.6</ele>
        <time>2017-12-12T17:46:47Z</time>
      </trkpt>
      <trkpt lat="62.635149371318" lon="17.987685559251">
        <ele>81.6</ele>
        <time>2017-12-12T17:46:48Z</time>
      </trkpt>
      <trkpt lat="62.635137552839" lon="17.987720427955">
        <ele>81.6</ele>
        <time>2017-12-12T17:46:49Z</time>
      </trkpt>
      <trkpt lat="62.635113832062" lon="17.987764600568">
        <ele>81.6</ele>
        <time>2017-12-12T17:46:50Z</time>
      </trkpt>
      <trkpt lat="62.635092793493" lon="17.987810365742">
        <ele>81.6</ele>
        <time>2017-12-12T17:46:51Z</time>
      </trkpt>
      <trkpt lat="62.635072760752" lon="17.98783735546">
        <ele>81.8</ele>
        <time>2017-12-12T17:46:52Z</time>
      </trkpt>
      <trkpt lat="62.635062702472" lon="17.987856969106">
        <ele>81.8</ele>
        <time>2017-12-12T17:46:53Z</time>
      </trkpt>
      <trkpt lat="62.635032779089" lon="17.98789686695">
        <ele>82</ele>
        <time>2017-12-12T17:46:54Z</time>
      </trkpt>
      <trkpt lat="62.635019535687" lon="17.987912373465">
        <ele>82.2</ele>
        <time>2017-12-12T17:46:55Z</time>
      </trkpt>
      <trkpt lat="62.635006543742" lon="17.987939447002">
        <ele>82.4</ele>
        <time>2017-12-12T17:46:56Z</time>
      </trkpt>
      <trkpt lat="62.634974943979" lon="17.987986301823">
        <ele>82.4</ele>
        <time>2017-12-12T17:46:57Z</time>
      </trkpt>
      <trkpt lat="62.634955665609" lon="17.988004490546">
        <ele>82.6</ele>
        <time>2017-12-12T17:46:58Z</time>
      </trkpt>
      <trkpt lat="62.634941416379" lon="17.988033575739">
        <ele>82.6</ele>
        <time>2017-12-12T17:46:59Z</time>
      </trkpt>
      <trkpt lat="62.634919204344" lon="17.988047405874">
        <ele>82.8</ele>
        <time>2017-12-12T17:47:00Z</time>
      </trkpt>
      <trkpt lat="62.634904619838" lon="17.988070204642">
        <ele>82.8</ele>
        <time>2017-12-12T17:47:01Z</time>
      </trkpt>
      <trkpt lat="62.634884000364" lon="17.988083448044">
        <ele>83</ele>
        <time>2017-12-12T17:47:02Z</time>
      </trkpt>
      <trkpt lat="62.63486338089" lon="17.988097781093">
        <ele>83.2</ele>
        <time>2017-12-12T17:47:03Z</time>
      </trkpt>
      <trkpt lat="62.634847958194" lon="17.988114880169">
        <ele>83.4</ele>
        <time>2017-12-12T17:47:04Z</time>
      </trkpt>
      <trkpt lat="62.634827590177" lon="17.988126950105">
        <ele>83.6</ele>
        <time>2017-12-12T17:47:05Z</time>
      </trkpt>
      <trkpt lat="62.63480303121" lon="17.988135332005">
        <ele>83.8</ele>
        <time>2017-12-12T17:47:06Z</time>
      </trkpt>
      <trkpt lat="62.634785010125" lon="17.988138768584">
        <ele>84</ele>
        <time>2017-12-12T17:47:07Z</time>
      </trkpt>
      <trkpt lat="62.634760199701" lon="17.988145138828">
        <ele>84.2</ele>
        <time>2017-12-12T17:47:08Z</time>
      </trkpt>
      <trkpt lat="62.634730024861" lon="17.988149413597">
        <ele>84.2</ele>
        <time>2017-12-12T17:47:09Z</time>
      </trkpt>
      <trkpt lat="62.63470580117" lon="17.988162154085">
        <ele>84.2</ele>
        <time>2017-12-12T17:47:10Z</time>
      </trkpt>
      <trkpt lat="62.634687444809" lon="17.988164752474">
        <ele>84.4</ele>
        <time>2017-12-12T17:47:11Z</time>
      </trkpt>
      <trkpt lat="62.634664059308" lon="17.988166345035">
        <ele>84.4</ele>
        <time>2017-12-12T17:47:12Z</time>
      </trkpt>
      <trkpt lat="62.634638326875" lon="17.988174391659">
        <ele>84.6</ele>
        <time>2017-12-12T17:47:13Z</time>
      </trkpt>
      <trkpt lat="62.634618713229" lon="17.98817598422">
        <ele>84.6</ele>
        <time>2017-12-12T17:47:14Z</time>
      </trkpt>
      <trkpt lat="62.634590298588" lon="17.988196436056">
        <ele>84.8</ele>
        <time>2017-12-12T17:47:15Z</time>
      </trkpt>
      <trkpt lat="62.634570433485" lon="17.988188389432">
        <ele>84.8</ele>
        <time>2017-12-12T17:47:16Z</time>
      </trkpt>
      <trkpt lat="62.634559537015" lon="17.988198950626">
        <ele>85</ele>
        <time>2017-12-12T17:47:17Z</time>
      </trkpt>
      <trkpt lat="62.634537157342" lon="17.988201381377">
        <ele>85.2</ele>
        <time>2017-12-12T17:47:18Z</time>
      </trkpt>
      <trkpt lat="62.634505976674" lon="17.988200207911">
        <ele>85.2</ele>
        <time>2017-12-12T17:47:19Z</time>
      </trkpt>
      <trkpt lat="62.634490805435" lon="17.988204147404">
        <ele>85.4</ele>
        <time>2017-12-12T17:47:20Z</time>
      </trkpt>
      <trkpt lat="62.634460462957" lon="17.988206913431">
        <ele>85.4</ele>
        <time>2017-12-12T17:47:21Z</time>
      </trkpt>
      <trkpt lat="62.634426600081" lon="17.988207081069">
        <ele>85.4</ele>
        <time>2017-12-12T17:47:22Z</time>
      </trkpt>
      <trkpt lat="62.634422241493" lon="17.988212110209">
        <ele>85.6</ele>
        <time>2017-12-12T17:47:23Z</time>
      </trkpt>
      <trkpt lat="62.634389468264" lon="17.988221414118">
        <ele>85.6</ele>
        <time>2017-12-12T17:47:24Z</time>
      </trkpt>
      <trkpt lat="62.634356778854" lon="17.988229796018">
        <ele>85.6</ele>
        <time>2017-12-12T17:47:25Z</time>
      </trkpt>
      <trkpt lat="62.63433951214" lon="17.988223593412">
        <ele>85.6</ele>
        <time>2017-12-12T17:47:26Z</time>
      </trkpt>
      <trkpt lat="62.634328699489" lon="17.988219821557">
        <ele>85.8</ele>
        <time>2017-12-12T17:47:27Z</time>
      </trkpt>
      <trkpt lat="62.634291064758" lon="17.988213786589">
        <ele>85.8</ele>
        <time>2017-12-12T17:47:28Z</time>
      </trkpt>
      <trkpt lat="62.634268517447" lon="17.988221414118">
        <ele>85.8</ele>
        <time>2017-12-12T17:47:29Z</time>
      </trkpt>
      <trkpt lat="62.634232726734" lon="17.988215714426">
        <ele>86</ele>
        <time>2017-12-12T17:47:30Z</time>
      </trkpt>
      <trkpt lat="62.634207581034" lon="17.988217223168">
        <ele>86</ele>
        <time>2017-12-12T17:47:31Z</time>
      </trkpt>
      <trkpt lat="62.634181597144" lon="17.988213870408">
        <ele>86.2</ele>
        <time>2017-12-12T17:47:32Z</time>
      </trkpt>
      <trkpt lat="62.634139771463" lon="17.988212277847">
        <ele>86.2</ele>
        <time>2017-12-12T17:47:33Z</time>
      </trkpt>
      <trkpt lat="62.634105740949" lon="17.988210517648">
        <ele>86.4</ele>
        <time>2017-12-12T17:47:34Z</time>
      </trkpt>
      <trkpt lat="62.634083277457" lon="17.988181264817">
        <ele>86.4</ele>
        <time>2017-12-12T17:47:35Z</time>
      </trkpt>
      <trkpt lat="62.634065172553" lon="17.988168189053">
        <ele>86.4</ele>
        <time>2017-12-12T17:47:36Z</time>
      </trkpt>
      <trkpt lat="62.634020497026" lon="17.988176654772">
        <ele>86.2</ele>
        <time>2017-12-12T17:47:37Z</time>
      </trkpt>
      <trkpt lat="62.633988897263" lon="17.988149497416">
        <ele>86.2</ele>
        <time>2017-12-12T17:47:38Z</time>
      </trkpt>
      <trkpt lat="62.633962578097" lon="17.988124435535">
        <ele>86.4</ele>
        <time>2017-12-12T17:47:39Z</time>
      </trkpt>
      <trkpt lat="62.633947406858" lon="17.988110773038">
        <ele>86.4</ele>
        <time>2017-12-12T17:47:40Z</time>
      </trkpt>
      <trkpt lat="62.633922512615" lon="17.988086214071">
        <ele>86.4</ele>
        <time>2017-12-12T17:47:41Z</time>
      </trkpt>
      <trkpt lat="62.633898875657" lon="17.988054530489">
        <ele>86.4</ele>
        <time>2017-12-12T17:47:42Z</time>
      </trkpt>
      <trkpt lat="62.633879681106" lon="17.988040532716">
        <ele>86.6</ele>
        <time>2017-12-12T17:47:43Z</time>
      </trkpt>
      <trkpt lat="62.633846572601" lon="17.988011615161">
        <ele>86.6</ele>
        <time>2017-12-12T17:47:44Z</time>
      </trkpt>
      <trkpt lat="62.633819331426" lon="17.98798739147">
        <ele>86.6</ele>
        <time>2017-12-12T17:47:45Z</time>
      </trkpt>
      <trkpt lat="62.633797370848" lon="17.987983116701">
        <ele>86.8</ele>
        <time>2017-12-12T17:47:46Z</time>
      </trkpt>
      <trkpt lat="62.633768956207" lon="17.98795889301">
        <ele>86.8</ele>
        <time>2017-12-12T17:47:47Z</time>
      </trkpt>
      <trkpt lat="62.633733919865" lon="17.987935591328">
        <ele>87</ele>
        <time>2017-12-12T17:47:48Z</time>
      </trkpt>
      <trkpt lat="62.633709696174" lon="17.987925281591">
        <ele>87.2</ele>
        <time>2017-12-12T17:47:49Z</time>
      </trkpt>
      <trkpt lat="62.633677258221" lon="17.987894268561">
        <ele>87.2</ele>
        <time>2017-12-12T17:47:50Z</time>
      </trkpt>
      <trkpt lat="62.633648089209" lon="17.987875576924">
        <ele>87.2</ele>
        <time>2017-12-12T17:47:51Z</time>
      </trkpt>
      <trkpt lat="62.633628810839" lon="17.987848671025">
        <ele>87.4</ele>
        <time>2017-12-12T17:47:52Z</time>
      </trkpt>
      <trkpt lat="62.633611292668" lon="17.987830733759">
        <ele>87.4</ele>
        <time>2017-12-12T17:47:53Z</time>
      </trkpt>
      <trkpt lat="62.633591679022" lon="17.987797457616">
        <ele>87.6</ele>
        <time>2017-12-12T17:47:54Z</time>
      </trkpt>
      <trkpt lat="62.633573741756" lon="17.987773317744">
        <ele>87.6</ele>
        <time>2017-12-12T17:47:55Z</time>
      </trkpt>
      <trkpt lat="62.633557564689" lon="17.987754542288">
        <ele>87.8</ele>
        <time>2017-12-12T17:47:56Z</time>
      </trkpt>
      <trkpt lat="62.633537029034" lon="17.987735012461">
        <ele>88</ele>
        <time>2017-12-12T17:47:57Z</time>
      </trkpt>
      <trkpt lat="62.633511128963" lon="17.987699724662">
        <ele>88.2</ele>
        <time>2017-12-12T17:47:58Z</time>
      </trkpt>
      <trkpt lat="62.633486821453" lon="17.987665861786">
        <ele>88.4</ele>
        <time>2017-12-12T17:47:59Z</time>
      </trkpt>
      <trkpt lat="62.633469051825" lon="17.987635854584">
        <ele>88.4</ele>
        <time>2017-12-12T17:48:00Z</time>
      </trkpt>
      <trkpt lat="62.633441559193" lon="17.987591262876">
        <ele>88.8</ele>
        <time>2017-12-12T17:48:01Z</time>
      </trkpt>
      <trkpt lat="62.63342420866" lon="17.987555388344">
        <ele>88.8</ele>
        <time>2017-12-12T17:48:02Z</time>
      </trkpt>
      <trkpt lat="62.633402834815" lon="17.987522447477">
        <ele>88.8</ele>
        <time>2017-12-12T17:48:03Z</time>
      </trkpt>
      <trkpt lat="62.633383640264" lon="17.987486656764">
        <ele>88.8</ele>
        <time>2017-12-12T17:48:04Z</time>
      </trkpt>
      <trkpt lat="62.633368217568" lon="17.987451536603">
        <ele>88.8</ele>
        <time>2017-12-12T17:48:05Z</time>
      </trkpt>
      <trkpt lat="62.633343993877" lon="17.987418428098">
        <ele>89</ele>
        <time>2017-12-12T17:48:06Z</time>
      </trkpt>
      <trkpt lat="62.633324212593" lon="17.987398395357">
        <ele>89</ele>
        <time>2017-12-12T17:48:07Z</time>
      </trkpt>
      <trkpt lat="62.633302754929" lon="17.987343577731">
        <ele>89.2</ele>
        <time>2017-12-12T17:48:08Z</time>
      </trkpt>
      <trkpt lat="62.633289343889" lon="17.98728498825">
        <ele>89.4</ele>
        <time>2017-12-12T17:48:09Z</time>
      </trkpt>
      <trkpt lat="62.63326914351" lon="17.987210892254">
        <ele>89.6</ele>
        <time>2017-12-12T17:48:10Z</time>
      </trkpt>
      <trkpt lat="62.633244668362" lon="17.987128498177">
        <ele>89.8</ele>
        <time>2017-12-12T17:48:11Z</time>
      </trkpt>
      <trkpt lat="62.633227736924" lon="17.987023892065">
        <ele>89.8</ele>
        <time>2017-12-12T17:48:12Z</time>
      </trkpt>
      <trkpt lat="62.633212733323" lon="17.986921549066">
        <ele>89.2</ele>
        <time>2017-12-12T17:48:13Z</time>
      </trkpt>
      <trkpt lat="62.633193119677" lon="17.986805459751">
        <ele>88.4</ele>
        <time>2017-12-12T17:48:14Z</time>
      </trkpt>
      <trkpt lat="62.633183061397" lon="17.986715689602">
        <ele>87.6</ele>
        <time>2017-12-12T17:48:15Z</time>
      </trkpt>
      <trkpt lat="62.633178870447" lon="17.986625081263">
        <ele>87</ele>
        <time>2017-12-12T17:48:16Z</time>
      </trkpt>
      <trkpt lat="62.633178451352" lon="17.986560289176">
        <ele>86.6</ele>
        <time>2017-12-12T17:48:17Z</time>
      </trkpt>
      <trkpt lat="62.633166800511" lon="17.986470099932">
        <ele>86.2</ele>
        <time>2017-12-12T17:48:18Z</time>
      </trkpt>
      <trkpt lat="62.633145761942" lon="17.986391226253">
        <ele>86.4</ele>
        <time>2017-12-12T17:48:19Z</time>
      </trkpt>
      <trkpt lat="62.633155233489" lon="17.986314783325">
        <ele>86.8</ele>
        <time>2017-12-12T17:48:20Z</time>
      </trkpt>
      <trkpt lat="62.633160011172" lon="17.986224594081">
        <ele>86.8</ele>
        <time>2017-12-12T17:48:21Z</time>
      </trkpt>
      <trkpt lat="62.633157748059" lon="17.98612493329">
        <ele>87</ele>
        <time>2017-12-12T17:48:22Z</time>
      </trkpt>
      <trkpt lat="62.633158921525" lon="17.98603440877">
        <ele>86.8</ele>
        <time>2017-12-12T17:48:23Z</time>
      </trkpt>
      <trkpt lat="62.633164285941" lon="17.985912619763">
        <ele>86.4</ele>
        <time>2017-12-12T17:48:24Z</time>
      </trkpt>
      <trkpt lat="62.633165291769" lon="17.985806085814">
        <ele>86</ele>
        <time>2017-12-12T17:48:25Z</time>
      </trkpt>
      <trkpt lat="62.633164202122" lon="17.98569913277">
        <ele>85.4</ele>
        <time>2017-12-12T17:48:26Z</time>
      </trkpt>
      <trkpt lat="62.633163447751" lon="17.985587234405">
        <ele>85</ele>
        <time>2017-12-12T17:48:27Z</time>
      </trkpt>
      <trkpt lat="62.633172164927" lon="17.985524537793">
        <ele>84.6</ele>
        <time>2017-12-12T17:48:28Z</time>
      </trkpt>
      <trkpt lat="62.633169063624" lon="17.985401659139">
        <ele>84.6</ele>
        <time>2017-12-12T17:48:29Z</time>
      </trkpt>
      <trkpt lat="62.633177110248" lon="17.985304848194">
        <ele>84.6</ele>
        <time>2017-12-12T17:48:30Z</time>
      </trkpt>
      <trkpt lat="62.633188761089" lon="17.985182388635">
        <ele>84.6</ele>
        <time>2017-12-12T17:48:31Z</time>
      </trkpt>
      <trkpt lat="62.63320041193" lon="17.985058923248">
        <ele>84.4</ele>
        <time>2017-12-12T17:48:32Z</time>
      </trkpt>
      <trkpt lat="62.633221869594" lon="17.984937804793">
        <ele>83.8</ele>
        <time>2017-12-12T17:48:33Z</time>
      </trkpt>
      <trkpt lat="62.633245255095" lon="17.98481316594">
        <ele>83</ele>
        <time>2017-12-12T17:48:34Z</time>
      </trkpt>
      <trkpt lat="62.633258498497" lon="17.984718534289">
        <ele>82.2</ele>
        <time>2017-12-12T17:48:35Z</time>
      </trkpt>
      <trkpt lat="62.633279537066" lon="17.98460445663">
        <ele>81.4</ele>
        <time>2017-12-12T17:48:36Z</time>
      </trkpt>
      <trkpt lat="62.633296133228" lon="17.984502784183">
        <ele>81.4</ele>
        <time>2017-12-12T17:48:37Z</time>
      </trkpt>
      <trkpt lat="62.633300659454" lon="17.984416115337">
        <ele>81.4</ele>
        <time>2017-12-12T17:48:38Z</time>
      </trkpt>
      <trkpt lat="62.633313735218" lon="17.984313939976">
        <ele>81.6</ele>
        <time>2017-12-12T17:48:39Z</time>
      </trkpt>
      <trkpt lat="62.633321195109" lon="17.984219811239">
        <ele>82</ele>
        <time>2017-12-12T17:48:40Z</time>
      </trkpt>
      <trkpt lat="62.633324128774" lon="17.984137752438">
        <ele>82.2</ele>
        <time>2017-12-12T17:48:41Z</time>
      </trkpt>
      <trkpt lat="62.633334857606" lon="17.984057202379">
        <ele>82.6</ele>
        <time>2017-12-12T17:48:42Z</time>
      </trkpt>
      <trkpt lat="62.633333516502" lon="17.983991153007">
        <ele>82.6</ele>
        <time>2017-12-12T17:48:43Z</time>
      </trkpt>
      <trkpt lat="62.633342485135" lon="17.983916721735">
        <ele>82.6</ele>
        <time>2017-12-12T17:48:44Z</time>
      </trkpt>
      <trkpt lat="62.633353716881" lon="17.983830974898">
        <ele>82.6</ele>
        <time>2017-12-12T17:48:45Z</time>
      </trkpt>
      <trkpt lat="62.633377856753" lon="17.983765512259">
        <ele>82.4</ele>
        <time>2017-12-12T17:48:46Z</time>
      </trkpt>
      <trkpt lat="62.633373581984" lon="17.983710862271">
        <ele>82.6</ele>
        <time>2017-12-12T17:48:47Z</time>
      </trkpt>
      <trkpt lat="62.633388501766" lon="17.983640286673">
        <ele>82.4</ele>
        <time>2017-12-12T17:48:48Z</time>
      </trkpt>
      <trkpt lat="62.633411300534" lon="17.983583625029">
        <ele>82.6</ele>
        <time>2017-12-12T17:48:49Z</time>
      </trkpt>
      <trkpt lat="62.633425465945" lon="17.98351648601">
        <ele>82.6</ele>
        <time>2017-12-12T17:48:50Z</time>
      </trkpt>
      <trkpt lat="62.633430662723" lon="17.983466529886">
        <ele>82.6</ele>
        <time>2017-12-12T17:48:51Z</time>
      </trkpt>
      <trkpt lat="62.633439212261" lon="17.98340081579">
        <ele>82.6</ele>
        <time>2017-12-12T17:48:52Z</time>
      </trkpt>
      <trkpt lat="62.63344264884" lon="17.983328815269">
        <ele>82.6</ele>
        <time>2017-12-12T17:48:53Z</time>
      </trkpt>
      <trkpt lat="62.633465028513" lon="17.983268465589">
        <ele>82.8</ele>
        <time>2017-12-12T17:48:54Z</time>
      </trkpt>
      <trkpt lat="62.633474248603" lon="17.983203589683">
        <ele>82.8</ele>
        <time>2017-12-12T17:48:55Z</time>
      </trkpt>
      <trkpt lat="62.633491934412" lon="17.983134941922">
        <ele>82.8</ele>
        <time>2017-12-12T17:48:56Z</time>
      </trkpt>
      <trkpt lat="62.63348707291" lon="17.983070820387">
        <ele>83</ele>
        <time>2017-12-12T17:48:57Z</time>
      </trkpt>
      <trkpt lat="62.633494197525" lon="17.983020864263">
        <ele>83</ele>
        <time>2017-12-12T17:48:58Z</time>
      </trkpt>
      <trkpt lat="62.633509620221" lon="17.982937883453">
        <ele>83</ele>
        <time>2017-12-12T17:48:59Z</time>
      </trkpt>
      <trkpt lat="62.633529233867" lon="17.982876444126">
        <ele>83</ele>
        <time>2017-12-12T17:49:00Z</time>
      </trkpt>
      <trkpt lat="62.633550440074" lon="17.982801845216">
        <ele>83</ele>
        <time>2017-12-12T17:49:01Z</time>
      </trkpt>
      <trkpt lat="62.633560749811" lon="17.982752559644">
        <ele>83</ele>
        <time>2017-12-12T17:49:02Z</time>
      </trkpt>
      <trkpt lat="62.633582123656" lon="17.982675613802">
        <ele>83</ele>
        <time>2017-12-12T17:49:03Z</time>
      </trkpt>
      <trkpt lat="62.63357927381" lon="17.982617191959">
        <ele>83</ele>
        <time>2017-12-12T17:49:04Z</time>
      </trkpt>
      <trkpt lat="62.633594864144" lon="17.982538821194">
        <ele>83</ele>
        <time>2017-12-12T17:49:05Z</time>
      </trkpt>
      <trkpt lat="62.633594696506" lon="17.982471514537">
        <ele>82.8</ele>
        <time>2017-12-12T17:49:06Z</time>
      </trkpt>
      <trkpt lat="62.633604503329" lon="17.982410745762">
        <ele>82.8</ele>
        <time>2017-12-12T17:49:07Z</time>
      </trkpt>
      <trkpt lat="62.633610454478" lon="17.982354587032">
        <ele>82.6</ele>
        <time>2017-12-12T17:49:08Z</time>
      </trkpt>
      <trkpt lat="62.633629062296" lon="17.982297338655">
        <ele>82.8</ele>
        <time>2017-12-12T17:49:09Z</time>
      </trkpt>
      <trkpt lat="62.633639539671" lon="17.982207317049">
        <ele>82.8</ele>
        <time>2017-12-12T17:49:10Z</time>
      </trkpt>
      <trkpt lat="62.633637779472" lon="17.982131125578">
        <ele>82.8</ele>
        <time>2017-12-12T17:49:11Z</time>
      </trkpt>
      <trkpt lat="62.633642389517" lon="17.982071697907">
        <ele>82.8</ele>
        <time>2017-12-12T17:49:12Z</time>
      </trkpt>
      <trkpt lat="62.633648340666" lon="17.982011432046">
        <ele>82.8</ele>
        <time>2017-12-12T17:49:13Z</time>
      </trkpt>
      <trkpt lat="62.633646412829" lon="17.981952172013">
        <ele>83</ele>
        <time>2017-12-12T17:49:14Z</time>
      </trkpt>
      <trkpt lat="62.633655968195" lon="17.981891487057">
        <ele>83</ele>
        <time>2017-12-12T17:49:15Z</time>
      </trkpt>
      <trkpt lat="62.633656890204" lon="17.9818241804">
        <ele>83</ele>
        <time>2017-12-12T17:49:16Z</time>
      </trkpt>
      <trkpt lat="62.633658231308" lon="17.981784198737">
        <ele>83</ele>
        <time>2017-12-12T17:49:17Z</time>
      </trkpt>
      <trkpt lat="62.633665188285" lon="17.981725693075">
        <ele>83</ele>
        <time>2017-12-12T17:49:18Z</time>
      </trkpt>
      <trkpt lat="62.63366812195" lon="17.981649082509">
        <ele>83</ele>
        <time>2017-12-12T17:49:19Z</time>
      </trkpt>
      <trkpt lat="62.633671139434" lon="17.981595857444">
        <ele>83.2</ele>
        <time>2017-12-12T17:49:20Z</time>
      </trkpt>
      <trkpt lat="62.633681281533" lon="17.981532155004">
        <ele>83.2</ele>
        <time>2017-12-12T17:49:21Z</time>
      </trkpt>
      <trkpt lat="62.633699805532" lon="17.981486557468">
        <ele>83.2</ele>
        <time>2017-12-12T17:49:22Z</time>
      </trkpt>
      <trkpt lat="62.633702990654" lon="17.981426207788">
        <ele>83.2</ele>
        <time>2017-12-12T17:49:23Z</time>
      </trkpt>
      <trkpt lat="62.633716569332" lon="17.981356973294">
        <ele>83.2</ele>
        <time>2017-12-12T17:49:24Z</time>
      </trkpt>
      <trkpt lat="62.633730567105" lon="17.981318081278">
        <ele>83.2</ele>
        <time>2017-12-12T17:49:25Z</time>
      </trkpt>
      <trkpt lat="62.633739535738" lon="17.981241303074">
        <ele>83.2</ele>
        <time>2017-12-12T17:49:26Z</time>
      </trkpt>
      <trkpt lat="62.633753449692" lon="17.981203165429">
        <ele>83.4</ele>
        <time>2017-12-12T17:49:27Z</time>
      </trkpt>
      <trkpt lat="62.633765435809" lon="17.981154718047">
        <ele>83.4</ele>
        <time>2017-12-12T17:49:28Z</time>
      </trkpt>
      <trkpt lat="62.633778343935" lon="17.981110713072">
        <ele>83.4</ele>
        <time>2017-12-12T17:49:29Z</time>
      </trkpt>
      <trkpt lat="62.633794604821" lon="17.981047429727">
        <ele>83.4</ele>
        <time>2017-12-12T17:49:30Z</time>
      </trkpt>
      <trkpt lat="62.633806088024" lon="17.981010381729">
        <ele>83.6</ele>
        <time>2017-12-12T17:49:31Z</time>
      </trkpt>
      <trkpt lat="62.633827461869" lon="17.980936621009">
        <ele>83.6</ele>
        <time>2017-12-12T17:49:32Z</time>
      </trkpt>
      <trkpt lat="62.633847410791" lon="17.980895633518">
        <ele>83.8</ele>
        <time>2017-12-12T17:49:33Z</time>
      </trkpt>
      <trkpt lat="62.633864426048" lon="17.980855400398">
        <ele>83.8</ele>
        <time>2017-12-12T17:49:34Z</time>
      </trkpt>
      <trkpt lat="62.633883620599" lon="17.980810221957">
        <ele>83.8</ele>
        <time>2017-12-12T17:49:35Z</time>
      </trkpt>
      <trkpt lat="62.633899630028" lon="17.980769569742">
        <ele>84</ele>
        <time>2017-12-12T17:49:36Z</time>
      </trkpt>
      <trkpt lat="62.633929553411" lon="17.980698155954">
        <ele>84</ele>
        <time>2017-12-12T17:49:37Z</time>
      </trkpt>
      <trkpt lat="62.633944976107" lon="17.980658844843">
        <ele>84</ele>
        <time>2017-12-12T17:49:38Z</time>
      </trkpt>
      <trkpt lat="62.633972133463" lon="17.980598578982">
        <ele>84</ele>
        <time>2017-12-12T17:49:39Z</time>
      </trkpt>
      <trkpt lat="62.633976240594" lon="17.980557507672">
        <ele>84</ele>
        <time>2017-12-12T17:49:40Z</time>
      </trkpt>
      <trkpt lat="62.63399669243" lon="17.980493889051">
        <ele>84.2</ele>
        <time>2017-12-12T17:49:41Z</time>
      </trkpt>
      <trkpt lat="62.634008678547" lon="17.980441418357">
        <ele>84.2</ele>
        <time>2017-12-12T17:49:42Z</time>
      </trkpt>
      <trkpt lat="62.63403441098" lon="17.980405040911">
        <ele>84.4</ele>
        <time>2017-12-12T17:49:43Z</time>
      </trkpt>
      <trkpt lat="62.634056371558" lon="17.980363634325">
        <ele>84.2</ele>
        <time>2017-12-12T17:49:44Z</time>
      </trkpt>
      <trkpt lat="62.634071375159" lon="17.980319713169">
        <ele>84.4</ele>
        <time>2017-12-12T17:49:45Z</time>
      </trkpt>
      <trkpt lat="62.634101214723" lon="17.980259950222">
        <ele>84.6</ele>
        <time>2017-12-12T17:49:46Z</time>
      </trkpt>
      <trkpt lat="62.634117810885" lon="17.980234050151">
        <ele>84.6</ele>
        <time>2017-12-12T17:49:47Z</time>
      </trkpt>
      <trkpt lat="62.634150584114" lon="17.980185016036">
        <ele>84.6</ele>
        <time>2017-12-12T17:49:48Z</time>
      </trkpt>
      <trkpt lat="62.63416768319" lon="17.980141849251">
        <ele>84.8</ele>
        <time>2017-12-12T17:49:49Z</time>
      </trkpt>
      <trkpt lat="62.634198360944" lon="17.980078649725">
        <ele>84.8</ele>
        <time>2017-12-12T17:49:50Z</time>
      </trkpt>
      <trkpt lat="62.634213113088" lon="17.980014779647">
        <ele>84.8</ele>
        <time>2017-12-12T17:49:51Z</time>
      </trkpt>
      <trkpt lat="62.634234403114" lon="17.979962141315">
        <ele>84.8</ele>
        <time>2017-12-12T17:49:52Z</time>
      </trkpt>
      <trkpt lat="62.63424898762" lon="17.979915370313">
        <ele>84.8</ele>
        <time>2017-12-12T17:49:53Z</time>
      </trkpt>
      <trkpt lat="62.634267343981" lon="17.9798544339">
        <ele>85</ele>
        <time>2017-12-12T17:49:54Z</time>
      </trkpt>
      <trkpt lat="62.634296596812" lon="17.979781679008">
        <ele>85</ele>
        <time>2017-12-12T17:49:55Z</time>
      </trkpt>
      <trkpt lat="62.634316461915" lon="17.979745972114">
        <ele>84.8</ele>
        <time>2017-12-12T17:49:56Z</time>
      </trkpt>
      <trkpt lat="62.634327358385" lon="17.979683862235">
        <ele>84.6</ele>
        <time>2017-12-12T17:49:57Z</time>
      </trkpt>
      <trkpt lat="62.634336746113" lon="17.979644634943">
        <ele>84.6</ele>
        <time>2017-12-12T17:49:58Z</time>
      </trkpt>
      <trkpt lat="62.63434537947" lon="17.979574646078">
        <ele>84.6</ele>
        <time>2017-12-12T17:49:59Z</time>
      </trkpt>
      <trkpt lat="62.634363987288" lon="17.979493509286">
        <ele>84.4</ele>
        <time>2017-12-12T17:50:00Z</time>
      </trkpt>
      <trkpt lat="62.634362562365" lon="17.979429639208">
        <ele>84.2</ele>
        <time>2017-12-12T17:50:01Z</time>
      </trkpt>
      <trkpt lat="62.634376308681" lon="17.979383538758">
        <ele>84.4</ele>
        <time>2017-12-12T17:50:02Z</time>
      </trkpt>
      <trkpt lat="62.634387121332" lon="17.979318914309">
        <ele>84.6</ele>
        <time>2017-12-12T17:50:03Z</time>
      </trkpt>
      <trkpt lat="62.634402627847" lon="17.979272646221">
        <ele>84.6</ele>
        <time>2017-12-12T17:50:04Z</time>
      </trkpt>
      <trkpt lat="62.634416290344" lon="17.979209614333">
        <ele>84.6</ele>
        <time>2017-12-12T17:50:05Z</time>
      </trkpt>
      <trkpt lat="62.634418385819" lon="17.979152701232">
        <ele>84.6</ele>
        <time>2017-12-12T17:50:06Z</time>
      </trkpt>
      <trkpt lat="62.634432635049" lon="17.979110791732">
        <ele>84.6</ele>
        <time>2017-12-12T17:50:07Z</time>
      </trkpt>
      <trkpt lat="62.634446549003" lon="17.979055387373">
        <ele>84.6</ele>
        <time>2017-12-12T17:50:08Z</time>
      </trkpt>
      <trkpt lat="62.634446884279" lon="17.978994953874">
        <ele>84.6</ele>
        <time>2017-12-12T17:50:09Z</time>
      </trkpt>
      <trkpt lat="62.634457529292" lon="17.978933514547">
        <ele>84.6</ele>
        <time>2017-12-12T17:50:10Z</time>
      </trkpt>
      <trkpt lat="62.634466162649" lon="17.978867632813">
        <ele>84.8</ele>
        <time>2017-12-12T17:50:11Z</time>
      </trkpt>
      <trkpt lat="62.634466665563" lon="17.978811054988">
        <ele>84.8</ele>
        <time>2017-12-12T17:50:12Z</time>
      </trkpt>
      <trkpt lat="62.63447781349" lon="17.978743580693">
        <ele>84.8</ele>
        <time>2017-12-12T17:50:13Z</time>
      </trkpt>
      <trkpt lat="62.634478064947" lon="17.978677531321">
        <ele>84.8</ele>
        <time>2017-12-12T17:50:14Z</time>
      </trkpt>
      <trkpt lat="62.634497008041" lon="17.978608129189">
        <ele>84.6</ele>
        <time>2017-12-12T17:50:15Z</time>
      </trkpt>
      <trkpt lat="62.634508239787" lon="17.978541912179">
        <ele>84.4</ele>
        <time>2017-12-12T17:50:16Z</time>
      </trkpt>
      <trkpt lat="62.634508491244" lon="17.978501176145">
        <ele>84.4</ele>
        <time>2017-12-12T17:50:17Z</time>
      </trkpt>
      <trkpt lat="62.634524416854" lon="17.978396486214">
        <ele>84.6</ele>
        <time>2017-12-12T17:50:18Z</time>
      </trkpt>
      <trkpt lat="62.634524835949" lon="17.978325910616">
        <ele>84.2</ele>
        <time>2017-12-12T17:50:19Z</time>
      </trkpt>
      <trkpt lat="62.634544952509" lon="17.97823085987">
        <ele>84</ele>
        <time>2017-12-12T17:50:20Z</time>
      </trkpt>
      <trkpt lat="62.63455744154" lon="17.978141341178">
        <ele>83.8</ele>
        <time>2017-12-12T17:50:21Z</time>
      </trkpt>
      <trkpt lat="62.634572612779" lon="17.978061629309">
        <ele>83.8</ele>
        <time>2017-12-12T17:50:22Z</time>
      </trkpt>
      <trkpt lat="62.63458677819" lon="17.977981665983">
        <ele>83.6</ele>
        <time>2017-12-12T17:50:23Z</time>
      </trkpt>
      <trkpt lat="62.634590047131" lon="17.97790061301">
        <ele>83.4</ele>
        <time>2017-12-12T17:50:24Z</time>
      </trkpt>
      <trkpt lat="62.634601195058" lon="17.977811261956">
        <ele>83.2</ele>
        <time>2017-12-12T17:50:25Z</time>
      </trkpt>
      <trkpt lat="62.634625418749" lon="17.977741273091">
        <ele>83.2</ele>
        <time>2017-12-12T17:50:26Z</time>
      </trkpt>
      <trkpt lat="62.634637237228" lon="17.977662986145">
        <ele>83</ele>
        <time>2017-12-12T17:50:27Z</time>
      </trkpt>
      <trkpt lat="62.634635896124" lon="17.977601882094">
        <ele>82.8</ele>
        <time>2017-12-12T17:50:28Z</time>
      </trkpt>
      <trkpt lat="62.634651570277" lon="17.977523595148">
        <ele>82.8</ele>
        <time>2017-12-12T17:50:29Z</time>
      </trkpt>
      <trkpt lat="62.63465970072" lon="17.977436507207">
        <ele>82.8</ele>
        <time>2017-12-12T17:50:30Z</time>
      </trkpt>
      <trkpt lat="62.634672860303" lon="17.977378169183">
        <ele>82.6</ele>
        <time>2017-12-12T17:50:31Z</time>
      </trkpt>
      <trkpt lat="62.634684762601" lon="17.977307593585">
        <ele>82.6</ele>
        <time>2017-12-12T17:50:32Z</time>
      </trkpt>
      <trkpt lat="62.634689791741" lon="17.977252356864">
        <ele>82.6</ele>
        <time>2017-12-12T17:50:33Z</time>
      </trkpt>
      <trkpt lat="62.634699850021" lon="17.977218913083">
        <ele>82.6</ele>
        <time>2017-12-12T17:50:34Z</time>
      </trkpt>
      <trkpt lat="62.634716278545" lon="17.977143811259">
        <ele>82.6</ele>
        <time>2017-12-12T17:50:35Z</time>
      </trkpt>
      <trkpt lat="62.634721140047" lon="17.977088071624">
        <ele>82.4</ele>
        <time>2017-12-12T17:50:36Z</time>
      </trkpt>
      <trkpt lat="62.634739244951" lon="17.977010036135">
        <ele>82.6</ele>
        <time>2017-12-12T17:50:37Z</time>
      </trkpt>
      <trkpt lat="62.634755338199" lon="17.976953123034">
        <ele>82.4</ele>
        <time>2017-12-12T17:50:38Z</time>
      </trkpt>
      <trkpt lat="62.634769252153" lon="17.976880954875">
        <ele>82.6</ele>
        <time>2017-12-12T17:50:39Z</time>
      </trkpt>
      <trkpt lat="62.634785010125" lon="17.976817336254">
        <ele>82.6</ele>
        <time>2017-12-12T17:50:40Z</time>
      </trkpt>
      <trkpt lat="62.634785177763" lon="17.97675061633">
        <ele>82.6</ele>
        <time>2017-12-12T17:50:41Z</time>
      </trkpt>
      <trkpt lat="62.634806132513" lon="17.976663696027">
        <ele>82.6</ele>
        <time>2017-12-12T17:50:42Z</time>
      </trkpt>
      <trkpt lat="62.634808647083" lon="17.976601167053">
        <ele>82.4</ele>
        <time>2017-12-12T17:50:43Z</time>
      </trkpt>
      <trkpt lat="62.634819878829" lon="17.976527573971">
        <ele>82.2</ele>
        <time>2017-12-12T17:50:44Z</time>
      </trkpt>
      <trkpt lat="62.634831781127" lon="17.976457417468">
        <ele>82</ele>
        <time>2017-12-12T17:50:45Z</time>
      </trkpt>
      <trkpt lat="62.634839827751" lon="17.976384746395">
        <ele>81.8</ele>
        <time>2017-12-12T17:50:46Z</time>
      </trkpt>
      <trkpt lat="62.634857178284" lon="17.976323726163">
        <ele>81.8</ele>
        <time>2017-12-12T17:50:47Z</time>
      </trkpt>
      <trkpt lat="62.634872098066" lon="17.976238063145">
        <ele>81.8</ele>
        <time>2017-12-12T17:50:48Z</time>
      </trkpt>
      <trkpt lat="62.63488517383" lon="17.976168744832">
        <ele>81.8</ele>
        <time>2017-12-12T17:50:49Z</time>
      </trkpt>
      <trkpt lat="62.634910487168" lon="17.976097079587">
        <ele>81.8</ele>
        <time>2017-12-12T17:50:50Z</time>
      </trkpt>
      <trkpt lat="62.634928424434" lon="17.976032203681">
        <ele>81.8</ele>
        <time>2017-12-12T17:50:51Z</time>
      </trkpt>
      <trkpt lat="62.634949798279" lon="17.975935979469">
        <ele>81.8</ele>
        <time>2017-12-12T17:50:52Z</time>
      </trkpt>
      <trkpt lat="62.634970585391" lon="17.975880826567">
        <ele>81.6</ele>
        <time>2017-12-12T17:50:53Z</time>
      </trkpt>
      <trkpt lat="62.634988438838" lon="17.975789966771">
        <ele>81.6</ele>
        <time>2017-12-12T17:50:54Z</time>
      </trkpt>
      <trkpt lat="62.635003861534" lon="17.975716960422">
        <ele>81.4</ele>
        <time>2017-12-12T17:50:55Z</time>
      </trkpt>
      <trkpt lat="62.635016015289" lon="17.975652000697">
        <ele>81.4</ele>
        <time>2017-12-12T17:50:56Z</time>
      </trkpt>
      <trkpt lat="62.635030013062" lon="17.975551836992">
        <ele>81.2</ele>
        <time>2017-12-12T17:50:57Z</time>
      </trkpt>
      <trkpt lat="62.635040574256" lon="17.975494420977">
        <ele>81</ele>
        <time>2017-12-12T17:50:58Z</time>
      </trkpt>
      <trkpt lat="62.63505365002" lon="17.975430131804">
        <ele>80.8</ele>
        <time>2017-12-12T17:50:59Z</time>
      </trkpt>
      <trkpt lat="62.635066725784" lon="17.9753617355">
        <ele>80.6</ele>
        <time>2017-12-12T17:51:00Z</time>
      </trkpt>
      <trkpt lat="62.635069072716" lon="17.9752946803">
        <ele>80.6</ele>
        <time>2017-12-12T17:51:01Z</time>
      </trkpt>
      <trkpt lat="62.635070330001" lon="17.975203233771">
        <ele>80.4</ele>
        <time>2017-12-12T17:51:02Z</time>
      </trkpt>
      <trkpt lat="62.635078292806" lon="17.975137854951">
        <ele>80.2</ele>
        <time>2017-12-12T17:51:03Z</time>
      </trkpt>
      <trkpt lat="62.635070665277" lon="17.9750348414">
        <ele>80.2</ele>
        <time>2017-12-12T17:51:04Z</time>
      </trkpt>
      <trkpt lat="62.635055494038" lon="17.97495437516">
        <ele>80</ele>
        <time>2017-12-12T17:51:05Z</time>
      </trkpt>
      <trkpt lat="62.63503269527" lon="17.97485965969">
        <ele>79.8</ele>
        <time>2017-12-12T17:51:06Z</time>
      </trkpt>
      <trkpt lat="62.635011489063" lon="17.974779361088">
        <ele>79.4</ele>
        <time>2017-12-12T17:51:07Z</time>
      </trkpt>
      <trkpt lat="62.634998078023" lon="17.97471968196">
        <ele>79</ele>
        <time>2017-12-12T17:51:08Z</time>
      </trkpt>
      <trkpt lat="62.634969495744" lon="17.974627145784">
        <ele>78.8</ele>
        <time>2017-12-12T17:51:09Z</time>
      </trkpt>
      <trkpt lat="62.634952145211" lon="17.974557659833">
        <ele>78.4</ele>
        <time>2017-12-12T17:51:10Z</time>
      </trkpt>
      <trkpt lat="62.634947367528" lon="17.974488592977">
        <ele>78.2</ele>
        <time>2017-12-12T17:51:11Z</time>
      </trkpt>
      <trkpt lat="62.634933118298" lon="17.97439697881">
        <ele>78</ele>
        <time>2017-12-12T17:51:12Z</time>
      </trkpt>
      <trkpt lat="62.634926748054" lon="17.97432740904">
        <ele>78</ele>
        <time>2017-12-12T17:51:13Z</time>
      </trkpt>
      <trkpt lat="62.63490529039" lon="17.974232525932">
        <ele>77.8</ele>
        <time>2017-12-12T17:51:14Z</time>
      </trkpt>
      <trkpt lat="62.634887520762" lon="17.974167482388">
        <ele>77.4</ele>
        <time>2017-12-12T17:51:15Z</time>
      </trkpt>
      <trkpt lat="62.634876540473" lon="17.974108389993">
        <ele>77.4</ele>
        <time>2017-12-12T17:51:16Z</time>
      </trkpt>
      <trkpt lat="62.634860195768" lon="17.974038987861">
        <ele>77.4</ele>
        <time>2017-12-12T17:51:17Z</time>
      </trkpt>
      <trkpt lat="62.634853825524" lon="17.973993893239">
        <ele>77.2</ele>
        <time>2017-12-12T17:51:18Z</time>
      </trkpt>
      <trkpt lat="62.634827590177" lon="17.973931615722">
        <ele>77.2</ele>
        <time>2017-12-12T17:51:19Z</time>
      </trkpt>
      <trkpt lat="62.634814933508" lon="17.973884677082">
        <ele>77.2</ele>
        <time>2017-12-12T17:51:20Z</time>
      </trkpt>
      <trkpt lat="62.634797415337" lon="17.973806138679">
        <ele>77.2</ele>
        <time>2017-12-12T17:51:21Z</time>
      </trkpt>
      <trkpt lat="62.634780316261" lon="17.973728689923">
        <ele>77.2</ele>
        <time>2017-12-12T17:51:22Z</time>
      </trkpt>
      <trkpt lat="62.634765228841" lon="17.973676805962">
        <ele>77.2</ele>
        <time>2017-12-12T17:51:23Z</time>
      </trkpt>
      <trkpt lat="62.634737149476" lon="17.973589047469">
        <ele>77.2</ele>
        <time>2017-12-12T17:51:24Z</time>
      </trkpt>
      <trkpt lat="62.634727677929" lon="17.973540683906">
        <ele>77</ele>
        <time>2017-12-12T17:51:25Z</time>
      </trkpt>
      <trkpt lat="62.634719966581" lon="17.973450829938">
        <ele>77</ele>
        <time>2017-12-12T17:51:26Z</time>
      </trkpt>
      <trkpt lat="62.634730611594" lon="17.973386876041">
        <ele>76.8</ele>
        <time>2017-12-12T17:51:27Z</time>
      </trkpt>
      <trkpt lat="62.63472675592" lon="17.973324430886">
        <ele>76.8</ele>
        <time>2017-12-12T17:51:28Z</time>
      </trkpt>
      <trkpt lat="62.634726588282" lon="17.973250251071">
        <ele>76.6</ele>
        <time>2017-12-12T17:51:29Z</time>
      </trkpt>
      <trkpt lat="62.634733545259" lon="17.973175149247">
        <ele>76.4</ele>
        <time>2017-12-12T17:51:30Z</time>
      </trkpt>
      <trkpt lat="62.63474184334" lon="17.973078422121">
        <ele>76.4</ele>
        <time>2017-12-12T17:51:31Z</time>
      </trkpt>
      <trkpt lat="62.634747459213" lon="17.973015809328">
        <ele>76.2</ele>
        <time>2017-12-12T17:51:32Z</time>
      </trkpt>
      <trkpt lat="62.634759780606" lon="17.972928637568">
        <ele>76.2</ele>
        <time>2017-12-12T17:51:33Z</time>
      </trkpt>
      <trkpt lat="62.634773024008" lon="17.972842555455">
        <ele>76</ele>
        <time>2017-12-12T17:51:34Z</time>
      </trkpt>
      <trkpt lat="62.634790625998" lon="17.972774745884">
        <ele>76</ele>
        <time>2017-12-12T17:51:35Z</time>
      </trkpt>
      <trkpt lat="62.63481979501" lon="17.972685562468">
        <ele>76</ele>
        <time>2017-12-12T17:51:36Z</time>
      </trkpt>
      <trkpt lat="62.634830523842" lon="17.972618926363">
        <ele>75.8</ele>
        <time>2017-12-12T17:51:37Z</time>
      </trkpt>
      <trkpt lat="62.634847790556" lon="17.972556732665">
        <ele>75.8</ele>
        <time>2017-12-12T17:51:38Z</time>
      </trkpt>
      <trkpt lat="62.634875618464" lon="17.972470482914">
        <ele>75.8</ele>
        <time>2017-12-12T17:51:39Z</time>
      </trkpt>
      <trkpt lat="62.634890873522" lon="17.972413988908">
        <ele>75.8</ele>
        <time>2017-12-12T17:51:40Z</time>
      </trkpt>
      <trkpt lat="62.634906799132" lon="17.972336540152">
        <ele>75.8</ele>
        <time>2017-12-12T17:51:41Z</time>
      </trkpt>
      <trkpt lat="62.634924987855" lon="17.972292199901">
        <ele>75.6</ele>
        <time>2017-12-12T17:51:42Z</time>
      </trkpt>
      <trkpt lat="62.634946948433" lon="17.972215505516">
        <ele>75.4</ele>
        <time>2017-12-12T17:51:43Z</time>
      </trkpt>
      <trkpt lat="62.634965891527" lon="17.972136464199">
        <ele>75.2</ele>
        <time>2017-12-12T17:51:44Z</time>
      </trkpt>
      <trkpt lat="62.634992713607" lon="17.972085669885">
        <ele>75.2</ele>
        <time>2017-12-12T17:51:45Z</time>
      </trkpt>
      <trkpt lat="62.635012746348" lon="17.971980560859">
        <ele>75</ele>
        <time>2017-12-12T17:51:46Z</time>
      </trkpt>
      <trkpt lat="62.635029929243" lon="17.971925659414">
        <ele>74.8</ele>
        <time>2017-12-12T17:51:47Z</time>
      </trkpt>
      <trkpt lat="62.635039819885" lon="17.971845193174">
        <ele>74.6</ele>
        <time>2017-12-12T17:51:48Z</time>
      </trkpt>
      <trkpt lat="62.635055913133" lon="17.971722146882">
        <ele>74</ele>
        <time>2017-12-12T17:51:49Z</time>
      </trkpt>
      <trkpt lat="62.635072174019" lon="17.971606057567">
        <ele>73.2</ele>
        <time>2017-12-12T17:51:50Z</time>
      </trkpt>
      <trkpt lat="62.635088434905" lon="17.971495500306">
        <ele>72.2</ele>
        <time>2017-12-12T17:51:51Z</time>
      </trkpt>
      <trkpt lat="62.635102935592" lon="17.971407909451">
        <ele>71.6</ele>
        <time>2017-12-12T17:51:52Z</time>
      </trkpt>
      <trkpt lat="62.635116262813" lon="17.971298106561">
        <ele>71.2</ele>
        <time>2017-12-12T17:51:53Z</time>
      </trkpt>
      <trkpt lat="62.635133948622" lon="17.971169528215">
        <ele>70.4</ele>
        <time>2017-12-12T17:51:54Z</time>
      </trkpt>
      <trkpt lat="62.635146940567" lon="17.971062072257">
        <ele>70.2</ele>
        <time>2017-12-12T17:51:55Z</time>
      </trkpt>
      <trkpt lat="62.635159513417" lon="17.970953359014">
        <ele>69.8</ele>
        <time>2017-12-12T17:51:56Z</time>
      </trkpt>
      <trkpt lat="62.635171583353" lon="17.97084472959">
        <ele>69.4</ele>
        <time>2017-12-12T17:51:57Z</time>
      </trkpt>
      <trkpt lat="62.635183988565" lon="17.970748924473">
        <ele>69.2</ele>
        <time>2017-12-12T17:51:58Z</time>
      </trkpt>
      <trkpt lat="62.63519614232" lon="17.97064104942">
        <ele>69</ele>
        <time>2017-12-12T17:51:59Z</time>
      </trkpt>
      <trkpt lat="62.635209385722" lon="17.97051783549">
        <ele>68.8</ele>
        <time>2017-12-12T17:52:00Z</time>
      </trkpt>
      <trkpt lat="62.635222629124" lon="17.970407697324">
        <ele>68.4</ele>
        <time>2017-12-12T17:52:01Z</time>
      </trkpt>
      <trkpt lat="62.635235369612" lon="17.970309293818">
        <ele>68.2</ele>
        <time>2017-12-12T17:52:02Z</time>
      </trkpt>
      <trkpt lat="62.635252384869" lon="17.970194126512">
        <ele>68</ele>
        <time>2017-12-12T17:52:03Z</time>
      </trkpt>
      <trkpt lat="62.635277279112" lon="17.970065967261">
        <ele>67.6</ele>
        <time>2017-12-12T17:52:04Z</time>
      </trkpt>
      <trkpt lat="62.635300832251" lon="17.969960522959">
        <ele>67.2</ele>
        <time>2017-12-12T17:52:05Z</time>
      </trkpt>
      <trkpt lat="62.635332348195" lon="17.969833537174">
        <ele>66.8</ele>
        <time>2017-12-12T17:52:06Z</time>
      </trkpt>
      <trkpt lat="62.635359337913" lon="17.96971317309">
        <ele>66.4</ele>
        <time>2017-12-12T17:52:07Z</time>
      </trkpt>
      <trkpt lat="62.635385824717" lon="17.969611835919">
        <ele>66</ele>
        <time>2017-12-12T17:52:08Z</time>
      </trkpt>
      <trkpt lat="62.635418011213" lon="17.969486610333">
        <ele>65.8</ele>
        <time>2017-12-12T17:52:09Z</time>
      </trkpt>
      <trkpt lat="62.635447347863" lon="17.969373454683">
        <ele>65.4</ele>
        <time>2017-12-12T17:52:10Z</time>
      </trkpt>
      <trkpt lat="62.635478696169" lon="17.969257113911">
        <ele>65</ele>
        <time>2017-12-12T17:52:11Z</time>
      </trkpt>
      <trkpt lat="62.635511553217" lon="17.96913817475">
        <ele>64.6</ele>
        <time>2017-12-12T17:52:12Z</time>
      </trkpt>
      <trkpt lat="62.635538794392" lon="17.969040609434">
        <ele>64.4</ele>
        <time>2017-12-12T17:52:13Z</time>
      </trkpt>
      <trkpt lat="62.635574752743" lon="17.968924352481">
        <ele>63.8</ele>
        <time>2017-12-12T17:52:14Z</time>
      </trkpt>
      <trkpt lat="62.635603921755" lon="17.968823518224">
        <ele>63.4</ele>
        <time>2017-12-12T17:52:15Z</time>
      </trkpt>
      <trkpt lat="62.635636024432" lon="17.968733496618">
        <ele>62.8</ele>
        <time>2017-12-12T17:52:16Z</time>
      </trkpt>
      <trkpt lat="62.635666953643" lon="17.968665519409">
        <ele>62.4</ele>
        <time>2017-12-12T17:52:17Z</time>
      </trkpt>
      <trkpt lat="62.635708360229" lon="17.968590333766">
        <ele>62</ele>
        <time>2017-12-12T17:52:18Z</time>
      </trkpt>
      <trkpt lat="62.635750269729" lon="17.968536857244">
        <ele>61.6</ele>
        <time>2017-12-12T17:52:19Z</time>
      </trkpt>
      <trkpt lat="62.635788239736" lon="17.968494361011">
        <ele>61.2</ele>
        <time>2017-12-12T17:52:20Z</time>
      </trkpt>
      <trkpt lat="62.635829311046" lon="17.968466952198">
        <ele>60.8</ele>
        <time>2017-12-12T17:52:21Z</time>
      </trkpt>
      <trkpt lat="62.635860743171" lon="17.968446081267">
        <ele>60.4</ele>
        <time>2017-12-12T17:52:22Z</time>
      </trkpt>
      <trkpt lat="62.635906592164" lon="17.968439543385">
        <ele>60.2</ele>
        <time>2017-12-12T17:52:23Z</time>
      </trkpt>
      <trkpt lat="62.635950429501" lon="17.968443399059">
        <ele>59.8</ele>
        <time>2017-12-12T17:52:24Z</time>
      </trkpt>
      <trkpt lat="62.636006839688" lon="17.968444823982">
        <ele>59.2</ele>
        <time>2017-12-12T17:52:26Z</time>
      </trkpt>
      <trkpt lat="62.636034499958" lon="17.968450775131">
        <ele>59</ele>
        <time>2017-12-12T17:52:27Z</time>
      </trkpt>
      <trkpt lat="62.636053778328" lon="17.968449601665">
        <ele>58.6</ele>
        <time>2017-12-12T17:52:28Z</time>
      </trkpt>
      <trkpt lat="62.636079846037" lon="17.968461252506">
        <ele>58.6</ele>
        <time>2017-12-12T17:52:29Z</time>
      </trkpt>
      <trkpt lat="62.636105662289" lon="17.968467203655">
        <ele>58.6</ele>
        <time>2017-12-12T17:52:30Z</time>
      </trkpt>
      <trkpt lat="62.636127706686" lon="17.968464437628">
        <ele>58.8</ele>
        <time>2017-12-12T17:52:31Z</time>
      </trkpt>
      <trkpt lat="62.636144219029" lon="17.968477178116">
        <ele>58.8</ele>
        <time>2017-12-12T17:52:32Z</time>
      </trkpt>
      <trkpt lat="62.636174142412" lon="17.968491259708">
        <ele>59</ele>
        <time>2017-12-12T17:52:33Z</time>
      </trkpt>
      <trkpt lat="62.636202389415" lon="17.96850366492">
        <ele>59</ele>
        <time>2017-12-12T17:52:34Z</time>
      </trkpt>
      <trkpt lat="62.63621621955" lon="17.968492936088">
        <ele>59</ele>
        <time>2017-12-12T17:52:35Z</time>
      </trkpt>
      <trkpt lat="62.636248238408" lon="17.968530319362">
        <ele>59</ele>
        <time>2017-12-12T17:52:36Z</time>
      </trkpt>
      <trkpt lat="62.63625980543" lon="17.968563846962">
        <ele>59.2</ele>
        <time>2017-12-12T17:52:37Z</time>
      </trkpt>
      <trkpt lat="62.636282855655" lon="17.968586394273">
        <ele>59.2</ele>
        <time>2017-12-12T17:52:38Z</time>
      </trkpt>
      <trkpt lat="62.636309677735" lon="17.9686310698">
        <ele>59</ele>
        <time>2017-12-12T17:52:39Z</time>
      </trkpt>
      <trkpt lat="62.636334488159" lon="17.968654706758">
        <ele>58.8</ele>
        <time>2017-12-12T17:52:40Z</time>
      </trkpt>
      <trkpt lat="62.636350078493" lon="17.968701980674">
        <ele>58.6</ele>
        <time>2017-12-12T17:52:41Z</time>
      </trkpt>
      <trkpt lat="62.636368602492" lon="17.968743135803">
        <ele>58.6</ele>
        <time>2017-12-12T17:52:42Z</time>
      </trkpt>
      <trkpt lat="62.636385114835" lon="17.96877942943">
        <ele>58.4</ele>
        <time>2017-12-12T17:52:43Z</time>
      </trkpt>
      <trkpt lat="62.636401208083" lon="17.968825110785">
        <ele>58.2</ele>
        <time>2017-12-12T17:52:44Z</time>
      </trkpt>
      <trkpt lat="62.636418474797" lon="17.968880347506">
        <ele>58.2</ele>
        <time>2017-12-12T17:52:45Z</time>
      </trkpt>
      <trkpt lat="62.636437753167" lon="17.968907337224">
        <ele>58.4</ele>
        <time>2017-12-12T17:52:46Z</time>
      </trkpt>
      <trkpt lat="62.636454097872" lon="17.968950755466">
        <ele>58.6</ele>
        <time>2017-12-12T17:52:47Z</time>
      </trkpt>
      <trkpt lat="62.636468263283" lon="17.968980343573">
        <ele>58.4</ele>
        <time>2017-12-12T17:52:48Z</time>
      </trkpt>
      <trkpt lat="62.636486452006" lon="17.969029461507">
        <ele>58.6</ele>
        <time>2017-12-12T17:52:49Z</time>
      </trkpt>
      <trkpt lat="62.636499024856" lon="17.969074723767">
        <ele>58.6</ele>
        <time>2017-12-12T17:52:50Z</time>
      </trkpt>
      <trkpt lat="62.636514112276" lon="17.969105820616">
        <ele>58.4</ele>
        <time>2017-12-12T17:52:51Z</time>
      </trkpt>
      <trkpt lat="62.636530121705" lon="17.969161308794">
        <ele>58.4</ele>
        <time>2017-12-12T17:52:52Z</time>
      </trkpt>
      <trkpt lat="62.63654395184" lon="17.969196345136">
        <ele>58.6</ele>
        <time>2017-12-12T17:52:53Z</time>
      </trkpt>
      <trkpt lat="62.636561805287" lon="17.969267675105">
        <ele>58.4</ele>
        <time>2017-12-12T17:52:54Z</time>
      </trkpt>
      <trkpt lat="62.63657747944" lon="17.969300532153">
        <ele>58.6</ele>
        <time>2017-12-12T17:52:55Z</time>
      </trkpt>
      <trkpt lat="62.636588292091" lon="17.969361803842">
        <ele>58.6</ele>
        <time>2017-12-12T17:52:56Z</time>
      </trkpt>
      <trkpt lat="62.636607319004" lon="17.969414274536">
        <ele>58.8</ele>
        <time>2017-12-12T17:52:57Z</time>
      </trkpt>
      <trkpt lat="62.636614527438" lon="17.96945836333">
        <ele>58.8</ele>
        <time>2017-12-12T17:52:58Z</time>
      </trkpt>
      <trkpt lat="62.636632213247" lon="17.969517288087">
        <ele>58.8</ele>
        <time>2017-12-12T17:52:59Z</time>
      </trkpt>
      <trkpt lat="62.636641936251" lon="17.969552156791">
        <ele>59</ele>
        <time>2017-12-12T17:53:00Z</time>
      </trkpt>
      <trkpt lat="62.636655095834" lon="17.969614853403">
        <ele>59</ele>
        <time>2017-12-12T17:53:01Z</time>
      </trkpt>
      <trkpt lat="62.636668590693" lon="17.969653326324">
        <ele>59</ele>
        <time>2017-12-12T17:53:02Z</time>
      </trkpt>
      <trkpt lat="62.636676888774" lon="17.969696493109">
        <ele>59</ele>
        <time>2017-12-12T17:53:03Z</time>
      </trkpt>
      <trkpt lat="62.636695077497" lon="17.969751897468">
        <ele>59</ele>
        <time>2017-12-12T17:53:04Z</time>
      </trkpt>
      <trkpt lat="62.636710584012" lon="17.969788777828">
        <ele>59.2</ele>
        <time>2017-12-12T17:53:05Z</time>
      </trkpt>
      <trkpt lat="62.636729024192" lon="17.969856084485">
        <ele>59.2</ele>
        <time>2017-12-12T17:53:06Z</time>
      </trkpt>
      <trkpt lat="62.636747380553" lon="17.969903106944">
        <ele>59.2</ele>
        <time>2017-12-12T17:53:07Z</time>
      </trkpt>
      <trkpt lat="62.636760121041" lon="17.969939149114">
        <ele>59.2</ele>
        <time>2017-12-12T17:53:08Z</time>
      </trkpt>
      <trkpt lat="62.636784931465" lon="17.969986255392">
        <ele>59.2</ele>
        <time>2017-12-12T17:53:09Z</time>
      </trkpt>
      <trkpt lat="62.636807394957" lon="17.970011233454">
        <ele>59.4</ele>
        <time>2017-12-12T17:53:10Z</time>
      </trkpt>
      <trkpt lat="62.636829020259" lon="17.970058423551">
        <ele>59.6</ele>
        <time>2017-12-12T17:53:11Z</time>
      </trkpt>
      <trkpt lat="62.636856261434" lon="17.970072672781">
        <ele>59.6</ele>
        <time>2017-12-12T17:53:12Z</time>
      </trkpt>
      <trkpt lat="62.636870259207" lon="17.970099411042">
        <ele>59.8</ele>
        <time>2017-12-12T17:53:13Z</time>
      </trkpt>
      <trkpt lat="62.636898673848" lon="17.970131597538">
        <ele>59.8</ele>
        <time>2017-12-12T17:53:14Z</time>
      </trkpt>
      <trkpt lat="62.636922897539" lon="17.970144673302">
        <ele>59.8</ele>
        <time>2017-12-12T17:53:15Z</time>
      </trkpt>
      <trkpt lat="62.636952653284" lon="17.970171998296">
        <ele>60</ele>
        <time>2017-12-12T17:53:16Z</time>
      </trkpt>
      <trkpt lat="62.636979391545" lon="17.970183649137">
        <ele>60</ele>
        <time>2017-12-12T17:53:17Z</time>
      </trkpt>
      <trkpt lat="62.63700327996" lon="17.970188259182">
        <ele>60</ele>
        <time>2017-12-12T17:53:18Z</time>
      </trkpt>
      <trkpt lat="62.63703261661" lon="17.970191360485">
        <ele>60</ele>
        <time>2017-12-12T17:53:19Z</time>
      </trkpt>
      <trkpt lat="62.637064635468" lon="17.970184654965">
        <ele>60</ele>
        <time>2017-12-12T17:53:20Z</time>
      </trkpt>
      <trkpt lat="62.637091792824" lon="17.970179793463">
        <ele>60.2</ele>
        <time>2017-12-12T17:53:21Z</time>
      </trkpt>
      <trkpt lat="62.637118279628" lon="17.970171327744">
        <ele>60.6</ele>
        <time>2017-12-12T17:53:22Z</time>
      </trkpt>
      <trkpt lat="62.637138060912" lon="17.970133022461">
        <ele>60.8</ele>
        <time>2017-12-12T17:53:23Z</time>
      </trkpt>
      <trkpt lat="62.637168235752" lon="17.970115839566">
        <ele>60.8</ele>
        <time>2017-12-12T17:53:24Z</time>
      </trkpt>
      <trkpt lat="62.637208301234" lon="17.970100249232">
        <ele>60.4</ele>
        <time>2017-12-12T17:53:25Z</time>
      </trkpt>
      <trkpt lat="62.637237637884" lon="17.970081641414">
        <ele>60.4</ele>
        <time>2017-12-12T17:53:26Z</time>
      </trkpt>
      <trkpt lat="62.637267980362" lon="17.970066805451">
        <ele>60.2</ele>
        <time>2017-12-12T17:53:27Z</time>
      </trkpt>
      <trkpt lat="62.637299663944" lon="17.970032188204">
        <ele>59.6</ele>
        <time>2017-12-12T17:53:28Z</time>
      </trkpt>
      <trkpt lat="62.637326988938" lon="17.97000989235">
        <ele>59.2</ele>
        <time>2017-12-12T17:53:29Z</time>
      </trkpt>
      <trkpt lat="62.637357499054" lon="17.970003354468">
        <ele>59.2</ele>
        <time>2017-12-12T17:53:30Z</time>
      </trkpt>
      <trkpt lat="62.637391026654" lon="17.969995810758">
        <ele>58.8</ele>
        <time>2017-12-12T17:53:31Z</time>
      </trkpt>
      <trkpt lat="62.637413490146" lon="17.969987931772">
        <ele>58.6</ele>
        <time>2017-12-12T17:53:32Z</time>
      </trkpt>
      <trkpt lat="62.637447688298" lon="17.969997654776">
        <ele>58.4</ele>
        <time>2017-12-12T17:53:33Z</time>
      </trkpt>
      <trkpt lat="62.637482557002" lon="17.970005617581">
        <ele>58.2</ele>
        <time>2017-12-12T17:53:34Z</time>
      </trkpt>
      <trkpt lat="62.637502757381" lon="17.97002581796">
        <ele>58</ele>
        <time>2017-12-12T17:53:35Z</time>
      </trkpt>
      <trkpt lat="62.637544415424" lon="17.970051885669">
        <ele>57.6</ele>
        <time>2017-12-12T17:53:36Z</time>
      </trkpt>
      <trkpt lat="62.637570315495" lon="17.970096896472">
        <ele>57.2</ele>
        <time>2017-12-12T17:53:37Z</time>
      </trkpt>
      <trkpt lat="62.637593198082" lon="17.970121287801">
        <ele>56.8</ele>
        <time>2017-12-12T17:53:38Z</time>
      </trkpt>
      <trkpt lat="62.637614069013" lon="17.970161437102">
        <ele>56.6</ele>
        <time>2017-12-12T17:53:39Z</time>
      </trkpt>
      <trkpt lat="62.637628066786" lon="17.970219272212">
        <ele>56.8</ele>
        <time>2017-12-12T17:53:40Z</time>
      </trkpt>
      <trkpt lat="62.637644243853" lon="17.97026637849">
        <ele>56.6</ele>
        <time>2017-12-12T17:53:41Z</time>
      </trkpt>
      <trkpt lat="62.637659079816" lon="17.970313903863">
        <ele>56.6</ele>
        <time>2017-12-12T17:53:42Z</time>
      </trkpt>
      <trkpt lat="62.637676765625" lon="17.970365201091">
        <ele>56.8</ele>
        <time>2017-12-12T17:53:43Z</time>
      </trkpt>
      <trkpt lat="62.637699145298" lon="17.970401243261">
        <ele>56.8</ele>
        <time>2017-12-12T17:53:44Z</time>
      </trkpt>
      <trkpt lat="62.637711801967" lon="17.970455893249">
        <ele>56.8</ele>
        <time>2017-12-12T17:53:45Z</time>
      </trkpt>
      <trkpt lat="62.637731415613" lon="17.970503167165">
        <ele>56.8</ele>
        <time>2017-12-12T17:53:46Z</time>
      </trkpt>
      <trkpt lat="62.637739043142" lon="17.970538622602">
        <ele>57</ele>
        <time>2017-12-12T17:53:47Z</time>
      </trkpt>
      <trkpt lat="62.637753292372" lon="17.970601822128">
        <ele>57</ele>
        <time>2017-12-12T17:53:48Z</time>
      </trkpt>
      <trkpt lat="62.637768631249" lon="17.970633254253">
        <ele>56.8</ele>
        <time>2017-12-12T17:53:49Z</time>
      </trkpt>
      <trkpt lat="62.637781623194" lon="17.970685305852">
        <ele>57</ele>
        <time>2017-12-12T17:53:50Z</time>
      </trkpt>
      <trkpt lat="62.637795034234" lon="17.970738698555">
        <ele>57</ele>
        <time>2017-12-12T17:53:51Z</time>
      </trkpt>
      <trkpt lat="62.63780039865" lon="17.97077515982">
        <ele>57</ele>
        <time>2017-12-12T17:53:52Z</time>
      </trkpt>
      <trkpt lat="62.637807523265" lon="17.970819919166">
        <ele>57</ele>
        <time>2017-12-12T17:53:53Z</time>
      </trkpt>
      <trkpt lat="62.637816659536" lon="17.97090005013">
        <ele>57</ele>
        <time>2017-12-12T17:53:54Z</time>
      </trkpt>
      <trkpt lat="62.637826801635" lon="17.970946821132">
        <ele>57</ele>
        <time>2017-12-12T17:53:55Z</time>
      </trkpt>
      <trkpt lat="62.637836943734" lon="17.97099392741">
        <ele>57</ele>
        <time>2017-12-12T17:53:56Z</time>
      </trkpt>
      <trkpt lat="62.63784985186" lon="17.971067185216">
        <ele>57</ele>
        <time>2017-12-12T17:53:57Z</time>
      </trkpt>
      <trkpt lat="62.637857060294" lon="17.971112028381">
        <ele>57.2</ele>
        <time>2017-12-12T17:53:58Z</time>
      </trkpt>
      <trkpt lat="62.637865861289" lon="17.971167265102">
        <ele>57.2</ele>
        <time>2017-12-12T17:53:59Z</time>
      </trkpt>
      <trkpt lat="62.637878434139" lon="17.971249072446">
        <ele>57.2</ele>
        <time>2017-12-12T17:54:00Z</time>
      </trkpt>
      <trkpt lat="62.637885810211" lon="17.971279917838">
        <ele>57.4</ele>
        <time>2017-12-12T17:54:01Z</time>
      </trkpt>
      <trkpt lat="62.637898131604" lon="17.971323503718">
        <ele>57.2</ele>
        <time>2017-12-12T17:54:02Z</time>
      </trkpt>
      <trkpt lat="62.637907938427" lon="17.97138368576">
        <ele>57.2</ele>
        <time>2017-12-12T17:54:03Z</time>
      </trkpt>
      <trkpt lat="62.637915901232" lon="17.971435402083">
        <ele>57.2</ele>
        <time>2017-12-12T17:54:04Z</time>
      </trkpt>
      <trkpt lat="62.637924283132" lon="17.971470438425">
        <ele>57.2</ele>
        <time>2017-12-12T17:54:05Z</time>
      </trkpt>
      <trkpt lat="62.637933335584" lon="17.971551826674">
        <ele>57.2</ele>
        <time>2017-12-12T17:54:06Z</time>
      </trkpt>
      <trkpt lat="62.637937107439" lon="17.97159574783">
        <ele>57.4</ele>
        <time>2017-12-12T17:54:07Z</time>
      </trkpt>
      <trkpt lat="62.637942220398" lon="17.97163598095">
        <ele>57.4</ele>
        <time>2017-12-12T17:54:08Z</time>
      </trkpt>
      <trkpt lat="62.637945656977" lon="17.971719464674">
        <ele>57.6</ele>
        <time>2017-12-12T17:54:09Z</time>
      </trkpt>
      <trkpt lat="62.637953619782" lon="17.971758524328">
        <ele>57.6</ele>
        <time>2017-12-12T17:54:10Z</time>
      </trkpt>
      <trkpt lat="62.637956804904" lon="17.971814012506">
        <ele>57.8</ele>
        <time>2017-12-12T17:54:11Z</time>
      </trkpt>
      <trkpt lat="62.637958732741" lon="17.971895400755">
        <ele>57.8</ele>
        <time>2017-12-12T17:54:12Z</time>
      </trkpt>
      <trkpt lat="62.637963258967" lon="17.97193102383">
        <ele>57.8</ele>
        <time>2017-12-12T17:54:13Z</time>
      </trkpt>
      <trkpt lat="62.637963091329" lon="17.971992295519">
        <ele>57.8</ele>
        <time>2017-12-12T17:54:14Z</time>
      </trkpt>
      <trkpt lat="62.637966024994" lon="17.972060524185">
        <ele>58</ele>
        <time>2017-12-12T17:54:15Z</time>
      </trkpt>
      <trkpt lat="62.637970299763" lon="17.972088016817">
        <ele>58</ele>
        <time>2017-12-12T17:54:16Z</time>
      </trkpt>
      <trkpt lat="62.637971137953" lon="17.972159346786">
        <ele>58.2</ele>
        <time>2017-12-12T17:54:17Z</time>
      </trkpt>
      <trkpt lat="62.637973317247" lon="17.972223133045">
        <ele>58.2</ele>
        <time>2017-12-12T17:54:18Z</time>
      </trkpt>
      <trkpt lat="62.637978178749" lon="17.972262025061">
        <ele>58.4</ele>
        <time>2017-12-12T17:54:19Z</time>
      </trkpt>
      <trkpt lat="62.637979687491" lon="17.9723442515">
        <ele>58.4</ele>
        <time>2017-12-12T17:54:20Z</time>
      </trkpt>
      <trkpt lat="62.637979603672" lon="17.972402254248">
        <ele>58.4</ele>
        <time>2017-12-12T17:54:21Z</time>
      </trkpt>
      <trkpt lat="62.637982034423" lon="17.972432512907">
        <ele>58.6</ele>
        <time>2017-12-12T17:54:22Z</time>
      </trkpt>
      <trkpt lat="62.637989242857" lon="17.97247584733">
        <ele>58.6</ele>
        <time>2017-12-12T17:54:23Z</time>
      </trkpt>
      <trkpt lat="62.637998379128" lon="17.972544243634">
        <ele>58.6</ele>
        <time>2017-12-12T17:54:24Z</time>
      </trkpt>
      <trkpt lat="62.63800407882" lon="17.972583303288">
        <ele>58.6</ele>
        <time>2017-12-12T17:54:25Z</time>
      </trkpt>
      <trkpt lat="62.638012544539" lon="17.972614064861">
        <ele>58.8</ele>
        <time>2017-12-12T17:54:26Z</time>
      </trkpt>
      <trkpt lat="62.63801916624" lon="17.972687993219">
        <ele>58.8</ele>
        <time>2017-12-12T17:54:27Z</time>
      </trkpt>
      <trkpt lat="62.638020339706" lon="17.972721520819">
        <ele>59</ele>
        <time>2017-12-12T17:54:28Z</time>
      </trkpt>
      <trkpt lat="62.638023105733" lon="17.972773069504">
        <ele>59.2</ele>
        <time>2017-12-12T17:54:29Z</time>
      </trkpt>
      <trkpt lat="62.638027296683" lon="17.972830736976">
        <ele>59.2</ele>
        <time>2017-12-12T17:54:30Z</time>
      </trkpt>
      <trkpt lat="62.638028302511" lon="17.972870299544">
        <ele>59.4</ele>
        <time>2017-12-12T17:54:31Z</time>
      </trkpt>
      <trkpt lat="62.638031906728" lon="17.972909526836">
        <ele>59.4</ele>
        <time>2017-12-12T17:54:32Z</time>
      </trkpt>
      <trkpt lat="62.638032242004" lon="17.972978006959">
        <ele>59.6</ele>
        <time>2017-12-12T17:54:33Z</time>
      </trkpt>
      <trkpt lat="62.638031403814" lon="17.973036261164">
        <ele>59.6</ele>
        <time>2017-12-12T17:54:34Z</time>
      </trkpt>
      <trkpt lat="62.638034086022" lon="17.973072219515">
        <ele>59.8</ele>
        <time>2017-12-12T17:54:35Z</time>
      </trkpt>
      <trkpt lat="62.638034086022" lon="17.973113207006">
        <ele>59.8</ele>
        <time>2017-12-12T17:54:36Z</time>
      </trkpt>
      <trkpt lat="62.63803509185" lon="17.97316483951">
        <ele>59.8</ele>
        <time>2017-12-12T17:54:37Z</time>
      </trkpt>
      <trkpt lat="62.638032912556" lon="17.973214627996">
        <ele>59.8</ele>
        <time>2017-12-12T17:54:38Z</time>
      </trkpt>
      <trkpt lat="62.63803509185" lon="17.97326290774">
        <ele>59.8</ele>
        <time>2017-12-12T17:54:39Z</time>
      </trkpt>
      <trkpt lat="62.638039618076" lon="17.973302889403">
        <ele>60</ele>
        <time>2017-12-12T17:54:40Z</time>
      </trkpt>
      <trkpt lat="62.638038947524" lon="17.97334924131">
        <ele>60</ele>
        <time>2017-12-12T17:54:41Z</time>
      </trkpt>
      <trkpt lat="62.638036852049" lon="17.973386876041">
        <ele>60.2</ele>
        <time>2017-12-12T17:54:42Z</time>
      </trkpt>
      <trkpt lat="62.638030314167" lon="17.973429791369">
        <ele>60.2</ele>
        <time>2017-12-12T17:54:43Z</time>
      </trkpt>
      <trkpt lat="62.638024614475" lon="17.973485950099">
        <ele>60.6</ele>
        <time>2017-12-12T17:54:44Z</time>
      </trkpt>
      <trkpt lat="62.638025117389" lon="17.973516627853">
        <ele>60.8</ele>
        <time>2017-12-12T17:54:45Z</time>
      </trkpt>
      <trkpt lat="62.638022183724" lon="17.973570942565">
        <ele>60.8</ele>
        <time>2017-12-12T17:54:46Z</time>
      </trkpt>
      <trkpt lat="62.638019836792" lon="17.973620731051">
        <ele>60.8</ele>
        <time>2017-12-12T17:54:47Z</time>
      </trkpt>
      <trkpt lat="62.638020255887" lon="17.973648978054">
        <ele>61</ele>
        <time>2017-12-12T17:54:48Z</time>
      </trkpt>
      <trkpt lat="62.638016400213" lon="17.973724918068">
        <ele>61.2</ele>
        <time>2017-12-12T17:54:49Z</time>
      </trkpt>
      <trkpt lat="62.638017238403" lon="17.973759702953">
        <ele>61.2</ele>
        <time>2017-12-12T17:54:50Z</time>
      </trkpt>
      <trkpt lat="62.638015562023" lon="17.973820555547">
        <ele>61.2</ele>
        <time>2017-12-12T17:54:51Z</time>
      </trkpt>
      <trkpt lat="62.638012125444" lon="17.973888113661">
        <ele>61.2</ele>
        <time>2017-12-12T17:54:52Z</time>
      </trkpt>
      <trkpt lat="62.638018495688" lon="17.973918539958">
        <ele>61.2</ele>
        <time>2017-12-12T17:54:53Z</time>
      </trkpt>
      <trkpt lat="62.638024111561" lon="17.97398794209">
        <ele>61</ele>
        <time>2017-12-12T17:54:54Z</time>
      </trkpt>
      <trkpt lat="62.638027464321" lon="17.974048962322">
        <ele>61</ele>
        <time>2017-12-12T17:54:55Z</time>
      </trkpt>
      <trkpt lat="62.638031319995" lon="17.974076538773">
        <ele>61.2</ele>
        <time>2017-12-12T17:54:56Z</time>
      </trkpt>
      <trkpt lat="62.63803425366" lon="17.974154155167">
        <ele>61.2</ele>
        <time>2017-12-12T17:54:57Z</time>
      </trkpt>
      <trkpt lat="62.638040623904" lon="17.974196735219">
        <ele>61.4</ele>
        <time>2017-12-12T17:54:58Z</time>
      </trkpt>
      <trkpt lat="62.638043054655" lon="17.974238477081">
        <ele>61.4</ele>
        <time>2017-12-12T17:54:59Z</time>
      </trkpt>
      <trkpt lat="62.638049843994" lon="17.974317266941">
        <ele>61.4</ele>
        <time>2017-12-12T17:55:00Z</time>
      </trkpt>
      <trkpt lat="62.638055292229" lon="17.974360349907">
        <ele>61.4</ele>
        <time>2017-12-12T17:55:01Z</time>
      </trkpt>
      <trkpt lat="62.638056298057" lon="17.974412317687">
        <ele>61.2</ele>
        <time>2017-12-12T17:55:02Z</time>
      </trkpt>
      <trkpt lat="62.638058142075" lon="17.97445062297">
        <ele>61.2</ele>
        <time>2017-12-12T17:55:03Z</time>
      </trkpt>
      <trkpt lat="62.638053112935" lon="17.974522372034">
        <ele>61.2</ele>
        <time>2017-12-12T17:55:04Z</time>
      </trkpt>
      <trkpt lat="62.638053951125" lon="17.974559252394">
        <ele>61.2</ele>
        <time>2017-12-12T17:55:05Z</time>
      </trkpt>
      <trkpt lat="62.638045904501" lon="17.974628151612">
        <ele>61.4</ele>
        <time>2017-12-12T17:55:06Z</time>
      </trkpt>
      <trkpt lat="62.63804431194" lon="17.974668300913">
        <ele>61.4</ele>
        <time>2017-12-12T17:55:07Z</time>
      </trkpt>
      <trkpt lat="62.638035427126" lon="17.974728985869">
        <ele>61.4</ele>
        <time>2017-12-12T17:55:08Z</time>
      </trkpt>
      <trkpt lat="62.638027715778" lon="17.974772990844">
        <ele>61.2</ele>
        <time>2017-12-12T17:55:09Z</time>
      </trkpt>
      <trkpt lat="62.638013885643" lon="17.974830406859">
        <ele>61.2</ele>
        <time>2017-12-12T17:55:10Z</time>
      </trkpt>
      <trkpt lat="62.638002570078" lon="17.974858653862">
        <ele>61.2</ele>
        <time>2017-12-12T17:55:11Z</time>
      </trkpt>
      <trkpt lat="62.637987650296" lon="17.974899641353">
        <ele>61.2</ele>
        <time>2017-12-12T17:55:12Z</time>
      </trkpt>
      <trkpt lat="62.637968791021" lon="17.974940377387">
        <ele>61.2</ele>
        <time>2017-12-12T17:55:13Z</time>
      </trkpt>
      <trkpt lat="62.637952446316" lon="17.974981364878">
        <ele>61.4</ele>
        <time>2017-12-12T17:55:14Z</time>
      </trkpt>
      <trkpt lat="62.637942388036" lon="17.975011623537">
        <ele>61.6</ele>
        <time>2017-12-12T17:55:15Z</time>
      </trkpt>
      <trkpt lat="62.63793115629" lon="17.975040038178">
        <ele>61.8</ele>
        <time>2017-12-12T17:55:16Z</time>
      </trkpt>
      <trkpt lat="62.637911626463" lon="17.975086222447">
        <ele>61.8</ele>
        <time>2017-12-12T17:55:17Z</time>
      </trkpt>
      <trkpt lat="62.637897544871" lon="17.975129389232">
        <ele>62</ele>
        <time>2017-12-12T17:55:18Z</time>
      </trkpt>
      <trkpt lat="62.637884469107" lon="17.975160821357">
        <ele>62</ele>
        <time>2017-12-12T17:55:19Z</time>
      </trkpt>
      <trkpt lat="62.637865274556" lon="17.975198204631">
        <ele>62.2</ele>
        <time>2017-12-12T17:55:20Z</time>
      </trkpt>
      <trkpt lat="62.63784566091" lon="17.975233660068">
        <ele>62.2</ele>
        <time>2017-12-12T17:55:21Z</time>
      </trkpt>
      <trkpt lat="62.637832585146" lon="17.975267942039">
        <ele>62.4</ele>
        <time>2017-12-12T17:55:22Z</time>
      </trkpt>
      <trkpt lat="62.637819425563" lon="17.975292417187">
        <ele>62.4</ele>
        <time>2017-12-12T17:55:23Z</time>
      </trkpt>
      <trkpt lat="62.637800566288" lon="17.975323514036">
        <ele>62.6</ele>
        <time>2017-12-12T17:55:24Z</time>
      </trkpt>
      <trkpt lat="62.637782880479" lon="17.975361400224">
        <ele>63</ele>
        <time>2017-12-12T17:55:25Z</time>
      </trkpt>
      <trkpt lat="62.637764859394" lon="17.975386965019">
        <ele>63.2</ele>
        <time>2017-12-12T17:55:26Z</time>
      </trkpt>
      <trkpt lat="62.637752705639" lon="17.975406578665">
        <ele>63.8</ele>
        <time>2017-12-12T17:55:27Z</time>
      </trkpt>
      <trkpt lat="62.637735774201" lon="17.975423929198">
        <ele>63.8</ele>
        <time>2017-12-12T17:55:28Z</time>
      </trkpt>
      <trkpt lat="62.637720100048" lon="17.975444381034">
        <ele>64.2</ele>
        <time>2017-12-12T17:55:29Z</time>
      </trkpt>
      <trkpt lat="62.637704593533" lon="17.97546818563">
        <ele>64.2</ele>
        <time>2017-12-12T17:55:30Z</time>
      </trkpt>
      <trkpt lat="62.637691014855" lon="17.975482099584">
        <ele>64.4</ele>
        <time>2017-12-12T17:55:31Z</time>
      </trkpt>
      <trkpt lat="62.637678525824" lon="17.975497689918">
        <ele>64.4</ele>
        <time>2017-12-12T17:55:32Z</time>
      </trkpt>
      <trkpt lat="62.637665869155" lon="17.97551344789">
        <ele>64.4</ele>
        <time>2017-12-12T17:55:33Z</time>
      </trkpt>
      <trkpt lat="62.637646590785" lon="17.975528367672">
        <ele>64.6</ele>
        <time>2017-12-12T17:55:34Z</time>
      </trkpt>
      <trkpt lat="62.63763359884" lon="17.975542113988">
        <ele>64.8</ele>
        <time>2017-12-12T17:55:35Z</time>
      </trkpt>
      <trkpt lat="62.637605184199" lon="17.975550831164">
        <ele>65</ele>
        <time>2017-12-12T17:55:36Z</time>
      </trkpt>
      <trkpt lat="62.637578362119" lon="17.975564828937">
        <ele>65.2</ele>
        <time>2017-12-12T17:55:37Z</time>
      </trkpt>
      <trkpt lat="62.637564112889" lon="17.975577317968">
        <ele>65.4</ele>
        <time>2017-12-12T17:55:38Z</time>
      </trkpt>
      <trkpt lat="62.637541900854" lon="17.975586621877">
        <ele>65.4</ele>
        <time>2017-12-12T17:55:39Z</time>
      </trkpt>
      <trkpt lat="62.637525304692" lon="17.975598188899">
        <ele>65.6</ele>
        <time>2017-12-12T17:55:40Z</time>
      </trkpt>
      <trkpt lat="62.637508373254" lon="17.97560983974">
        <ele>65.6</ele>
        <time>2017-12-12T17:55:41Z</time>
      </trkpt>
      <trkpt lat="62.637489094884" lon="17.975617551088">
        <ele>65.8</ele>
        <time>2017-12-12T17:55:42Z</time>
      </trkpt>
      <trkpt lat="62.637468559229" lon="17.975630710671">
        <ele>66</ele>
        <time>2017-12-12T17:55:43Z</time>
      </trkpt>
      <trkpt lat="62.637450454325" lon="17.975641774779">
        <ele>66.2</ele>
        <time>2017-12-12T17:55:44Z</time>
      </trkpt>
      <trkpt lat="62.63743243324" lon="17.975650827231">
        <ele>66.2</ele>
        <time>2017-12-12T17:55:45Z</time>
      </trkpt>
      <trkpt lat="62.63741818401" lon="17.975661891339">
        <ele>66.6</ele>
        <time>2017-12-12T17:55:46Z</time>
      </trkpt>
      <trkpt lat="62.637404521513" lon="17.975669267411">
        <ele>66.8</ele>
        <time>2017-12-12T17:55:47Z</time>
      </trkpt>
      <trkpt lat="62.637392451577" lon="17.975685109202">
        <ele>67</ele>
        <time>2017-12-12T17:55:48Z</time>
      </trkpt>
      <trkpt lat="62.637370323361" lon="17.975697682052">
        <ele>67.2</ele>
        <time>2017-12-12T17:55:49Z</time>
      </trkpt>
      <trkpt lat="62.637344926204" lon="17.975717882431">
        <ele>67.4</ele>
        <time>2017-12-12T17:55:50Z</time>
      </trkpt>
      <trkpt lat="62.637328916775" lon="17.975739340095">
        <ele>67.4</ele>
        <time>2017-12-12T17:55:51Z</time>
      </trkpt>
      <trkpt lat="62.637315170459" lon="17.975751074755">
        <ele>67.4</ele>
        <time>2017-12-12T17:55:52Z</time>
      </trkpt>
      <trkpt lat="62.637303016704" lon="17.97576574308">
        <ele>67.6</ele>
        <time>2017-12-12T17:55:53Z</time>
      </trkpt>
      <trkpt lat="62.637286923456" lon="17.975787787477">
        <ele>67.8</ele>
        <time>2017-12-12T17:55:54Z</time>
      </trkpt>
      <trkpt lat="62.637273512416" lon="17.97580932896">
        <ele>67.8</ele>
        <time>2017-12-12T17:55:55Z</time>
      </trkpt>
      <trkpt lat="62.637258592634" lon="17.975826176579">
        <ele>67.8</ele>
        <time>2017-12-12T17:55:56Z</time>
      </trkpt>
      <trkpt lat="62.63724551687" lon="17.975846796053">
        <ele>68</ele>
        <time>2017-12-12T17:55:57Z</time>
      </trkpt>
      <trkpt lat="62.637234871857" lon="17.975869594821">
        <ele>68.2</ele>
        <time>2017-12-12T17:55:58Z</time>
      </trkpt>
      <trkpt lat="62.637220454989" lon="17.975894489064">
        <ele>68.4</ele>
        <time>2017-12-12T17:55:59Z</time>
      </trkpt>
      <trkpt lat="62.637208887967" lon="17.975921981696">
        <ele>68.6</ele>
        <time>2017-12-12T17:56:00Z</time>
      </trkpt>
      <trkpt lat="62.637195644565" lon="17.975959784065">
        <ele>68.8</ele>
        <time>2017-12-12T17:56:01Z</time>
      </trkpt>
      <trkpt lat="62.63718851995" lon="17.975994904226">
        <ele>69</ele>
        <time>2017-12-12T17:56:02Z</time>
      </trkpt>
      <trkpt lat="62.637181982068" lon="17.976027342179">
        <ele>69.2</ele>
        <time>2017-12-12T17:56:03Z</time>
      </trkpt>
      <trkpt lat="62.637179132222" lon="17.976046117635">
        <ele>69.4</ele>
        <time>2017-12-12T17:56:04Z</time>
      </trkpt>
      <trkpt lat="62.637162033146" lon="17.976102863098">
        <ele>69.4</ele>
        <time>2017-12-12T17:56:05Z</time>
      </trkpt>
      <trkpt lat="62.63715163959" lon="17.976151981032">
        <ele>69.6</ele>
        <time>2017-12-12T17:56:06Z</time>
      </trkpt>
      <trkpt lat="62.637149879391" lon="17.976172013773">
        <ele>69.6</ele>
        <time>2017-12-12T17:56:07Z</time>
      </trkpt>
      <trkpt lat="62.637140240206" lon="17.97621920387">
        <ele>69.8</ele>
        <time>2017-12-12T17:56:08Z</time>
      </trkpt>
      <trkpt lat="62.637131606849" lon="17.976264130854">
        <ele>69.8</ele>
        <time>2017-12-12T17:56:09Z</time>
      </trkpt>
      <trkpt lat="62.637119956008" lon="17.976298580463">
        <ele>70</ele>
        <time>2017-12-12T17:56:10Z</time>
      </trkpt>
      <trkpt lat="62.637113837221" lon="17.976334371176">
        <ele>70</ele>
        <time>2017-12-12T17:56:11Z</time>
      </trkpt>
      <trkpt lat="62.637114004859" lon="17.976365300387">
        <ele>70.2</ele>
        <time>2017-12-12T17:56:12Z</time>
      </trkpt>
      <trkpt lat="62.637101180552" lon="17.976404276222">
        <ele>70.4</ele>
        <time>2017-12-12T17:56:13Z</time>
      </trkpt>
      <trkpt lat="62.637090032625" lon="17.976464961178">
        <ele>70.4</ele>
        <time>2017-12-12T17:56:14Z</time>
      </trkpt>
      <trkpt lat="62.637086763684" lon="17.976499913701">
        <ele>70.6</ele>
        <time>2017-12-12T17:56:15Z</time>
      </trkpt>
      <trkpt lat="62.637076621585" lon="17.976561436847">
        <ele>70.6</ele>
        <time>2017-12-12T17:56:16Z</time>
      </trkpt>
      <trkpt lat="62.637074609929" lon="17.97661231498">
        <ele>70.8</ele>
        <time>2017-12-12T17:56:17Z</time>
      </trkpt>
      <trkpt lat="62.637073017368" lon="17.976635951938">
        <ele>70.8</ele>
        <time>2017-12-12T17:56:18Z</time>
      </trkpt>
      <trkpt lat="62.637066395667" lon="17.976714490341">
        <ele>70.8</ele>
        <time>2017-12-12T17:56:19Z</time>
      </trkpt>
      <trkpt lat="62.637070167522" lon="17.976750197235">
        <ele>70.8</ele>
        <time>2017-12-12T17:56:20Z</time>
      </trkpt>
      <trkpt lat="62.637065641296" lon="17.976811888019">
        <ele>70.8</ele>
        <time>2017-12-12T17:56:21Z</time>
      </trkpt>
      <trkpt lat="62.637063881097" lon="17.976870980414">
        <ele>71</ele>
        <time>2017-12-12T17:56:22Z</time>
      </trkpt>
      <trkpt lat="62.637066395667" lon="17.976900065607">
        <ele>71</ele>
        <time>2017-12-12T17:56:23Z</time>
      </trkpt>
      <trkpt lat="62.637062204717" lon="17.976975167431">
        <ele>70.8</ele>
        <time>2017-12-12T17:56:24Z</time>
      </trkpt>
      <trkpt lat="62.637070838074" lon="17.977020262053">
        <ele>70.8</ele>
        <time>2017-12-12T17:56:25Z</time>
      </trkpt>
      <trkpt lat="62.637070083703" lon="17.977091005289">
        <ele>71</ele>
        <time>2017-12-12T17:56:26Z</time>
      </trkpt>
      <trkpt lat="62.637072430635" lon="17.977131070771">
        <ele>71</ele>
        <time>2017-12-12T17:56:27Z</time>
      </trkpt>
      <trkpt lat="62.63707201154" lon="17.977188067691">
        <ele>71</ele>
        <time>2017-12-12T17:56:28Z</time>
      </trkpt>
      <trkpt lat="62.637075531938" lon="17.977249087923">
        <ele>71.2</ele>
        <time>2017-12-12T17:56:29Z</time>
      </trkpt>
      <trkpt lat="62.637064719287" lon="17.977308515594">
        <ele>71.2</ele>
        <time>2017-12-12T17:56:30Z</time>
      </trkpt>
      <trkpt lat="62.637070418979" lon="17.977340115357">
        <ele>71</ele>
        <time>2017-12-12T17:56:31Z</time>
      </trkpt>
      <trkpt lat="62.637060193061" lon="17.977390239119">
        <ele>71.2</ele>
        <time>2017-12-12T17:56:32Z</time>
      </trkpt>
      <trkpt lat="62.637049548048" lon="17.977446733125">
        <ele>71.2</ele>
        <time>2017-12-12T17:56:33Z</time>
      </trkpt>
      <trkpt lat="62.637038735397" lon="17.977482020924">
        <ele>71</ele>
        <time>2017-12-12T17:56:34Z</time>
      </trkpt>
      <trkpt lat="62.637031862239" lon="17.977517476361">
        <ele>71.2</ele>
        <time>2017-12-12T17:56:35Z</time>
      </trkpt>
      <trkpt lat="62.637007806186" lon="17.977602971741">
        <ele>71</ele>
        <time>2017-12-12T17:56:36Z</time>
      </trkpt>
      <trkpt lat="62.637001855037" lon="17.977645132698">
        <ele>71</ele>
        <time>2017-12-12T17:56:37Z</time>
      </trkpt>
      <trkpt lat="62.636993724594" lon="17.977683018886">
        <ele>71</ele>
        <time>2017-12-12T17:56:38Z</time>
      </trkpt>
      <trkpt lat="62.636976374061" lon="17.977765832058">
        <ele>71</ele>
        <time>2017-12-12T17:56:39Z</time>
      </trkpt>
      <trkpt lat="62.636975535871" lon="17.977790977758">
        <ele>70.8</ele>
        <time>2017-12-12T17:56:40Z</time>
      </trkpt>
      <trkpt lat="62.636959191166" lon="17.977860463709">
        <ele>71</ele>
        <time>2017-12-12T17:56:41Z</time>
      </trkpt>
      <trkpt lat="62.63695215037" lon="17.977921986855">
        <ele>71</ele>
        <time>2017-12-12T17:56:42Z</time>
      </trkpt>
      <trkpt lat="62.63695215037" lon="17.977946797279">
        <ele>71</ele>
        <time>2017-12-12T17:56:43Z</time>
      </trkpt>
      <trkpt lat="62.636934716018" lon="17.978047128622">
        <ele>71</ele>
        <time>2017-12-12T17:56:44Z</time>
      </trkpt>
      <trkpt lat="62.636928513412" lon="17.978089457217">
        <ele>71</ele>
        <time>2017-12-12T17:56:45Z</time>
      </trkpt>
      <trkpt lat="62.63692113734" lon="17.978128265414">
        <ele>71</ele>
        <time>2017-12-12T17:56:46Z</time>
      </trkpt>
      <trkpt lat="62.636908145395" lon="17.978197164632">
        <ele>71.2</ele>
        <time>2017-12-12T17:56:47Z</time>
      </trkpt>
      <trkpt lat="62.636903367712" lon="17.978229351128">
        <ele>71.2</ele>
        <time>2017-12-12T17:56:48Z</time>
      </trkpt>
      <trkpt lat="62.636890375767" lon="17.978279391071">
        <ele>71.4</ele>
        <time>2017-12-12T17:56:49Z</time>
      </trkpt>
      <trkpt lat="62.636877635279" lon="17.978340495122">
        <ele>71.4</ele>
        <time>2017-12-12T17:56:50Z</time>
      </trkpt>
      <trkpt lat="62.636875539804" lon="17.978368742125">
        <ele>71.6</ele>
        <time>2017-12-12T17:56:51Z</time>
      </trkpt>
      <trkpt lat="62.636857099624" lon="17.978421129">
        <ele>71.6</ele>
        <time>2017-12-12T17:56:52Z</time>
      </trkpt>
      <trkpt lat="62.636841006376" lon="17.978466642717">
        <ele>71.6</ele>
        <time>2017-12-12T17:56:53Z</time>
      </trkpt>
      <trkpt lat="62.636831953924" lon="17.978496230824">
        <ele>71.8</ele>
        <time>2017-12-12T17:56:54Z</time>
      </trkpt>
      <trkpt lat="62.636807227319" lon="17.978554736486">
        <ele>71.8</ele>
        <time>2017-12-12T17:56:55Z</time>
      </trkpt>
      <trkpt lat="62.636795911754" lon="17.978585078964">
        <ele>71.8</ele>
        <time>2017-12-12T17:56:56Z</time>
      </trkpt>
      <trkpt lat="62.636782165438" lon="17.97861558908">
        <ele>72</ele>
        <time>2017-12-12T17:56:57Z</time>
      </trkpt>
      <trkpt lat="62.636761713602" lon="17.978666886308">
        <ele>72</ele>
        <time>2017-12-12T17:56:58Z</time>
      </trkpt>
      <trkpt lat="62.636744865983" lon="17.978697899338">
        <ele>72</ele>
        <time>2017-12-12T17:56:59Z</time>
      </trkpt>
      <trkpt lat="62.636731203486" lon="17.978728409454">
        <ele>72</ele>
        <time>2017-12-12T17:57:00Z</time>
      </trkpt>
      <trkpt lat="62.636702788845" lon="17.97876143414">
        <ele>72</ele>
        <time>2017-12-12T17:57:01Z</time>
      </trkpt>
      <trkpt lat="62.63668644414" lon="17.97878406527">
        <ele>72.2</ele>
        <time>2017-12-12T17:57:02Z</time>
      </trkpt>
      <trkpt lat="62.636674877118" lon="17.978795129378">
        <ele>72.2</ele>
        <time>2017-12-12T17:57:03Z</time>
      </trkpt>
      <trkpt lat="62.636650988703" lon="17.978812899006">
        <ele>72.4</ele>
        <time>2017-12-12T17:57:04Z</time>
      </trkpt>
      <trkpt lat="62.636623496071" lon="17.978823208743">
        <ele>72.6</ele>
        <time>2017-12-12T17:57:05Z</time>
      </trkpt>
      <trkpt lat="62.636601284036" lon="17.978826896779">
        <ele>72.8</ele>
        <time>2017-12-12T17:57:06Z</time>
      </trkpt>
      <trkpt lat="62.636590806661" lon="17.978826561503">
        <ele>72.8</ele>
        <time>2017-12-12T17:57:07Z</time>
      </trkpt>
      <trkpt lat="62.636577227983" lon="17.97882178382">
        <ele>72.8</ele>
        <time>2017-12-12T17:57:08Z</time>
      </trkpt>
      <trkpt lat="62.636546885505" lon="17.97881843106">
        <ele>73</ele>
        <time>2017-12-12T17:57:09Z</time>
      </trkpt>
      <trkpt lat="62.636529870248" lon="17.978809713884">
        <ele>73</ele>
        <time>2017-12-12T17:57:10Z</time>
      </trkpt>
      <trkpt lat="62.636516459208" lon="17.978812815187">
        <ele>73.2</ele>
        <time>2017-12-12T17:57:11Z</time>
      </trkpt>
      <trkpt lat="62.63649533682" lon="17.978808121323">
        <ele>73.2</ele>
        <time>2017-12-12T17:57:12Z</time>
      </trkpt>
      <trkpt lat="62.636477148097" lon="17.978803762735">
        <ele>73.4</ele>
        <time>2017-12-12T17:57:13Z</time>
      </trkpt>
      <trkpt lat="62.636455019881" lon="17.978801834898">
        <ele>73.4</ele>
        <time>2017-12-12T17:57:14Z</time>
      </trkpt>
      <trkpt lat="62.636434819502" lon="17.978799236509">
        <ele>73.6</ele>
        <time>2017-12-12T17:57:15Z</time>
      </trkpt>
      <trkpt lat="62.636417552788" lon="17.978800912889">
        <ele>73.6</ele>
        <time>2017-12-12T17:57:16Z</time>
      </trkpt>
      <trkpt lat="62.636402213911" lon="17.978802756907">
        <ele>73.8</ele>
        <time>2017-12-12T17:57:17Z</time>
      </trkpt>
      <trkpt lat="62.63638218117" lon="17.978806109667">
        <ele>73.8</ele>
        <time>2017-12-12T17:57:18Z</time>
      </trkpt>
      <trkpt lat="62.636367009931" lon="17.978816084128">
        <ele>74</ele>
        <time>2017-12-12T17:57:19Z</time>
      </trkpt>
      <trkpt lat="62.636353431253" lon="17.97882178382">
        <ele>74</ele>
        <time>2017-12-12T17:57:20Z</time>
      </trkpt>
      <trkpt lat="62.6363377571" lon="17.97883016572">
        <ele>74.2</ele>
        <time>2017-12-12T17:57:21Z</time>
      </trkpt>
      <trkpt lat="62.636329039924" lon="17.978838463801">
        <ele>74.4</ele>
        <time>2017-12-12T17:57:22Z</time>
      </trkpt>
      <trkpt lat="62.636321328576" lon="17.97884441495">
        <ele>74.6</ele>
        <time>2017-12-12T17:57:23Z</time>
      </trkpt>
      <trkpt lat="62.636308755726" lon="17.978853551221">
        <ele>74.8</ele>
        <time>2017-12-12T17:57:24Z</time>
      </trkpt>
      <trkpt lat="62.636292327202" lon="17.978865453519">
        <ele>75.2</ele>
        <time>2017-12-12T17:57:25Z</time>
      </trkpt>
      <trkpt lat="62.636274976669" lon="17.978882887871">
        <ele>75.6</ele>
        <time>2017-12-12T17:57:26Z</time>
      </trkpt>
      <trkpt lat="62.636254692471" lon="17.97889973549">
        <ele>75.8</ele>
        <time>2017-12-12T17:57:27Z</time>
      </trkpt>
      <trkpt lat="62.636246059114" lon="17.978922450439">
        <ele>76</ele>
        <time>2017-12-12T17:57:28Z</time>
      </trkpt>
      <trkpt lat="62.636231558427" lon="17.978942734637">
        <ele>76.2</ele>
        <time>2017-12-12T17:57:29Z</time>
      </trkpt>
      <trkpt lat="62.636217979749" lon="17.978960252808">
        <ele>76.4</ele>
        <time>2017-12-12T17:57:30Z</time>
      </trkpt>
      <trkpt lat="62.636210855134" lon="17.978975926961">
        <ele>76.6</ele>
        <time>2017-12-12T17:57:31Z</time>
      </trkpt>
      <trkpt lat="62.636201048311" lon="17.978999815376">
        <ele>76.8</ele>
        <time>2017-12-12T17:57:32Z</time>
      </trkpt>
      <trkpt lat="62.63619358842" lon="17.979022865601">
        <ele>77</ele>
        <time>2017-12-12T17:57:33Z</time>
      </trkpt>
      <trkpt lat="62.636180428837" lon="17.97903887503">
        <ele>77</ele>
        <time>2017-12-12T17:57:34Z</time>
      </trkpt>
      <trkpt lat="62.636169867643" lon="17.979050442052">
        <ele>77.2</ele>
        <time>2017-12-12T17:57:35Z</time>
      </trkpt>
      <trkpt lat="62.636160815191" lon="17.979071061526">
        <ele>77.6</ele>
        <time>2017-12-12T17:57:36Z</time>
      </trkpt>
      <trkpt lat="62.636150505454" lon="17.979082796186">
        <ele>78</ele>
        <time>2017-12-12T17:57:37Z</time>
      </trkpt>
      <trkpt lat="62.636141369183" lon="17.979107690429">
        <ele>78.4</ele>
        <time>2017-12-12T17:57:38Z</time>
      </trkpt>
      <trkpt lat="62.636127706686" lon="17.979127136437">
        <ele>78.6</ele>
        <time>2017-12-12T17:57:39Z</time>
      </trkpt>
      <trkpt lat="62.636113876551" lon="17.979145576617">
        <ele>78.8</ele>
        <time>2017-12-12T17:57:40Z</time>
      </trkpt>
      <trkpt lat="62.636104237366" lon="17.979170973774">
        <ele>79</ele>
        <time>2017-12-12T17:57:41Z</time>
      </trkpt>
      <trkpt lat="62.636090574869" lon="17.979203663184">
        <ele>79.2</ele>
        <time>2017-12-12T17:57:42Z</time>
      </trkpt>
      <trkpt lat="62.636082528245" lon="17.979237358422">
        <ele>79.4</ele>
        <time>2017-12-12T17:57:43Z</time>
      </trkpt>
      <trkpt lat="62.636078253476" lon="17.979268371452">
        <ele>79.6</ele>
        <time>2017-12-12T17:57:44Z</time>
      </trkpt>
      <trkpt lat="62.636058807468" lon="17.97932805058">
        <ele>79.8</ele>
        <time>2017-12-12T17:57:45Z</time>
      </trkpt>
      <trkpt lat="62.63605193431" lon="17.979377419971">
        <ele>80</ele>
        <time>2017-12-12T17:57:46Z</time>
      </trkpt>
      <trkpt lat="62.636052101948" lon="17.979411953399">
        <ele>80.2</ele>
        <time>2017-12-12T17:57:47Z</time>
      </trkpt>
      <trkpt lat="62.63604774336" lon="17.979456126012">
        <ele>80.2</ele>
        <time>2017-12-12T17:57:48Z</time>
      </trkpt>
      <trkpt lat="62.636036763071" lon="17.979542878677">
        <ele>80.2</ele>
        <time>2017-12-12T17:57:49Z</time>
      </trkpt>
      <trkpt lat="62.63604858155" lon="17.979608425135">
        <ele>80.2</ele>
        <time>2017-12-12T17:57:50Z</time>
      </trkpt>
      <trkpt lat="62.636040451107" lon="17.979705822813">
        <ele>80.2</ele>
        <time>2017-12-12T17:57:51Z</time>
      </trkpt>
      <trkpt lat="62.636036092519" lon="17.979831383675">
        <ele>79.8</ele>
        <time>2017-12-12T17:57:52Z</time>
      </trkpt>
      <trkpt lat="62.636029638456" lon="17.979952585949">
        <ele>79.4</ele>
        <time>2017-12-12T17:57:53Z</time>
      </trkpt>
      <trkpt lat="62.636030392827" lon="17.980094826792">
        <ele>78.6</ele>
        <time>2017-12-12T17:57:54Z</time>
      </trkpt>
      <trkpt lat="62.636036427795" lon="17.980213849772">
        <ele>77.6</ele>
        <time>2017-12-12T17:57:55Z</time>
      </trkpt>
      <trkpt lat="62.636048833007" lon="17.980325077585">
        <ele>76.6</ele>
        <time>2017-12-12T17:57:56Z</time>
      </trkpt>
      <trkpt lat="62.63606869811" lon="17.980441921271">
        <ele>75.8</ele>
        <time>2017-12-12T17:57:57Z</time>
      </trkpt>
      <trkpt lat="62.636083198797" lon="17.98054510246">
        <ele>75</ele>
        <time>2017-12-12T17:57:58Z</time>
      </trkpt>
      <trkpt lat="62.636090742507" lon="17.980645098527">
        <ele>74.8</ele>
        <time>2017-12-12T17:57:59Z</time>
      </trkpt>
      <trkpt lat="62.636112200171" lon="17.980737550884">
        <ele>74.4</ele>
        <time>2017-12-12T17:58:00Z</time>
      </trkpt>
      <trkpt lat="62.636130137437" lon="17.980818939133">
        <ele>74.2</ele>
        <time>2017-12-12T17:58:01Z</time>
      </trkpt>
      <trkpt lat="62.636141788278" lon="17.980895801156">
        <ele>74</ele>
        <time>2017-12-12T17:58:02Z</time>
      </trkpt>
      <trkpt lat="62.636157294793" lon="17.980987918237">
        <ele>73.8</ele>
        <time>2017-12-12T17:58:03Z</time>
      </trkpt>
      <trkpt lat="62.636174058593" lon="17.981071988694">
        <ele>73.6</ele>
        <time>2017-12-12T17:58:04Z</time>
      </trkpt>
      <trkpt lat="62.63618101557" lon="17.981158825178">
        <ele>73.2</ele>
        <time>2017-12-12T17:58:05Z</time>
      </trkpt>
      <trkpt lat="62.636187888728" lon="17.981249601155">
        <ele>73</ele>
        <time>2017-12-12T17:58:06Z</time>
      </trkpt>
      <trkpt lat="62.636196186809" lon="17.981324954436">
        <ele>73</ele>
        <time>2017-12-12T17:58:07Z</time>
      </trkpt>
      <trkpt lat="62.636202724691" lon="17.981392680188">
        <ele>73.2</ele>
        <time>2017-12-12T17:58:08Z</time>
      </trkpt>
      <trkpt lat="62.636215632817" lon="17.981473900799">
        <ele>73.2</ele>
        <time>2017-12-12T17:58:09Z</time>
      </trkpt>
      <trkpt lat="62.636232815712" lon="17.9815308139">
        <ele>73.4</ele>
        <time>2017-12-12T17:58:10Z</time>
      </trkpt>
      <trkpt lat="62.636238934499" lon="17.981629971777">
        <ele>73.6</ele>
        <time>2017-12-12T17:58:11Z</time>
      </trkpt>
      <trkpt lat="62.636244215096" lon="17.981714042234">
        <ele>73.8</ele>
        <time>2017-12-12T17:58:12Z</time>
      </trkpt>
      <trkpt lat="62.636246059114" lon="17.981782941452">
        <ele>73.8</ele>
        <time>2017-12-12T17:58:13Z</time>
      </trkpt>
      <trkpt lat="62.636259721611" lon="17.981877237827">
        <ele>73.6</ele>
        <time>2017-12-12T17:58:14Z</time>
      </trkpt>
      <trkpt lat="62.636276736868" lon="17.981935575851">
        <ele>73.6</ele>
        <time>2017-12-12T17:58:15Z</time>
      </trkpt>
      <trkpt lat="62.636282771836" lon="17.98201361134">
        <ele>73.6</ele>
        <time>2017-12-12T17:58:16Z</time>
      </trkpt>
      <trkpt lat="62.636292578659" lon="17.98208150473">
        <ele>73.4</ele>
        <time>2017-12-12T17:58:17Z</time>
      </trkpt>
      <trkpt lat="62.636299284179" lon="17.982137914917">
        <ele>73.4</ele>
        <time>2017-12-12T17:58:18Z</time>
      </trkpt>
      <trkpt lat="62.636292159564" lon="17.982233720034">
        <ele>73.2</ele>
        <time>2017-12-12T17:58:19Z</time>
      </trkpt>
      <trkpt lat="62.636296099057" lon="17.982288621479">
        <ele>73.2</ele>
        <time>2017-12-12T17:58:20Z</time>
      </trkpt>
      <trkpt lat="62.636295260867" lon="17.982361376371">
        <ele>73</ele>
        <time>2017-12-12T17:58:21Z</time>
      </trkpt>
      <trkpt lat="62.636295093229" lon="17.982419714395">
        <ele>73</ele>
        <time>2017-12-12T17:58:22Z</time>
      </trkpt>
      <trkpt lat="62.636299787093" lon="17.982458941687">
        <ele>73</ele>
        <time>2017-12-12T17:58:23Z</time>
      </trkpt>
      <trkpt lat="62.636300792921" lon="17.98252658362">
        <ele>73</ele>
        <time>2017-12-12T17:58:24Z</time>
      </trkpt>
      <trkpt lat="62.636310515925" lon="17.982581401246">
        <ele>73</ele>
        <time>2017-12-12T17:58:25Z</time>
      </trkpt>
      <trkpt lat="62.636301631111" lon="17.982645187505">
        <ele>73</ele>
        <time>2017-12-12T17:58:26Z</time>
      </trkpt>
      <trkpt lat="62.636298194532" lon="17.982705369547">
        <ele>73</ele>
        <time>2017-12-12T17:58:27Z</time>
      </trkpt>
      <trkpt lat="62.636305570604" lon="17.982751637635">
        <ele>73</ele>
        <time>2017-12-12T17:58:28Z</time>
      </trkpt>
      <trkpt lat="62.636302301663" lon="17.982823470518">
        <ele>73.2</ele>
        <time>2017-12-12T17:58:29Z</time>
      </trkpt>
      <trkpt lat="62.636296853428" lon="17.982886837682">
        <ele>73.2</ele>
        <time>2017-12-12T17:58:30Z</time>
      </trkpt>
      <trkpt lat="62.636295763781" lon="17.982928328087">
        <ele>73.2</ele>
        <time>2017-12-12T17:58:31Z</time>
      </trkpt>
      <trkpt lat="62.636289477356" lon="17.98299261726">
        <ele>73.4</ele>
        <time>2017-12-12T17:58:32Z</time>
      </trkpt>
      <trkpt lat="62.636297356342" lon="17.983034442941">
        <ele>73.2</ele>
        <time>2017-12-12T17:58:33Z</time>
      </trkpt>
      <trkpt lat="62.636302385482" lon="17.983100324675">
        <ele>73.4</ele>
        <time>2017-12-12T17:58:34Z</time>
      </trkpt>
      <trkpt lat="62.6363042295" lon="17.983153382102">
        <ele>73.6</ele>
        <time>2017-12-12T17:58:35Z</time>
      </trkpt>
      <trkpt lat="62.636308671907" lon="17.983203254407">
        <ele>73.6</ele>
        <time>2017-12-12T17:58:36Z</time>
      </trkpt>
      <trkpt lat="62.636305402966" lon="17.983278356231">
        <ele>73.6</ele>
        <time>2017-12-12T17:58:37Z</time>
      </trkpt>
      <trkpt lat="62.636309426278" lon="17.983320265731">
        <ele>73.8</ele>
        <time>2017-12-12T17:58:38Z</time>
      </trkpt>
      <trkpt lat="62.636304816233" lon="17.983383968171">
        <ele>73.8</ele>
        <time>2017-12-12T17:58:39Z</time>
      </trkpt>
      <trkpt lat="62.63630339131" lon="17.98343853434">
        <ele>73.6</ele>
        <time>2017-12-12T17:58:40Z</time>
      </trkpt>
      <trkpt lat="62.636301631111" lon="17.983474660329">
        <ele>73.6</ele>
        <time>2017-12-12T17:58:41Z</time>
      </trkpt>
      <trkpt lat="62.6362958476" lon="17.983532998353">
        <ele>73.6</ele>
        <time>2017-12-12T17:58:42Z</time>
      </trkpt>
      <trkpt lat="62.636290399365" lon="17.983585636685">
        <ele>73.6</ele>
        <time>2017-12-12T17:58:43Z</time>
      </trkpt>
      <trkpt lat="62.636279167619" lon="17.983649339125">
        <ele>73.6</ele>
        <time>2017-12-12T17:58:44Z</time>
      </trkpt>
      <trkpt lat="62.636279419076" lon="17.98368328582">
        <ele>73.8</ele>
        <time>2017-12-12T17:58:45Z</time>
      </trkpt>
      <trkpt lat="62.636273300289" lon="17.983736762342">
        <ele>73.8</ele>
        <time>2017-12-12T17:58:46Z</time>
      </trkpt>
      <trkpt lat="62.636257458498" lon="17.983799710411">
        <ele>74</ele>
        <time>2017-12-12T17:58:47Z</time>
      </trkpt>
      <trkpt lat="62.636264080199" lon="17.983846481413">
        <ele>74.2</ele>
        <time>2017-12-12T17:58:48Z</time>
      </trkpt>
      <trkpt lat="62.636252513177" lon="17.983903562152">
        <ele>74.4</ele>
        <time>2017-12-12T17:58:49Z</time>
      </trkpt>
      <trkpt lat="62.636233905359" lon="17.983969192429">
        <ele>74.6</ele>
        <time>2017-12-12T17:58:50Z</time>
      </trkpt>
      <trkpt lat="62.636234324454" lon="17.984002300934">
        <ele>74.6</ele>
        <time>2017-12-12T17:58:51Z</time>
      </trkpt>
      <trkpt lat="62.636227367477" lon="17.984053430524">
        <ele>74.6</ele>
        <time>2017-12-12T17:58:52Z</time>
      </trkpt>
      <trkpt lat="62.636224349993" lon="17.984109170159">
        <ele>74.8</ele>
        <time>2017-12-12T17:58:53Z</time>
      </trkpt>
      <trkpt lat="62.636222505975" lon="17.984151917849">
        <ele>74.8</ele>
        <time>2017-12-12T17:58:54Z</time>
      </trkpt>
      <trkpt lat="62.636214207894" lon="17.984215117375">
        <ele>75</ele>
        <time>2017-12-12T17:58:55Z</time>
      </trkpt>
      <trkpt lat="62.636205155442" lon="17.984293571959">
        <ele>75</ele>
        <time>2017-12-12T17:58:56Z</time>
      </trkpt>
      <trkpt lat="62.636201215949" lon="17.984346210291">
        <ele>75.2</ele>
        <time>2017-12-12T17:58:57Z</time>
      </trkpt>
      <trkpt lat="62.636200126302" lon="17.984374624932">
        <ele>75.2</ele>
        <time>2017-12-12T17:58:58Z</time>
      </trkpt>
      <trkpt lat="62.636188978375" lon="17.98444436234">
        <ele>75.4</ele>
        <time>2017-12-12T17:58:59Z</time>
      </trkpt>
      <trkpt lat="62.636183194864" lon="17.984491552437">
        <ele>75.4</ele>
        <time>2017-12-12T17:59:00Z</time>
      </trkpt>
      <trkpt lat="62.636181518484" lon="17.984529270987">
        <ele>75.4</ele>
        <time>2017-12-12T17:59:01Z</time>
      </trkpt>
      <trkpt lat="62.636175567335" lon="17.984604875725">
        <ele>75.6</ele>
        <time>2017-12-12T17:59:02Z</time>
      </trkpt>
      <trkpt lat="62.63617431005" lon="17.984642845732">
        <ele>75.6</ele>
        <time>2017-12-12T17:59:03Z</time>
      </trkpt>
      <trkpt lat="62.636174058593" lon="17.984690874019">
        <ele>75.6</ele>
        <time>2017-12-12T17:59:04Z</time>
      </trkpt>
      <trkpt lat="62.636173220403" lon="17.984740411048">
        <ele>75.6</ele>
        <time>2017-12-12T17:59:05Z</time>
      </trkpt>
      <trkpt lat="62.636175232059" lon="17.984789109887">
        <ele>75.8</ele>
        <time>2017-12-12T17:59:06Z</time>
      </trkpt>
      <trkpt lat="62.636172130756" lon="17.984801347461">
        <ele>75.6</ele>
        <time>2017-12-12T17:59:07Z</time>
      </trkpt>
      <trkpt lat="62.636168610358" lon="17.984886423746">
        <ele>75.8</ele>
        <time>2017-12-12T17:59:08Z</time>
      </trkpt>
      <trkpt lat="62.636163162123" lon="17.98493889444">
        <ele>75.8</ele>
        <time>2017-12-12T17:59:09Z</time>
      </trkpt>
      <trkpt lat="62.63616676634" lon="17.984973092592">
        <ele>75.8</ele>
        <time>2017-12-12T17:59:10Z</time>
      </trkpt>
      <trkpt lat="62.636164670865" lon="17.98503109534">
        <ele>76</ele>
        <time>2017-12-12T17:59:11Z</time>
      </trkpt>
      <trkpt lat="62.636160144639" lon="17.98509144502">
        <ele>76</ele>
        <time>2017-12-12T17:59:12Z</time>
      </trkpt>
      <trkpt lat="62.636170370557" lon="17.985117512729">
        <ele>76.2</ele>
        <time>2017-12-12T17:59:13Z</time>
      </trkpt>
      <trkpt lat="62.636162323933" lon="17.985189261793">
        <ele>76</ele>
        <time>2017-12-12T17:59:14Z</time>
      </trkpt>
      <trkpt lat="62.636157713888" lon="17.985238379727">
        <ele>76.2</ele>
        <time>2017-12-12T17:59:15Z</time>
      </trkpt>
      <trkpt lat="62.636157881526" lon="17.985266291454">
        <ele>76.2</ele>
        <time>2017-12-12T17:59:16Z</time>
      </trkpt>
      <trkpt lat="62.636156121327" lon="17.985334771577">
        <ele>76.4</ele>
        <time>2017-12-12T17:59:17Z</time>
      </trkpt>
      <trkpt lat="62.636154947861" lon="17.985370813747">
        <ele>76.4</ele>
        <time>2017-12-12T17:59:18Z</time>
      </trkpt>
      <trkpt lat="62.63615419349" lon="17.985421440423">
        <ele>76.6</ele>
        <time>2017-12-12T17:59:19Z</time>
      </trkpt>
      <trkpt lat="62.636150924549" lon="17.985490591098">
        <ele>76.6</ele>
        <time>2017-12-12T17:59:20Z</time>
      </trkpt>
      <trkpt lat="62.636149583445" lon="17.985521520309">
        <ele>76.8</ele>
        <time>2017-12-12T17:59:21Z</time>
      </trkpt>
      <trkpt lat="62.63614329702" lon="17.98557508065">
        <ele>76.8</ele>
        <time>2017-12-12T17:59:22Z</time>
      </trkpt>
      <trkpt lat="62.636141872097" lon="17.985622606023">
        <ele>76.8</ele>
        <time>2017-12-12T17:59:23Z</time>
      </trkpt>
      <trkpt lat="62.636136842957" lon="17.985661833315">
        <ele>76.8</ele>
        <time>2017-12-12T17:59:24Z</time>
      </trkpt>
      <trkpt lat="62.636123934831" lon="17.98571589657">
        <ele>77</ele>
        <time>2017-12-12T17:59:25Z</time>
      </trkpt>
      <trkpt lat="62.636111781076" lon="17.985756716423">
        <ele>76.8</ele>
        <time>2017-12-12T17:59:26Z</time>
      </trkpt>
      <trkpt lat="62.636109937058" lon="17.985790327842">
        <ele>76.8</ele>
        <time>2017-12-12T17:59:27Z</time>
      </trkpt>
      <trkpt lat="62.636091580697" lon="17.985834500455">
        <ele>77</ele>
        <time>2017-12-12T17:59:28Z</time>
      </trkpt>
      <trkpt lat="62.636077415286" lon="17.985870794082">
        <ele>77</ele>
        <time>2017-12-12T17:59:29Z</time>
      </trkpt>
      <trkpt lat="62.63606283078" lon="17.985908177356">
        <ele>77</ele>
        <time>2017-12-12T17:59:30Z</time>
      </trkpt>
      <trkpt lat="62.636053359233" lon="17.985934245065">
        <ele>77</ele>
        <time>2017-12-12T17:59:31Z</time>
      </trkpt>
      <trkpt lat="62.636031566293" lon="17.98597573547">
        <ele>77.2</ele>
        <time>2017-12-12T17:59:32Z</time>
      </trkpt>
      <trkpt lat="62.636013042294" lon="17.986000378256">
        <ele>77.4</ele>
        <time>2017-12-12T17:59:33Z</time>
      </trkpt>
      <trkpt lat="62.635998793064" lon="17.986020494816">
        <ele>77.4</ele>
        <time>2017-12-12T17:59:34Z</time>
      </trkpt>
      <trkpt lat="62.635976664848" lon="17.986041784842">
        <ele>77.6</ele>
        <time>2017-12-12T17:59:35Z</time>
      </trkpt>
      <trkpt lat="62.635957805573" lon="17.986050585837">
        <ele>77.8</ele>
        <time>2017-12-12T17:59:36Z</time>
      </trkpt>
      <trkpt lat="62.635944059257" lon="17.986065924714">
        <ele>77.8</ele>
        <time>2017-12-12T17:59:37Z</time>
      </trkpt>
      <trkpt lat="62.635929893846" lon="17.986086041274">
        <ele>78</ele>
        <time>2017-12-12T17:59:38Z</time>
      </trkpt>
      <trkpt lat="62.635906256888" lon="17.986104481454">
        <ele>78</ele>
        <time>2017-12-12T17:59:39Z</time>
      </trkpt>
      <trkpt lat="62.635891504744" lon="17.986117892494">
        <ele>78</ele>
        <time>2017-12-12T17:59:40Z</time>
      </trkpt>
      <trkpt lat="62.635861916637" lon="17.98613331519">
        <ele>78</ele>
        <time>2017-12-12T17:59:41Z</time>
      </trkpt>
      <trkpt lat="62.635843895552" lon="17.986158628528">
        <ele>78.2</ele>
        <time>2017-12-12T17:59:42Z</time>
      </trkpt>
      <trkpt lat="62.635835010738" lon="17.986168183894">
        <ele>78.2</ele>
        <time>2017-12-12T17:59:43Z</time>
      </trkpt>
      <trkpt lat="62.635806847554" lon="17.986218307656">
        <ele>78.2</ele>
        <time>2017-12-12T17:59:44Z</time>
      </trkpt>
      <trkpt lat="62.635794945256" lon="17.986247560487">
        <ele>78.2</ele>
        <time>2017-12-12T17:59:45Z</time>
      </trkpt>
      <trkpt lat="62.635782623863" lon="17.986270191617">
        <ele>78.4</ele>
        <time>2017-12-12T17:59:46Z</time>
      </trkpt>
      <trkpt lat="62.635766027701" lon="17.986301120828">
        <ele>78.2</ele>
        <time>2017-12-12T17:59:47Z</time>
      </trkpt>
      <trkpt lat="62.635757394344" lon="17.986317549352">
        <ele>78.4</ele>
        <time>2017-12-12T17:59:48Z</time>
      </trkpt>
      <trkpt lat="62.635749180082" lon="17.986336324808">
        <ele>78.4</ele>
        <time>2017-12-12T17:59:49Z</time>
      </trkpt>
      <trkpt lat="62.635737361603" lon="17.986360548499">
        <ele>78.6</ele>
        <time>2017-12-12T17:59:50Z</time>
      </trkpt>
      <trkpt lat="62.635718418509" lon="17.986395333384">
        <ele>78.8</ele>
        <time>2017-12-12T17:59:51Z</time>
      </trkpt>
      <trkpt lat="62.635697882854" lon="17.986431878468">
        <ele>79</ele>
        <time>2017-12-12T17:59:52Z</time>
      </trkpt>
      <trkpt lat="62.635687908393" lon="17.986458784367">
        <ele>79.2</ele>
        <time>2017-12-12T17:59:53Z</time>
      </trkpt>
      <trkpt lat="62.635660080485" lon="17.98651972078">
        <ele>79.4</ele>
        <time>2017-12-12T17:59:54Z</time>
      </trkpt>
      <trkpt lat="62.635655554259" lon="17.986556265864">
        <ele>79.4</ele>
        <time>2017-12-12T17:59:55Z</time>
      </trkpt>
      <trkpt lat="62.635637616993" lon="17.986608652739">
        <ele>79.4</ele>
        <time>2017-12-12T17:59:56Z</time>
      </trkpt>
      <trkpt lat="62.635614985863" lon="17.986652490076">
        <ele>79.4</ele>
        <time>2017-12-12T17:59:57Z</time>
      </trkpt>
      <trkpt lat="62.635617500433" lon="17.986678557785">
        <ele>79.2</ele>
        <time>2017-12-12T17:59:58Z</time>
      </trkpt>
      <trkpt lat="62.635597216235" lon="17.986716443973">
        <ele>79.4</ele>
        <time>2017-12-12T17:59:59Z</time>
      </trkpt>
      <trkpt lat="62.63558422429" lon="17.986763382613">
        <ele>79.4</ele>
        <time>2017-12-12T18:00:00Z</time>
      </trkpt>
      <trkpt lat="62.635573914553" lon="17.986795317652">
        <ele>79.4</ele>
        <time>2017-12-12T18:00:01Z</time>
      </trkpt>
      <trkpt lat="62.635566370843" lon="17.986821385361">
        <ele>79.6</ele>
        <time>2017-12-12T18:00:02Z</time>
      </trkpt>
      <trkpt lat="62.63554650574" lon="17.986866396164">
        <ele>79.6</ele>
        <time>2017-12-12T18:00:03Z</time>
      </trkpt>
      <trkpt lat="62.635528400836" lon="17.986921632885">
        <ele>79.8</ele>
        <time>2017-12-12T18:00:04Z</time>
      </trkpt>
      <trkpt lat="62.635517923461" lon="17.98694384492">
        <ele>79.8</ele>
        <time>2017-12-12T18:00:05Z</time>
      </trkpt>
      <trkpt lat="62.635491688114" lon="17.987003524048">
        <ele>80</ele>
        <time>2017-12-12T18:00:06Z</time>
      </trkpt>
      <trkpt lat="62.635478947626" lon="17.987036129639">
        <ele>80</ele>
        <time>2017-12-12T18:00:07Z</time>
      </trkpt>
      <trkpt lat="62.635470733364" lon="17.987061694434">
        <ele>80</ele>
        <time>2017-12-12T18:00:08Z</time>
      </trkpt>
      <trkpt lat="62.635453047555" lon="17.98710142464">
        <ele>80.2</ele>
        <time>2017-12-12T18:00:09Z</time>
      </trkpt>
      <trkpt lat="62.635444833293" lon="17.987132102394">
        <ele>80.2</ele>
        <time>2017-12-12T18:00:10Z</time>
      </trkpt>
      <trkpt lat="62.635428488588" lon="17.987163031605">
        <ele>80.4</ele>
        <time>2017-12-12T18:00:11Z</time>
      </trkpt>
      <trkpt lat="62.635418514127" lon="17.987189686047">
        <ele>80.4</ele>
        <time>2017-12-12T18:00:12Z</time>
      </trkpt>
      <trkpt lat="62.635394877169" lon="17.987236708506">
        <ele>80.6</ele>
        <time>2017-12-12T18:00:13Z</time>
      </trkpt>
      <trkpt lat="62.635381130853" lon="17.987289095381">
        <ele>80.6</ele>
        <time>2017-12-12T18:00:14Z</time>
      </trkpt>
      <trkpt lat="62.635366881623" lon="17.987310636864">
        <ele>80.8</ele>
        <time>2017-12-12T18:00:15Z</time>
      </trkpt>
      <trkpt lat="62.635342741751" lon="17.987350283251">
        <ele>80.8</ele>
        <time>2017-12-12T18:00:16Z</time>
      </trkpt>
      <trkpt lat="62.635330755634" lon="17.987381296281">
        <ele>81</ele>
        <time>2017-12-12T18:00:17Z</time>
      </trkpt>
      <trkpt lat="62.635321284087" lon="17.987399904099">
        <ele>81.2</ele>
        <time>2017-12-12T18:00:18Z</time>
      </trkpt>
      <trkpt lat="62.635296138387" lon="17.987451955698">
        <ele>81.2</ele>
        <time>2017-12-12T18:00:19Z</time>
      </trkpt>
      <trkpt lat="62.635283984632" lon="17.987475341199">
        <ele>81.4</ele>
        <time>2017-12-12T18:00:20Z</time>
      </trkpt>
      <trkpt lat="62.635270322135" lon="17.987496715044">
        <ele>81.4</ele>
        <time>2017-12-12T18:00:21Z</time>
      </trkpt>
      <trkpt lat="62.635254480344" lon="17.98752135783">
        <ele>81.4</ele>
        <time>2017-12-12T18:00:22Z</time>
      </trkpt>
      <trkpt lat="62.635236794535" lon="17.987554382516">
        <ele>81.4</ele>
        <time>2017-12-12T18:00:23Z</time>
      </trkpt>
      <trkpt lat="62.635217013251" lon="17.987592939256">
        <ele>81.4</ele>
        <time>2017-12-12T18:00:24Z</time>
      </trkpt>
      <trkpt lat="62.635203266935" lon="17.987628394693">
        <ele>81.6</ele>
        <time>2017-12-12T18:00:25Z</time>
      </trkpt>
      <trkpt lat="62.635179881434" lon="17.987659994456">
        <ele>81.6</ele>
        <time>2017-12-12T18:00:26Z</time>
      </trkpt>
      <trkpt lat="62.635165296928" lon="17.987695282255">
        <ele>81.8</ele>
        <time>2017-12-12T18:00:27Z</time>
      </trkpt>
      <trkpt lat="62.635151802069" lon="17.987724451267">
        <ele>82</ele>
        <time>2017-12-12T18:00:28Z</time>
      </trkpt>
      <trkpt lat="62.63514668911" lon="17.987754793745">
        <ele>82</ele>
        <time>2017-12-12T18:00:29Z</time>
      </trkpt>
      <trkpt lat="62.635131434052" lon="17.987785136223">
        <ele>82.2</ele>
        <time>2017-12-12T18:00:30Z</time>
      </trkpt>
      <trkpt lat="62.635111401311" lon="17.987829057379">
        <ele>82.2</ele>
        <time>2017-12-12T18:00:31Z</time>
      </trkpt>
      <trkpt lat="62.635096313891" lon="17.987854873631">
        <ele>82.6</ele>
        <time>2017-12-12T18:00:32Z</time>
      </trkpt>
      <trkpt lat="62.63508969219" lon="17.987877085666">
        <ele>82.6</ele>
        <time>2017-12-12T18:00:33Z</time>
      </trkpt>
      <trkpt lat="62.635072006381" lon="17.987909607438">
        <ele>82.8</ele>
        <time>2017-12-12T18:00:34Z</time>
      </trkpt>
      <trkpt lat="62.635045854853" lon="17.987943470314">
        <ele>83</ele>
        <time>2017-12-12T18:00:35Z</time>
      </trkpt>
      <trkpt lat="62.635044262292" lon="17.987968616014">
        <ele>83</ele>
        <time>2017-12-12T18:00:36Z</time>
      </trkpt>
      <trkpt lat="62.635022888447" lon="17.987997282112">
        <ele>83</ele>
        <time>2017-12-12T18:00:37Z</time>
      </trkpt>
      <trkpt lat="62.635002771887" lon="17.98802594821">
        <ele>83</ele>
        <time>2017-12-12T18:00:38Z</time>
      </trkpt>
      <trkpt lat="62.634977290911" lon="17.988047573512">
        <ele>83.2</ele>
        <time>2017-12-12T18:00:39Z</time>
      </trkpt>
      <trkpt lat="62.634963712233" lon="17.988065426959">
        <ele>83.2</ele>
        <time>2017-12-12T18:00:40Z</time>
      </trkpt>
      <trkpt lat="62.634944350044" lon="17.98808462151">
        <ele>83.4</ele>
        <time>2017-12-12T18:00:41Z</time>
      </trkpt>
      <trkpt lat="62.634925071674" lon="17.988101636767">
        <ele>83.4</ele>
        <time>2017-12-12T18:00:42Z</time>
      </trkpt>
      <trkpt lat="62.634906547675" lon="17.988116808006">
        <ele>83.6</ele>
        <time>2017-12-12T18:00:43Z</time>
      </trkpt>
      <trkpt lat="62.634898501051" lon="17.988137176023">
        <ele>83.8</ele>
        <time>2017-12-12T18:00:44Z</time>
      </trkpt>
      <trkpt lat="62.634886682572" lon="17.988146731389">
        <ele>83.8</ele>
        <time>2017-12-12T18:00:45Z</time>
      </trkpt>
      <trkpt lat="62.63486757184" lon="17.988157879316">
        <ele>84</ele>
        <time>2017-12-12T18:00:46Z</time>
      </trkpt>
      <trkpt lat="62.634846197995" lon="17.988161064438">
        <ele>84</ele>
        <time>2017-12-12T18:00:47Z</time>
      </trkpt>
      <trkpt lat="62.634821219933" lon="17.988172128546">
        <ele>84</ele>
        <time>2017-12-12T18:00:48Z</time>
      </trkpt>
      <trkpt lat="62.634781657365" lon="17.988179839894">
        <ele>84.2</ele>
        <time>2017-12-12T18:00:49Z</time>
      </trkpt>
      <trkpt lat="62.634777298777" lon="17.988185036672">
        <ele>84.2</ele>
        <time>2017-12-12T18:00:50Z</time>
      </trkpt>
      <trkpt lat="62.634758439502" lon="17.988187299785">
        <ele>84.4</ele>
        <time>2017-12-12T18:00:51Z</time>
      </trkpt>
      <trkpt lat="62.634733545259" lon="17.988187970337">
        <ele>84.4</ele>
        <time>2017-12-12T18:00:52Z</time>
      </trkpt>
      <trkpt lat="62.634723989893" lon="17.988189730536">
        <ele>84.6</ele>
        <time>2017-12-12T18:00:53Z</time>
      </trkpt>
      <trkpt lat="62.634694653243" lon="17.988190401088">
        <ele>84.8</ele>
        <time>2017-12-12T18:00:54Z</time>
      </trkpt>
      <trkpt lat="62.634665400412" lon="17.988185958681">
        <ele>84.8</ele>
        <time>2017-12-12T18:00:55Z</time>
      </trkpt>
      <trkpt lat="62.63465718615" lon="17.988199621178">
        <ele>85</ele>
        <time>2017-12-12T18:00:56Z</time>
      </trkpt>
      <trkpt lat="62.6346278495" lon="17.988209260363">
        <ele>85</ele>
        <time>2017-12-12T18:00:57Z</time>
      </trkpt>
      <trkpt lat="62.634599937773" lon="17.988209428001">
        <ele>85</ele>
        <time>2017-12-12T18:00:58Z</time>
      </trkpt>
      <trkpt lat="62.634585520905" lon="17.988209847096">
        <ele>85.2</ele>
        <time>2017-12-12T18:00:59Z</time>
      </trkpt>
      <trkpt lat="62.634562554499" lon="17.988214205684">
        <ele>85.2</ele>
        <time>2017-12-12T18:01:00Z</time>
      </trkpt>
      <trkpt lat="62.634532044383" lon="17.988223509593">
        <ele>85.4</ele>
        <time>2017-12-12T18:01:01Z</time>
      </trkpt>
      <trkpt lat="62.634518381886" lon="17.988230718027">
        <ele>85.4</ele>
        <time>2017-12-12T18:01:02Z</time>
      </trkpt>
      <trkpt lat="62.63449122453" lon="17.988237758823">
        <ele>85.4</ele>
        <time>2017-12-12T18:01:03Z</time>
      </trkpt>
      <trkpt lat="62.634474209273" lon="17.988246811275">
        <ele>85.6</ele>
        <time>2017-12-12T18:01:04Z</time>
      </trkpt>
      <trkpt lat="62.634458954215" lon="17.988246140723">
        <ele>85.6</ele>
        <time>2017-12-12T18:01:05Z</time>
      </trkpt>
      <trkpt lat="62.634430539574" lon="17.988252846243">
        <ele>85.6</ele>
        <time>2017-12-12T18:01:06Z</time>
      </trkpt>
      <trkpt lat="62.634401873476" lon="17.988243626153">
        <ele>85.8</ele>
        <time>2017-12-12T18:01:07Z</time>
      </trkpt>
      <trkpt lat="62.634386115504" lon="17.988237507366">
        <ele>85.8</ele>
        <time>2017-12-12T18:01:08Z</time>
      </trkpt>
      <trkpt lat="62.634363316736" lon="17.988230969484">
        <ele>85.8</ele>
        <time>2017-12-12T18:01:09Z</time>
      </trkpt>
      <trkpt lat="62.634329034765" lon="17.988230550389">
        <ele>86</ele>
        <time>2017-12-12T18:01:10Z</time>
      </trkpt>
      <trkpt lat="62.634309672576" lon="17.988235830986">
        <ele>86</ele>
        <time>2017-12-12T18:01:11Z</time>
      </trkpt>
      <trkpt lat="62.634272121664" lon="17.98823130476">
        <ele>86.2</ele>
        <time>2017-12-12T18:01:12Z</time>
      </trkpt>
      <trkpt lat="62.634262314841" lon="17.988228957828">
        <ele>86.2</ele>
        <time>2017-12-12T18:01:13Z</time>
      </trkpt>
      <trkpt lat="62.634237839693" lon="17.988224934516">
        <ele>86.2</ele>
        <time>2017-12-12T18:01:14Z</time>
      </trkpt>
      <trkpt lat="62.634207497215" lon="17.988218312815">
        <ele>86.4</ele>
        <time>2017-12-12T18:01:15Z</time>
      </trkpt>
      <trkpt lat="62.634192325976" lon="17.988215462969">
        <ele>86.4</ele>
        <time>2017-12-12T18:01:16Z</time>
      </trkpt>
      <trkpt lat="62.634156032349" lon="17.988194592038">
        <ele>86.4</ele>
        <time>2017-12-12T18:01:17Z</time>
      </trkpt>
      <trkpt lat="62.634117475609" lon="17.988192412744">
        <ele>86.4</ele>
        <time>2017-12-12T18:01:18Z</time>
      </trkpt>
      <trkpt lat="62.634096269402" lon="17.988188640889">
        <ele>86.4</ele>
        <time>2017-12-12T18:01:19Z</time>
      </trkpt>
      <trkpt lat="62.634057209748" lon="17.98817346965">
        <ele>86.6</ele>
        <time>2017-12-12T18:01:20Z</time>
      </trkpt>
      <trkpt lat="62.63403105822" lon="17.988165674483">
        <ele>86.6</ele>
        <time>2017-12-12T18:01:21Z</time>
      </trkpt>
      <trkpt lat="62.634014210601" lon="17.988154694194">
        <ele>86.6</ele>
        <time>2017-12-12T18:01:22Z</time>
      </trkpt>
      <trkpt lat="62.633983784304" lon="17.988130554322">
        <ele>86.6</ele>
        <time>2017-12-12T18:01:23Z</time>
      </trkpt>
      <trkpt lat="62.633958303328" lon="17.988106749726">
        <ele>86.6</ele>
        <time>2017-12-12T18:01:24Z</time>
      </trkpt>
      <trkpt lat="62.63393801913" lon="17.988088896279">
        <ele>86.8</ele>
        <time>2017-12-12T18:01:25Z</time>
      </trkpt>
      <trkpt lat="62.633907425195" lon="17.988066684244">
        <ele>86.8</ele>
        <time>2017-12-12T18:01:26Z</time>
      </trkpt>
      <trkpt lat="62.633885380798" lon="17.988037850508">
        <ele>86.8</ele>
        <time>2017-12-12T18:01:27Z</time>
      </trkpt>
      <trkpt lat="62.633865599514" lon="17.988041287087">
        <ele>86.8</ele>
        <time>2017-12-12T18:01:28Z</time>
      </trkpt>
      <trkpt lat="62.633836095226" lon="17.988020248518">
        <ele>87</ele>
        <time>2017-12-12T18:01:29Z</time>
      </trkpt>
      <trkpt lat="62.633805501291" lon="17.98799577337">
        <ele>87</ele>
        <time>2017-12-12T18:01:30Z</time>
      </trkpt>
      <trkpt lat="62.633791252061" lon="17.987979931579">
        <ele>87</ele>
        <time>2017-12-12T18:01:31Z</time>
      </trkpt>
      <trkpt lat="62.633764094705" lon="17.987949421463">
        <ele>87</ele>
        <time>2017-12-12T18:01:32Z</time>
      </trkpt>
      <trkpt lat="62.633748504371" lon="17.987933914948">
        <ele>87</ele>
        <time>2017-12-12T18:01:33Z</time>
      </trkpt>
      <trkpt lat="62.633732578761" lon="17.987920587727">
        <ele>87</ele>
        <time>2017-12-12T18:01:34Z</time>
      </trkpt>
      <trkpt lat="62.63370835507" lon="17.987889909973">
        <ele>87</ele>
        <time>2017-12-12T18:01:35Z</time>
      </trkpt>
      <trkpt lat="62.633679353696" lon="17.987865099549">
        <ele>87</ele>
        <time>2017-12-12T18:01:36Z</time>
      </trkpt>
      <trkpt lat="62.633661248792" lon="17.987845569722">
        <ele>87.2</ele>
        <time>2017-12-12T18:01:37Z</time>
      </trkpt>
      <trkpt lat="62.633644065897" lon="17.987824028239">
        <ele>87.2</ele>
        <time>2017-12-12T18:01:38Z</time>
      </trkpt>
      <trkpt lat="62.633622775871" lon="17.987797038521">
        <ele>87.4</ele>
        <time>2017-12-12T18:01:39Z</time>
      </trkpt>
      <trkpt lat="62.63360441951" lon="17.987776419047">
        <ele>87.6</ele>
        <time>2017-12-12T18:01:40Z</time>
      </trkpt>
      <trkpt lat="62.633598216904" lon="17.987767115138">
        <ele>87.6</ele>
        <time>2017-12-12T18:01:41Z</time>
      </trkpt>
      <trkpt lat="62.633579860543" lon="17.987734174271">
        <ele>87.8</ele>
        <time>2017-12-12T18:01:42Z</time>
      </trkpt>
      <trkpt lat="62.633561504182" lon="17.987714560625">
        <ele>88</ele>
        <time>2017-12-12T18:01:43Z</time>
      </trkpt>
      <trkpt lat="62.633542561088" lon="17.987695952807">
        <ele>88.2</ele>
        <time>2017-12-12T18:01:44Z</time>
      </trkpt>
      <trkpt lat="62.633520432872" lon="17.987674411324">
        <ele>88.4</ele>
        <time>2017-12-12T18:01:45Z</time>
      </trkpt>
      <trkpt lat="62.633491766774" lon="17.987642727742">
        <ele>88.4</ele>
        <time>2017-12-12T18:01:46Z</time>
      </trkpt>
      <trkpt lat="62.633484139245" lon="17.98761858787">
        <ele>88.6</ele>
        <time>2017-12-12T18:01:47Z</time>
      </trkpt>
      <trkpt lat="62.633465363789" lon="17.987590676143">
        <ele>88.8</ele>
        <time>2017-12-12T18:01:48Z</time>
      </trkpt>
      <trkpt lat="62.633442229745" lon="17.987562093864">
        <ele>88.8</ele>
        <time>2017-12-12T18:01:49Z</time>
      </trkpt>
      <trkpt lat="62.633424124841" lon="17.987534936508">
        <ele>88.8</ele>
        <time>2017-12-12T18:01:50Z</time>
      </trkpt>
      <trkpt lat="62.633409875611" lon="17.987505264582">
        <ele>88.8</ele>
        <time>2017-12-12T18:01:51Z</time>
      </trkpt>
      <trkpt lat="62.633394117639" lon="17.987480621796">
        <ele>88.8</ele>
        <time>2017-12-12T18:01:52Z</time>
      </trkpt>
      <trkpt lat="62.633379700771" lon="17.987451620422">
        <ele>89</ele>
        <time>2017-12-12T18:01:53Z</time>
      </trkpt>
      <trkpt lat="62.633366457369" lon="17.98743334788">
        <ele>89</ele>
        <time>2017-12-12T18:01:54Z</time>
      </trkpt>
      <trkpt lat="62.63334038966" lon="17.987379787539">
        <ele>89.2</ele>
        <time>2017-12-12T18:01:55Z</time>
      </trkpt>
      <trkpt lat="62.633313735218" lon="17.987335195831">
        <ele>89.2</ele>
        <time>2017-12-12T18:01:56Z</time>
      </trkpt>
      <trkpt lat="62.63329345102" lon="17.98727660635">
        <ele>89.4</ele>
        <time>2017-12-12T18:01:57Z</time>
      </trkpt>
      <trkpt lat="62.633265539293" lon="17.987232266099">
        <ele>89.6</ele>
        <time>2017-12-12T18:01:58Z</time>
      </trkpt>
      <trkpt lat="62.633246177104" lon="17.987136377163">
        <ele>89.8</ele>
        <time>2017-12-12T18:01:59Z</time>
      </trkpt>
      <trkpt lat="62.633225892906" lon="17.987037051648">
        <ele>89.6</ele>
        <time>2017-12-12T18:02:00Z</time>
      </trkpt>
      <trkpt lat="62.633212314228" lon="17.986941665626">
        <ele>89</ele>
        <time>2017-12-12T18:02:01Z</time>
      </trkpt>
      <trkpt lat="62.633200747206" lon="17.986854912961">
        <ele>88.4</ele>
        <time>2017-12-12T18:02:02Z</time>
      </trkpt>
      <trkpt lat="62.633190018374" lon="17.986772183608">
        <ele>87.6</ele>
        <time>2017-12-12T18:02:03Z</time>
      </trkpt>
      <trkpt lat="62.63317023709" lon="17.986666236392">
        <ele>87</ele>
        <time>2017-12-12T18:02:04Z</time>
      </trkpt>
      <trkpt lat="62.633159005344" lon="17.986603455961">
        <ele>86.6</ele>
        <time>2017-12-12T18:02:05Z</time>
      </trkpt>
      <trkpt lat="62.633142912096" lon="17.986504465722">
        <ele>86.6</ele>
        <time>2017-12-12T18:02:06Z</time>
      </trkpt>
      <trkpt lat="62.633138721146" lon="17.986419892351">
        <ele>86.6</ele>
        <time>2017-12-12T18:02:07Z</time>
      </trkpt>
      <trkpt lat="62.633129836332" lon="17.986357866291">
        <ele>86.8</ele>
        <time>2017-12-12T18:02:08Z</time>
      </trkpt>
      <trkpt lat="62.633131428893" lon="17.986248314858">
        <ele>86.8</ele>
        <time>2017-12-12T18:02:09Z</time>
      </trkpt>
      <trkpt lat="62.633112318161" lon="17.986150162809">
        <ele>87.2</ele>
        <time>2017-12-12T18:02:10Z</time>
      </trkpt>
      <trkpt lat="62.633118688405" lon="17.986049244733">
        <ele>87.4</ele>
        <time>2017-12-12T18:02:11Z</time>
      </trkpt>
      <trkpt lat="62.633117514939" lon="17.985944554802">
        <ele>87.4</ele>
        <time>2017-12-12T18:02:12Z</time>
      </trkpt>
      <trkpt lat="62.63311994569" lon="17.985846821848">
        <ele>87.2</ele>
        <time>2017-12-12T18:02:13Z</time>
      </trkpt>
      <trkpt lat="62.633126148296" lon="17.985746239048">
        <ele>87</ele>
        <time>2017-12-12T18:02:14Z</time>
      </trkpt>
      <trkpt lat="62.633131261255" lon="17.985648422275">
        <ele>86.6</ele>
        <time>2017-12-12T18:02:15Z</time>
      </trkpt>
      <trkpt lat="62.633139140241" lon="17.98557256608">
        <ele>86.2</ele>
        <time>2017-12-12T18:02:16Z</time>
      </trkpt>
      <trkpt lat="62.633142073906" lon="17.985469636348">
        <ele>85.6</ele>
        <time>2017-12-12T18:02:17Z</time>
      </trkpt>
      <trkpt lat="62.633135200748" lon="17.9853864879">
        <ele>85.2</ele>
        <time>2017-12-12T18:02:18Z</time>
      </trkpt>
      <trkpt lat="62.633148527969" lon="17.985254640613">
        <ele>84.8</ele>
        <time>2017-12-12T18:02:19Z</time>
      </trkpt>
      <trkpt lat="62.633160514086" lon="17.985132348692">
        <ele>84.4</ele>
        <time>2017-12-12T18:02:20Z</time>
      </trkpt>
      <trkpt lat="62.633175685325" lon="17.985012236065">
        <ele>84</ele>
        <time>2017-12-12T18:02:21Z</time>
      </trkpt>
      <trkpt lat="62.633195634247" lon="17.984904109555">
        <ele>83.4</ele>
        <time>2017-12-12T18:02:22Z</time>
      </trkpt>
      <trkpt lat="62.63320879383" lon="17.98481819508">
        <ele>82.6</ele>
        <time>2017-12-12T18:02:23Z</time>
      </trkpt>
      <trkpt lat="62.633231844055" lon="17.984726413275">
        <ele>81.8</ele>
        <time>2017-12-12T18:02:24Z</time>
      </trkpt>
      <trkpt lat="62.633252798805" lon="17.984630021425">
        <ele>81.2</ele>
        <time>2017-12-12T18:02:25Z</time>
      </trkpt>
      <trkpt lat="62.633270400795" lon="17.984580232939">
        <ele>80.8</ele>
        <time>2017-12-12T18:02:26Z</time>
      </trkpt>
      <trkpt lat="62.633281883998" lon="17.984514015929">
        <ele>81</ele>
        <time>2017-12-12T18:02:27Z</time>
      </trkpt>
      <trkpt lat="62.633293534839" lon="17.984430280748">
        <ele>81.2</ele>
        <time>2017-12-12T18:02:28Z</time>
      </trkpt>
      <trkpt lat="62.633308370802" lon="17.984337828391">
        <ele>81.4</ele>
        <time>2017-12-12T18:02:29Z</time>
      </trkpt>
      <trkpt lat="62.633313483761" lon="17.984251662459">
        <ele>81.6</ele>
        <time>2017-12-12T18:02:30Z</time>
      </trkpt>
      <trkpt lat="62.633321278928" lon="17.984192318607">
        <ele>82</ele>
        <time>2017-12-12T18:02:31Z</time>
      </trkpt>
      <trkpt lat="62.633337372176" lon="17.9841040572">
        <ele>82.2</ele>
        <time>2017-12-12T18:02:32Z</time>
      </trkpt>
      <trkpt lat="62.633346676085" lon="17.984062650614">
        <ele>82.2</ele>
        <time>2017-12-12T18:02:33Z</time>
      </trkpt>
      <trkpt lat="62.633343407144" lon="17.983985788591">
        <ele>82.2</ele>
        <time>2017-12-12T18:02:34Z</time>
      </trkpt>
      <trkpt lat="62.633336450167" lon="17.983916973192">
        <ele>82.4</ele>
        <time>2017-12-12T18:02:35Z</time>
      </trkpt>
      <trkpt lat="62.633345502619" lon="17.983858299892">
        <ele>82.2</ele>
        <time>2017-12-12T18:02:36Z</time>
      </trkpt>
      <trkpt lat="62.633353130148" lon="17.983784287715">
        <ele>82.4</ele>
        <time>2017-12-12T18:02:37Z</time>
      </trkpt>
      <trkpt lat="62.633355896175" lon="17.983730056822">
        <ele>82.4</ele>
        <time>2017-12-12T18:02:38Z</time>
      </trkpt>
      <trkpt lat="62.633360170944" lon="17.983661744337">
        <ele>82.4</ele>
        <time>2017-12-12T18:02:39Z</time>
      </trkpt>
      <trkpt lat="62.633365283903" lon="17.983584630857">
        <ele>82.6</ele>
        <time>2017-12-12T18:02:40Z</time>
      </trkpt>
      <trkpt lat="62.633379281676" lon="17.98352151515">
        <ele>82.4</ele>
        <time>2017-12-12T18:02:41Z</time>
      </trkpt>
      <trkpt lat="62.633382969712" lon="17.983460578737">
        <ele>82.4</ele>
        <time>2017-12-12T18:02:42Z</time>
      </trkpt>
      <trkpt lat="62.63339487201" lon="17.983408024224">
        <ele>82.4</ele>
        <time>2017-12-12T18:02:43Z</time>
      </trkpt>
      <trkpt lat="62.633408953602" lon="17.983341136662">
        <ele>82.4</ele>
        <time>2017-12-12T18:02:44Z</time>
      </trkpt>
      <trkpt lat="62.633407193403" lon="17.983273159453">
        <ele>82.4</ele>
        <time>2017-12-12T18:02:45Z</time>
      </trkpt>
      <trkpt lat="62.633423035194" lon="17.983207864452">
        <ele>82.6</ele>
        <time>2017-12-12T18:02:46Z</time>
      </trkpt>
      <trkpt lat="62.633437116786" lon="17.983157824509">
        <ele>82.6</ele>
        <time>2017-12-12T18:02:47Z</time>
      </trkpt>
      <trkpt lat="62.633450863102" lon="17.983091188404">
        <ele>82.6</ele>
        <time>2017-12-12T18:02:48Z</time>
      </trkpt>
      <trkpt lat="62.633482798141" lon="17.983025390489">
        <ele>82.6</ele>
        <time>2017-12-12T18:02:49Z</time>
      </trkpt>
      <trkpt lat="62.633496879733" lon="17.982968812664">
        <ele>82.6</ele>
        <time>2017-12-12T18:02:50Z</time>
      </trkpt>
      <trkpt lat="62.633505261633" lon="17.982912821572">
        <ele>82.6</ele>
        <time>2017-12-12T18:02:51Z</time>
      </trkpt>
      <trkpt lat="62.633520684329" lon="17.982864206552">
        <ele>82.6</ele>
        <time>2017-12-12T18:02:52Z</time>
      </trkpt>
      <trkpt lat="62.633535855568" lon="17.982822045595">
        <ele>82.6</ele>
        <time>2017-12-12T18:02:53Z</time>
      </trkpt>
      <trkpt lat="62.633544321287" lon="17.982753481653">
        <ele>82.6</ele>
        <time>2017-12-12T18:02:54Z</time>
      </trkpt>
      <trkpt lat="62.633560414535" lon="17.982694053982">
        <ele>82.6</ele>
        <time>2017-12-12T18:02:55Z</time>
      </trkpt>
      <trkpt lat="62.633572316833" lon="17.982617694873">
        <ele>82.6</ele>
        <time>2017-12-12T18:02:56Z</time>
      </trkpt>
      <trkpt lat="62.633574412308" lon="17.982561619962">
        <ele>82.6</ele>
        <time>2017-12-12T18:02:57Z</time>
      </trkpt>
      <trkpt lat="62.633580698733" lon="17.982498839531">
        <ele>82.6</ele>
        <time>2017-12-12T18:02:58Z</time>
      </trkpt>
      <trkpt lat="62.633594864144" lon="17.982449051045">
        <ele>82.8</ele>
        <time>2017-12-12T18:02:59Z</time>
      </trkpt>
      <trkpt lat="62.633611627944" lon="17.982383085492">
        <ele>82.8</ele>
        <time>2017-12-12T18:03:00Z</time>
      </trkpt>
      <trkpt lat="62.633620428939" lon="17.982336985042">
        <ele>82.8</ele>
        <time>2017-12-12T18:03:01Z</time>
      </trkpt>
      <trkpt lat="62.633634175255" lon="17.982278982294">
        <ele>82.8</ele>
        <time>2017-12-12T18:03:02Z</time>
      </trkpt>
      <trkpt lat="62.63364213806" lon="17.982231456921">
        <ele>82.8</ele>
        <time>2017-12-12T18:03:03Z</time>
      </trkpt>
      <trkpt lat="62.633650100865" lon="17.982176723114">
        <ele>82.8</ele>
        <time>2017-12-12T18:03:04Z</time>
      </trkpt>
      <trkpt lat="62.633649933227" lon="17.982103046213">
        <ele>82.8</ele>
        <time>2017-12-12T18:03:05Z</time>
      </trkpt>
      <trkpt lat="62.633647921571" lon="17.982050826976">
        <ele>82.6</ele>
        <time>2017-12-12T18:03:06Z</time>
      </trkpt>
      <trkpt lat="62.63365638729" lon="17.981991734581">
        <ele>82.6</ele>
        <time>2017-12-12T18:03:07Z</time>
      </trkpt>
      <trkpt lat="62.633663931" lon="17.981935240575">
        <ele>82.6</ele>
        <time>2017-12-12T18:03:08Z</time>
      </trkpt>
      <trkpt lat="62.633675498022" lon="17.981892325247">
        <ele>82.8</ele>
        <time>2017-12-12T18:03:09Z</time>
      </trkpt>
      <trkpt lat="62.633678012592" lon="17.981827700798">
        <ele>82.8</ele>
        <time>2017-12-12T18:03:10Z</time>
      </trkpt>
      <trkpt lat="62.633679186058" lon="17.981788892601">
        <ele>83</ele>
        <time>2017-12-12T18:03:11Z</time>
      </trkpt>
      <trkpt lat="62.633686645949" lon="17.981709432189">
        <ele>83</ele>
        <time>2017-12-12T18:03:12Z</time>
      </trkpt>
      <trkpt lat="62.633685221026" lon="17.981671462182">
        <ele>83</ele>
        <time>2017-12-12T18:03:13Z</time>
      </trkpt>
      <trkpt lat="62.633700140808" lon="17.981589822476">
        <ele>83</ele>
        <time>2017-12-12T18:03:14Z</time>
      </trkpt>
      <trkpt lat="62.633699302618" lon="17.981532322642">
        <ele>83</ele>
        <time>2017-12-12T18:03:15Z</time>
      </trkpt>
      <trkpt lat="62.633703493568" lon="17.981477756473">
        <ele>83</ele>
        <time>2017-12-12T18:03:16Z</time>
      </trkpt>
      <trkpt lat="62.633691255994" lon="17.981407180875">
        <ele>83</ele>
        <time>2017-12-12T18:03:17Z</time>
      </trkpt>
      <trkpt lat="62.633696452772" lon="17.981361918615">
        <ele>83</ele>
        <time>2017-12-12T18:03:18Z</time>
      </trkpt>
      <trkpt lat="62.633701565731" lon="17.98128606242">
        <ele>83</ele>
        <time>2017-12-12T18:03:19Z</time>
      </trkpt>
      <trkpt lat="62.633713803305" lon="17.981245913119">
        <ele>83</ele>
        <time>2017-12-12T18:03:20Z</time>
      </trkpt>
      <trkpt lat="62.633737104987" lon="17.981173325865">
        <ele>83</ele>
        <time>2017-12-12T18:03:21Z</time>
      </trkpt>
      <trkpt lat="62.633745486887" lon="17.981140971731">
        <ele>83</ele>
        <time>2017-12-12T18:03:22Z</time>
      </trkpt>
      <trkpt lat="62.633757892099" lon="17.981116999497">
        <ele>83.2</ele>
        <time>2017-12-12T18:03:23Z</time>
      </trkpt>
      <trkpt lat="62.633783373075" lon="17.981054973437">
        <ele>83.2</ele>
        <time>2017-12-12T18:03:24Z</time>
      </trkpt>
      <trkpt lat="62.633809105508" lon="17.981004765856">
        <ele>83.2</ele>
        <time>2017-12-12T18:03:25Z</time>
      </trkpt>
      <trkpt lat="62.633825617851" lon="17.980968723686">
        <ele>83.2</ele>
        <time>2017-12-12T18:03:26Z</time>
      </trkpt>
      <trkpt lat="62.633837101054" lon="17.980935615181">
        <ele>83.2</ele>
        <time>2017-12-12T18:03:27Z</time>
      </trkpt>
      <trkpt lat="62.633859061632" lon="17.980874678768">
        <ele>83.4</ele>
        <time>2017-12-12T18:03:28Z</time>
      </trkpt>
      <trkpt lat="62.633876328346" lon="17.980826818119">
        <ele>83.6</ele>
        <time>2017-12-12T18:03:29Z</time>
      </trkpt>
      <trkpt lat="62.633889823205" lon="17.980790356854">
        <ele>83.6</ele>
        <time>2017-12-12T18:03:30Z</time>
      </trkpt>
      <trkpt lat="62.633915639457" lon="17.980740233092">
        <ele>83.6</ele>
        <time>2017-12-12T18:03:31Z</time>
      </trkpt>
      <trkpt lat="62.633928044669" lon="17.980682733258">
        <ele>83.8</ele>
        <time>2017-12-12T18:03:32Z</time>
      </trkpt>
      <trkpt lat="62.633941623347" lon="17.980649624753">
        <ele>84</ele>
        <time>2017-12-12T18:03:33Z</time>
      </trkpt>
      <trkpt lat="62.633965092667" lon="17.980578797698">
        <ele>83.8</ele>
        <time>2017-12-12T18:03:34Z</time>
      </trkpt>
      <trkpt lat="62.633979425716" lon="17.980526829918">
        <ele>83.8</ele>
        <time>2017-12-12T18:03:35Z</time>
      </trkpt>
      <trkpt lat="62.633993004394" lon="17.980483998409">
        <ele>84</ele>
        <time>2017-12-12T18:03:36Z</time>
      </trkpt>
      <trkpt lat="62.63401764718" lon="17.980420295969">
        <ele>84</ele>
        <time>2017-12-12T18:03:37Z</time>
      </trkpt>
      <trkpt lat="62.63403357279" lon="17.980373692605">
        <ele>84</ele>
        <time>2017-12-12T18:03:38Z</time>
      </trkpt>
      <trkpt lat="62.634041787052" lon="17.980335471141">
        <ele>84</ele>
        <time>2017-12-12T18:03:39Z</time>
      </trkpt>
      <trkpt lat="62.634067687123" lon="17.980272271615">
        <ele>84</ele>
        <time>2017-12-12T18:03:40Z</time>
      </trkpt>
      <trkpt lat="62.634086462579" lon="17.980225835889">
        <ele>84</ele>
        <time>2017-12-12T18:03:41Z</time>
      </trkpt>
      <trkpt lat="62.634108423157" lon="17.980202115112">
        <ele>84</ele>
        <time>2017-12-12T18:03:42Z</time>
      </trkpt>
      <trkpt lat="62.634131473382" lon="17.980159283603">
        <ele>84</ele>
        <time>2017-12-12T18:03:43Z</time>
      </trkpt>
      <trkpt lat="62.634154942702" lon="17.980112680239">
        <ele>84</ele>
        <time>2017-12-12T18:03:44Z</time>
      </trkpt>
      <trkpt lat="62.634181010411" lon="17.980065490142">
        <ele>84</ele>
        <time>2017-12-12T18:03:45Z</time>
      </trkpt>
      <trkpt lat="62.634201043152" lon="17.980027017221">
        <ele>84</ele>
        <time>2017-12-12T18:03:46Z</time>
      </trkpt>
      <trkpt lat="62.634221411169" lon="17.979977396373">
        <ele>84.2</ele>
        <time>2017-12-12T18:03:47Z</time>
      </trkpt>
      <trkpt lat="62.634232726734" lon="17.97992232729">
        <ele>84.2</ele>
        <time>2017-12-12T18:03:48Z</time>
      </trkpt>
      <trkpt lat="62.634251753647" lon="17.979875472469">
        <ele>84.2</ele>
        <time>2017-12-12T18:03:49Z</time>
      </trkpt>
      <trkpt lat="62.634271702569" lon="17.97980078974">
        <ele>84.2</ele>
        <time>2017-12-12T18:03:50Z</time>
      </trkpt>
      <trkpt lat="62.634274720053" lon="17.979749492512">
        <ele>84.4</ele>
        <time>2017-12-12T18:03:51Z</time>
      </trkpt>
      <trkpt lat="62.634285281247" lon="17.979688220823">
        <ele>84.4</ele>
        <time>2017-12-12T18:03:52Z</time>
      </trkpt>
      <trkpt lat="62.634297518821" lon="17.979630972446">
        <ele>84.2</ele>
        <time>2017-12-12T18:03:53Z</time>
      </trkpt>
      <trkpt lat="62.634318976485" lon="17.979582525064">
        <ele>84.2</ele>
        <time>2017-12-12T18:03:54Z</time>
      </trkpt>
      <trkpt lat="62.634335656466" lon="17.979527120705">
        <ele>84.4</ele>
        <time>2017-12-12T18:03:55Z</time>
      </trkpt>
      <trkpt lat="62.634335488828" lon="17.979476913124">
        <ele>84.2</ele>
        <time>2017-12-12T18:03:56Z</time>
      </trkpt>
      <trkpt lat="62.634347726402" lon="17.979419329471">
        <ele>84</ele>
        <time>2017-12-12T18:03:57Z</time>
      </trkpt>
      <trkpt lat="62.634351665895" lon="17.979360572352">
        <ele>84</ele>
        <time>2017-12-12T18:03:58Z</time>
      </trkpt>
      <trkpt lat="62.634363149098" lon="17.979290667306">
        <ele>84</ele>
        <time>2017-12-12T18:03:59Z</time>
      </trkpt>
      <trkpt lat="62.634377314509" lon="17.979242303743">
        <ele>83.8</ele>
        <time>2017-12-12T18:04:00Z</time>
      </trkpt>
      <trkpt lat="62.634392150472" lon="17.979186228832">
        <ele>83.8</ele>
        <time>2017-12-12T18:04:01Z</time>
      </trkpt>
      <trkpt lat="62.6343931563" lon="17.979142559133">
        <ele>83.8</ele>
        <time>2017-12-12T18:04:02Z</time>
      </trkpt>
      <trkpt lat="62.634418050543" lon="17.979091681">
        <ele>83.8</ele>
        <time>2017-12-12T18:04:03Z</time>
      </trkpt>
      <trkpt lat="62.634426767719" lon="17.979025380171">
        <ele>83.8</ele>
        <time>2017-12-12T18:04:04Z</time>
      </trkpt>
      <trkpt lat="62.634430623393" lon="17.978985398508">
        <ele>83.8</ele>
        <time>2017-12-12T18:04:05Z</time>
      </trkpt>
      <trkpt lat="62.634447219555" lon="17.978921025516">
        <ele>83.8</ele>
        <time>2017-12-12T18:04:06Z</time>
      </trkpt>
      <trkpt lat="62.634460043862" lon="17.978849779366">
        <ele>83.6</ele>
        <time>2017-12-12T18:04:07Z</time>
      </trkpt>
      <trkpt lat="62.634464821545" lon="17.978803092183">
        <ele>84</ele>
        <time>2017-12-12T18:04:08Z</time>
      </trkpt>
      <trkpt lat="62.634484435191" lon="17.978732265128">
        <ele>84</ele>
        <time>2017-12-12T18:04:09Z</time>
      </trkpt>
      <trkpt lat="62.634488626141" lon="17.978695552406">
        <ele>84</ele>
        <time>2017-12-12T18:04:10Z</time>
      </trkpt>
      <trkpt lat="62.634499271154" lon="17.9786390584">
        <ele>84</ele>
        <time>2017-12-12T18:04:11Z</time>
      </trkpt>
      <trkpt lat="62.634502707733" lon="17.978562531653">
        <ele>84</ele>
        <time>2017-12-12T18:04:12Z</time>
      </trkpt>
      <trkpt lat="62.634507066321" lon="17.97851752085">
        <ele>84</ele>
        <time>2017-12-12T18:04:13Z</time>
      </trkpt>
      <trkpt lat="62.634526177053" lon="17.978430935823">
        <ele>84</ele>
        <time>2017-12-12T18:04:14Z</time>
      </trkpt>
      <trkpt lat="62.634530451822" lon="17.978379806233">
        <ele>83.8</ele>
        <time>2017-12-12T18:04:15Z</time>
      </trkpt>
      <trkpt lat="62.634545455423" lon="17.978304201495">
        <ele>84</ele>
        <time>2017-12-12T18:04:16Z</time>
      </trkpt>
      <trkpt lat="62.634554591694" lon="17.978231865698">
        <ele>83.8</ele>
        <time>2017-12-12T18:04:17Z</time>
      </trkpt>
      <trkpt lat="62.634560542843" lon="17.978162631204">
        <ele>83.8</ele>
        <time>2017-12-12T18:04:18Z</time>
      </trkpt>
      <trkpt lat="62.634577893376" lon="17.97806489825">
        <ele>83.6</ele>
        <time>2017-12-12T18:04:19Z</time>
      </trkpt>
      <trkpt lat="62.634576636091" lon="17.978011589366">
        <ele>83.4</ele>
        <time>2017-12-12T18:04:20Z</time>
      </trkpt>
      <trkpt lat="62.634596668832" lon="17.977919556104">
        <ele>83.4</ele>
        <time>2017-12-12T18:04:21Z</time>
      </trkpt>
      <trkpt lat="62.6346027038" lon="17.977861385718">
        <ele>83</ele>
        <time>2017-12-12T18:04:22Z</time>
      </trkpt>
      <trkpt lat="62.634615611926" lon="17.977800449305">
        <ele>82.8</ele>
        <time>2017-12-12T18:04:23Z</time>
      </trkpt>
      <trkpt lat="62.634622568903" lon="17.977729706069">
        <ele>82.8</ele>
        <time>2017-12-12T18:04:24Z</time>
      </trkpt>
      <trkpt lat="62.634620389609" lon="17.977669021113">
        <ele>82.6</ele>
        <time>2017-12-12T18:04:25Z</time>
      </trkpt>
      <trkpt lat="62.634637656323" lon="17.977587632864">
        <ele>82.6</ele>
        <time>2017-12-12T18:04:26Z</time>
      </trkpt>
      <trkpt lat="62.634649055707" lon="17.977523678967">
        <ele>82.4</ele>
        <time>2017-12-12T18:04:27Z</time>
      </trkpt>
      <trkpt lat="62.634659365444" lon="17.977463580744">
        <ele>82.4</ele>
        <time>2017-12-12T18:04:28Z</time>
      </trkpt>
      <trkpt lat="62.63466556805" lon="17.977390406757">
        <ele>82.2</ele>
        <time>2017-12-12T18:04:29Z</time>
      </trkpt>
      <trkpt lat="62.634678643814" lon="17.977335589131">
        <ele>82.2</ele>
        <time>2017-12-12T18:04:30Z</time>
      </trkpt>
      <trkpt lat="62.634695323795" lon="17.977279933315">
        <ele>82</ele>
        <time>2017-12-12T18:04:31Z</time>
      </trkpt>
      <trkpt lat="62.634708567197" lon="17.977232491761">
        <ele>82</ele>
        <time>2017-12-12T18:04:32Z</time>
      </trkpt>
      <trkpt lat="62.63472088859" lon="17.977177087402">
        <ele>82</ele>
        <time>2017-12-12T18:04:33Z</time>
      </trkpt>
      <trkpt lat="62.63473178506" lon="17.977126209269">
        <ele>82</ele>
        <time>2017-12-12T18:04:34Z</time>
      </trkpt>
      <trkpt lat="62.634748297403" lon="17.977050772169">
        <ele>82.2</ele>
        <time>2017-12-12T18:04:35Z</time>
      </trkpt>
      <trkpt lat="62.634769335972" lon="17.976979106924">
        <ele>82.2</ele>
        <time>2017-12-12T18:04:36Z</time>
      </trkpt>
      <trkpt lat="62.634781992641" lon="17.976918086692">
        <ele>82.2</ele>
        <time>2017-12-12T18:04:37Z</time>
      </trkpt>
      <trkpt lat="62.634785680677" lon="17.97685539008">
        <ele>82.2</ele>
        <time>2017-12-12T18:04:38Z</time>
      </trkpt>
      <trkpt lat="62.634792218559" lon="17.976803003205">
        <ele>82.2</ele>
        <time>2017-12-12T18:04:39Z</time>
      </trkpt>
      <trkpt lat="62.634804037038" lon="17.976719100386">
        <ele>82</ele>
        <time>2017-12-12T18:04:40Z</time>
      </trkpt>
      <trkpt lat="62.634808144169" lon="17.976659002163">
        <ele>82</ele>
        <time>2017-12-12T18:04:41Z</time>
      </trkpt>
      <trkpt lat="62.634824321236" lon="17.976585241443">
        <ele>81.8</ele>
        <time>2017-12-12T18:04:42Z</time>
      </trkpt>
      <trkpt lat="62.634833708964" lon="17.976522712469">
        <ele>81.8</ele>
        <time>2017-12-12T18:04:43Z</time>
      </trkpt>
      <trkpt lat="62.634847287642" lon="17.976467391929">
        <ele>81.8</ele>
        <time>2017-12-12T18:04:44Z</time>
      </trkpt>
      <trkpt lat="62.634864135261" lon="17.976396732512">
        <ele>81.8</ele>
        <time>2017-12-12T18:04:45Z</time>
      </trkpt>
      <trkpt lat="62.634875869921" lon="17.976334119719">
        <ele>81.6</ele>
        <time>2017-12-12T18:04:46Z</time>
      </trkpt>
      <trkpt lat="62.634896405576" lon="17.976267148338">
        <ele>81.6</ele>
        <time>2017-12-12T18:04:47Z</time>
      </trkpt>
      <trkpt lat="62.634915851584" lon="17.976206547201">
        <ele>81.6</ele>
        <time>2017-12-12T18:04:48Z</time>
      </trkpt>
      <trkpt lat="62.634938398895" lon="17.976144185865">
        <ele>81.4</ele>
        <time>2017-12-12T18:04:49Z</time>
      </trkpt>
      <trkpt lat="62.634957174351" lon="17.976058774304">
        <ele>81.2</ele>
        <time>2017-12-12T18:04:50Z</time>
      </trkpt>
      <trkpt lat="62.634981649499" lon="17.976012757673">
        <ele>81.2</ele>
        <time>2017-12-12T18:04:51Z</time>
      </trkpt>
      <trkpt lat="62.634999335308" lon="17.975921059687">
        <ele>81.2</ele>
        <time>2017-12-12T18:04:52Z</time>
      </trkpt>
      <trkpt lat="62.635000424955" lon="17.975860542369">
        <ele>81</ele>
        <time>2017-12-12T18:04:53Z</time>
      </trkpt>
      <trkpt lat="62.635020457696" lon="17.975776220455">
        <ele>80.8</ele>
        <time>2017-12-12T18:04:54Z</time>
      </trkpt>
      <trkpt lat="62.635025738293" lon="17.975696340948">
        <ele>80.6</ele>
        <time>2017-12-12T18:04:55Z</time>
      </trkpt>
      <trkpt lat="62.635030851252" lon="17.975643451159">
        <ele>80.6</ele>
        <time>2017-12-12T18:04:56Z</time>
      </trkpt>
      <trkpt lat="62.635049542889" lon="17.975575138674">
        <ele>80.4</ele>
        <time>2017-12-12T18:04:57Z</time>
      </trkpt>
      <trkpt lat="62.635057338056" lon="17.975517471202">
        <ele>80.4</ele>
        <time>2017-12-12T18:04:58Z</time>
      </trkpt>
      <trkpt lat="62.635074185675" lon="17.975460725739">
        <ele>80.4</ele>
        <time>2017-12-12T18:04:59Z</time>
      </trkpt>
      <trkpt lat="62.635085249783" lon="17.975379924223">
        <ele>80.2</ele>
        <time>2017-12-12T18:05:00Z</time>
      </trkpt>
      <trkpt lat="62.635087931991" lon="17.975303816571">
        <ele>80.2</ele>
        <time>2017-12-12T18:05:01Z</time>
      </trkpt>
      <trkpt lat="62.635093631683" lon="17.975232486602">
        <ele>80</ele>
        <time>2017-12-12T18:05:02Z</time>
      </trkpt>
      <trkpt lat="62.635089189276" lon="17.975152020362">
        <ele>80</ele>
        <time>2017-12-12T18:05:03Z</time>
      </trkpt>
      <trkpt lat="62.635081394109" lon="17.975063256041">
        <ele>79.8</ele>
        <time>2017-12-12T18:05:04Z</time>
      </trkpt>
      <trkpt lat="62.635068988897" lon="17.9750013138">
        <ele>79.8</ele>
        <time>2017-12-12T18:05:05Z</time>
      </trkpt>
      <trkpt lat="62.635043507921" lon="17.974893438747">
        <ele>79.6</ele>
        <time>2017-12-12T18:05:06Z</time>
      </trkpt>
      <trkpt lat="62.635024061913" lon="17.974814229792">
        <ele>79.6</ele>
        <time>2017-12-12T18:05:07Z</time>
      </trkpt>
      <trkpt lat="62.635030013062" lon="17.974756981415">
        <ele>79.2</ele>
        <time>2017-12-12T18:05:08Z</time>
      </trkpt>
      <trkpt lat="62.635012746348" lon="17.97469285988">
        <ele>78.8</ele>
        <time>2017-12-12T18:05:09Z</time>
      </trkpt>
      <trkpt lat="62.634987600648" lon="17.974605185206">
        <ele>78.2</ele>
        <time>2017-12-12T18:05:10Z</time>
      </trkpt>
      <trkpt lat="62.634966813536" lon="17.974537040359">
        <ele>77.6</ele>
        <time>2017-12-12T18:05:11Z</time>
      </trkpt>
      <trkpt lat="62.634944014768" lon="17.974430087315">
        <ele>77.2</ele>
        <time>2017-12-12T18:05:12Z</time>
      </trkpt>
      <trkpt lat="62.634931525737" lon="17.974371665472">
        <ele>76.8</ele>
        <time>2017-12-12T18:05:13Z</time>
      </trkpt>
      <trkpt lat="62.634918785249" lon="17.97429471963">
        <ele>76.8</ele>
        <time>2017-12-12T18:05:14Z</time>
      </trkpt>
      <trkpt lat="62.634912331186" lon="17.974230011362">
        <ele>76.6</ele>
        <time>2017-12-12T18:05:15Z</time>
      </trkpt>
      <trkpt lat="62.634911241539" lon="17.974171924795">
        <ele>76.8</ele>
        <time>2017-12-12T18:05:16Z</time>
      </trkpt>
      <trkpt lat="62.634893891006" lon="17.97410528869">
        <ele>76.8</ele>
        <time>2017-12-12T18:05:17Z</time>
      </trkpt>
      <trkpt lat="62.634881318156" lon="17.974050890159">
        <ele>76.8</ele>
        <time>2017-12-12T18:05:18Z</time>
      </trkpt>
      <trkpt lat="62.634867488021" lon="17.973989702289">
        <ele>76.8</ele>
        <time>2017-12-12T18:05:19Z</time>
      </trkpt>
      <trkpt lat="62.634846281814" lon="17.973920970709">
        <ele>76.8</ele>
        <time>2017-12-12T18:05:20Z</time>
      </trkpt>
      <trkpt lat="62.634830272385" lon="17.973855424251">
        <ele>77</ele>
        <time>2017-12-12T18:05:21Z</time>
      </trkpt>
      <trkpt lat="62.63481560406" lon="17.973814185303">
        <ele>77</ele>
        <time>2017-12-12T18:05:22Z</time>
      </trkpt>
      <trkpt lat="62.634804204676" lon="17.97374738156">
        <ele>77</ele>
        <time>2017-12-12T18:05:23Z</time>
      </trkpt>
      <trkpt lat="62.634791631826" lon="17.973678901437">
        <ele>77</ele>
        <time>2017-12-12T18:05:24Z</time>
      </trkpt>
      <trkpt lat="62.634780316261" lon="17.973617043015">
        <ele>77</ele>
        <time>2017-12-12T18:05:25Z</time>
      </trkpt>
      <trkpt lat="62.634769671248" lon="17.973555771326">
        <ele>77</ele>
        <time>2017-12-12T18:05:26Z</time>
      </trkpt>
      <trkpt lat="62.63475944533" lon="17.973496511293">
        <ele>76.8</ele>
        <time>2017-12-12T18:05:27Z</time>
      </trkpt>
      <trkpt lat="62.634754080914" lon="17.973423169668">
        <ele>76.6</ele>
        <time>2017-12-12T18:05:28Z</time>
      </trkpt>
      <trkpt lat="62.634732539431" lon="17.97337438701">
        <ele>76.4</ele>
        <time>2017-12-12T18:05:29Z</time>
      </trkpt>
      <trkpt lat="62.634728097024" lon="17.973290987105">
        <ele>76.4</ele>
        <time>2017-12-12T18:05:30Z</time>
      </trkpt>
      <trkpt lat="62.634742430073" lon="17.973203480069">
        <ele>76.2</ele>
        <time>2017-12-12T18:05:31Z</time>
      </trkpt>
      <trkpt lat="62.634743184444" lon="17.973137430697">
        <ele>76.2</ele>
        <time>2017-12-12T18:05:32Z</time>
      </trkpt>
      <trkpt lat="62.634755086742" lon="17.973044307788">
        <ele>76</ele>
        <time>2017-12-12T18:05:33Z</time>
      </trkpt>
      <trkpt lat="62.63477117999" lon="17.972984963936">
        <ele>76</ele>
        <time>2017-12-12T18:05:34Z</time>
      </trkpt>
      <trkpt lat="62.634780651537" lon="17.972913550148">
        <ele>75.8</ele>
        <time>2017-12-12T18:05:35Z</time>
      </trkpt>
      <trkpt lat="62.634790542179" lon="17.972839370333">
        <ele>75.8</ele>
        <time>2017-12-12T18:05:36Z</time>
      </trkpt>
      <trkpt lat="62.634814849689" lon="17.972784133612">
        <ele>75.6</ele>
        <time>2017-12-12T18:05:37Z</time>
      </trkpt>
      <trkpt lat="62.634835552982" lon="17.972707020132">
        <ele>75.6</ele>
        <time>2017-12-12T18:05:38Z</time>
      </trkpt>
      <trkpt lat="62.634851394773" lon="17.972664775356">
        <ele>75.4</ele>
        <time>2017-12-12T18:05:39Z</time>
      </trkpt>
      <trkpt lat="62.634870170229" lon="17.972592523378">
        <ele>75.4</ele>
        <time>2017-12-12T18:05:40Z</time>
      </trkpt>
      <trkpt lat="62.634887017848" lon="17.972536699924">
        <ele>75.4</ele>
        <time>2017-12-12T18:05:41Z</time>
      </trkpt>
      <trkpt lat="62.63491115772" lon="17.97246998">
        <ele>75.4</ele>
        <time>2017-12-12T18:05:42Z</time>
      </trkpt>
      <trkpt lat="62.634932363927" lon="17.972415162374">
        <ele>75.2</ele>
        <time>2017-12-12T18:05:43Z</time>
      </trkpt>
      <trkpt lat="62.634956252342" lon="17.972341653111">
        <ele>75.2</ele>
        <time>2017-12-12T18:05:44Z</time>
      </trkpt>
      <trkpt lat="62.634971675038" lon="17.972275855196">
        <ele>75.4</ele>
        <time>2017-12-12T18:05:45Z</time>
      </trkpt>
      <trkpt lat="62.634986762458" lon="17.972212236575">
        <ele>75.2</ele>
        <time>2017-12-12T18:05:46Z</time>
      </trkpt>
      <trkpt lat="62.635007968665" lon="17.972132692344">
        <ele>75.2</ele>
        <time>2017-12-12T18:05:47Z</time>
      </trkpt>
      <trkpt lat="62.63502850432" lon="17.972062116746">
        <ele>75</ele>
        <time>2017-12-12T18:05:48Z</time>
      </trkpt>
      <trkpt lat="62.635053147106" lon="17.971963629421">
        <ele>75</ele>
        <time>2017-12-12T18:05:49Z</time>
      </trkpt>
      <trkpt lat="62.635074520951" lon="17.971849300305">
        <ele>74.6</ele>
        <time>2017-12-12T18:05:50Z</time>
      </trkpt>
      <trkpt lat="62.635092625855" lon="17.971740167967">
        <ele>74.2</ele>
        <time>2017-12-12T18:05:51Z</time>
      </trkpt>
      <trkpt lat="62.635104192877" lon="17.971634639846">
        <ele>73.2</ele>
        <time>2017-12-12T18:05:52Z</time>
      </trkpt>
      <trkpt lat="62.635117520098" lon="17.971533637951">
        <ele>72.4</ele>
        <time>2017-12-12T18:05:53Z</time>
      </trkpt>
      <trkpt lat="62.635131936966" lon="17.971420817577">
        <ele>71.4</ele>
        <time>2017-12-12T18:05:54Z</time>
      </trkpt>
      <trkpt lat="62.635143587807" lon="17.971310930868">
        <ele>70.6</ele>
        <time>2017-12-12T18:05:55Z</time>
      </trkpt>
      <trkpt lat="62.635154484277" lon="17.971211605353">
        <ele>70.2</ele>
        <time>2017-12-12T18:05:56Z</time>
      </trkpt>
      <trkpt lat="62.635179881434" lon="17.971008931011">
        <ele>69.6</ele>
        <time>2017-12-12T18:05:58Z</time>
      </trkpt>
      <trkpt lat="62.635192370465" lon="17.970907174745">
        <ele>69.4</ele>
        <time>2017-12-12T18:05:59Z</time>
      </trkpt>
      <trkpt lat="62.63520536241" lon="17.97079862914">
        <ele>69</ele>
        <time>2017-12-12T18:06:00Z</time>
      </trkpt>
      <trkpt lat="62.635215672147" lon="17.970694442123">
        <ele>68.6</ele>
        <time>2017-12-12T18:06:01Z</time>
      </trkpt>
      <trkpt lat="62.635224808418" lon="17.970584220138">
        <ele>68.2</ele>
        <time>2017-12-12T18:06:02Z</time>
      </trkpt>
      <trkpt lat="62.635233441775" lon="17.970485313718">
        <ele>68</ele>
        <time>2017-12-12T18:06:03Z</time>
      </trkpt>
      <trkpt lat="62.635242661865" lon="17.970375007914">
        <ele>67.6</ele>
        <time>2017-12-12T18:06:04Z</time>
      </trkpt>
      <trkpt lat="62.635260012398" lon="17.97027811315">
        <ele>67.4</ele>
        <time>2017-12-12T18:06:05Z</time>
      </trkpt>
      <trkpt lat="62.635275183637" lon="17.970160515093">
        <ele>67.2</ele>
        <time>2017-12-12T18:06:06Z</time>
      </trkpt>
      <trkpt lat="62.635295803111" lon="17.970061357216">
        <ele>67</ele>
        <time>2017-12-12T18:06:07Z</time>
      </trkpt>
      <trkpt lat="62.635311896359" lon="17.969964210995">
        <ele>66.8</ele>
        <time>2017-12-12T18:06:08Z</time>
      </trkpt>
      <trkpt lat="62.635342406475" lon="17.969852144992">
        <ele>66.6</ele>
        <time>2017-12-12T18:06:09Z</time>
      </trkpt>
      <trkpt lat="62.635371156392" lon="17.969741420093">
        <ele>66.2</ele>
        <time>2017-12-12T18:06:10Z</time>
      </trkpt>
      <trkpt lat="62.635396134454" lon="17.96964276513">
        <ele>65.6</ele>
        <time>2017-12-12T18:06:11Z</time>
      </trkpt>
      <trkpt lat="62.635423878543" lon="17.969527597824">
        <ele>65</ele>
        <time>2017-12-12T18:06:12Z</time>
      </trkpt>
      <trkpt lat="62.6354408938" lon="17.969433301449">
        <ele>64.4</ele>
        <time>2017-12-12T18:06:13Z</time>
      </trkpt>
      <trkpt lat="62.635472996477" lon="17.969317295953">
        <ele>63.8</ele>
        <time>2017-12-12T18:06:14Z</time>
      </trkpt>
      <trkpt lat="62.63550208167" lon="17.969210929642">
        <ele>63</ele>
        <time>2017-12-12T18:06:15Z</time>
      </trkpt>
      <trkpt lat="62.635533262338" lon="17.969112023222">
        <ele>62.4</ele>
        <time>2017-12-12T18:06:16Z</time>
      </trkpt>
      <trkpt lat="62.635560922608" lon="17.969021247245">
        <ele>61.8</ele>
        <time>2017-12-12T18:06:17Z</time>
      </trkpt>
      <trkpt lat="62.635587157955" lon="17.968930219811">
        <ele>61.2</ele>
        <time>2017-12-12T18:06:18Z</time>
      </trkpt>
      <trkpt lat="62.635617919528" lon="17.968834247056">
        <ele>60.8</ele>
        <time>2017-12-12T18:06:19Z</time>
      </trkpt>
      <trkpt lat="62.635649435472" lon="17.968747745848">
        <ele>60.2</ele>
        <time>2017-12-12T18:06:20Z</time>
      </trkpt>
      <trkpt lat="62.635684052719" lon="17.96867549387">
        <ele>59.8</ele>
        <time>2017-12-12T18:06:21Z</time>
      </trkpt>
      <trkpt lat="62.635720094889" lon="17.968615228009">
        <ele>59.4</ele>
        <time>2017-12-12T18:06:22Z</time>
      </trkpt>
      <trkpt lat="62.635754041584" lon="17.968569462835">
        <ele>59.2</ele>
        <time>2017-12-12T18:06:23Z</time>
      </trkpt>
      <trkpt lat="62.635794023247" lon="17.968529229715">
        <ele>59</ele>
        <time>2017-12-12T18:06:24Z</time>
      </trkpt>
      <trkpt lat="62.635832160892" lon="17.968505425119">
        <ele>58.6</ele>
        <time>2017-12-12T18:06:25Z</time>
      </trkpt>
      <trkpt lat="62.635908017087" lon="17.968474076813">
        <ele>58.4</ele>
        <time>2017-12-12T18:06:27Z</time>
      </trkpt>
      <trkpt lat="62.635931570226" lon="17.968476591383">
        <ele>58.2</ele>
        <time>2017-12-12T18:06:28Z</time>
      </trkpt>
      <trkpt lat="62.635956883564" lon="17.968483799817">
        <ele>54.2</ele>
        <time>2017-12-12T18:06:29Z</time>
      </trkpt>
      <trkpt lat="62.635982113083" lon="17.968481536704">
        <ele>54.2</ele>
        <time>2017-12-12T18:06:30Z</time>
      </trkpt>
      <trkpt lat="62.636019999271" lon="17.968480949971">
        <ele>54.4</ele>
        <time>2017-12-12T18:06:31Z</time>
      </trkpt>
      <trkpt lat="62.636047994817" lon="17.968487906948">
        <ele>54.6</ele>
        <time>2017-12-12T18:06:32Z</time>
      </trkpt>
      <trkpt lat="62.636070206852" lon="17.968494528649">
        <ele>54.6</ele>
        <time>2017-12-12T18:06:33Z</time>
      </trkpt>
      <trkpt lat="62.636097280389" lon="17.968503245825">
        <ele>54.8</ele>
        <time>2017-12-12T18:06:34Z</time>
      </trkpt>
      <trkpt lat="62.636128544876" lon="17.968513471743">
        <ele>58.8</ele>
        <time>2017-12-12T18:06:35Z</time>
      </trkpt>
      <trkpt lat="62.636153858214" lon="17.96852461967">
        <ele>58.8</ele>
        <time>2017-12-12T18:06:36Z</time>
      </trkpt>
      <trkpt lat="62.636177076077" lon="17.968529481172">
        <ele>58.8</ele>
        <time>2017-12-12T18:06:37Z</time>
      </trkpt>
      <trkpt lat="62.636214962265" lon="17.968549262456">
        <ele>58.8</ele>
        <time>2017-12-12T18:06:38Z</time>
      </trkpt>
      <trkpt lat="62.636234575911" lon="17.968538952719">
        <ele>58.8</ele>
        <time>2017-12-12T18:06:39Z</time>
      </trkpt>
      <trkpt lat="62.636266678588" lon="17.968560829478">
        <ele>58.8</ele>
        <time>2017-12-12T18:06:40Z</time>
      </trkpt>
      <trkpt lat="62.636292578659" lon="17.968586142816">
        <ele>58.6</ele>
        <time>2017-12-12T18:06:41Z</time>
      </trkpt>
      <trkpt lat="62.636318394911" lon="17.968609947412">
        <ele>58.6</ele>
        <time>2017-12-12T18:06:42Z</time>
      </trkpt>
      <trkpt lat="62.636339852575" lon="17.96864867179">
        <ele>58.4</ele>
        <time>2017-12-12T18:06:43Z</time>
      </trkpt>
      <trkpt lat="62.636368434854" lon="17.968696867715">
        <ele>58.6</ele>
        <time>2017-12-12T18:06:44Z</time>
      </trkpt>
      <trkpt lat="62.636384444283" lon="17.968737100835">
        <ele>58.6</ele>
        <time>2017-12-12T18:06:45Z</time>
      </trkpt>
      <trkpt lat="62.63640145954" lon="17.968783201285">
        <ele>58.4</ele>
        <time>2017-12-12T18:06:46Z</time>
      </trkpt>
      <trkpt lat="62.636418726254" lon="17.968830391382">
        <ele>58.4</ele>
        <time>2017-12-12T18:06:47Z</time>
      </trkpt>
      <trkpt lat="62.63643247257" lon="17.968859392756">
        <ele>58.4</ele>
        <time>2017-12-12T18:06:48Z</time>
      </trkpt>
      <trkpt lat="62.636452253854" lon="17.968916389676">
        <ele>58.4</ele>
        <time>2017-12-12T18:06:49Z</time>
      </trkpt>
      <trkpt lat="62.636471280767" lon="17.968955700787">
        <ele>58.4</ele>
        <time>2017-12-12T18:06:50Z</time>
      </trkpt>
      <trkpt lat="62.636483015427" lon="17.968982187591">
        <ele>58.2</ele>
        <time>2017-12-12T18:06:51Z</time>
      </trkpt>
      <trkpt lat="62.63650120415" lon="17.96903423919">
        <ele>58.2</ele>
        <time>2017-12-12T18:06:52Z</time>
      </trkpt>
      <trkpt lat="62.636515621018" lon="17.969076651604">
        <ele>58.2</ele>
        <time>2017-12-12T18:06:53Z</time>
      </trkpt>
      <trkpt lat="62.636529199696" lon="17.969112861412">
        <ele>58.2</ele>
        <time>2017-12-12T18:06:54Z</time>
      </trkpt>
      <trkpt lat="62.636544706211" lon="17.969163907183">
        <ele>58</ele>
        <time>2017-12-12T18:06:55Z</time>
      </trkpt>
      <trkpt lat="62.63656490659" lon="17.969205984321">
        <ele>58</ele>
        <time>2017-12-12T18:06:56Z</time>
      </trkpt>
      <trkpt lat="62.636574378137" lon="17.9692513304">
        <ele>58</ele>
        <time>2017-12-12T18:06:57Z</time>
      </trkpt>
      <trkpt lat="62.636590722842" lon="17.969302292352">
        <ele>58</ele>
        <time>2017-12-12T18:06:58Z</time>
      </trkpt>
      <trkpt lat="62.636605391167" lon="17.969341435825">
        <ele>58</ele>
        <time>2017-12-12T18:06:59Z</time>
      </trkpt>
      <trkpt lat="62.636620310949" lon="17.96940471917">
        <ele>58.2</ele>
        <time>2017-12-12T18:07:00Z</time>
      </trkpt>
      <trkpt lat="62.636637996758" lon="17.969467918696">
        <ele>58.2</ele>
        <time>2017-12-12T18:07:01Z</time>
      </trkpt>
      <trkpt lat="62.636647803581" lon="17.969505134332">
        <ele>58.4</ele>
        <time>2017-12-12T18:07:02Z</time>
      </trkpt>
      <trkpt lat="62.636659286784" lon="17.969553665533">
        <ele>58.4</ele>
        <time>2017-12-12T18:07:03Z</time>
      </trkpt>
      <trkpt lat="62.636674877118" lon="17.969616194507">
        <ele>58.6</ele>
        <time>2017-12-12T18:07:04Z</time>
      </trkpt>
      <trkpt lat="62.636684935398" lon="17.969664390432">
        <ele>58.4</ele>
        <time>2017-12-12T18:07:05Z</time>
      </trkpt>
      <trkpt lat="62.636699268447" lon="17.969700181145">
        <ele>58.4</ele>
        <time>2017-12-12T18:07:06Z</time>
      </trkpt>
      <trkpt lat="62.636716116066" lon="17.969764470318">
        <ele>58.6</ele>
        <time>2017-12-12T18:07:07Z</time>
      </trkpt>
      <trkpt lat="62.636732796047" lon="17.969821718695">
        <ele>58.6</ele>
        <time>2017-12-12T18:07:08Z</time>
      </trkpt>
      <trkpt lat="62.636747129096" lon="17.969852480268">
        <ele>58.6</ele>
        <time>2017-12-12T18:07:09Z</time>
      </trkpt>
      <trkpt lat="62.636769676407" lon="17.969916769441">
        <ele>58.6</ele>
        <time>2017-12-12T18:07:10Z</time>
      </trkpt>
      <trkpt lat="62.636796917582" lon="17.969962534615">
        <ele>58.8</ele>
        <time>2017-12-12T18:07:11Z</time>
      </trkpt>
      <trkpt lat="62.636817034142" lon="17.970006958685">
        <ele>58.8</ele>
        <time>2017-12-12T18:07:12Z</time>
      </trkpt>
      <trkpt lat="62.636837402159" lon="17.970047275624">
        <ele>59</ele>
        <time>2017-12-12T18:07:13Z</time>
      </trkpt>
      <trkpt lat="62.636866235895" lon="17.970081725233">
        <ele>59.2</ele>
        <time>2017-12-12T18:07:14Z</time>
      </trkpt>
      <trkpt lat="62.636896159278" lon="17.970126149303">
        <ele>59.4</ele>
        <time>2017-12-12T18:07:15Z</time>
      </trkpt>
      <trkpt lat="62.636921472616" lon="17.970147187872">
        <ele>59.4</ele>
        <time>2017-12-12T18:07:16Z</time>
      </trkpt>
      <trkpt lat="62.636944187565" lon="17.970165628052">
        <ele>59.6</ele>
        <time>2017-12-12T18:07:17Z</time>
      </trkpt>
      <trkpt lat="62.636979140088" lon="17.970193204503">
        <ele>59.8</ele>
        <time>2017-12-12T18:07:18Z</time>
      </trkpt>
      <trkpt lat="62.63700579453" lon="17.970211644683">
        <ele>59.6</ele>
        <time>2017-12-12T18:07:19Z</time>
      </trkpt>
      <trkpt lat="62.637036220827" lon="17.970218266384">
        <ele>59.6</ele>
        <time>2017-12-12T18:07:20Z</time>
      </trkpt>
      <trkpt lat="62.637060863613" lon="17.970222122058">
        <ele>59.4</ele>
        <time>2017-12-12T18:07:21Z</time>
      </trkpt>
      <trkpt lat="62.637097911611" lon="17.970214662167">
        <ele>59.2</ele>
        <time>2017-12-12T18:07:22Z</time>
      </trkpt>
      <trkpt lat="62.637122135302" lon="17.970200412937">
        <ele>59.2</ele>
        <time>2017-12-12T18:07:23Z</time>
      </trkpt>
      <trkpt lat="62.637154321798" lon="17.970188762096">
        <ele>59.2</ele>
        <time>2017-12-12T18:07:24Z</time>
      </trkpt>
      <trkpt lat="62.637186424475" lon="17.970162359111">
        <ele>59.2</ele>
        <time>2017-12-12T18:07:25Z</time>
      </trkpt>
      <trkpt lat="62.637217269867" lon="17.970139392705">
        <ele>59.2</ele>
        <time>2017-12-12T18:07:26Z</time>
      </trkpt>
      <trkpt lat="62.637251970933" lon="17.97011969524">
        <ele>59.4</ele>
        <time>2017-12-12T18:07:27Z</time>
      </trkpt>
      <trkpt lat="62.637280469393" lon="17.970103350535">
        <ele>59.4</ele>
        <time>2017-12-12T18:07:28Z</time>
      </trkpt>
      <trkpt lat="62.637317852667" lon="17.970077618102">
        <ele>59.4</ele>
        <time>2017-12-12T18:07:29Z</time>
      </trkpt>
      <trkpt lat="62.637345596756" lon="17.970060267569">
        <ele>59.4</ele>
        <time>2017-12-12T18:07:30Z</time>
      </trkpt>
      <trkpt lat="62.637374430492" lon="17.970043168493">
        <ele>59.2</ele>
        <time>2017-12-12T18:07:31Z</time>
      </trkpt>
      <trkpt lat="62.637405862617" lon="17.970028919263">
        <ele>59.2</ele>
        <time>2017-12-12T18:07:32Z</time>
      </trkpt>
      <trkpt lat="62.637439725493" lon="17.970029841272">
        <ele>58.8</ele>
        <time>2017-12-12T18:07:33Z</time>
      </trkpt>
      <trkpt lat="62.637469062143" lon="17.970036211516">
        <ele>58.4</ele>
        <time>2017-12-12T18:07:34Z</time>
      </trkpt>
      <trkpt lat="62.637500410449" lon="17.970050796022">
        <ele>58</ele>
        <time>2017-12-12T18:07:35Z</time>
      </trkpt>
      <trkpt lat="62.637523125398" lon="17.970056747171">
        <ele>58</ele>
        <time>2017-12-12T18:07:36Z</time>
      </trkpt>
      <trkpt lat="62.637552126772" lon="17.970080048853">
        <ele>57.8</ele>
        <time>2017-12-12T18:07:37Z</time>
      </trkpt>
      <trkpt lat="62.637572494789" lon="17.970110307512">
        <ele>57.4</ele>
        <time>2017-12-12T18:07:38Z</time>
      </trkpt>
      <trkpt lat="62.637597389032" lon="17.970135537031">
        <ele>57.2</ele>
        <time>2017-12-12T18:07:39Z</time>
      </trkpt>
      <trkpt lat="62.637619768705" lon="17.970176440703">
        <ele>57</ele>
        <time>2017-12-12T18:07:40Z</time>
      </trkpt>
      <trkpt lat="62.637638208885" lon="17.970235533098">
        <ele>56.8</ele>
        <time>2017-12-12T18:07:41Z</time>
      </trkpt>
      <trkpt lat="62.63765958273" lon="17.970274089838">
        <ele>56.6</ele>
        <time>2017-12-12T18:07:42Z</time>
      </trkpt>
      <trkpt lat="62.637673915779" lon="17.970326560532">
        <ele>56.6</ele>
        <time>2017-12-12T18:07:43Z</time>
      </trkpt>
      <trkpt lat="62.637696127814" lon="17.970369308222">
        <ele>56.4</ele>
        <time>2017-12-12T18:07:44Z</time>
      </trkpt>
      <trkpt lat="62.637707862474" lon="17.970409792799">
        <ele>56.4</ele>
        <time>2017-12-12T18:07:45Z</time>
      </trkpt>
      <trkpt lat="62.637724374817" lon="17.970461341484">
        <ele>56.4</ele>
        <time>2017-12-12T18:07:46Z</time>
      </trkpt>
      <trkpt lat="62.637736528572" lon="17.970499060034">
        <ele>56.6</ele>
        <time>2017-12-12T18:07:47Z</time>
      </trkpt>
      <trkpt lat="62.63774926906" lon="17.970552452737">
        <ele>56.6</ele>
        <time>2017-12-12T18:07:48Z</time>
      </trkpt>
      <trkpt lat="62.637775336769" lon="17.970602744137">
        <ele>56.6</ele>
        <time>2017-12-12T18:07:49Z</time>
      </trkpt>
      <trkpt lat="62.637784137764" lon="17.970642558162">
        <ele>56.6</ele>
        <time>2017-12-12T18:07:50Z</time>
      </trkpt>
      <trkpt lat="62.637796291519" lon="17.970699555082">
        <ele>56.6</ele>
        <time>2017-12-12T18:07:51Z</time>
      </trkpt>
      <trkpt lat="62.637806685075" lon="17.970765436816">
        <ele>56.6</ele>
        <time>2017-12-12T18:07:52Z</time>
      </trkpt>
      <trkpt lat="62.637815402251" lon="17.970799299692">
        <ele>56.6</ele>
        <time>2017-12-12T18:07:53Z</time>
      </trkpt>
      <trkpt lat="62.637827053092" lon="17.970855123146">
        <ele>56.6</ele>
        <time>2017-12-12T18:07:54Z</time>
      </trkpt>
      <trkpt lat="62.63783895539" lon="17.970918155034">
        <ele>56.6</ele>
        <time>2017-12-12T18:07:55Z</time>
      </trkpt>
      <trkpt lat="62.637845241815" lon="17.970965848045">
        <ele>56.8</ele>
        <time>2017-12-12T18:07:56Z</time>
      </trkpt>
      <trkpt lat="62.637852282611" lon="17.971013708694">
        <ele>56.8</ele>
        <time>2017-12-12T18:07:57Z</time>
      </trkpt>
      <trkpt lat="62.637867621488" lon="17.971077327315">
        <ele>57</ele>
        <time>2017-12-12T18:07:58Z</time>
      </trkpt>
      <trkpt lat="62.63787751213" lon="17.971125774697">
        <ele>57.2</ele>
        <time>2017-12-12T18:07:59Z</time>
      </trkpt>
      <trkpt lat="62.637886313125" lon="17.971181430513">
        <ele>57.2</ele>
        <time>2017-12-12T18:08:00Z</time>
      </trkpt>
      <trkpt lat="62.637896119948" lon="17.971254269224">
        <ele>57.2</ele>
        <time>2017-12-12T18:08:01Z</time>
      </trkpt>
      <trkpt lat="62.637905591495" lon="17.971297436009">
        <ele>57.2</ele>
        <time>2017-12-12T18:08:02Z</time>
      </trkpt>
      <trkpt lat="62.637912548472" lon="17.971334986921">
        <ele>57.4</ele>
        <time>2017-12-12T18:08:03Z</time>
      </trkpt>
      <trkpt lat="62.637924031675" lon="17.971402628854">
        <ele>57.4</ele>
        <time>2017-12-12T18:08:04Z</time>
      </trkpt>
      <trkpt lat="62.637931659204" lon="17.971453004073">
        <ele>57.4</ele>
        <time>2017-12-12T18:08:05Z</time>
      </trkpt>
      <trkpt lat="62.637936688344" lon="17.971479323239">
        <ele>57.6</ele>
        <time>2017-12-12T18:08:06Z</time>
      </trkpt>
      <trkpt lat="62.637949847927" lon="17.971556939633">
        <ele>57.6</ele>
        <time>2017-12-12T18:08:07Z</time>
      </trkpt>
      <trkpt lat="62.637953116868" lon="17.97161167344">
        <ele>57.6</ele>
        <time>2017-12-12T18:08:08Z</time>
      </trkpt>
      <trkpt lat="62.637960157664" lon="17.971647799429">
        <ele>57.6</ele>
        <time>2017-12-12T18:08:09Z</time>
      </trkpt>
      <trkpt lat="62.637968791021" lon="17.971725415823">
        <ele>57.8</ele>
        <time>2017-12-12T18:08:10Z</time>
      </trkpt>
      <trkpt lat="62.637972562876" lon="17.971784759675">
        <ele>57.8</ele>
        <time>2017-12-12T18:08:11Z</time>
      </trkpt>
      <trkpt lat="62.637981866785" lon="17.971839158206">
        <ele>57.8</ele>
        <time>2017-12-12T18:08:12Z</time>
      </trkpt>
      <trkpt lat="62.637984381355" lon="17.971903112103">
        <ele>57.8</ele>
        <time>2017-12-12T18:08:13Z</time>
      </trkpt>
      <trkpt lat="62.637990416323" lon="17.971965808715">
        <ele>57.8</ele>
        <time>2017-12-12T18:08:14Z</time>
      </trkpt>
      <trkpt lat="62.63799150597" lon="17.97200646093">
        <ele>57.8</ele>
        <time>2017-12-12T18:08:15Z</time>
      </trkpt>
      <trkpt lat="62.637989326676" lon="17.972065301868">
        <ele>57.8</ele>
        <time>2017-12-12T18:08:16Z</time>
      </trkpt>
      <trkpt lat="62.63798982959" lon="17.972108971567">
        <ele>58</ele>
        <time>2017-12-12T18:08:17Z</time>
      </trkpt>
      <trkpt lat="62.637989075219" lon="17.9721682316">
        <ele>58</ele>
        <time>2017-12-12T18:08:18Z</time>
      </trkpt>
      <trkpt lat="62.637984968088" lon="17.972248111107">
        <ele>58</ele>
        <time>2017-12-12T18:08:19Z</time>
      </trkpt>
      <trkpt lat="62.637989326676" lon="17.972287673675">
        <ele>58</ele>
        <time>2017-12-12T18:08:20Z</time>
      </trkpt>
      <trkpt lat="62.637988320848" lon="17.972347017527">
        <ele>58</ele>
        <time>2017-12-12T18:08:21Z</time>
      </trkpt>
      <trkpt lat="62.63799066778" lon="17.972401751334">
        <ele>58.2</ele>
        <time>2017-12-12T18:08:22Z</time>
      </trkpt>
      <trkpt lat="62.637991338332" lon="17.972442822644">
        <ele>58.2</ele>
        <time>2017-12-12T18:08:23Z</time>
      </trkpt>
      <trkpt lat="62.637995445463" lon="17.972474338588">
        <ele>58.4</ele>
        <time>2017-12-12T18:08:24Z</time>
      </trkpt>
      <trkpt lat="62.63800072606" lon="17.97253619701">
        <ele>58.4</ele>
        <time>2017-12-12T18:08:25Z</time>
      </trkpt>
      <trkpt lat="62.638008521227" lon="17.972593361568">
        <ele>58.6</ele>
        <time>2017-12-12T18:08:26Z</time>
      </trkpt>
      <trkpt lat="62.638011119616" lon="17.972625128969">
        <ele>58.8</ele>
        <time>2017-12-12T18:08:27Z</time>
      </trkpt>
      <trkpt lat="62.638012963634" lon="17.9726627637">
        <ele>58.8</ele>
        <time>2017-12-12T18:08:28Z</time>
      </trkpt>
      <trkpt lat="62.638018411869" lon="17.972734931859">
        <ele>58.8</ele>
        <time>2017-12-12T18:08:29Z</time>
      </trkpt>
      <trkpt lat="62.638021177896" lon="17.972785223259">
        <ele>59</ele>
        <time>2017-12-12T18:08:30Z</time>
      </trkpt>
      <trkpt lat="62.638019836792" lon="17.972840543799">
        <ele>59</ele>
        <time>2017-12-12T18:08:31Z</time>
      </trkpt>
      <trkpt lat="62.638015142928" lon="17.972890919018">
        <ele>59</ele>
        <time>2017-12-12T18:08:32Z</time>
      </trkpt>
      <trkpt lat="62.638017657498" lon="17.972919082202">
        <ele>59</ele>
        <time>2017-12-12T18:08:33Z</time>
      </trkpt>
      <trkpt lat="62.638018495688" lon="17.972965769385">
        <ele>59.2</ele>
        <time>2017-12-12T18:08:34Z</time>
      </trkpt>
      <trkpt lat="62.638016316394" lon="17.973031399662">
        <ele>59.2</ele>
        <time>2017-12-12T18:08:35Z</time>
      </trkpt>
      <trkpt lat="62.638016064937" lon="17.973084121813">
        <ele>59.2</ele>
        <time>2017-12-12T18:08:36Z</time>
      </trkpt>
      <trkpt lat="62.638015729661" lon="17.973119158155">
        <ele>59.2</ele>
        <time>2017-12-12T18:08:37Z</time>
      </trkpt>
      <trkpt lat="62.638015059109" lon="17.973162911673">
        <ele>59.4</ele>
        <time>2017-12-12T18:08:38Z</time>
      </trkpt>
      <trkpt lat="62.6380141371" lon="17.973221584973">
        <ele>59.6</ele>
        <time>2017-12-12T18:08:39Z</time>
      </trkpt>
      <trkpt lat="62.638013969462" lon="17.973277911341">
        <ele>59.6</ele>
        <time>2017-12-12T18:08:40Z</time>
      </trkpt>
      <trkpt lat="62.638013131272" lon="17.973309511104">
        <ele>59.6</ele>
        <time>2017-12-12T18:08:41Z</time>
      </trkpt>
      <trkpt lat="62.638014388557" lon="17.973356365925">
        <ele>59.6</ele>
        <time>2017-12-12T18:08:42Z</time>
      </trkpt>
      <trkpt lat="62.638013550367" lon="17.973389390611">
        <ele>59.8</ele>
        <time>2017-12-12T18:08:43Z</time>
      </trkpt>
      <trkpt lat="62.638013215091" lon="17.973452171042">
        <ele>60</ele>
        <time>2017-12-12T18:08:44Z</time>
      </trkpt>
      <trkpt lat="62.638011790168" lon="17.973507323944">
        <ele>60.2</ele>
        <time>2017-12-12T18:08:45Z</time>
      </trkpt>
      <trkpt lat="62.638013718005" lon="17.973539091345">
        <ele>60.2</ele>
        <time>2017-12-12T18:08:46Z</time>
      </trkpt>
      <trkpt lat="62.638012879815" lon="17.973592567867">
        <ele>60.4</ele>
        <time>2017-12-12T18:08:47Z</time>
      </trkpt>
      <trkpt lat="62.638012125444" lon="17.973648978054">
        <ele>60.6</ele>
        <time>2017-12-12T18:08:48Z</time>
      </trkpt>
      <trkpt lat="62.638014388557" lon="17.973686612785">
        <ele>60.8</ele>
        <time>2017-12-12T18:08:49Z</time>
      </trkpt>
      <trkpt lat="62.638011371073" lon="17.973763893903">
        <ele>61</ele>
        <time>2017-12-12T18:08:50Z</time>
      </trkpt>
      <trkpt lat="62.638011203435" lon="17.973795493666">
        <ele>61</ele>
        <time>2017-12-12T18:08:51Z</time>
      </trkpt>
      <trkpt lat="62.638008353589" lon="17.973853999328">
        <ele>61</ele>
        <time>2017-12-12T18:08:52Z</time>
      </trkpt>
      <trkpt lat="62.638009275598" lon="17.973917366492">
        <ele>61</ele>
        <time>2017-12-12T18:08:53Z</time>
      </trkpt>
      <trkpt lat="62.638012041625" lon="17.973966652064">
        <ele>61</ele>
        <time>2017-12-12T18:08:54Z</time>
      </trkpt>
      <trkpt lat="62.63801329891" lon="17.974008980659">
        <ele>61</ele>
        <time>2017-12-12T18:08:55Z</time>
      </trkpt>
      <trkpt lat="62.638019082421" lon="17.974081987008">
        <ele>61</ele>
        <time>2017-12-12T18:08:56Z</time>
      </trkpt>
      <trkpt lat="62.638023189552" lon="17.974128422734">
        <ele>61</ele>
        <time>2017-12-12T18:08:57Z</time>
      </trkpt>
      <trkpt lat="62.638022686638" lon="17.974189778242">
        <ele>61</ele>
        <time>2017-12-12T18:08:58Z</time>
      </trkpt>
      <trkpt lat="62.638028051054" lon="17.974238057986">
        <ele>61.2</ele>
        <time>2017-12-12T18:08:59Z</time>
      </trkpt>
      <trkpt lat="62.638027212864" lon="17.974302933892">
        <ele>61.2</ele>
        <time>2017-12-12T18:09:00Z</time>
      </trkpt>
      <trkpt lat="62.638033918384" lon="17.97435004017">
        <ele>61</ele>
        <time>2017-12-12T18:09:01Z</time>
      </trkpt>
      <trkpt lat="62.638038276972" lon="17.974420364311">
        <ele>61</ele>
        <time>2017-12-12T18:09:02Z</time>
      </trkpt>
      <trkpt lat="62.638044395759" lon="17.974479205249">
        <ele>61.2</ele>
        <time>2017-12-12T18:09:03Z</time>
      </trkpt>
      <trkpt lat="62.638045485406" lon="17.974527820269">
        <ele>61</ele>
        <time>2017-12-12T18:09:04Z</time>
      </trkpt>
      <trkpt lat="62.63804431194" lon="17.974596300392">
        <ele>61</ele>
        <time>2017-12-12T18:09:05Z</time>
      </trkpt>
      <trkpt lat="62.638043976664" lon="17.974640137729">
        <ele>61</ele>
        <time>2017-12-12T18:09:06Z</time>
      </trkpt>
      <trkpt lat="62.638039031343" lon="17.974703253436">
        <ele>61</ele>
        <time>2017-12-12T18:09:07Z</time>
      </trkpt>
      <trkpt lat="62.638030146529" lon="17.974749940619">
        <ele>61</ele>
        <time>2017-12-12T18:09:08Z</time>
      </trkpt>
      <trkpt lat="62.638018495688" lon="17.974799729105">
        <ele>61</ele>
        <time>2017-12-12T18:09:09Z</time>
      </trkpt>
      <trkpt lat="62.638006090476" lon="17.974846583926">
        <ele>61</ele>
        <time>2017-12-12T18:09:10Z</time>
      </trkpt>
      <trkpt lat="62.637991841246" lon="17.974887487598">
        <ele>61</ele>
        <time>2017-12-12T18:09:11Z</time>
      </trkpt>
      <trkpt lat="62.637978514025" lon="17.974920093189">
        <ele>61</ele>
        <time>2017-12-12T18:09:12Z</time>
      </trkpt>
      <trkpt lat="62.637962839872" lon="17.974952950237">
        <ele>61.2</ele>
        <time>2017-12-12T18:09:13Z</time>
      </trkpt>
      <trkpt lat="62.637942555674" lon="17.974993937728">
        <ele>61.2</ele>
        <time>2017-12-12T18:09:14Z</time>
      </trkpt>
      <trkpt lat="62.637928306444" lon="17.975028219699">
        <ele>61.4</ele>
        <time>2017-12-12T18:09:15Z</time>
      </trkpt>
      <trkpt lat="62.637916236508" lon="17.975049845001">
        <ele>61.4</ele>
        <time>2017-12-12T18:09:16Z</time>
      </trkpt>
      <trkpt lat="62.637902741649" lon="17.975080355117">
        <ele>61.4</ele>
        <time>2017-12-12T18:09:17Z</time>
      </trkpt>
      <trkpt lat="62.637883714736" lon="17.975135675657">
        <ele>61.6</ele>
        <time>2017-12-12T18:09:18Z</time>
      </trkpt>
      <trkpt lat="62.637864855461" lon="17.975178926261">
        <ele>61.6</ele>
        <time>2017-12-12T18:09:19Z</time>
      </trkpt>
      <trkpt lat="62.637846415281" lon="17.975217399182">
        <ele>61.8</ele>
        <time>2017-12-12T18:09:20Z</time>
      </trkpt>
      <trkpt lat="62.637831663137" lon="17.975245310909">
        <ele>62</ele>
        <time>2017-12-12T18:09:21Z</time>
      </trkpt>
      <trkpt lat="62.637818252097" lon="17.975275988663">
        <ele>62.2</ele>
        <time>2017-12-12T18:09:22Z</time>
      </trkpt>
      <trkpt lat="62.637801488297" lon="17.97530892953">
        <ele>62.4</ele>
        <time>2017-12-12T18:09:23Z</time>
      </trkpt>
      <trkpt lat="62.63778028209" lon="17.975341199845">
        <ele>62.6</ele>
        <time>2017-12-12T18:09:24Z</time>
      </trkpt>
      <trkpt lat="62.637759494978" lon="17.975373386341">
        <ele>62.8</ele>
        <time>2017-12-12T18:09:25Z</time>
      </trkpt>
      <trkpt lat="62.637743317911" lon="17.975398532041">
        <ele>63</ele>
        <time>2017-12-12T18:09:26Z</time>
      </trkpt>
      <trkpt lat="62.63772747612" lon="17.9754204088">
        <ele>63.2</ele>
        <time>2017-12-12T18:09:27Z</time>
      </trkpt>
      <trkpt lat="62.637714400356" lon="17.975447147061">
        <ele>63.2</ele>
        <time>2017-12-12T18:09:28Z</time>
      </trkpt>
      <trkpt lat="62.637699061479" lon="17.975470113467">
        <ele>63.4</ele>
        <time>2017-12-12T18:09:29Z</time>
      </trkpt>
      <trkpt lat="62.637685818077" lon="17.975487547819">
        <ele>63.6</ele>
        <time>2017-12-12T18:09:30Z</time>
      </trkpt>
      <trkpt lat="62.637671820304" lon="17.975503976343">
        <ele>63.8</ele>
        <time>2017-12-12T18:09:31Z</time>
      </trkpt>
      <trkpt lat="62.63765874454" lon="17.975512022967">
        <ele>64</ele>
        <time>2017-12-12T18:09:32Z</time>
      </trkpt>
      <trkpt lat="62.637644662948" lon="17.975517722659">
        <ele>64</ele>
        <time>2017-12-12T18:09:33Z</time>
      </trkpt>
      <trkpt lat="62.637632006279" lon="17.975527194206">
        <ele>64</ele>
        <time>2017-12-12T18:09:34Z</time>
      </trkpt>
      <trkpt lat="62.63760761495" lon="17.97554026997">
        <ele>64.4</ele>
        <time>2017-12-12T18:09:35Z</time>
      </trkpt>
      <trkpt lat="62.63758917477" lon="17.975557788141">
        <ele>64.6</ele>
        <time>2017-12-12T18:09:36Z</time>
      </trkpt>
      <trkpt lat="62.637569561124" lon="17.975569187525">
        <ele>64.6</ele>
        <time>2017-12-12T18:09:37Z</time>
      </trkpt>
      <trkpt lat="62.63754055975" lon="17.975588633533">
        <ele>64.8</ele>
        <time>2017-12-12T18:09:38Z</time>
      </trkpt>
      <trkpt lat="62.637518515353" lon="17.975596093424">
        <ele>64.8</ele>
        <time>2017-12-12T18:09:39Z</time>
      </trkpt>
      <trkpt lat="62.637499069345" lon="17.975606738437">
        <ele>65</ele>
        <time>2017-12-12T18:09:40Z</time>
      </trkpt>
      <trkpt lat="62.637483898106" lon="17.975615958527">
        <ele>65</ele>
        <time>2017-12-12T18:09:41Z</time>
      </trkpt>
      <trkpt lat="62.637465793202" lon="17.975624759522">
        <ele>65</ele>
        <time>2017-12-12T18:09:42Z</time>
      </trkpt>
      <trkpt lat="62.637453136533" lon="17.975633392879">
        <ele>65</ele>
        <time>2017-12-12T18:09:43Z</time>
      </trkpt>
      <trkpt lat="62.637436288914" lon="17.975643618797">
        <ele>65.2</ele>
        <time>2017-12-12T18:09:44Z</time>
      </trkpt>
      <trkpt lat="62.637418770743" lon="17.975654096172">
        <ele>65.4</ele>
        <time>2017-12-12T18:09:45Z</time>
      </trkpt>
      <trkpt lat="62.637404353875" lon="17.975663567719">
        <ele>65.8</ele>
        <time>2017-12-12T18:09:46Z</time>
      </trkpt>
      <trkpt lat="62.637390439921" lon="17.975676978759">
        <ele>66</ele>
        <time>2017-12-12T18:09:47Z</time>
      </trkpt>
      <trkpt lat="62.637373340845" lon="17.975682426994">
        <ele>66.4</ele>
        <time>2017-12-12T18:09:48Z</time>
      </trkpt>
      <trkpt lat="62.63734609967" lon="17.975699777527">
        <ele>66.6</ele>
        <time>2017-12-12T18:09:49Z</time>
      </trkpt>
      <trkpt lat="62.637329587327" lon="17.975713188567">
        <ele>66.8</ele>
        <time>2017-12-12T18:09:50Z</time>
      </trkpt>
      <trkpt lat="62.637308297301" lon="17.975733808041">
        <ele>67</ele>
        <time>2017-12-12T18:09:51Z</time>
      </trkpt>
      <trkpt lat="62.637287510189" lon="17.97574478833">
        <ele>67</ele>
        <time>2017-12-12T18:09:52Z</time>
      </trkpt>
      <trkpt lat="62.637265717249" lon="17.975746045615">
        <ele>67</ele>
        <time>2017-12-12T18:09:53Z</time>
      </trkpt>
      <trkpt lat="62.637248199078" lon="17.975758031732">
        <ele>67.2</ele>
        <time>2017-12-12T18:09:54Z</time>
      </trkpt>
      <trkpt lat="62.637230345631" lon="17.975778651206">
        <ele>67.2</ele>
        <time>2017-12-12T18:09:55Z</time>
      </trkpt>
      <trkpt lat="62.637214755297" lon="17.97580429982">
        <ele>67.4</ele>
        <time>2017-12-12T18:09:56Z</time>
      </trkpt>
      <trkpt lat="62.637200003153" lon="17.975831624814">
        <ele>67.4</ele>
        <time>2017-12-12T18:09:57Z</time>
      </trkpt>
      <trkpt lat="62.637188184674" lon="17.975851070822">
        <ele>67.6</ele>
        <time>2017-12-12T18:09:58Z</time>
      </trkpt>
      <trkpt lat="62.637173264892" lon="17.975878814911">
        <ele>67.8</ele>
        <time>2017-12-12T18:09:59Z</time>
      </trkpt>
      <trkpt lat="62.637161614051" lon="17.975906810457">
        <ele>68</ele>
        <time>2017-12-12T18:10:00Z</time>
      </trkpt>
      <trkpt lat="62.637149795572" lon="17.975943104084">
        <ele>68</ele>
        <time>2017-12-12T18:10:01Z</time>
      </trkpt>
      <trkpt lat="62.637141162215" lon="17.97598283429">
        <ele>68.2</ele>
        <time>2017-12-12T18:10:02Z</time>
      </trkpt>
      <trkpt lat="62.637133367048" lon="17.976013428225">
        <ele>68.6</ele>
        <time>2017-12-12T18:10:03Z</time>
      </trkpt>
      <trkpt lat="62.637123811682" lon="17.976053326069">
        <ele>68.8</ele>
        <time>2017-12-12T18:10:04Z</time>
      </trkpt>
      <trkpt lat="62.637112412298" lon="17.976099510338">
        <ele>69</ele>
        <time>2017-12-12T18:10:05Z</time>
      </trkpt>
      <trkpt lat="62.637101851104" lon="17.976147706263">
        <ele>69.2</ele>
        <time>2017-12-12T18:10:06Z</time>
      </trkpt>
      <trkpt lat="62.637101012914" lon="17.976180730949">
        <ele>69.4</ele>
        <time>2017-12-12T18:10:07Z</time>
      </trkpt>
      <trkpt lat="62.637087853331" lon="17.976235883851">
        <ele>69.4</ele>
        <time>2017-12-12T18:10:08Z</time>
      </trkpt>
      <trkpt lat="62.637078968517" lon="17.976272596573">
        <ele>69.4</ele>
        <time>2017-12-12T18:10:09Z</time>
      </trkpt>
      <trkpt lat="62.637070167522" lon="17.976315260444">
        <ele>69.4</ele>
        <time>2017-12-12T18:10:10Z</time>
      </trkpt>
      <trkpt lat="62.637065892753" lon="17.976354068641">
        <ele>69.6</ele>
        <time>2017-12-12T18:10:11Z</time>
      </trkpt>
      <trkpt lat="62.637060109242" lon="17.976385081671">
        <ele>69.6</ele>
        <time>2017-12-12T18:10:12Z</time>
      </trkpt>
      <trkpt lat="62.637052230256" lon="17.976430176293">
        <ele>69.8</ele>
        <time>2017-12-12T18:10:13Z</time>
      </trkpt>
      <trkpt lat="62.637044686546" lon="17.976493543457">
        <ele>70</ele>
        <time>2017-12-12T18:10:14Z</time>
      </trkpt>
      <trkpt lat="62.637043345442" lon="17.97652346684">
        <ele>70</ele>
        <time>2017-12-12T18:10:15Z</time>
      </trkpt>
      <trkpt lat="62.637038819216" lon="17.976582726873">
        <ele>70.2</ele>
        <time>2017-12-12T18:10:16Z</time>
      </trkpt>
      <trkpt lat="62.637034628266" lon="17.976644333838">
        <ele>70.2</ele>
        <time>2017-12-12T18:10:17Z</time>
      </trkpt>
      <trkpt lat="62.637034879723" lon="17.97668188475">
        <ele>70.2</ele>
        <time>2017-12-12T18:10:18Z</time>
      </trkpt>
      <trkpt lat="62.637032113696" lon="17.976746006285">
        <ele>70.2</ele>
        <time>2017-12-12T18:10:19Z</time>
      </trkpt>
      <trkpt lat="62.637031359325" lon="17.976791939097">
        <ele>70.2</ele>
        <time>2017-12-12T18:10:20Z</time>
      </trkpt>
      <trkpt lat="62.637031694601" lon="17.976847678732">
        <ele>70.2</ele>
        <time>2017-12-12T18:10:21Z</time>
      </trkpt>
      <trkpt lat="62.637033287162" lon="17.976897131942">
        <ele>70.4</ele>
        <time>2017-12-12T18:10:22Z</time>
      </trkpt>
      <trkpt lat="62.637033790076" lon="17.976953542129">
        <ele>70.4</ele>
        <time>2017-12-12T18:10:23Z</time>
      </trkpt>
      <trkpt lat="62.637038316302" lon="17.977012383067">
        <ele>70.6</ele>
        <time>2017-12-12T18:10:24Z</time>
      </trkpt>
      <trkpt lat="62.637039741225" lon="17.97707834862">
        <ele>70.6</ele>
        <time>2017-12-12T18:10:25Z</time>
      </trkpt>
      <trkpt lat="62.637042255795" lon="17.977151522607">
        <ele>70.6</ele>
        <time>2017-12-12T18:10:26Z</time>
      </trkpt>
      <trkpt lat="62.637046949659" lon="17.977197036324">
        <ele>70.8</ele>
        <time>2017-12-12T18:10:27Z</time>
      </trkpt>
      <trkpt lat="62.637042926347" lon="17.977254703796">
        <ele>70.8</ele>
        <time>2017-12-12T18:10:28Z</time>
      </trkpt>
      <trkpt lat="62.637044099813" lon="17.977302732083">
        <ele>70.6</ele>
        <time>2017-12-12T18:10:29Z</time>
      </trkpt>
      <trkpt lat="62.637032532791" lon="17.97737590607">
        <ele>70.4</ele>
        <time>2017-12-12T18:10:30Z</time>
      </trkpt>
      <trkpt lat="62.637020127579" lon="17.97743625575">
        <ele>70.4</ele>
        <time>2017-12-12T18:10:31Z</time>
      </trkpt>
      <trkpt lat="62.637012416231" lon="17.977470118626">
        <ele>70.4</ele>
        <time>2017-12-12T18:10:32Z</time>
      </trkpt>
      <trkpt lat="62.636993305499" lon="17.977523092234">
        <ele>70.2</ele>
        <time>2017-12-12T18:10:33Z</time>
      </trkpt>
      <trkpt lat="62.636977631346" lon="17.977582352267">
        <ele>70.2</ele>
        <time>2017-12-12T18:10:34Z</time>
      </trkpt>
      <trkpt lat="62.636970087636" lon="17.977613784392">
        <ele>70.4</ele>
        <time>2017-12-12T18:10:35Z</time>
      </trkpt>
      <trkpt lat="62.636954413483" lon="17.977664411068">
        <ele>70.4</ele>
        <time>2017-12-12T18:10:36Z</time>
      </trkpt>
      <trkpt lat="62.636942427366" lon="17.977725347481">
        <ele>70.4</ele>
        <time>2017-12-12T18:10:37Z</time>
      </trkpt>
      <trkpt lat="62.636937398226" lon="17.977753175389">
        <ele>70.4</ele>
        <time>2017-12-12T18:10:38Z</time>
      </trkpt>
      <trkpt lat="62.636926082661" lon="17.977809669395">
        <ele>70.4</ele>
        <time>2017-12-12T18:10:39Z</time>
      </trkpt>
      <trkpt lat="62.636915689105" lon="17.977874545301">
        <ele>70.4</ele>
        <time>2017-12-12T18:10:40Z</time>
      </trkpt>
      <trkpt lat="62.636912923078" lon="17.977908240539">
        <ele>70.4</ele>
        <time>2017-12-12T18:10:41Z</time>
      </trkpt>
      <trkpt lat="62.636903619169" lon="17.977969763685">
        <ele>70.4</ele>
        <time>2017-12-12T18:10:42Z</time>
      </trkpt>
      <trkpt lat="62.636893728527" lon="17.97802801789">
        <ele>70.6</ele>
        <time>2017-12-12T18:10:43Z</time>
      </trkpt>
      <trkpt lat="62.636891633052" lon="17.978061294033">
        <ele>70.6</ele>
        <time>2017-12-12T18:10:44Z</time>
      </trkpt>
      <trkpt lat="62.636882245324" lon="17.978120721704">
        <ele>70.6</ele>
        <time>2017-12-12T18:10:45Z</time>
      </trkpt>
      <trkpt lat="62.636871097397" lon="17.97817134838">
        <ele>70.6</ele>
        <time>2017-12-12T18:10:46Z</time>
      </trkpt>
      <trkpt lat="62.63686497861" lon="17.97820571417">
        <ele>70.6</ele>
        <time>2017-12-12T18:10:47Z</time>
      </trkpt>
      <trkpt lat="62.636851483751" lon="17.978267656411">
        <ele>70.8</ele>
        <time>2017-12-12T18:10:48Z</time>
      </trkpt>
      <trkpt lat="62.636840922557" lon="17.978327922272">
        <ele>70.8</ele>
        <time>2017-12-12T18:10:49Z</time>
      </trkpt>
      <trkpt lat="62.636833043571" lon="17.978362707157">
        <ele>70.8</ele>
        <time>2017-12-12T18:10:50Z</time>
      </trkpt>
      <trkpt lat="62.636815860676" lon="17.978427163968">
        <ele>71</ele>
        <time>2017-12-12T18:10:51Z</time>
      </trkpt>
      <trkpt lat="62.636808903699" lon="17.978452561125">
        <ele>71</ele>
        <time>2017-12-12T18:10:52Z</time>
      </trkpt>
      <trkpt lat="62.636793313365" lon="17.978505953828">
        <ele>71.2</ele>
        <time>2017-12-12T18:10:53Z</time>
      </trkpt>
      <trkpt lat="62.636774873185" lon="17.978555909952">
        <ele>71.2</ele>
        <time>2017-12-12T18:10:54Z</time>
      </trkpt>
      <trkpt lat="62.636768754398" lon="17.978588012629">
        <ele>71.2</ele>
        <time>2017-12-12T18:10:55Z</time>
      </trkpt>
      <trkpt lat="62.636750817132" lon="17.978620953496">
        <ele>71.4</ele>
        <time>2017-12-12T18:10:56Z</time>
      </trkpt>
      <trkpt lat="62.636730700572" lon="17.978655151648">
        <ele>71.2</ele>
        <time>2017-12-12T18:10:57Z</time>
      </trkpt>
      <trkpt lat="62.636723743595" lon="17.978676274036">
        <ele>71.4</ele>
        <time>2017-12-12T18:10:58Z</time>
      </trkpt>
      <trkpt lat="62.636702285931" lon="17.978708460532">
        <ele>71.4</ele>
        <time>2017-12-12T18:10:59Z</time>
      </trkpt>
      <trkpt lat="62.63668057681" lon="17.978741233761">
        <ele>71.4</ele>
        <time>2017-12-12T18:11:00Z</time>
      </trkpt>
      <trkpt lat="62.636662304268" lon="17.978753974249">
        <ele>71.6</ele>
        <time>2017-12-12T18:11:01Z</time>
      </trkpt>
      <trkpt lat="62.636642942079" lon="17.978768474936">
        <ele>71.6</ele>
        <time>2017-12-12T18:11:02Z</time>
      </trkpt>
      <trkpt lat="62.636618215474" lon="17.978782891804">
        <ele>71.6</ele>
        <time>2017-12-12T18:11:03Z</time>
      </trkpt>
      <trkpt lat="62.636593572688" lon="17.978792530989">
        <ele>71.8</ele>
        <time>2017-12-12T18:11:04Z</time>
      </trkpt>
      <trkpt lat="62.636572198843" lon="17.978789262048">
        <ele>71.8</ele>
        <time>2017-12-12T18:11:05Z</time>
      </trkpt>
      <trkpt lat="62.636554596853" lon="17.978792614808">
        <ele>72</ele>
        <time>2017-12-12T18:11:06Z</time>
      </trkpt>
      <trkpt lat="62.636535905216" lon="17.978789597324">
        <ele>72.2</ele>
        <time>2017-12-12T18:11:07Z</time>
      </trkpt>
      <trkpt lat="62.636513525543" lon="17.978791357523">
        <ele>72.4</ele>
        <time>2017-12-12T18:11:08Z</time>
      </trkpt>
      <trkpt lat="62.636488044567" lon="17.978791692799">
        <ele>72.4</ele>
        <time>2017-12-12T18:11:09Z</time>
      </trkpt>
      <trkpt lat="62.636473376242" lon="17.978786412202">
        <ele>72.6</ele>
        <time>2017-12-12T18:11:10Z</time>
      </trkpt>
      <trkpt lat="62.636455438976" lon="17.978785490193">
        <ele>72.8</ele>
        <time>2017-12-12T18:11:11Z</time>
      </trkpt>
      <trkpt lat="62.636436076787" lon="17.978783813813">
        <ele>72.8</ele>
        <time>2017-12-12T18:11:12Z</time>
      </trkpt>
      <trkpt lat="62.636417720426" lon="17.978780041958">
        <ele>73</ele>
        <time>2017-12-12T18:11:13Z</time>
      </trkpt>
      <trkpt lat="62.636397771504" lon="17.978780796329">
        <ele>73</ele>
        <time>2017-12-12T18:11:14Z</time>
      </trkpt>
      <trkpt lat="62.636379163686" lon="17.978778030302">
        <ele>73.2</ele>
        <time>2017-12-12T18:11:15Z</time>
      </trkpt>
      <trkpt lat="62.636361813153" lon="17.978777862664">
        <ele>73.2</ele>
        <time>2017-12-12T18:11:16Z</time>
      </trkpt>
      <trkpt lat="62.636343037697" lon="17.978781131605">
        <ele>73.4</ele>
        <time>2017-12-12T18:11:17Z</time>
      </trkpt>
      <trkpt lat="62.636328872286" lon="17.978784652003">
        <ele>73.6</ele>
        <time>2017-12-12T18:11:18Z</time>
      </trkpt>
      <trkpt lat="62.636312946676" lon="17.978788675315">
        <ele>73.8</ele>
        <time>2017-12-12T18:11:19Z</time>
      </trkpt>
      <trkpt lat="62.636296601971" lon="17.978793955912">
        <ele>73.8</ele>
        <time>2017-12-12T18:11:20Z</time>
      </trkpt>
      <trkpt lat="62.636286711329" lon="17.978798733595">
        <ele>74.2</ele>
        <time>2017-12-12T18:11:21Z</time>
      </trkpt>
      <trkpt lat="62.636272629737" lon="17.978809546246">
        <ele>74.4</ele>
        <time>2017-12-12T18:11:22Z</time>
      </trkpt>
      <trkpt lat="62.636262236181" lon="17.978824214571">
        <ele>74.4</ele>
        <time>2017-12-12T18:11:23Z</time>
      </trkpt>
      <trkpt lat="62.636247651675" lon="17.978838966715">
        <ele>74.6</ele>
        <time>2017-12-12T18:11:24Z</time>
      </trkpt>
      <trkpt lat="62.636229127676" lon="17.978849695547">
        <ele>74.8</ele>
        <time>2017-12-12T18:11:25Z</time>
      </trkpt>
      <trkpt lat="62.636209262573" lon="17.978864866786">
        <ele>74.8</ele>
        <time>2017-12-12T18:11:26Z</time>
      </trkpt>
      <trkpt lat="62.636198198465" lon="17.978889509572">
        <ele>75.2</ele>
        <time>2017-12-12T18:11:27Z</time>
      </trkpt>
      <trkpt lat="62.636188726918" lon="17.978908704123">
        <ele>75.2</ele>
        <time>2017-12-12T18:11:28Z</time>
      </trkpt>
      <trkpt lat="62.636176070249" lon="17.978930077968">
        <ele>75.4</ele>
        <time>2017-12-12T18:11:29Z</time>
      </trkpt>
      <trkpt lat="62.63616760453" lon="17.978950445985">
        <ele>75.8</ele>
        <time>2017-12-12T18:11:30Z</time>
      </trkpt>
      <trkpt lat="62.636156121327" lon="17.978965030491">
        <ele>76</ele>
        <time>2017-12-12T18:11:31Z</time>
      </trkpt>
      <trkpt lat="62.636143548477" lon="17.978982967757">
        <ele>76.2</ele>
        <time>2017-12-12T18:11:32Z</time>
      </trkpt>
      <trkpt lat="62.636133071102" lon="17.978997719901">
        <ele>76.4</ele>
        <time>2017-12-12T18:11:33Z</time>
      </trkpt>
      <trkpt lat="62.636122509908" lon="17.979015992443">
        <ele>76.6</ele>
        <time>2017-12-12T18:11:34Z</time>
      </trkpt>
      <trkpt lat="62.636109266506" lon="17.979036192822">
        <ele>76.8</ele>
        <time>2017-12-12T18:11:35Z</time>
      </trkpt>
      <trkpt lat="62.636096693656" lon="17.97906234435">
        <ele>77.2</ele>
        <time>2017-12-12T18:11:36Z</time>
      </trkpt>
      <trkpt lat="62.636082192969" lon="17.979090339896">
        <ele>77.6</ele>
        <time>2017-12-12T18:11:37Z</time>
      </trkpt>
      <trkpt lat="62.63606702173" lon="17.979111378465">
        <ele>77.8</ele>
        <time>2017-12-12T18:11:38Z</time>
      </trkpt>
      <trkpt lat="62.636054616518" lon="17.979144989884">
        <ele>78</ele>
        <time>2017-12-12T18:11:39Z</time>
      </trkpt>
      <trkpt lat="62.636041708392" lon="17.979179188036">
        <ele>78.2</ele>
        <time>2017-12-12T18:11:40Z</time>
      </trkpt>
      <trkpt lat="62.636028381171" lon="17.97921657131">
        <ele>78.4</ele>
        <time>2017-12-12T18:11:41Z</time>
      </trkpt>
      <trkpt lat="62.63601840671" lon="17.979246075598">
        <ele>78.8</ele>
        <time>2017-12-12T18:11:42Z</time>
      </trkpt>
      <trkpt lat="62.636006923507" lon="17.979290415849">
        <ele>79</ele>
        <time>2017-12-12T18:11:43Z</time>
      </trkpt>
      <trkpt lat="62.636000050349" lon="17.979335929566">
        <ele>79</ele>
        <time>2017-12-12T18:11:44Z</time>
      </trkpt>
      <trkpt lat="62.635994015381" lon="17.979382365292">
        <ele>79.2</ele>
        <time>2017-12-12T18:11:45Z</time>
      </trkpt>
      <trkpt lat="62.635989992069" lon="17.979428884837">
        <ele>79.4</ele>
        <time>2017-12-12T18:11:46Z</time>
      </trkpt>
      <trkpt lat="62.635984292377" lon="17.979487474318">
        <ele>79.6</ele>
        <time>2017-12-12T18:11:47Z</time>
      </trkpt>
      <trkpt lat="62.635984376196" lon="17.979570538947">
        <ele>79.6</ele>
        <time>2017-12-12T18:11:48Z</time>
      </trkpt>
      <trkpt lat="62.635974653192" lon="17.979665086779">
        <ele>79.8</ele>
        <time>2017-12-12T18:11:49Z</time>
      </trkpt>
      <trkpt lat="62.635973647364" lon="17.979803891043">
        <ele>79.6</ele>
        <time>2017-12-12T18:11:50Z</time>
      </trkpt>
      <trkpt lat="62.635971635708" lon="17.979940851289">
        <ele>79.2</ele>
        <time>2017-12-12T18:11:51Z</time>
      </trkpt>
      <trkpt lat="62.635973815002" lon="17.980064232857">
        <ele>78.4</ele>
        <time>2017-12-12T18:11:52Z</time>
      </trkpt>
      <trkpt lat="62.635978676504" lon="17.980170850625">
        <ele>77.8</ele>
        <time>2017-12-12T18:11:53Z</time>
      </trkpt>
      <trkpt lat="62.635995859399" lon="17.980290208881">
        <ele>76.6</ele>
        <time>2017-12-12T18:11:54Z</time>
      </trkpt>
      <trkpt lat="62.63601840671" lon="17.980414596277">
        <ele>75.4</ele>
        <time>2017-12-12T18:11:55Z</time>
      </trkpt>
      <trkpt lat="62.636033661768" lon="17.980533786895">
        <ele>74.6</ele>
        <time>2017-12-12T18:11:56Z</time>
      </trkpt>
      <trkpt lat="62.636048162455" lon="17.980631184573">
        <ele>74</ele>
        <time>2017-12-12T18:11:57Z</time>
      </trkpt>
      <trkpt lat="62.636054197423" lon="17.980715506487">
        <ele>73.6</ele>
        <time>2017-12-12T18:11:58Z</time>
      </trkpt>
      <trkpt lat="62.63607037449" lon="17.980812149794">
        <ele>73.4</ele>
        <time>2017-12-12T18:11:59Z</time>
      </trkpt>
      <trkpt lat="62.636081103322" lon="17.980896639346">
        <ele>73</ele>
        <time>2017-12-12T18:12:00Z</time>
      </trkpt>
      <trkpt lat="62.636083701711" lon="17.980963526908">
        <ele>72.8</ele>
        <time>2017-12-12T18:12:01Z</time>
      </trkpt>
      <trkpt lat="62.636097364208" lon="17.981027313167">
        <ele>72.8</ele>
        <time>2017-12-12T18:12:02Z</time>
      </trkpt>
      <trkpt lat="62.636104824099" lon="17.98110082243">
        <ele>72.6</ele>
        <time>2017-12-12T18:12:03Z</time>
      </trkpt>
      <trkpt lat="62.636110439972" lon="17.981187239819">
        <ele>72.6</ele>
        <time>2017-12-12T18:12:04Z</time>
      </trkpt>
      <trkpt lat="62.636111613438" lon="17.981270807362">
        <ele>72.4</ele>
        <time>2017-12-12T18:12:05Z</time>
      </trkpt>
      <trkpt lat="62.636123599555" lon="17.981346495919">
        <ele>72.4</ele>
        <time>2017-12-12T18:12:06Z</time>
      </trkpt>
      <trkpt lat="62.636140195717" lon="17.981425872512">
        <ele>72.2</ele>
        <time>2017-12-12T18:12:07Z</time>
      </trkpt>
      <trkpt lat="62.636155115499" lon="17.981500052327">
        <ele>72.4</ele>
        <time>2017-12-12T18:12:08Z</time>
      </trkpt>
      <trkpt lat="62.636164922322" lon="17.981571801391">
        <ele>72.6</ele>
        <time>2017-12-12T18:12:09Z</time>
      </trkpt>
      <trkpt lat="62.636177998086" lon="17.981656123305">
        <ele>72.8</ele>
        <time>2017-12-12T18:12:10Z</time>
      </trkpt>
      <trkpt lat="62.636182440493" lon="17.981716724442">
        <ele>73</ele>
        <time>2017-12-12T18:12:11Z</time>
      </trkpt>
      <trkpt lat="62.636196773542" lon="17.981799118519">
        <ele>73.2</ele>
        <time>2017-12-12T18:12:12Z</time>
      </trkpt>
      <trkpt lat="62.636217476835" lon="17.981861396036">
        <ele>73.2</ele>
        <time>2017-12-12T18:12:13Z</time>
      </trkpt>
      <trkpt lat="62.636219991405" lon="17.981950579452">
        <ele>73</ele>
        <time>2017-12-12T18:12:14Z</time>
      </trkpt>
      <trkpt lat="62.636230720237" lon="17.98201864048">
        <ele>72.8</ele>
        <time>2017-12-12T18:12:15Z</time>
      </trkpt>
      <trkpt lat="62.636245053286" lon="17.982080498902">
        <ele>72.8</ele>
        <time>2017-12-12T18:12:16Z</time>
      </trkpt>
      <trkpt lat="62.636248992779" lon="17.98215191269">
        <ele>72.8</ele>
        <time>2017-12-12T18:12:17Z</time>
      </trkpt>
      <trkpt lat="62.636251004435" lon="17.982225002858">
        <ele>72.8</ele>
        <time>2017-12-12T18:12:18Z</time>
      </trkpt>
      <trkpt lat="62.636263744923" lon="17.982302535433">
        <ele>72.8</ele>
        <time>2017-12-12T18:12:19Z</time>
      </trkpt>
      <trkpt lat="62.636266427131" lon="17.982365734959">
        <ele>72.8</ele>
        <time>2017-12-12T18:12:20Z</time>
      </trkpt>
      <trkpt lat="62.636272797375" lon="17.982442680801">
        <ele>72.8</ele>
        <time>2017-12-12T18:12:21Z</time>
      </trkpt>
      <trkpt lat="62.636271288633" lon="17.982509903639">
        <ele>72.8</ele>
        <time>2017-12-12T18:12:22Z</time>
      </trkpt>
      <trkpt lat="62.636273803203" lon="17.982569834224">
        <ele>72.6</ele>
        <time>2017-12-12T18:12:23Z</time>
      </trkpt>
      <trkpt lat="62.636282268922" lon="17.982641667107">
        <ele>72.6</ele>
        <time>2017-12-12T18:12:24Z</time>
      </trkpt>
      <trkpt lat="62.636276904506" lon="17.982726156659">
        <ele>72.6</ele>
        <time>2017-12-12T18:12:25Z</time>
      </trkpt>
      <trkpt lat="62.636278748524" lon="17.982801258483">
        <ele>72.6</ele>
        <time>2017-12-12T18:12:26Z</time>
      </trkpt>
      <trkpt lat="62.636286376053" lon="17.982848616218">
        <ele>72.6</ele>
        <time>2017-12-12T18:12:27Z</time>
      </trkpt>
      <trkpt lat="62.636282855655" lon="17.982911815744">
        <ele>72.6</ele>
        <time>2017-12-12T18:12:28Z</time>
      </trkpt>
      <trkpt lat="62.63628830389" lon="17.982967387741">
        <ele>72.6</ele>
        <time>2017-12-12T18:12:29Z</time>
      </trkpt>
      <trkpt lat="62.636294003582" lon="17.98303033581">
        <ele>72.6</ele>
        <time>2017-12-12T18:12:30Z</time>
      </trkpt>
      <trkpt lat="62.636292746297" lon="17.983092110413">
        <ele>72.8</ele>
        <time>2017-12-12T18:12:31Z</time>
      </trkpt>
      <trkpt lat="62.636290064089" lon="17.983151118989">
        <ele>72.8</ele>
        <time>2017-12-12T18:12:32Z</time>
      </trkpt>
      <trkpt lat="62.63629500941" lon="17.983215240524">
        <ele>72.8</ele>
        <time>2017-12-12T18:12:33Z</time>
      </trkpt>
      <trkpt lat="62.636289393537" lon="17.983261340974">
        <ele>73</ele>
        <time>2017-12-12T18:12:34Z</time>
      </trkpt>
      <trkpt lat="62.636286543691" lon="17.983335856065">
        <ele>73</ele>
        <time>2017-12-12T18:12:35Z</time>
      </trkpt>
      <trkpt lat="62.636279251438" lon="17.98339662484">
        <ele>73</ele>
        <time>2017-12-12T18:12:36Z</time>
      </trkpt>
      <trkpt lat="62.636277072144" lon="17.983440797453">
        <ele>73</ele>
        <time>2017-12-12T18:12:37Z</time>
      </trkpt>
      <trkpt lat="62.636269444615" lon="17.983496285631">
        <ele>73</ele>
        <time>2017-12-12T18:12:38Z</time>
      </trkpt>
      <trkpt lat="62.636262739095" lon="17.983555797121">
        <ele>73</ele>
        <time>2017-12-12T18:12:39Z</time>
      </trkpt>
      <trkpt lat="62.63625058534" lon="17.983615224792">
        <ele>73</ele>
        <time>2017-12-12T18:12:40Z</time>
      </trkpt>
      <trkpt lat="62.6362455562" lon="17.983653362437">
        <ele>73.2</ele>
        <time>2017-12-12T18:12:41Z</time>
      </trkpt>
      <trkpt lat="62.636241281431" lon="17.983706838959">
        <ele>73.2</ele>
        <time>2017-12-12T18:12:42Z</time>
      </trkpt>
      <trkpt lat="62.636235833196" lon="17.983763919698">
        <ele>73.4</ele>
        <time>2017-12-12T18:12:43Z</time>
      </trkpt>
      <trkpt lat="62.636228038029" lon="17.983817060944">
        <ele>73.6</ele>
        <time>2017-12-12T18:12:44Z</time>
      </trkpt>
      <trkpt lat="62.63622292507" lon="17.983856204417">
        <ele>73.6</ele>
        <time>2017-12-12T18:12:45Z</time>
      </trkpt>
      <trkpt lat="62.636210016944" lon="17.983920577409">
        <ele>73.6</ele>
        <time>2017-12-12T18:12:46Z</time>
      </trkpt>
      <trkpt lat="62.636197360275" lon="17.983974305388">
        <ele>73.6</ele>
        <time>2017-12-12T18:12:47Z</time>
      </trkpt>
      <trkpt lat="62.636193923696" lon="17.984021830761">
        <ele>73.6</ele>
        <time>2017-12-12T18:12:48Z</time>
      </trkpt>
      <trkpt lat="62.636184116873" lon="17.984081928984">
        <ele>73.8</ele>
        <time>2017-12-12T18:12:49Z</time>
      </trkpt>
      <trkpt lat="62.636180680294" lon="17.984147559261">
        <ele>73.6</ele>
        <time>2017-12-12T18:12:50Z</time>
      </trkpt>
      <trkpt lat="62.636174645326" lon="17.984193240616">
        <ele>73.8</ele>
        <time>2017-12-12T18:12:51Z</time>
      </trkpt>
      <trkpt lat="62.63617095729" lon="17.984231210623">
        <ele>73.8</ele>
        <time>2017-12-12T18:12:52Z</time>
      </trkpt>
      <trkpt lat="62.636167269254" lon="17.984284100412">
        <ele>74</ele>
        <time>2017-12-12T18:12:53Z</time>
      </trkpt>
      <trkpt lat="62.63615754625" lon="17.984348976318">
        <ele>74</ele>
        <time>2017-12-12T18:12:54Z</time>
      </trkpt>
      <trkpt lat="62.636161401924" lon="17.984384347936">
        <ele>74.2</ele>
        <time>2017-12-12T18:12:55Z</time>
      </trkpt>
      <trkpt lat="62.636156372784" lon="17.98445525881">
        <ele>74.4</ele>
        <time>2017-12-12T18:12:56Z</time>
      </trkpt>
      <trkpt lat="62.63615419349" lon="17.98451225573">
        <ele>74.4</ele>
        <time>2017-12-12T18:12:57Z</time>
      </trkpt>
      <trkpt lat="62.636158635897" lon="17.984542933484">
        <ele>74.4</ele>
        <time>2017-12-12T18:12:58Z</time>
      </trkpt>
      <trkpt lat="62.636152014196" lon="17.984594733626">
        <ele>74.4</ele>
        <time>2017-12-12T18:12:59Z</time>
      </trkpt>
      <trkpt lat="62.636142375011" lon="17.984649802709">
        <ele>74.6</ele>
        <time>2017-12-12T18:13:00Z</time>
      </trkpt>
      <trkpt lat="62.636142039735" lon="17.984687605078">
        <ele>74.8</ele>
        <time>2017-12-12T18:13:01Z</time>
      </trkpt>
      <trkpt lat="62.636140950088" lon="17.984742171247">
        <ele>74.8</ele>
        <time>2017-12-12T18:13:02Z</time>
      </trkpt>
      <trkpt lat="62.636138519337" lon="17.984793971389">
        <ele>75</ele>
        <time>2017-12-12T18:13:03Z</time>
      </trkpt>
      <trkpt lat="62.636139189889" lon="17.984849962481">
        <ele>75</ele>
        <time>2017-12-12T18:13:04Z</time>
      </trkpt>
      <trkpt lat="62.636136759138" lon="17.984880137321">
        <ele>75.2</ele>
        <time>2017-12-12T18:13:05Z</time>
      </trkpt>
      <trkpt lat="62.636132232912" lon="17.984930596359">
        <ele>75</ele>
        <time>2017-12-12T18:13:06Z</time>
      </trkpt>
      <trkpt lat="62.636122677546" lon="17.984982564139">
        <ele>75</ele>
        <time>2017-12-12T18:13:07Z</time>
      </trkpt>
      <trkpt lat="62.636124940659" lon="17.985016175558">
        <ele>75</ele>
        <time>2017-12-12T18:13:08Z</time>
      </trkpt>
      <trkpt lat="62.636125024478" lon="17.985065880225">
        <ele>75</ele>
        <time>2017-12-12T18:13:09Z</time>
      </trkpt>
      <trkpt lat="62.636128377238" lon="17.985121284584">
        <ele>75.2</ele>
        <time>2017-12-12T18:13:10Z</time>
      </trkpt>
      <trkpt lat="62.636125946487" lon="17.985165624835">
        <ele>75.4</ele>
        <time>2017-12-12T18:13:11Z</time>
      </trkpt>
      <trkpt lat="62.636118570415" lon="17.98521130619">
        <ele>75.4</ele>
        <time>2017-12-12T18:13:12Z</time>
      </trkpt>
      <trkpt lat="62.636115720569" lon="17.985266878187">
        <ele>75.6</ele>
        <time>2017-12-12T18:13:13Z</time>
      </trkpt>
      <trkpt lat="62.636111697257" lon="17.985313649189">
        <ele>75.8</ele>
        <time>2017-12-12T18:13:14Z</time>
      </trkpt>
      <trkpt lat="62.636108595954" lon="17.985347176789">
        <ele>75.8</ele>
        <time>2017-12-12T18:13:15Z</time>
      </trkpt>
      <trkpt lat="62.636104069728" lon="17.985394953619">
        <ele>76</ele>
        <time>2017-12-12T18:13:16Z</time>
      </trkpt>
      <trkpt lat="62.636103985909" lon="17.985442562811">
        <ele>76.2</ele>
        <time>2017-12-12T18:13:17Z</time>
      </trkpt>
      <trkpt lat="62.636102141891" lon="17.985466535045">
        <ele>76.2</ele>
        <time>2017-12-12T18:13:18Z</time>
      </trkpt>
      <trkpt lat="62.636093759991" lon="17.985533003512">
        <ele>76.2</ele>
        <time>2017-12-12T18:13:19Z</time>
      </trkpt>
      <trkpt lat="62.636093676172" lon="17.985578265772">
        <ele>76.4</ele>
        <time>2017-12-12T18:13:20Z</time>
      </trkpt>
      <trkpt lat="62.636093173258" lon="17.985608189155">
        <ele>76.4</ele>
        <time>2017-12-12T18:13:21Z</time>
      </trkpt>
      <trkpt lat="62.636082192969" lon="17.985682620427">
        <ele>76.4</ele>
        <time>2017-12-12T18:13:22Z</time>
      </trkpt>
      <trkpt lat="62.636076409458" lon="17.985727212135">
        <ele>76.4</ele>
        <time>2017-12-12T18:13:23Z</time>
      </trkpt>
      <trkpt lat="62.63607205087" lon="17.98577624625">
        <ele>76.4</ele>
        <time>2017-12-12T18:13:24Z</time>
      </trkpt>
      <trkpt lat="62.636059058925" lon="17.985824693632">
        <ele>76.6</ele>
        <time>2017-12-12T18:13:25Z</time>
      </trkpt>
      <trkpt lat="62.636042043668" lon="17.985862747458">
        <ele>76.6</ele>
        <time>2017-12-12T18:13:26Z</time>
      </trkpt>
      <trkpt lat="62.636026201877" lon="17.985897532343">
        <ele>76.6</ele>
        <time>2017-12-12T18:13:27Z</time>
      </trkpt>
      <trkpt lat="62.636012707018" lon="17.985918570912">
        <ele>76.8</ele>
        <time>2017-12-12T18:13:28Z</time>
      </trkpt>
      <trkpt lat="62.635986639309" lon="17.985955786548">
        <ele>76.8</ele>
        <time>2017-12-12T18:13:29Z</time>
      </trkpt>
      <trkpt lat="62.635961325971" lon="17.985981518981">
        <ele>77</ele>
        <time>2017-12-12T18:13:30Z</time>
      </trkpt>
      <trkpt lat="62.635950010406" lon="17.985998282781">
        <ele>77</ele>
        <time>2017-12-12T18:13:31Z</time>
      </trkpt>
      <trkpt lat="62.635930648217" lon="17.986018566979">
        <ele>77</ele>
        <time>2017-12-12T18:13:32Z</time>
      </trkpt>
      <trkpt lat="62.635909106734" lon="17.98603105601">
        <ele>77.2</ele>
        <time>2017-12-12T18:13:33Z</time>
      </trkpt>
      <trkpt lat="62.635887313794" lon="17.986049160914">
        <ele>77.2</ele>
        <time>2017-12-12T18:13:34Z</time>
      </trkpt>
      <trkpt lat="62.635878764256" lon="17.986058632461">
        <ele>77.2</ele>
        <time>2017-12-12T18:13:35Z</time>
      </trkpt>
      <trkpt lat="62.635851774538" lon="17.986072378777">
        <ele>77.2</ele>
        <time>2017-12-12T18:13:36Z</time>
      </trkpt>
      <trkpt lat="62.635811876694" lon="17.986096351011">
        <ele>77.4</ele>
        <time>2017-12-12T18:13:37Z</time>
      </trkpt>
      <trkpt lat="62.635815397092" lon="17.986112108983">
        <ele>77.4</ele>
        <time>2017-12-12T18:13:38Z</time>
      </trkpt>
      <trkpt lat="62.635788155917" lon="17.986133147552">
        <ele>77.4</ele>
        <time>2017-12-12T18:13:39Z</time>
      </trkpt>
      <trkpt lat="62.635766195339" lon="17.986167597161">
        <ele>77.4</ele>
        <time>2017-12-12T18:13:40Z</time>
      </trkpt>
      <trkpt lat="62.635753622489" lon="17.986192491404">
        <ele>77.6</ele>
        <time>2017-12-12T18:13:41Z</time>
      </trkpt>
      <trkpt lat="62.635744067123" lon="17.986219984036">
        <ele>77.8</ele>
        <time>2017-12-12T18:13:42Z</time>
      </trkpt>
      <trkpt lat="62.635725291667" lon="17.986243453356">
        <ele>77.8</ele>
        <time>2017-12-12T18:13:43Z</time>
      </trkpt>
      <trkpt lat="62.635711545351" lon="17.986282680648">
        <ele>78</ele>
        <time>2017-12-12T18:13:44Z</time>
      </trkpt>
      <trkpt lat="62.635698134311" lon="17.986318471361">
        <ele>78.2</ele>
        <time>2017-12-12T18:13:45Z</time>
      </trkpt>
      <trkpt lat="62.63568732166" lon="17.986340096663">
        <ele>78.2</ele>
        <time>2017-12-12T18:13:46Z</time>
      </trkpt>
      <trkpt lat="62.635669300575" lon="17.986372283159">
        <ele>78.4</ele>
        <time>2017-12-12T18:13:47Z</time>
      </trkpt>
      <trkpt lat="62.635652788232" lon="17.986411342813">
        <ele>78.6</ele>
        <time>2017-12-12T18:13:48Z</time>
      </trkpt>
      <trkpt lat="62.6356504413" lon="17.986452749399">
        <ele>78.8</ele>
        <time>2017-12-12T18:13:49Z</time>
      </trkpt>
      <trkpt lat="62.635621356107" lon="17.986515865106">
        <ele>78.8</ele>
        <time>2017-12-12T18:13:50Z</time>
      </trkpt>
      <trkpt lat="62.635618003347" lon="17.986564647764">
        <ele>79</ele>
        <time>2017-12-12T18:13:51Z</time>
      </trkpt>
      <trkpt lat="62.635610962551" lon="17.986599600287">
        <ele>79.2</ele>
        <time>2017-12-12T18:13:52Z</time>
      </trkpt>
      <trkpt lat="62.635592354733" lon="17.986643018529">
        <ele>79.2</ele>
        <time>2017-12-12T18:13:53Z</time>
      </trkpt>
      <trkpt lat="62.635594617846" lon="17.986688867522">
        <ele>79.2</ele>
        <time>2017-12-12T18:13:54Z</time>
      </trkpt>
      <trkpt lat="62.635579111331" lon="17.986725412606">
        <ele>79.2</ele>
        <time>2017-12-12T18:13:55Z</time>
      </trkpt>
      <trkpt lat="62.63557835696" lon="17.98677201597">
        <ele>79.2</ele>
        <time>2017-12-12T18:13:56Z</time>
      </trkpt>
      <trkpt lat="62.635551283423" lon="17.986811159443">
        <ele>79.2</ele>
        <time>2017-12-12T18:13:57Z</time>
      </trkpt>
      <trkpt lat="62.635536782736" lon="17.986857008436">
        <ele>79.4</ele>
        <time>2017-12-12T18:13:58Z</time>
      </trkpt>
      <trkpt lat="62.635525886266" lon="17.986898917936">
        <ele>79.6</ele>
        <time>2017-12-12T18:13:59Z</time>
      </trkpt>
      <trkpt lat="62.635503590412" lon="17.986934289554">
        <ele>79.8</ele>
        <time>2017-12-12T18:14:00Z</time>
      </trkpt>
      <trkpt lat="62.635482300386" lon="17.986989274818">
        <ele>79.8</ele>
        <time>2017-12-12T18:14:01Z</time>
      </trkpt>
      <trkpt lat="62.635466458595" lon="17.987013498509">
        <ele>80</ele>
        <time>2017-12-12T18:14:02Z</time>
      </trkpt>
      <trkpt lat="62.635450030071" lon="17.987044008625">
        <ele>80.2</ele>
        <time>2017-12-12T18:14:03Z</time>
      </trkpt>
      <trkpt lat="62.635428572407" lon="17.987090863446">
        <ele>80.2</ele>
        <time>2017-12-12T18:14:04Z</time>
      </trkpt>
      <trkpt lat="62.635404181078" lon="17.987121792657">
        <ele>80.2</ele>
        <time>2017-12-12T18:14:05Z</time>
      </trkpt>
      <trkpt lat="62.63538389688" lon="17.987148614737">
        <ele>80.4</ele>
        <time>2017-12-12T18:14:06Z</time>
      </trkpt>
      <trkpt lat="62.635374592971" lon="17.987183064346">
        <ele>80.4</ele>
        <time>2017-12-12T18:14:07Z</time>
      </trkpt>
      <trkpt lat="62.635357829171" lon="17.987209383512">
        <ele>80.4</ele>
        <time>2017-12-12T18:14:08Z</time>
      </trkpt>
      <trkpt lat="62.635334695127" lon="17.987253891401">
        <ele>80.4</ele>
        <time>2017-12-12T18:14:09Z</time>
      </trkpt>
      <trkpt lat="62.635319942983" lon="17.987297644919">
        <ele>80.6</ele>
        <time>2017-12-12T18:14:10Z</time>
      </trkpt>
      <trkpt lat="62.635307286314" lon="17.987323880266">
        <ele>80.6</ele>
        <time>2017-12-12T18:14:11Z</time>
      </trkpt>
      <trkpt lat="62.635291444523" lon="17.987370399811">
        <ele>80.6</ele>
        <time>2017-12-12T18:14:12Z</time>
      </trkpt>
      <trkpt lat="62.635269651583" lon="17.987406693438">
        <ele>80.8</ele>
        <time>2017-12-12T18:14:13Z</time>
      </trkpt>
      <trkpt lat="62.635263113701" lon="17.987446004549">
        <ele>80.8</ele>
        <time>2017-12-12T18:14:14Z</time>
      </trkpt>
      <trkpt lat="62.635239309105" lon="17.987483052547">
        <ele>80.8</ele>
        <time>2017-12-12T18:14:15Z</time>
      </trkpt>
      <trkpt lat="62.635223132038" lon="17.987509120256">
        <ele>81</ele>
        <time>2017-12-12T18:14:16Z</time>
      </trkpt>
      <trkpt lat="62.635202344926" lon="17.987535271784">
        <ele>81</ele>
        <time>2017-12-12T18:14:17Z</time>
      </trkpt>
      <trkpt lat="62.635191699913" lon="17.987560668941">
        <ele>81</ele>
        <time>2017-12-12T18:14:18Z</time>
      </trkpt>
      <trkpt lat="62.635175271389" lon="17.987588748306">
        <ele>81</ele>
        <time>2017-12-12T18:14:19Z</time>
      </trkpt>
      <trkpt lat="62.635154568096" lon="17.987624036105">
        <ele>81.2</ele>
        <time>2017-12-12T18:14:20Z</time>
      </trkpt>
      <trkpt lat="62.635139564495" lon="17.987651696375">
        <ele>81.4</ele>
        <time>2017-12-12T18:14:21Z</time>
      </trkpt>
      <trkpt lat="62.635129422396" lon="17.987676003885">
        <ele>81.4</ele>
        <time>2017-12-12T18:14:22Z</time>
      </trkpt>
      <trkpt lat="62.635116011356" lon="17.987697126273">
        <ele>81.6</ele>
        <time>2017-12-12T18:14:23Z</time>
      </trkpt>
      <trkpt lat="62.635094888968" lon="17.987735766832">
        <ele>81.6</ele>
        <time>2017-12-12T18:14:24Z</time>
      </trkpt>
      <trkpt lat="62.635068318345" lon="17.987765857853">
        <ele>81.8</ele>
        <time>2017-12-12T18:14:25Z</time>
      </trkpt>
      <trkpt lat="62.635058846798" lon="17.987787231698">
        <ele>82</ele>
        <time>2017-12-12T18:14:26Z</time>
      </trkpt>
      <trkpt lat="62.635040574256" lon="17.987816316891">
        <ele>82.2</ele>
        <time>2017-12-12T18:14:27Z</time>
      </trkpt>
      <trkpt lat="62.635021631162" lon="17.987835511442">
        <ele>82.2</ele>
        <time>2017-12-12T18:14:28Z</time>
      </trkpt>
      <trkpt lat="62.635005286457" lon="17.98786836849">
        <ele>82.2</ele>
        <time>2017-12-12T18:14:29Z</time>
      </trkpt>
      <trkpt lat="62.634992797426" lon="17.987894268561">
        <ele>82.4</ele>
        <time>2017-12-12T18:14:30Z</time>
      </trkpt>
      <trkpt lat="62.634967232631" lon="17.987926287419">
        <ele>82.4</ele>
        <time>2017-12-12T18:14:31Z</time>
      </trkpt>
      <trkpt lat="62.634946613157" lon="17.987953528594">
        <ele>82.4</ele>
        <time>2017-12-12T18:14:32Z</time>
      </trkpt>
      <trkpt lat="62.634938315076" lon="17.987972052593">
        <ele>82.6</ele>
        <time>2017-12-12T18:14:33Z</time>
      </trkpt>
      <trkpt lat="62.634921299819" lon="17.987995270456">
        <ele>82.6</ele>
        <time>2017-12-12T18:14:34Z</time>
      </trkpt>
      <trkpt lat="62.634900680345" lon="17.988023182183">
        <ele>82.6</ele>
        <time>2017-12-12T18:14:35Z</time>
      </trkpt>
      <trkpt lat="62.634881653432" lon="17.98804690296">
        <ele>82.8</ele>
        <time>2017-12-12T18:14:36Z</time>
      </trkpt>
      <trkpt lat="62.634867068926" lon="17.988057547973">
        <ele>83</ele>
        <time>2017-12-12T18:14:37Z</time>
      </trkpt>
      <trkpt lat="62.634855166628" lon="17.988076993981">
        <ele>83.2</ele>
        <time>2017-12-12T18:14:38Z</time>
      </trkpt>
      <trkpt lat="62.634840246846" lon="17.988091829944">
        <ele>83.4</ele>
        <time>2017-12-12T18:14:39Z</time>
      </trkpt>
      <trkpt lat="62.634815352603" lon="17.988109599572">
        <ele>83.6</ele>
        <time>2017-12-12T18:14:40Z</time>
      </trkpt>
      <trkpt lat="62.634789033437" lon="17.98812569282">
        <ele>83.8</ele>
        <time>2017-12-12T18:14:41Z</time>
      </trkpt>
      <trkpt lat="62.634773359284" lon="17.988134242358">
        <ele>83.8</ele>
        <time>2017-12-12T18:14:42Z</time>
      </trkpt>
      <trkpt lat="62.634745699014" lon="17.988145055009">
        <ele>84</ele>
        <time>2017-12-12T18:14:43Z</time>
      </trkpt>
      <trkpt lat="62.634719044572" lon="17.98814748576">
        <ele>84.2</ele>
        <time>2017-12-12T18:14:44Z</time>
      </trkpt>
      <trkpt lat="62.634694234148" lon="17.988151928167">
        <ele>84.2</ele>
        <time>2017-12-12T18:14:45Z</time>
      </trkpt>
      <trkpt lat="62.634681577479" lon="17.988154358918">
        <ele>84.4</ele>
        <time>2017-12-12T18:14:46Z</time>
      </trkpt>
      <trkpt lat="62.634660958005" lon="17.988155616203">
        <ele>84.4</ele>
        <time>2017-12-12T18:14:47Z</time>
      </trkpt>
      <trkpt lat="62.634641595816" lon="17.988162321723">
        <ele>84.4</ele>
        <time>2017-12-12T18:14:48Z</time>
      </trkpt>
      <trkpt lat="62.634617623582" lon="17.988174140202">
        <ele>84.4</ele>
        <time>2017-12-12T18:14:49Z</time>
      </trkpt>
      <trkpt lat="62.634586694371" lon="17.988179085523">
        <ele>84.6</ele>
        <time>2017-12-12T18:14:50Z</time>
      </trkpt>
      <trkpt lat="62.634565739621" lon="17.988179420799">
        <ele>84.6</ele>
        <time>2017-12-12T18:14:51Z</time>
      </trkpt>
      <trkpt lat="62.634547634717" lon="17.988181935369">
        <ele>84.8</ele>
        <time>2017-12-12T18:14:52Z</time>
      </trkpt>
      <trkpt lat="62.634530116546" lon="17.988190065812">
        <ele>84.8</ele>
        <time>2017-12-12T18:14:53Z</time>
      </trkpt>
      <trkpt lat="62.634513771841" lon="17.988188724708">
        <ele>84.8</ele>
        <time>2017-12-12T18:14:54Z</time>
      </trkpt>
      <trkpt lat="62.634490637797" lon="17.988193334753">
        <ele>84.8</ele>
        <time>2017-12-12T18:14:55Z</time>
      </trkpt>
      <trkpt lat="62.634467084658" lon="17.988202471024">
        <ele>85</ele>
        <time>2017-12-12T18:14:56Z</time>
      </trkpt>
      <trkpt lat="62.634443363881" lon="17.988209763277">
        <ele>85</ele>
        <time>2017-12-12T18:14:57Z</time>
      </trkpt>
      <trkpt lat="62.634428695556" lon="17.98821454096">
        <ele>85.2</ele>
        <time>2017-12-12T18:14:58Z</time>
      </trkpt>
      <trkpt lat="62.634405393874" lon="17.98821621734">
        <ele>85.2</ele>
        <time>2017-12-12T18:14:59Z</time>
      </trkpt>
      <trkpt lat="62.634383433296" lon="17.988229460742">
        <ele>85.2</ele>
        <time>2017-12-12T18:15:00Z</time>
      </trkpt>
      <trkpt lat="62.634365076935" lon="17.988234573701">
        <ele>85.4</ele>
        <time>2017-12-12T18:15:01Z</time>
      </trkpt>
      <trkpt lat="62.634340182692" lon="17.988227868181">
        <ele>85.4</ele>
        <time>2017-12-12T18:15:02Z</time>
      </trkpt>
      <trkpt lat="62.634321155779" lon="17.988232813502">
        <ele>85.6</ele>
        <time>2017-12-12T18:15:03Z</time>
      </trkpt>
      <trkpt lat="62.634288801645" lon="17.988239435203">
        <ele>85.6</ele>
        <time>2017-12-12T18:15:04Z</time>
      </trkpt>
      <trkpt lat="62.634256279873" lon="17.988235663348">
        <ele>85.6</ele>
        <time>2017-12-12T18:15:05Z</time>
      </trkpt>
      <trkpt lat="62.634268098352" lon="17.988239267565">
        <ele>85.8</ele>
        <time>2017-12-12T18:15:06Z</time>
      </trkpt>
      <trkpt lat="62.634227529956" lon="17.988229712199">
        <ele>86</ele>
        <time>2017-12-12T18:15:07Z</time>
      </trkpt>
      <trkpt lat="62.634200121143" lon="17.988225940344">
        <ele>86</ele>
        <time>2017-12-12T18:15:08Z</time>
      </trkpt>
      <trkpt lat="62.634166845" lon="17.98821454096">
        <ele>86</ele>
        <time>2017-12-12T18:15:09Z</time>
      </trkpt>
      <trkpt lat="62.634135915789" lon="17.988200627006">
        <ele>85.8</ele>
        <time>2017-12-12T18:15:10Z</time>
      </trkpt>
      <trkpt lat="62.634122840025" lon="17.988197693341">
        <ele>86</ele>
        <time>2017-12-12T18:15:11Z</time>
      </trkpt>
      <trkpt lat="62.634091156443" lon="17.98818939526">
        <ele>86</ele>
        <time>2017-12-12T18:15:12Z</time>
      </trkpt>
      <trkpt lat="62.634063915268" lon="17.988170452166">
        <ele>86</ele>
        <time>2017-12-12T18:15:13Z</time>
      </trkpt>
      <trkpt lat="62.634029633297" lon="17.988165003931">
        <ele>86</ele>
        <time>2017-12-12T18:15:14Z</time>
      </trkpt>
      <trkpt lat="62.633999709914" lon="17.988151173796">
        <ele>86</ele>
        <time>2017-12-12T18:15:15Z</time>
      </trkpt>
      <trkpt lat="62.633964673572" lon="17.988125022268">
        <ele>86</ele>
        <time>2017-12-12T18:15:16Z</time>
      </trkpt>
      <trkpt lat="62.633943970279" lon="17.988109683391">
        <ele>86</ele>
        <time>2017-12-12T18:15:17Z</time>
      </trkpt>
      <trkpt lat="62.633923686081" lon="17.988085375881">
        <ele>86</ele>
        <time>2017-12-12T18:15:18Z</time>
      </trkpt>
      <trkpt lat="62.633901474046" lon="17.988061487466">
        <ele>86.2</ele>
        <time>2017-12-12T18:15:19Z</time>
      </trkpt>
      <trkpt lat="62.633871466844" lon="17.988044975123">
        <ele>86.2</ele>
        <time>2017-12-12T18:15:20Z</time>
      </trkpt>
      <trkpt lat="62.633849925361" lon="17.988029971522">
        <ele>86.4</ele>
        <time>2017-12-12T18:15:21Z</time>
      </trkpt>
      <trkpt lat="62.633826288403" lon="17.988008094763">
        <ele>86.6</ele>
        <time>2017-12-12T18:15:22Z</time>
      </trkpt>
      <trkpt lat="62.633805082196" lon="17.987986469461">
        <ele>86.8</ele>
        <time>2017-12-12T18:15:23Z</time>
      </trkpt>
      <trkpt lat="62.633782367247" lon="17.987978590475">
        <ele>87</ele>
        <time>2017-12-12T18:15:24Z</time>
      </trkpt>
      <trkpt lat="62.633748420552" lon="17.987954450603">
        <ele>87</ele>
        <time>2017-12-12T18:15:25Z</time>
      </trkpt>
      <trkpt lat="62.6337226043" lon="17.987932825301">
        <ele>87</ele>
        <time>2017-12-12T18:15:26Z</time>
      </trkpt>
      <trkpt lat="62.633694273478" lon="17.987917067329">
        <ele>87.2</ele>
        <time>2017-12-12T18:15:27Z</time>
      </trkpt>
      <trkpt lat="62.633666864665" lon="17.987895609665">
        <ele>87</ele>
        <time>2017-12-12T18:15:28Z</time>
      </trkpt>
      <trkpt lat="62.633632498875" lon="17.987867697938">
        <ele>87.2</ele>
        <time>2017-12-12T18:15:29Z</time>
      </trkpt>
      <trkpt lat="62.633608778098" lon="17.987845234446">
        <ele>87.4</ele>
        <time>2017-12-12T18:15:30Z</time>
      </trkpt>
      <trkpt lat="62.633589415909" lon="17.987824447334">
        <ele>87.4</ele>
        <time>2017-12-12T18:15:31Z</time>
      </trkpt>
      <trkpt lat="62.633567958245" lon="17.987804079317">
        <ele>87.6</ele>
        <time>2017-12-12T18:15:32Z</time>
      </trkpt>
      <trkpt lat="62.633551864997" lon="17.987780693816">
        <ele>87.6</ele>
        <time>2017-12-12T18:15:33Z</time>
      </trkpt>
      <trkpt lat="62.633530826428" lon="17.987754039374">
        <ele>87.8</ele>
        <time>2017-12-12T18:15:34Z</time>
      </trkpt>
      <trkpt lat="62.633503249977" lon="17.98772839076">
        <ele>88</ele>
        <time>2017-12-12T18:15:35Z</time>
      </trkpt>
      <trkpt lat="62.63347450006" lon="17.987692767685">
        <ele>88</ele>
        <time>2017-12-12T18:15:36Z</time>
      </trkpt>
      <trkpt lat="62.633448935265" lon="17.98765882099">
        <ele>88.2</ele>
        <time>2017-12-12T18:15:37Z</time>
      </trkpt>
      <trkpt lat="62.633435775682" lon="17.987639961715">
        <ele>88.2</ele>
        <time>2017-12-12T18:15:38Z</time>
      </trkpt>
      <trkpt lat="62.633411132896" lon="17.987595453826">
        <ele>88.4</ele>
        <time>2017-12-12T18:15:39Z</time>
      </trkpt>
      <trkpt lat="62.633389926689" lon="17.987560501303">
        <ele>88.4</ele>
        <time>2017-12-12T18:15:40Z</time>
      </trkpt>
      <trkpt lat="62.633370732138" lon="17.987525213504">
        <ele>88.6</ele>
        <time>2017-12-12T18:15:41Z</time>
      </trkpt>
      <trkpt lat="62.633357907831" lon="17.987494032836">
        <ele>88.6</ele>
        <time>2017-12-12T18:15:42Z</time>
      </trkpt>
      <trkpt lat="62.633342149859" lon="17.987459918503">
        <ele>88.6</ele>
        <time>2017-12-12T18:15:43Z</time>
      </trkpt>
      <trkpt lat="62.633312813209" lon="17.98741239313">
        <ele>88.8</ele>
        <time>2017-12-12T18:15:44Z</time>
      </trkpt>
      <trkpt lat="62.633304850404" lon="17.987374506942">
        <ele>89</ele>
        <time>2017-12-12T18:15:45Z</time>
      </trkpt>
      <trkpt lat="62.633279117971" lon="17.987309966312">
        <ele>89.4</ele>
        <time>2017-12-12T18:15:46Z</time>
      </trkpt>
      <trkpt lat="62.633258498497" lon="17.987260596921">
        <ele>89.8</ele>
        <time>2017-12-12T18:15:47Z</time>
      </trkpt>
      <trkpt lat="62.633230167675" lon="17.987173676618">
        <ele>89.8</ele>
        <time>2017-12-12T18:15:48Z</time>
      </trkpt>
      <trkpt lat="62.633198567912" lon="17.987069321963">
        <ele>89.8</ele>
        <time>2017-12-12T18:15:49Z</time>
      </trkpt>
      <trkpt lat="62.633169734176" lon="17.986977707796">
        <ele>89.4</ele>
        <time>2017-12-12T18:15:50Z</time>
      </trkpt>
      <trkpt lat="62.63314509139" lon="17.986866982897">
        <ele>88.4</ele>
        <time>2017-12-12T18:15:51Z</time>
      </trkpt>
      <trkpt lat="62.633122711717" lon="17.986773021798">
        <ele>88</ele>
        <time>2017-12-12T18:15:52Z</time>
      </trkpt>
      <trkpt lat="62.633120448604" lon="17.986705547503">
        <ele>87.6</ele>
        <time>2017-12-12T18:15:53Z</time>
      </trkpt>
      <trkpt lat="62.633104103899" lon="17.986612676051">
        <ele>87.2</ele>
        <time>2017-12-12T18:15:54Z</time>
      </trkpt>
      <trkpt lat="62.633094129438" lon="17.986518295857">
        <ele>87</ele>
        <time>2017-12-12T18:15:55Z</time>
      </trkpt>
      <trkpt lat="62.633085328443" lon="17.986436488513">
        <ele>87</ele>
        <time>2017-12-12T18:15:56Z</time>
      </trkpt>
      <trkpt lat="62.633072504136" lon="17.98636214106">
        <ele>87</ele>
        <time>2017-12-12T18:15:57Z</time>
      </trkpt>
      <trkpt lat="62.633073761421" lon="17.986287206874">
        <ele>87</ele>
        <time>2017-12-12T18:15:58Z</time>
      </trkpt>
      <trkpt lat="62.633066720625" lon="17.98615510813">
        <ele>87.2</ele>
        <time>2017-12-12T18:15:59Z</time>
      </trkpt>
      <trkpt lat="62.633051046472" lon="17.986065254162">
        <ele>87.2</ele>
        <time>2017-12-12T18:16:00Z</time>
      </trkpt>
      <trkpt lat="62.633045430599" lon="17.985958636394">
        <ele>87</ele>
        <time>2017-12-12T18:16:01Z</time>
      </trkpt>
      <trkpt lat="62.633032522473" lon="17.985885881502">
        <ele>86.8</ele>
        <time>2017-12-12T18:16:02Z</time>
      </trkpt>
      <trkpt lat="62.63304869954" lon="17.985803403606">
        <ele>86.4</ele>
        <time>2017-12-12T18:16:03Z</time>
      </trkpt>
      <trkpt lat="62.633050124463" lon="17.985688655395">
        <ele>86.2</ele>
        <time>2017-12-12T18:16:04Z</time>
      </trkpt>
      <trkpt lat="62.633059931286" lon="17.985602070368">
        <ele>85.6</ele>
        <time>2017-12-12T18:16:05Z</time>
      </trkpt>
      <trkpt lat="62.633071163032" lon="17.985522107042">
        <ele>85.6</ele>
        <time>2017-12-12T18:16:06Z</time>
      </trkpt>
      <trkpt lat="62.63308306533" lon="17.985449100693">
        <ele>85.6</ele>
        <time>2017-12-12T18:16:07Z</time>
      </trkpt>
      <trkpt lat="62.633096560189" lon="17.985351451558">
        <ele>85.4</ele>
        <time>2017-12-12T18:16:08Z</time>
      </trkpt>
      <trkpt lat="62.633110557962" lon="17.985201918462">
        <ele>85.2</ele>
        <time>2017-12-12T18:16:09Z</time>
      </trkpt>
      <trkpt lat="62.633119610414" lon="17.985071747555">
        <ele>85</ele>
        <time>2017-12-12T18:16:10Z</time>
      </trkpt>
      <trkpt lat="62.633132937635" lon="17.984955490602">
        <ele>84.4</ele>
        <time>2017-12-12T18:16:11Z</time>
      </trkpt>
      <trkpt lat="62.633152970376" lon="17.984839568925">
        <ele>83.4</ele>
        <time>2017-12-12T18:16:12Z</time>
      </trkpt>
      <trkpt lat="62.633170488547" lon="17.984747954758">
        <ele>82.8</ele>
        <time>2017-12-12T18:16:13Z</time>
      </trkpt>
      <trkpt lat="62.633190688926" lon="17.984654496573">
        <ele>82.2</ele>
        <time>2017-12-12T18:16:14Z</time>
      </trkpt>
      <trkpt lat="62.633201166301" lon="17.984561625121">
        <ele>81.8</ele>
        <time>2017-12-12T18:16:15Z</time>
      </trkpt>
      <trkpt lat="62.63322388125" lon="17.984488367315">
        <ele>81.2</ele>
        <time>2017-12-12T18:16:16Z</time>
      </trkpt>
      <trkpt lat="62.633241567059" lon="17.984412008206">
        <ele>81</ele>
        <time>2017-12-12T18:16:17Z</time>
      </trkpt>
      <trkpt lat="62.633242991982" lon="17.984338163667">
        <ele>81.2</ele>
        <time>2017-12-12T18:16:18Z</time>
      </trkpt>
      <trkpt lat="62.633245338914" lon="17.984252835925">
        <ele>81.4</ele>
        <time>2017-12-12T18:16:19Z</time>
      </trkpt>
      <trkpt lat="62.633247602027" lon="17.984170106572">
        <ele>81.6</ele>
        <time>2017-12-12T18:16:20Z</time>
      </trkpt>
      <trkpt lat="62.633237962842" lon="17.984081928984">
        <ele>81.8</ele>
        <time>2017-12-12T18:16:21Z</time>
      </trkpt>
      <trkpt lat="62.63324399781" lon="17.984011437205">
        <ele>82.2</ele>
        <time>2017-12-12T18:16:22Z</time>
      </trkpt>
      <trkpt lat="62.633254139909" lon="17.983948572955">
        <ele>82.2</ele>
        <time>2017-12-12T18:16:23Z</time>
      </trkpt>
      <trkpt lat="62.633268389139" lon="17.983883697049">
        <ele>82.2</ele>
        <time>2017-12-12T18:16:24Z</time>
      </trkpt>
      <trkpt lat="62.633274005012" lon="17.983816641849">
        <ele>82.2</ele>
        <time>2017-12-12T18:16:25Z</time>
      </trkpt>
      <trkpt lat="62.63330183292" lon="17.983743132586">
        <ele>82.2</ele>
        <time>2017-12-12T18:16:26Z</time>
      </trkpt>
      <trkpt lat="62.633308873716" lon="17.983664175088">
        <ele>82.4</ele>
        <time>2017-12-12T18:16:27Z</time>
      </trkpt>
      <trkpt lat="62.63331692034" lon="17.983606088521">
        <ele>82.2</ele>
        <time>2017-12-12T18:16:28Z</time>
      </trkpt>
      <trkpt lat="62.633340976393" lon="17.983522940073">
        <ele>82.4</ele>
        <time>2017-12-12T18:16:29Z</time>
      </trkpt>
      <trkpt lat="62.63333619871" lon="17.983439623987">
        <ele>82.4</ele>
        <time>2017-12-12T18:16:30Z</time>
      </trkpt>
      <trkpt lat="62.633347430456" lon="17.983376340642">
        <ele>82.4</ele>
        <time>2017-12-12T18:16:31Z</time>
      </trkpt>
      <trkpt lat="62.633356734365" lon="17.983305765044">
        <ele>82.6</ele>
        <time>2017-12-12T18:16:32Z</time>
      </trkpt>
      <trkpt lat="62.633372324699" lon="17.983244577174">
        <ele>82.6</ele>
        <time>2017-12-12T18:16:33Z</time>
      </trkpt>
      <trkpt lat="62.633383891721" lon="17.983179449811">
        <ele>82.6</ele>
        <time>2017-12-12T18:16:34Z</time>
      </trkpt>
      <trkpt lat="62.63340073934" lon="17.983117759027">
        <ele>82.6</ele>
        <time>2017-12-12T18:16:35Z</time>
      </trkpt>
      <trkpt lat="62.633409037421" lon="17.983055732967">
        <ele>82.6</ele>
        <time>2017-12-12T18:16:36Z</time>
      </trkpt>
      <trkpt lat="62.633412893095" lon="17.982983983903">
        <ele>82.6</ele>
        <time>2017-12-12T18:16:37Z</time>
      </trkpt>
      <trkpt lat="62.633434015483" lon="17.982922293119">
        <ele>82.6</ele>
        <time>2017-12-12T18:16:38Z</time>
      </trkpt>
      <trkpt lat="62.633455556966" lon="17.982871834081">
        <ele>82.6</ele>
        <time>2017-12-12T18:16:39Z</time>
      </trkpt>
      <trkpt lat="62.633494868077" lon="17.982801090845">
        <ele>82.4</ele>
        <time>2017-12-12T18:16:40Z</time>
      </trkpt>
      <trkpt lat="62.633528228039" lon="17.982745099753">
        <ele>82.4</ele>
        <time>2017-12-12T18:16:41Z</time>
      </trkpt>
      <trkpt lat="62.633531580799" lon="17.982681564951">
        <ele>82.4</ele>
        <time>2017-12-12T18:16:42Z</time>
      </trkpt>
      <trkpt lat="62.633541890536" lon="17.982614006837">
        <ele>82.6</ele>
        <time>2017-12-12T18:16:43Z</time>
      </trkpt>
      <trkpt lat="62.633550272436" lon="17.982527673267">
        <ele>82.6</ele>
        <time>2017-12-12T18:16:44Z</time>
      </trkpt>
      <trkpt lat="62.633558235241" lon="17.982471011623">
        <ele>82.6</ele>
        <time>2017-12-12T18:16:45Z</time>
      </trkpt>
      <trkpt lat="62.633559660164" lon="17.982432790159">
        <ele>82.6</ele>
        <time>2017-12-12T18:16:46Z</time>
      </trkpt>
      <trkpt lat="62.633561923277" lon="17.982364226217">
        <ele>82.6</ele>
        <time>2017-12-12T18:16:47Z</time>
      </trkpt>
      <trkpt lat="62.63356167182" lon="17.982289878764">
        <ele>82.4</ele>
        <time>2017-12-12T18:16:48Z</time>
      </trkpt>
      <trkpt lat="62.633562342372" lon="17.982224164668">
        <ele>82.4</ele>
        <time>2017-12-12T18:16:49Z</time>
      </trkpt>
      <trkpt lat="62.633574915222" lon="17.982158785848">
        <ele>82.6</ele>
        <time>2017-12-12T18:16:50Z</time>
      </trkpt>
      <trkpt lat="62.633572735928" lon="17.982088629345">
        <ele>82.6</ele>
        <time>2017-12-12T18:16:51Z</time>
      </trkpt>
      <trkpt lat="62.633565359856" lon="17.982014198073">
        <ele>82.8</ele>
        <time>2017-12-12T18:16:52Z</time>
      </trkpt>
      <trkpt lat="62.633580112" lon="17.981982682129">
        <ele>82.8</ele>
        <time>2017-12-12T18:16:53Z</time>
      </trkpt>
      <trkpt lat="62.633593858316" lon="17.981921158983">
        <ele>82.8</ele>
        <time>2017-12-12T18:16:54Z</time>
      </trkpt>
      <trkpt lat="62.633577848887" lon="17.981846224797">
        <ele>82.8</ele>
        <time>2017-12-12T18:16:55Z</time>
      </trkpt>
      <trkpt lat="62.633562258553" lon="17.981782354719">
        <ele>83</ele>
        <time>2017-12-12T18:16:56Z</time>
      </trkpt>
      <trkpt lat="62.63355748087" lon="17.98172108303">
        <ele>82.8</ele>
        <time>2017-12-12T18:16:57Z</time>
      </trkpt>
      <trkpt lat="62.633559743983" lon="17.981659476065">
        <ele>82.8</ele>
        <time>2017-12-12T18:16:58Z</time>
      </trkpt>
      <trkpt lat="62.633568628797" lon="17.981585044793">
        <ele>83</ele>
        <time>2017-12-12T18:16:59Z</time>
      </trkpt>
      <trkpt lat="62.633571813919" lon="17.98152410838">
        <ele>82.8</ele>
        <time>2017-12-12T18:17:00Z</time>
      </trkpt>
      <trkpt lat="62.633579692905" lon="17.981448168366">
        <ele>82.8</ele>
        <time>2017-12-12T18:17:01Z</time>
      </trkpt>
      <trkpt lat="62.633600060922" lon="17.981394524206">
        <ele>82.8</ele>
        <time>2017-12-12T18:17:02Z</time>
      </trkpt>
      <trkpt lat="62.633618165826" lon="17.981346579738">
        <ele>83</ele>
        <time>2017-12-12T18:17:03Z</time>
      </trkpt>
      <trkpt lat="62.633626966821" lon="17.981279524538">
        <ele>83</ele>
        <time>2017-12-12T18:17:04Z</time>
      </trkpt>
      <trkpt lat="62.633646496648" lon="17.98122403636">
        <ele>83</ele>
        <time>2017-12-12T18:17:05Z</time>
      </trkpt>
      <trkpt lat="62.633653705082" lon="17.981160250101">
        <ele>83</ele>
        <time>2017-12-12T18:17:06Z</time>
      </trkpt>
      <trkpt lat="62.633668289588" lon="17.98111423347">
        <ele>83</ele>
        <time>2017-12-12T18:17:07Z</time>
      </trkpt>
      <trkpt lat="62.63368656213" lon="17.981056985093">
        <ele>83</ele>
        <time>2017-12-12T18:17:08Z</time>
      </trkpt>
      <trkpt lat="62.633700140808" lon="17.980999569078">
        <ele>83.2</ele>
        <time>2017-12-12T18:17:09Z</time>
      </trkpt>
      <trkpt lat="62.633720257368" lon="17.980945086728">
        <ele>83.4</ele>
        <time>2017-12-12T18:17:10Z</time>
      </trkpt>
      <trkpt lat="62.633734590417" lon="17.980897309898">
        <ele>83.6</ele>
        <time>2017-12-12T18:17:11Z</time>
      </trkpt>
      <trkpt lat="62.633755545167" lon="17.980839810064">
        <ele>83.6</ele>
        <time>2017-12-12T18:17:12Z</time>
      </trkpt>
      <trkpt lat="62.633773901528" lon="17.980801337143">
        <ele>83.8</ele>
        <time>2017-12-12T18:17:13Z</time>
      </trkpt>
      <trkpt lat="62.63379301226" lon="17.980744088766">
        <ele>83.6</ele>
        <time>2017-12-12T18:17:14Z</time>
      </trkpt>
      <trkpt lat="62.633819163788" lon="17.980682314163">
        <ele>83.8</ele>
        <time>2017-12-12T18:17:15Z</time>
      </trkpt>
      <trkpt lat="62.633830060258" lon="17.980640907577">
        <ele>84</ele>
        <time>2017-12-12T18:17:16Z</time>
      </trkpt>
      <trkpt lat="62.633847578429" lon="17.980582066639">
        <ele>84</ele>
        <time>2017-12-12T18:17:17Z</time>
      </trkpt>
      <trkpt lat="62.633872388853" lon="17.980529595945">
        <ele>84</ele>
        <time>2017-12-12T18:17:18Z</time>
      </trkpt>
      <trkpt lat="62.633903485702" lon="17.980456673415">
        <ele>84.2</ele>
        <time>2017-12-12T18:17:19Z</time>
      </trkpt>
      <trkpt lat="62.63392041714" lon="17.980409818594">
        <ele>84.2</ele>
        <time>2017-12-12T18:17:20Z</time>
      </trkpt>
      <trkpt lat="62.633944808469" lon="17.980353743683">
        <ele>84.2</ele>
        <time>2017-12-12T18:17:21Z</time>
      </trkpt>
      <trkpt lat="62.633963332468" lon="17.980312840011">
        <ele>84.4</ele>
        <time>2017-12-12T18:17:22Z</time>
      </trkpt>
      <trkpt lat="62.63397909044" lon="17.980267913027">
        <ele>84.4</ele>
        <time>2017-12-12T18:17:23Z</time>
      </trkpt>
      <trkpt lat="62.634001218656" lon="17.980232876685">
        <ele>84.4</ele>
        <time>2017-12-12T18:17:24Z</time>
      </trkpt>
      <trkpt lat="62.634028292193" lon="17.980188368796">
        <ele>84.6</ele>
        <time>2017-12-12T18:17:25Z</time>
      </trkpt>
      <trkpt lat="62.634052432065" lon="17.980125001632">
        <ele>84.6</ele>
        <time>2017-12-12T18:17:26Z</time>
      </trkpt>
      <trkpt lat="62.634074476462" lon="17.98008661253">
        <ele>84.6</ele>
        <time>2017-12-12T18:17:27Z</time>
      </trkpt>
      <trkpt lat="62.634106411501" lon="17.980036572587">
        <ele>84.8</ele>
        <time>2017-12-12T18:17:28Z</time>
      </trkpt>
      <trkpt lat="62.634125522233" lon="17.980005475738">
        <ele>84.6</ele>
        <time>2017-12-12T18:17:29Z</time>
      </trkpt>
      <trkpt lat="62.63414002292" lon="17.979940348375">
        <ele>84.6</ele>
        <time>2017-12-12T18:17:30Z</time>
      </trkpt>
      <trkpt lat="62.634160893851" lon="17.979874382822">
        <ele>84.6</ele>
        <time>2017-12-12T18:17:31Z</time>
      </trkpt>
      <trkpt lat="62.634169191932" lon="17.979805567423">
        <ele>84.4</ele>
        <time>2017-12-12T18:17:32Z</time>
      </trkpt>
      <trkpt lat="62.634173969615" lon="17.979762819733">
        <ele>84.4</ele>
        <time>2017-12-12T18:17:33Z</time>
      </trkpt>
      <trkpt lat="62.634180507497" lon="17.979696351266">
        <ele>84.4</ele>
        <time>2017-12-12T18:17:34Z</time>
      </trkpt>
      <trkpt lat="62.634192158338" lon="17.979643545296">
        <ele>84.4</ele>
        <time>2017-12-12T18:17:35Z</time>
      </trkpt>
      <trkpt lat="62.634216717305" lon="17.979585458729">
        <ele>84.4</ele>
        <time>2017-12-12T18:17:36Z</time>
      </trkpt>
      <trkpt lat="62.634229122517" lon="17.979515218407">
        <ele>84.4</ele>
        <time>2017-12-12T18:17:37Z</time>
      </trkpt>
      <trkpt lat="62.634239180797" lon="17.979463502084">
        <ele>84.4</ele>
        <time>2017-12-12T18:17:38Z</time>
      </trkpt>
      <trkpt lat="62.634257872434" lon="17.979410109381">
        <ele>84.4</ele>
        <time>2017-12-12T18:17:39Z</time>
      </trkpt>
      <trkpt lat="62.634272205483" lon="17.979352693366">
        <ele>84.4</ele>
        <time>2017-12-12T18:17:40Z</time>
      </trkpt>
      <trkpt lat="62.634283185772" lon="17.979288404193">
        <ele>84.4</ele>
        <time>2017-12-12T18:17:41Z</time>
      </trkpt>
      <trkpt lat="62.634293579328" lon="17.979222773916">
        <ele>84.4</ele>
        <time>2017-12-12T18:17:42Z</time>
      </trkpt>
      <trkpt lat="62.634306906549" lon="17.979181032054">
        <ele>84.4</ele>
        <time>2017-12-12T18:17:43Z</time>
      </trkpt>
      <trkpt lat="62.634321742512" lon="17.979127052618">
        <ele>84.6</ele>
        <time>2017-12-12T18:17:44Z</time>
      </trkpt>
      <trkpt lat="62.634336243199" lon="17.979066367662">
        <ele>84.6</ele>
        <time>2017-12-12T18:17:45Z</time>
      </trkpt>
      <trkpt lat="62.634351665895" lon="17.979007275267">
        <ele>84.6</ele>
        <time>2017-12-12T18:17:46Z</time>
      </trkpt>
      <trkpt lat="62.634360299252" lon="17.978941058257">
        <ele>84.6</ele>
        <time>2017-12-12T18:17:47Z</time>
      </trkpt>
      <trkpt lat="62.634376476319" lon="17.978881965862">
        <ele>84.6</ele>
        <time>2017-12-12T18:17:48Z</time>
      </trkpt>
      <trkpt lat="62.634393407757" lon="17.978819017793">
        <ele>84.6</ele>
        <time>2017-12-12T18:17:49Z</time>
      </trkpt>
      <trkpt lat="62.634399191268" lon="17.97874299396">
        <ele>84.6</ele>
        <time>2017-12-12T18:17:50Z</time>
      </trkpt>
      <trkpt lat="62.634401202924" lon="17.97867593876">
        <ele>84.4</ele>
        <time>2017-12-12T18:17:51Z</time>
      </trkpt>
      <trkpt lat="62.634413189041" lon="17.97860888356">
        <ele>84.6</ele>
        <time>2017-12-12T18:17:52Z</time>
      </trkpt>
      <trkpt lat="62.634430539574" lon="17.978545348758">
        <ele>84.4</ele>
        <time>2017-12-12T18:17:53Z</time>
      </trkpt>
      <trkpt lat="62.634433976153" lon="17.978463709052">
        <ele>84.6</ele>
        <time>2017-12-12T18:17:54Z</time>
      </trkpt>
      <trkpt lat="62.634438502379" lon="17.978388691047">
        <ele>84.4</ele>
        <time>2017-12-12T18:17:55Z</time>
      </trkpt>
      <trkpt lat="62.634451159048" lon="17.978303614762">
        <ele>84.4</ele>
        <time>2017-12-12T18:17:56Z</time>
      </trkpt>
      <trkpt lat="62.63446607883" lon="17.978213341699">
        <ele>84.2</ele>
        <time>2017-12-12T18:17:57Z</time>
      </trkpt>
      <trkpt lat="62.63446104969" lon="17.978142263187">
        <ele>84.2</ele>
        <time>2017-12-12T18:17:58Z</time>
      </trkpt>
      <trkpt lat="62.634480914793" lon="17.978071352313">
        <ele>84</ele>
        <time>2017-12-12T18:17:59Z</time>
      </trkpt>
      <trkpt lat="62.634494493471" lon="17.977971607703">
        <ele>84</ele>
        <time>2017-12-12T18:18:00Z</time>
      </trkpt>
      <trkpt lat="62.634505976674" lon="17.977884603581">
        <ele>83.8</ele>
        <time>2017-12-12T18:18:01Z</time>
      </trkpt>
      <trkpt lat="62.634517040782" lon="17.977817967476">
        <ele>83.8</ele>
        <time>2017-12-12T18:18:02Z</time>
      </trkpt>
      <trkpt lat="62.634525255044" lon="17.977748816801">
        <ele>83.8</ele>
        <time>2017-12-12T18:18:03Z</time>
      </trkpt>
      <trkpt lat="62.634522405198" lon="17.977659717204">
        <ele>83.6</ele>
        <time>2017-12-12T18:18:04Z</time>
      </trkpt>
      <trkpt lat="62.634536570609" lon="17.977588135778">
        <ele>83.4</ele>
        <time>2017-12-12T18:18:05Z</time>
      </trkpt>
      <trkpt lat="62.634544701052" lon="17.977516554352">
        <ele>83.2</ele>
        <time>2017-12-12T18:18:06Z</time>
      </trkpt>
      <trkpt lat="62.634556854807" lon="17.977447906591">
        <ele>83</ele>
        <time>2017-12-12T18:18:07Z</time>
      </trkpt>
      <trkpt lat="62.634567835096" lon="17.977370960749">
        <ele>83</ele>
        <time>2017-12-12T18:18:08Z</time>
      </trkpt>
      <trkpt lat="62.634577139005" lon="17.977310275793">
        <ele>82.8</ele>
        <time>2017-12-12T18:18:09Z</time>
      </trkpt>
      <trkpt lat="62.63459348371" lon="17.977237269444">
        <ele>82.6</ele>
        <time>2017-12-12T18:18:10Z</time>
      </trkpt>
      <trkpt lat="62.634598680488" lon="17.977183373827">
        <ele>82.4</ele>
        <time>2017-12-12T18:18:11Z</time>
      </trkpt>
      <trkpt lat="62.634613851727" lon="17.977126628364">
        <ele>82.4</ele>
        <time>2017-12-12T18:18:12Z</time>
      </trkpt>
      <trkpt lat="62.63462952588" lon="17.977063596476">
        <ele>82.4</ele>
        <time>2017-12-12T18:18:13Z</time>
      </trkpt>
      <trkpt lat="62.634655090675" lon="17.97697189849">
        <ele>82.4</ele>
        <time>2017-12-12T18:18:14Z</time>
      </trkpt>
      <trkpt lat="62.634687780085" lon="17.976905932937">
        <ele>82.6</ele>
        <time>2017-12-12T18:18:15Z</time>
      </trkpt>
      <trkpt lat="62.63470244841" lon="17.976841895221">
        <ele>82.8</ele>
        <time>2017-12-12T18:18:16Z</time>
      </trkpt>
      <trkpt lat="62.634709070111" lon="17.976768469777">
        <ele>82.6</ele>
        <time>2017-12-12T18:18:17Z</time>
      </trkpt>
      <trkpt lat="62.63471837402" lon="17.976701749853">
        <ele>82.6</ele>
        <time>2017-12-12T18:18:18Z</time>
      </trkpt>
      <trkpt lat="62.634735389277" lon="17.976614158998">
        <ele>82.4</ele>
        <time>2017-12-12T18:18:19Z</time>
      </trkpt>
      <trkpt lat="62.634752655991" lon="17.976539057174">
        <ele>82.4</ele>
        <time>2017-12-12T18:18:20Z</time>
      </trkpt>
      <trkpt lat="62.634772437275" lon="17.976475522372">
        <ele>82.2</ele>
        <time>2017-12-12T18:18:21Z</time>
      </trkpt>
      <trkpt lat="62.634790877455" lon="17.976410227371">
        <ele>82.2</ele>
        <time>2017-12-12T18:18:22Z</time>
      </trkpt>
      <trkpt lat="62.634805713418" lon="17.976357002306">
        <ele>82.2</ele>
        <time>2017-12-12T18:18:23Z</time>
      </trkpt>
      <trkpt lat="62.634823063951" lon="17.976295143884">
        <ele>82.2</ele>
        <time>2017-12-12T18:18:24Z</time>
      </trkpt>
      <trkpt lat="62.634847203823" lon="17.976228172503">
        <ele>82</ele>
        <time>2017-12-12T18:18:25Z</time>
      </trkpt>
      <trkpt lat="62.634873020075" lon="17.976155082335">
        <ele>82</ele>
        <time>2017-12-12T18:18:26Z</time>
      </trkpt>
      <trkpt lat="62.634893136635" lon="17.976073191172">
        <ele>81.8</ele>
        <time>2017-12-12T18:18:27Z</time>
      </trkpt>
      <trkpt lat="62.634909146064" lon="17.976003369945">
        <ele>81.8</ele>
        <time>2017-12-12T18:18:28Z</time>
      </trkpt>
      <trkpt lat="62.634916605955" lon="17.975929609225">
        <ele>81.4</ele>
        <time>2017-12-12T18:18:29Z</time>
      </trkpt>
      <trkpt lat="62.634934040307" lon="17.975843275655">
        <ele>81.4</ele>
        <time>2017-12-12T18:18:30Z</time>
      </trkpt>
      <trkpt lat="62.634948624813" lon="17.975757277361">
        <ele>81.2</ele>
        <time>2017-12-12T18:18:31Z</time>
      </trkpt>
      <trkpt lat="62.634972177952" lon="17.975674715646">
        <ele>81.2</ele>
        <time>2017-12-12T18:18:32Z</time>
      </trkpt>
      <trkpt lat="62.634995228177" lon="17.975597853623">
        <ele>81</ele>
        <time>2017-12-12T18:18:33Z</time>
      </trkpt>
      <trkpt lat="62.635014422728" lon="17.975520572505">
        <ele>81</ele>
        <time>2017-12-12T18:18:34Z</time>
      </trkpt>
      <trkpt lat="62.635016266746" lon="17.975482183403">
        <ele>80.6</ele>
        <time>2017-12-12T18:18:35Z</time>
      </trkpt>
      <trkpt lat="62.635028588139" lon="17.975388725218">
        <ele>80.4</ele>
        <time>2017-12-12T18:18:36Z</time>
      </trkpt>
      <trkpt lat="62.635038814057" lon="17.975316054145">
        <ele>80.4</ele>
        <time>2017-12-12T18:18:37Z</time>
      </trkpt>
      <trkpt lat="62.635052979468" lon="17.97523349243">
        <ele>80.4</ele>
        <time>2017-12-12T18:18:38Z</time>
      </trkpt>
      <trkpt lat="62.635053314744" lon="17.975159061158">
        <ele>80.4</ele>
        <time>2017-12-12T18:18:39Z</time>
      </trkpt>
      <trkpt lat="62.635020290058" lon="17.975052611028">
        <ele>80.4</ele>
        <time>2017-12-12T18:18:40Z</time>
      </trkpt>
      <trkpt lat="62.635004364448" lon="17.974982454525">
        <ele>80.2</ele>
        <time>2017-12-12T18:18:41Z</time>
      </trkpt>
      <trkpt lat="62.634989360847" lon="17.974914309678">
        <ele>80.2</ele>
        <time>2017-12-12T18:18:42Z</time>
      </trkpt>
      <trkpt lat="62.634966813536" lon="17.974837196198">
        <ele>80</ele>
        <time>2017-12-12T18:18:43Z</time>
      </trkpt>
      <trkpt lat="62.634948121899" lon="17.974778858174">
        <ele>80</ele>
        <time>2017-12-12T18:18:44Z</time>
      </trkpt>
      <trkpt lat="62.634937309248" lon="17.974702247608">
        <ele>79.8</ele>
        <time>2017-12-12T18:18:45Z</time>
      </trkpt>
      <trkpt lat="62.634918449973" lon="17.974606358672">
        <ele>79.4</ele>
        <time>2017-12-12T18:18:46Z</time>
      </trkpt>
      <trkpt lat="62.634904536019" lon="17.974515582695">
        <ele>79</ele>
        <time>2017-12-12T18:18:47Z</time>
      </trkpt>
      <trkpt lat="62.634892214626" lon="17.974446934934">
        <ele>78.8</ele>
        <time>2017-12-12T18:18:48Z</time>
      </trkpt>
      <trkpt lat="62.634873271532" lon="17.974366720151">
        <ele>78.6</ele>
        <time>2017-12-12T18:18:49Z</time>
      </trkpt>
      <trkpt lat="62.634854496076" lon="17.974297653295">
        <ele>78.2</ele>
        <time>2017-12-12T18:18:50Z</time>
      </trkpt>
      <trkpt lat="62.634817615716" lon="17.974232442113">
        <ele>78</ele>
        <time>2017-12-12T18:18:51Z</time>
      </trkpt>
      <trkpt lat="62.634805210504" lon="17.974165219275">
        <ele>77.8</ele>
        <time>2017-12-12T18:18:52Z</time>
      </trkpt>
      <trkpt lat="62.634769838886" lon="17.974108138536">
        <ele>77.6</ele>
        <time>2017-12-12T18:18:53Z</time>
      </trkpt>
      <trkpt lat="62.634742597711" lon="17.974037730576">
        <ele>77.6</ele>
        <time>2017-12-12T18:18:54Z</time>
      </trkpt>
      <trkpt lat="62.634726169187" lon="17.97397369286">
        <ele>77.6</ele>
        <time>2017-12-12T18:18:55Z</time>
      </trkpt>
      <trkpt lat="62.634698173641" lon="17.973899764502">
        <ele>77.6</ele>
        <time>2017-12-12T18:18:56Z</time>
      </trkpt>
      <trkpt lat="62.634658694892" lon="17.973829272723">
        <ele>77.4</ele>
        <time>2017-12-12T18:18:57Z</time>
      </trkpt>
      <trkpt lat="62.634634890296" lon="17.973778059314">
        <ele>77.6</ele>
        <time>2017-12-12T18:18:58Z</time>
      </trkpt>
      <trkpt lat="62.634615779564" lon="17.97370295749">
        <ele>77.4</ele>
        <time>2017-12-12T18:18:59Z</time>
      </trkpt>
      <trkpt lat="62.63459096914" lon="17.973620563413">
        <ele>77.2</ele>
        <time>2017-12-12T18:19:00Z</time>
      </trkpt>
      <trkpt lat="62.63457671991" lon="17.973554849317">
        <ele>77.2</ele>
        <time>2017-12-12T18:19:01Z</time>
      </trkpt>
      <trkpt lat="62.63457085258" lon="17.973473461068">
        <ele>77</ele>
        <time>2017-12-12T18:19:02Z</time>
      </trkpt>
      <trkpt lat="62.634558531187" lon="17.973397940149">
        <ele>77</ele>
        <time>2017-12-12T18:19:03Z</time>
      </trkpt>
      <trkpt lat="62.634565488164" lon="17.97332241923">
        <ele>77</ele>
        <time>2017-12-12T18:19:04Z</time>
      </trkpt>
      <trkpt lat="62.634570601123" lon="17.973244048465">
        <ele>76.8</ele>
        <time>2017-12-12T18:19:05Z</time>
      </trkpt>
      <trkpt lat="62.634567583639" lon="17.973142711294">
        <ele>76.8</ele>
        <time>2017-12-12T18:19:06Z</time>
      </trkpt>
      <trkpt lat="62.634555429884" lon="17.973079008854">
        <ele>76.6</ele>
        <time>2017-12-12T18:19:07Z</time>
      </trkpt>
      <trkpt lat="62.634583928344" lon="17.973000973365">
        <ele>76.6</ele>
        <time>2017-12-12T18:19:08Z</time>
      </trkpt>
      <trkpt lat="62.634615947202" lon="17.972924362799">
        <ele>76.4</ele>
        <time>2017-12-12T18:19:09Z</time>
      </trkpt>
      <trkpt lat="62.634650229173" lon="17.972831575166">
        <ele>76.4</ele>
        <time>2017-12-12T18:19:10Z</time>
      </trkpt>
      <trkpt lat="62.634668166439" lon="17.972759742283">
        <ele>76.4</ele>
        <time>2017-12-12T18:19:11Z</time>
      </trkpt>
      <trkpt lat="62.634696078166" lon="17.972686484477">
        <ele>76.2</ele>
        <time>2017-12-12T18:19:12Z</time>
      </trkpt>
      <trkpt lat="62.634716194726" lon="17.972618004354">
        <ele>76</ele>
        <time>2017-12-12T18:19:13Z</time>
      </trkpt>
      <trkpt lat="62.634728180843" lon="17.972549524231">
        <ele>76</ele>
        <time>2017-12-12T18:19:14Z</time>
      </trkpt>
      <trkpt lat="62.634756344027" lon="17.972487917266">
        <ele>76</ele>
        <time>2017-12-12T18:19:15Z</time>
      </trkpt>
      <trkpt lat="62.634784088116" lon="17.972427902862">
        <ele>75.6</ele>
        <time>2017-12-12T18:19:16Z</time>
      </trkpt>
      <trkpt lat="62.634807808893" lon="17.972348777726">
        <ele>75.6</ele>
        <time>2017-12-12T18:19:17Z</time>
      </trkpt>
      <trkpt lat="62.634814011499" lon="17.972282476897">
        <ele>75.4</ele>
        <time>2017-12-12T18:19:18Z</time>
      </trkpt>
      <trkpt lat="62.634844856891" lon="17.972218606819">
        <ele>75</ele>
        <time>2017-12-12T18:19:19Z</time>
      </trkpt>
      <trkpt lat="62.634866649831" lon="17.972125148634">
        <ele>75</ele>
        <time>2017-12-12T18:19:20Z</time>
      </trkpt>
      <trkpt lat="62.634889700056" lon="17.972069157542">
        <ele>75</ele>
        <time>2017-12-12T18:19:21Z</time>
      </trkpt>
      <trkpt lat="62.63491115772" lon="17.971968071828">
        <ele>74.8</ele>
        <time>2017-12-12T18:19:22Z</time>
      </trkpt>
      <trkpt lat="62.63492875971" lon="17.971875954747">
        <ele>74.6</ele>
        <time>2017-12-12T18:19:23Z</time>
      </trkpt>
      <trkpt lat="62.634944601501" lon="17.971754752473">
        <ele>74</ele>
        <time>2017-12-12T18:19:24Z</time>
      </trkpt>
      <trkpt lat="62.634959688921" lon="17.971630281258">
        <ele>73.2</ele>
        <time>2017-12-12T18:19:25Z</time>
      </trkpt>
      <trkpt lat="62.634971675038" lon="17.971525758965">
        <ele>72.6</ele>
        <time>2017-12-12T18:19:26Z</time>
      </trkpt>
      <trkpt lat="62.634986762458" lon="17.971413441505">
        <ele>72</ele>
        <time>2017-12-12T18:19:27Z</time>
      </trkpt>
      <trkpt lat="62.634999670584" lon="17.971309673583">
        <ele>71.4</ele>
        <time>2017-12-12T18:19:28Z</time>
      </trkpt>
      <trkpt lat="62.635011405244" lon="17.97119341663">
        <ele>70.8</ele>
        <time>2017-12-12T18:19:29Z</time>
      </trkpt>
      <trkpt lat="62.63502347518" lon="17.971071795261">
        <ele>70.4</ele>
        <time>2017-12-12T18:19:30Z</time>
      </trkpt>
      <trkpt lat="62.635034958383" lon="17.970960483629">
        <ele>70.2</ele>
        <time>2017-12-12T18:19:31Z</time>
      </trkpt>
      <trkpt lat="62.635048453242" lon="17.970848585264">
        <ele>69.8</ele>
        <time>2017-12-12T18:19:32Z</time>
      </trkpt>
      <trkpt lat="62.635059349712" lon="17.970745739351">
        <ele>69.4</ele>
        <time>2017-12-12T18:19:33Z</time>
      </trkpt>
      <trkpt lat="62.635069324173" lon="17.970633840986">
        <ele>69</ele>
        <time>2017-12-12T18:19:34Z</time>
      </trkpt>
      <trkpt lat="62.635076364969" lon="17.97053040834">
        <ele>68.6</ele>
        <time>2017-12-12T18:19:35Z</time>
      </trkpt>
      <trkpt lat="62.63509388314" lon="17.970407110591">
        <ele>68.2</ele>
        <time>2017-12-12T18:19:36Z</time>
      </trkpt>
      <trkpt lat="62.635111149854" lon="17.970288841982">
        <ele>67.8</ele>
        <time>2017-12-12T18:19:37Z</time>
      </trkpt>
      <trkpt lat="62.635142833436" lon="17.970176189246">
        <ele>67.4</ele>
        <time>2017-12-12T18:19:38Z</time>
      </trkpt>
      <trkpt lat="62.635173427371" lon="17.970056663352">
        <ele>67</ele>
        <time>2017-12-12T18:19:39Z</time>
      </trkpt>
      <trkpt lat="62.635203769849" lon="17.969949877946">
        <ele>66.6</ele>
        <time>2017-12-12T18:19:40Z</time>
      </trkpt>
      <trkpt lat="62.635232687404" lon="17.96985398901">
        <ele>66</ele>
        <time>2017-12-12T18:19:41Z</time>
      </trkpt>
      <trkpt lat="62.635262946063" lon="17.969742761197">
        <ele>65.4</ele>
        <time>2017-12-12T18:19:42Z</time>
      </trkpt>
      <trkpt lat="62.63528918141" lon="17.969641256388">
        <ele>65</ele>
        <time>2017-12-12T18:19:43Z</time>
      </trkpt>
      <trkpt lat="62.635321954639" lon="17.969514605879">
        <ele>64.4</ele>
        <time>2017-12-12T18:19:44Z</time>
      </trkpt>
      <trkpt lat="62.635350620737" lon="17.96941477745">
        <ele>64</ele>
        <time>2017-12-12T18:19:45Z</time>
      </trkpt>
      <trkpt lat="62.635385321803" lon="17.969305477474">
        <ele>63.6</ele>
        <time>2017-12-12T18:19:46Z</time>
      </trkpt>
      <trkpt lat="62.635418178851" lon="17.96919600986">
        <ele>63.2</ele>
        <time>2017-12-12T18:19:47Z</time>
      </trkpt>
      <trkpt lat="62.635452041727" lon="17.969096013793">
        <ele>62.8</ele>
        <time>2017-12-12T18:19:48Z</time>
      </trkpt>
      <trkpt lat="62.635489760277" lon="17.968993000242">
        <ele>62.4</ele>
        <time>2017-12-12T18:19:49Z</time>
      </trkpt>
      <trkpt lat="62.635521024764" lon="17.9688992906">
        <ele>62</ele>
        <time>2017-12-12T18:19:50Z</time>
      </trkpt>
      <trkpt lat="62.635555139097" lon="17.968824607871">
        <ele>61.6</ele>
        <time>2017-12-12T18:19:51Z</time>
      </trkpt>
      <trkpt lat="62.635591516543" lon="17.968753864635">
        <ele>61.2</ele>
        <time>2017-12-12T18:19:52Z</time>
      </trkpt>
      <trkpt lat="62.635626888161" lon="17.968689324005">
        <ele>60.8</ele>
        <time>2017-12-12T18:19:53Z</time>
      </trkpt>
      <trkpt lat="62.63566385234" lon="17.96863442256">
        <ele>60.4</ele>
        <time>2017-12-12T18:19:54Z</time>
      </trkpt>
      <trkpt lat="62.635703498727" lon="17.968594524716">
        <ele>60</ele>
        <time>2017-12-12T18:19:55Z</time>
      </trkpt>
      <trkpt lat="62.635741720191" lon="17.968563092591">
        <ele>59.6</ele>
        <time>2017-12-12T18:19:56Z</time>
      </trkpt>
    </trkseg>
  </trk>
</gpx>